<?xml version="1.0" encoding="UTF-8" standalone="no" ?>
<gpx xmlns="http://www.topografix.com/GPX/1/1" xmlns:xsi="http://www.w3.org/2001/XMLSchema-instance" xsi:schemaLocation="http://www.topografix.com/GPX/1/1 http://www.topografix.com/GPX/1/1/gpx.xsd" version="1.1" creator="VisuGPX - https://www.visugpx.com">
  <metadata>
    <name>Pornichet 08/10/2020</name>
    <desc><![CDATA[Sortie VTT du jeudi 08 octobre 2020]]></desc>
  </metadata>
  <trk>
    <name><![CDATA[Pornichet Cyclisme]]></name>
    <trkseg>
      <trkpt lat="47.26403" lon="-2.31567">
        <ele>9.5</ele>
        <time>2020-10-08T06:59:48.000Z</time>
      </trkpt>
      <trkpt lat="47.26404" lon="-2.31583">
        <ele>9.5</ele>
        <time>2020-10-08T06:59:51.000Z</time>
      </trkpt>
      <trkpt lat="47.26404" lon="-2.31588">
        <ele>1.3999999761581</ele>
        <time>2020-10-08T06:59:52.000Z</time>
      </trkpt>
      <trkpt lat="47.26405" lon="-2.31594">
        <ele>2.7999999523163</ele>
        <time>2020-10-08T06:59:53.000Z</time>
      </trkpt>
      <trkpt lat="47.26405" lon="-2.31599">
        <ele>4</ele>
        <time>2020-10-08T06:59:54.000Z</time>
      </trkpt>
      <trkpt lat="47.26405" lon="-2.31605">
        <ele>4</ele>
        <time>2020-10-08T06:59:55.000Z</time>
      </trkpt>
      <trkpt lat="47.26408" lon="-2.31654">
        <ele>4</ele>
        <time>2020-10-08T07:00:03.000Z</time>
      </trkpt>
      <trkpt lat="47.26406" lon="-2.31663">
        <ele>4</ele>
        <time>2020-10-08T07:00:05.000Z</time>
      </trkpt>
      <trkpt lat="47.26404" lon="-2.31666">
        <ele>4</ele>
        <time>2020-10-08T07:00:06.000Z</time>
      </trkpt>
      <trkpt lat="47.26393" lon="-2.31671">
        <ele>4</ele>
        <time>2020-10-08T07:00:10.000Z</time>
      </trkpt>
      <trkpt lat="47.2638" lon="-2.31677">
        <ele>4</ele>
        <time>2020-10-08T07:00:12.000Z</time>
      </trkpt>
      <trkpt lat="47.26376" lon="-2.31678">
        <ele>4</ele>
        <time>2020-10-08T07:00:14.000Z</time>
      </trkpt>
      <trkpt lat="47.26372" lon="-2.3168">
        <ele>2.7999999523163</ele>
        <time>2020-10-08T07:00:15.000Z</time>
      </trkpt>
      <trkpt lat="47.26367" lon="-2.31683">
        <ele>1.6000000238419</ele>
        <time>2020-10-08T07:00:16.000Z</time>
      </trkpt>
      <trkpt lat="47.26363" lon="-2.31685">
        <ele>0.40000000596046</ele>
        <time>2020-10-08T07:00:17.000Z</time>
      </trkpt>
      <trkpt lat="47.2636" lon="-2.31687">
        <ele>-0.80000001192093</ele>
        <time>2020-10-08T07:00:18.000Z</time>
      </trkpt>
      <trkpt lat="47.26355" lon="-2.31689">
        <ele>-2</ele>
        <time>2020-10-08T07:00:19.000Z</time>
      </trkpt>
      <trkpt lat="47.26336" lon="-2.31699">
        <ele>-2</ele>
        <time>2020-10-08T07:00:23.000Z</time>
      </trkpt>
      <trkpt lat="47.26314" lon="-2.3171">
        <ele>-2</ele>
        <time>2020-10-08T07:00:27.000Z</time>
      </trkpt>
      <trkpt lat="47.26304" lon="-2.31712">
        <ele>-2.4000000953674</ele>
        <time>2020-10-08T07:00:29.000Z</time>
      </trkpt>
      <trkpt lat="47.263" lon="-2.3171">
        <ele>-3</ele>
        <time>2020-10-08T07:00:30.000Z</time>
      </trkpt>
      <trkpt lat="47.26297" lon="-2.31706">
        <ele>-3.4000000953674</ele>
        <time>2020-10-08T07:00:31.000Z</time>
      </trkpt>
      <trkpt lat="47.26294" lon="-2.31702">
        <ele>-3.7999999523163</ele>
        <time>2020-10-08T07:00:32.000Z</time>
      </trkpt>
      <trkpt lat="47.26291" lon="-2.31697">
        <ele>-4.4000000953674</ele>
        <time>2020-10-08T07:00:33.000Z</time>
      </trkpt>
      <trkpt lat="47.26276" lon="-2.31673">
        <ele>-4.4000000953674</ele>
        <time>2020-10-08T07:00:38.000Z</time>
      </trkpt>
      <trkpt lat="47.26274" lon="-2.31668">
        <ele>-4.4000000953674</ele>
        <time>2020-10-08T07:00:39.000Z</time>
      </trkpt>
      <trkpt lat="47.26263" lon="-2.31646">
        <ele>-4.4000000953674</ele>
        <time>2020-10-08T07:00:43.000Z</time>
      </trkpt>
      <trkpt lat="47.26254" lon="-2.3163">
        <ele>-4.4000000953674</ele>
        <time>2020-10-08T07:00:46.000Z</time>
      </trkpt>
      <trkpt lat="47.26243" lon="-2.31615">
        <ele>-4.4000000953674</ele>
        <time>2020-10-08T07:00:49.000Z</time>
      </trkpt>
      <trkpt lat="47.26229" lon="-2.31603">
        <ele>-4.4000000953674</ele>
        <time>2020-10-08T07:00:53.000Z</time>
      </trkpt>
      <trkpt lat="47.26225" lon="-2.31601">
        <ele>-4.4000000953674</ele>
        <time>2020-10-08T07:00:54.000Z</time>
      </trkpt>
      <trkpt lat="47.26216" lon="-2.31597">
        <ele>-4.4000000953674</ele>
        <time>2020-10-08T07:00:56.000Z</time>
      </trkpt>
      <trkpt lat="47.26202" lon="-2.31598">
        <ele>-4.4000000953674</ele>
        <time>2020-10-08T07:00:59.000Z</time>
      </trkpt>
      <trkpt lat="47.26197" lon="-2.31599">
        <ele>-4.4000000953674</ele>
        <time>2020-10-08T07:01:00.000Z</time>
      </trkpt>
      <trkpt lat="47.26165" lon="-2.31608">
        <ele>-4.4000000953674</ele>
        <time>2020-10-08T07:01:07.000Z</time>
      </trkpt>
      <trkpt lat="47.26145" lon="-2.31613">
        <ele>-4.4000000953674</ele>
        <time>2020-10-08T07:01:11.000Z</time>
      </trkpt>
      <trkpt lat="47.26132" lon="-2.31615">
        <ele>-4.4000000953674</ele>
        <time>2020-10-08T07:01:14.000Z</time>
      </trkpt>
      <trkpt lat="47.2611" lon="-2.31614">
        <ele>-4.4000000953674</ele>
        <time>2020-10-08T07:01:19.000Z</time>
      </trkpt>
      <trkpt lat="47.26106" lon="-2.31611">
        <ele>-4.4000000953674</ele>
        <time>2020-10-08T07:01:20.000Z</time>
      </trkpt>
      <trkpt lat="47.26097" lon="-2.31598">
        <ele>-4.4000000953674</ele>
        <time>2020-10-08T07:01:23.000Z</time>
      </trkpt>
      <trkpt lat="47.26091" lon="-2.31589">
        <ele>-4.4000000953674</ele>
        <time>2020-10-08T07:01:25.000Z</time>
      </trkpt>
      <trkpt lat="47.26083" lon="-2.31582">
        <ele>-4.4000000953674</ele>
        <time>2020-10-08T07:01:29.000Z</time>
      </trkpt>
      <trkpt lat="47.26082" lon="-2.3158">
        <ele>-4.4000000953674</ele>
        <time>2020-10-08T07:01:30.000Z</time>
      </trkpt>
      <trkpt lat="47.26074" lon="-2.31569">
        <ele>-4.4000000953674</ele>
        <time>2020-10-08T07:01:33.000Z</time>
      </trkpt>
      <trkpt lat="47.2607" lon="-2.31558">
        <ele>-4.4000000953674</ele>
        <time>2020-10-08T07:01:35.000Z</time>
      </trkpt>
      <trkpt lat="47.26058" lon="-2.31534">
        <ele>-4.4000000953674</ele>
        <time>2020-10-08T07:01:40.000Z</time>
      </trkpt>
      <trkpt lat="47.26053" lon="-2.31525">
        <ele>-4.4000000953674</ele>
        <time>2020-10-08T07:01:42.000Z</time>
      </trkpt>
      <trkpt lat="47.26046" lon="-2.31515">
        <ele>-4.4000000953674</ele>
        <time>2020-10-08T07:01:45.000Z</time>
      </trkpt>
      <trkpt lat="47.26037" lon="-2.31516">
        <ele>-4.4000000953674</ele>
        <time>2020-10-08T07:01:49.000Z</time>
      </trkpt>
      <trkpt lat="47.26032" lon="-2.31532">
        <ele>-4.4000000953674</ele>
        <time>2020-10-08T07:01:52.000Z</time>
      </trkpt>
      <trkpt lat="47.2603" lon="-2.31538">
        <ele>-4.4000000953674</ele>
        <time>2020-10-08T07:01:53.000Z</time>
      </trkpt>
      <trkpt lat="47.26029" lon="-2.31544">
        <ele>-4.4000000953674</ele>
        <time>2020-10-08T07:01:54.000Z</time>
      </trkpt>
      <trkpt lat="47.26019" lon="-2.31563">
        <ele>-4.4000000953674</ele>
        <time>2020-10-08T07:01:58.000Z</time>
      </trkpt>
      <trkpt lat="47.26016" lon="-2.31573">
        <ele>-4.4000000953674</ele>
        <time>2020-10-08T07:02:00.000Z</time>
      </trkpt>
      <trkpt lat="47.26012" lon="-2.31582">
        <ele>-4.4000000953674</ele>
        <time>2020-10-08T07:02:02.000Z</time>
      </trkpt>
      <trkpt lat="47.25997" lon="-2.31605">
        <ele>-4.4000000953674</ele>
        <time>2020-10-08T07:02:08.000Z</time>
      </trkpt>
      <trkpt lat="47.25988" lon="-2.31616">
        <ele>-4.4000000953674</ele>
        <time>2020-10-08T07:02:13.000Z</time>
      </trkpt>
      <trkpt lat="47.25988" lon="-2.31616">
        <ele>-4.4000000953674</ele>
        <time>2020-10-08T07:02:15.000Z</time>
      </trkpt>
      <trkpt lat="47.25986" lon="-2.31617">
        <ele>-4.4000000953674</ele>
        <time>2020-10-08T07:02:19.000Z</time>
      </trkpt>
      <trkpt lat="47.25984" lon="-2.31619">
        <ele>-4.4000000953674</ele>
        <time>2020-10-08T07:02:20.000Z</time>
      </trkpt>
      <trkpt lat="47.25977" lon="-2.31617">
        <ele>-4.4000000953674</ele>
        <time>2020-10-08T07:02:23.000Z</time>
      </trkpt>
      <trkpt lat="47.25974" lon="-2.31614">
        <ele>-4.4000000953674</ele>
        <time>2020-10-08T07:02:24.000Z</time>
      </trkpt>
      <trkpt lat="47.25966" lon="-2.31602">
        <ele>-4.4000000953674</ele>
        <time>2020-10-08T07:02:27.000Z</time>
      </trkpt>
      <trkpt lat="47.25961" lon="-2.31594">
        <ele>-4.4000000953674</ele>
        <time>2020-10-08T07:02:29.000Z</time>
      </trkpt>
      <trkpt lat="47.25958" lon="-2.3159">
        <ele>-3.7999999523163</ele>
        <time>2020-10-08T07:02:30.000Z</time>
      </trkpt>
      <trkpt lat="47.25956" lon="-2.31586">
        <ele>-3</ele>
        <time>2020-10-08T07:02:31.000Z</time>
      </trkpt>
      <trkpt lat="47.25953" lon="-2.31581">
        <ele>-2.5999999046326</ele>
        <time>2020-10-08T07:02:32.000Z</time>
      </trkpt>
      <trkpt lat="47.2595" lon="-2.31576">
        <ele>-2.2000000476837</ele>
        <time>2020-10-08T07:02:33.000Z</time>
      </trkpt>
      <trkpt lat="47.25948" lon="-2.3157">
        <ele>-2.2000000476837</ele>
        <time>2020-10-08T07:02:34.000Z</time>
      </trkpt>
      <trkpt lat="47.25931" lon="-2.31535">
        <ele>-2.2000000476837</ele>
        <time>2020-10-08T07:02:40.000Z</time>
      </trkpt>
      <trkpt lat="47.25927" lon="-2.3153">
        <ele>-2.2000000476837</ele>
        <time>2020-10-08T07:02:41.000Z</time>
      </trkpt>
      <trkpt lat="47.25909" lon="-2.31519">
        <ele>-2.2000000476837</ele>
        <time>2020-10-08T07:02:45.000Z</time>
      </trkpt>
      <trkpt lat="47.25898" lon="-2.31531">
        <ele>-2.2000000476837</ele>
        <time>2020-10-08T07:02:48.000Z</time>
      </trkpt>
      <trkpt lat="47.25894" lon="-2.31543">
        <ele>-2.2000000476837</ele>
        <time>2020-10-08T07:02:50.000Z</time>
      </trkpt>
      <trkpt lat="47.25889" lon="-2.31555">
        <ele>-2.2000000476837</ele>
        <time>2020-10-08T07:02:52.000Z</time>
      </trkpt>
      <trkpt lat="47.25887" lon="-2.3156">
        <ele>-2.2000000476837</ele>
        <time>2020-10-08T07:02:53.000Z</time>
      </trkpt>
      <trkpt lat="47.25883" lon="-2.31571">
        <ele>-2.2000000476837</ele>
        <time>2020-10-08T07:02:55.000Z</time>
      </trkpt>
      <trkpt lat="47.2588" lon="-2.31576">
        <ele>-1.3999999761581</ele>
        <time>2020-10-08T07:02:56.000Z</time>
      </trkpt>
      <trkpt lat="47.25877" lon="-2.3158">
        <ele>-1</ele>
        <time>2020-10-08T07:02:57.000Z</time>
      </trkpt>
      <trkpt lat="47.25873" lon="-2.31583">
        <ele>-0.60000002384186</ele>
        <time>2020-10-08T07:02:58.000Z</time>
      </trkpt>
      <trkpt lat="47.2587" lon="-2.31586">
        <ele>-0.20000000298023</ele>
        <time>2020-10-08T07:02:59.000Z</time>
      </trkpt>
      <trkpt lat="47.25849" lon="-2.31606">
        <ele>-0.20000000298023</ele>
        <time>2020-10-08T07:03:05.000Z</time>
      </trkpt>
      <trkpt lat="47.25838" lon="-2.31614">
        <ele>0.20000000298023</ele>
        <time>2020-10-08T07:03:08.000Z</time>
      </trkpt>
      <trkpt lat="47.25835" lon="-2.31617">
        <ele>0.60000002384186</ele>
        <time>2020-10-08T07:03:09.000Z</time>
      </trkpt>
      <trkpt lat="47.25832" lon="-2.31621">
        <ele>1</ele>
        <time>2020-10-08T07:03:10.000Z</time>
      </trkpt>
      <trkpt lat="47.25828" lon="-2.31624">
        <ele>1.3999999761581</ele>
        <time>2020-10-08T07:03:11.000Z</time>
      </trkpt>
      <trkpt lat="47.25824" lon="-2.31627">
        <ele>1.7999999523163</ele>
        <time>2020-10-08T07:03:12.000Z</time>
      </trkpt>
      <trkpt lat="47.25805" lon="-2.31643">
        <ele>1.7999999523163</ele>
        <time>2020-10-08T07:03:17.000Z</time>
      </trkpt>
      <trkpt lat="47.25778" lon="-2.31663">
        <ele>1.7999999523163</ele>
        <time>2020-10-08T07:03:23.000Z</time>
      </trkpt>
      <trkpt lat="47.25735" lon="-2.31696">
        <ele>1.7999999523163</ele>
        <time>2020-10-08T07:03:32.000Z</time>
      </trkpt>
      <trkpt lat="47.2573" lon="-2.31699">
        <ele>1.7999999523163</ele>
        <time>2020-10-08T07:03:33.000Z</time>
      </trkpt>
      <trkpt lat="47.2572" lon="-2.31698">
        <ele>1.7999999523163</ele>
        <time>2020-10-08T07:03:35.000Z</time>
      </trkpt>
      <trkpt lat="47.25715" lon="-2.31696">
        <ele>1.3999999761581</ele>
        <time>2020-10-08T07:03:36.000Z</time>
      </trkpt>
      <trkpt lat="47.25711" lon="-2.31694">
        <ele>1</ele>
        <time>2020-10-08T07:03:37.000Z</time>
      </trkpt>
      <trkpt lat="47.25706" lon="-2.31692">
        <ele>0.60000002384186</ele>
        <time>2020-10-08T07:03:38.000Z</time>
      </trkpt>
      <trkpt lat="47.25702" lon="-2.31689">
        <ele>0.20000000298023</ele>
        <time>2020-10-08T07:03:39.000Z</time>
      </trkpt>
      <trkpt lat="47.25698" lon="-2.31687">
        <ele>-0.40000000596046</ele>
        <time>2020-10-08T07:03:40.000Z</time>
      </trkpt>
      <trkpt lat="47.25694" lon="-2.31685">
        <ele>-0.40000000596046</ele>
        <time>2020-10-08T07:03:41.000Z</time>
      </trkpt>
      <trkpt lat="47.25674" lon="-2.31679">
        <ele>-0.40000000596046</ele>
        <time>2020-10-08T07:03:46.000Z</time>
      </trkpt>
      <trkpt lat="47.25671" lon="-2.31681">
        <ele>11.9</ele>
        <time>2020-10-08T07:03:47.000Z</time>
      </trkpt>
      <trkpt lat="47.25667" lon="-2.31683">
        <ele>0.60000002384186</ele>
        <time>2020-10-08T07:03:48.000Z</time>
      </trkpt>
      <trkpt lat="47.25664" lon="-2.31685">
        <ele>1</ele>
        <time>2020-10-08T07:03:49.000Z</time>
      </trkpt>
      <trkpt lat="47.2566" lon="-2.31686">
        <ele>1.3999999761581</ele>
        <time>2020-10-08T07:03:50.000Z</time>
      </trkpt>
      <trkpt lat="47.25657" lon="-2.31689">
        <ele>1.7999999523163</ele>
        <time>2020-10-08T07:03:51.000Z</time>
      </trkpt>
      <trkpt lat="47.25646" lon="-2.31705">
        <ele>1.7999999523163</ele>
        <time>2020-10-08T07:03:55.000Z</time>
      </trkpt>
      <trkpt lat="47.2564" lon="-2.31711">
        <ele>1.7999999523163</ele>
        <time>2020-10-08T07:03:57.000Z</time>
      </trkpt>
      <trkpt lat="47.25631" lon="-2.3172">
        <ele>2.2000000476837</ele>
        <time>2020-10-08T07:04:00.000Z</time>
      </trkpt>
      <trkpt lat="47.25628" lon="-2.31724">
        <ele>2.7999999523163</ele>
        <time>2020-10-08T07:04:01.000Z</time>
      </trkpt>
      <trkpt lat="47.25627" lon="-2.31729">
        <ele>3.2000000476837</ele>
        <time>2020-10-08T07:04:02.000Z</time>
      </trkpt>
      <trkpt lat="47.25626" lon="-2.31735">
        <ele>3.5999999046326</ele>
        <time>2020-10-08T07:04:03.000Z</time>
      </trkpt>
      <trkpt lat="47.25625" lon="-2.31741">
        <ele>4.1999998092651</ele>
        <time>2020-10-08T07:04:04.000Z</time>
      </trkpt>
      <trkpt lat="47.25624" lon="-2.31748">
        <ele>4.1999998092651</ele>
        <time>2020-10-08T07:04:05.000Z</time>
      </trkpt>
      <trkpt lat="47.25612" lon="-2.31764">
        <ele>4.1999998092651</ele>
        <time>2020-10-08T07:04:09.000Z</time>
      </trkpt>
      <trkpt lat="47.25589" lon="-2.31766">
        <ele>4.1999998092651</ele>
        <time>2020-10-08T07:04:14.000Z</time>
      </trkpt>
      <trkpt lat="47.25574" lon="-2.31774">
        <ele>4.1999998092651</ele>
        <time>2020-10-08T07:04:18.000Z</time>
      </trkpt>
      <trkpt lat="47.2557" lon="-2.31777">
        <ele>4.1999998092651</ele>
        <time>2020-10-08T07:04:19.000Z</time>
      </trkpt>
      <trkpt lat="47.25568" lon="-2.31781">
        <ele>4.1999998092651</ele>
        <time>2020-10-08T07:04:20.000Z</time>
      </trkpt>
      <trkpt lat="47.25565" lon="-2.3179">
        <ele>4.5999999046326</ele>
        <time>2020-10-08T07:04:22.000Z</time>
      </trkpt>
      <trkpt lat="47.25563" lon="-2.31795">
        <ele>5</ele>
        <time>2020-10-08T07:04:23.000Z</time>
      </trkpt>
      <trkpt lat="47.25561" lon="-2.31799">
        <ele>5.4000000953674</ele>
        <time>2020-10-08T07:04:24.000Z</time>
      </trkpt>
      <trkpt lat="47.25558" lon="-2.31801">
        <ele>5.8000001907349</ele>
        <time>2020-10-08T07:04:25.000Z</time>
      </trkpt>
      <trkpt lat="47.25555" lon="-2.31803">
        <ele>6.1999998092651</ele>
        <time>2020-10-08T07:04:26.000Z</time>
      </trkpt>
      <trkpt lat="47.25534" lon="-2.31809">
        <ele>6.1999998092651</ele>
        <time>2020-10-08T07:04:32.000Z</time>
      </trkpt>
      <trkpt lat="47.25524" lon="-2.31815">
        <ele>6.1999998092651</ele>
        <time>2020-10-08T07:04:36.000Z</time>
      </trkpt>
      <trkpt lat="47.25524" lon="-2.31817">
        <ele>6.1999998092651</ele>
        <time>2020-10-08T07:04:37.000Z</time>
      </trkpt>
      <trkpt lat="47.25527" lon="-2.31821">
        <ele>6.1999998092651</ele>
        <time>2020-10-08T07:04:41.000Z</time>
      </trkpt>
      <trkpt lat="47.25523" lon="-2.3183">
        <ele>6.1999998092651</ele>
        <time>2020-10-08T07:15:56.000Z</time>
      </trkpt>
      <trkpt lat="47.25521" lon="-2.31827">
        <ele>6.1999998092651</ele>
        <time>2020-10-08T07:15:58.000Z</time>
      </trkpt>
      <trkpt lat="47.25515" lon="-2.31827">
        <ele>6.1999998092651</ele>
        <time>2020-10-08T07:16:01.000Z</time>
      </trkpt>
      <trkpt lat="47.25513" lon="-2.31827">
        <ele>6.1999998092651</ele>
        <time>2020-10-08T07:16:02.000Z</time>
      </trkpt>
      <trkpt lat="47.25501" lon="-2.31822">
        <ele>6.1999998092651</ele>
        <time>2020-10-08T07:16:07.000Z</time>
      </trkpt>
      <trkpt lat="47.25498" lon="-2.31823">
        <ele>6.1999998092651</ele>
        <time>2020-10-08T07:16:08.000Z</time>
      </trkpt>
      <trkpt lat="47.2549" lon="-2.31826">
        <ele>6.1999998092651</ele>
        <time>2020-10-08T07:16:11.000Z</time>
      </trkpt>
      <trkpt lat="47.25471" lon="-2.31838">
        <ele>6.1999998092651</ele>
        <time>2020-10-08T07:16:17.000Z</time>
      </trkpt>
      <trkpt lat="47.25462" lon="-2.31843">
        <ele>6.1999998092651</ele>
        <time>2020-10-08T07:16:20.000Z</time>
      </trkpt>
      <trkpt lat="47.25459" lon="-2.31841">
        <ele>6.1999998092651</ele>
        <time>2020-10-08T07:16:21.000Z</time>
      </trkpt>
      <trkpt lat="47.25454" lon="-2.31827">
        <ele>6.1999998092651</ele>
        <time>2020-10-08T07:16:24.000Z</time>
      </trkpt>
      <trkpt lat="47.25448" lon="-2.31793">
        <ele>6.1999998092651</ele>
        <time>2020-10-08T07:16:31.000Z</time>
      </trkpt>
      <trkpt lat="47.2544" lon="-2.31765">
        <ele>6.1999998092651</ele>
        <time>2020-10-08T07:16:38.000Z</time>
      </trkpt>
      <trkpt lat="47.25428" lon="-2.31721">
        <ele>6.1999998092651</ele>
        <time>2020-10-08T07:16:48.000Z</time>
      </trkpt>
      <trkpt lat="47.25413" lon="-2.31686">
        <ele>6.1999998092651</ele>
        <time>2020-10-08T07:16:56.000Z</time>
      </trkpt>
      <trkpt lat="47.25393" lon="-2.31642">
        <ele>6.1999998092651</ele>
        <time>2020-10-08T07:17:06.000Z</time>
      </trkpt>
      <trkpt lat="47.25374" lon="-2.31611">
        <ele>6.1999998092651</ele>
        <time>2020-10-08T07:17:14.000Z</time>
      </trkpt>
      <trkpt lat="47.25358" lon="-2.31586">
        <ele>6.1999998092651</ele>
        <time>2020-10-08T07:17:21.000Z</time>
      </trkpt>
      <trkpt lat="47.25343" lon="-2.3156">
        <ele>6.5999999046326</ele>
        <time>2020-10-08T07:17:27.000Z</time>
      </trkpt>
      <trkpt lat="47.25341" lon="-2.31556">
        <ele>7</ele>
        <time>2020-10-08T07:17:28.000Z</time>
      </trkpt>
      <trkpt lat="47.25339" lon="-2.31551">
        <ele>7.5999999046326</ele>
        <time>2020-10-08T07:17:29.000Z</time>
      </trkpt>
      <trkpt lat="47.25337" lon="-2.31547">
        <ele>8</ele>
        <time>2020-10-08T07:17:30.000Z</time>
      </trkpt>
      <trkpt lat="47.25336" lon="-2.31541">
        <ele>8.3999996185303</ele>
        <time>2020-10-08T07:17:31.000Z</time>
      </trkpt>
      <trkpt lat="47.25331" lon="-2.31522">
        <ele>8.3999996185303</ele>
        <time>2020-10-08T07:17:35.000Z</time>
      </trkpt>
      <trkpt lat="47.25325" lon="-2.31482">
        <ele>8.3999996185303</ele>
        <time>2020-10-08T07:17:43.000Z</time>
      </trkpt>
      <trkpt lat="47.25323" lon="-2.31462">
        <ele>8.8000001907349</ele>
        <time>2020-10-08T07:17:47.000Z</time>
      </trkpt>
      <trkpt lat="47.25322" lon="-2.31457">
        <ele>9.1999998092651</ele>
        <time>2020-10-08T07:17:48.000Z</time>
      </trkpt>
      <trkpt lat="47.25322" lon="-2.31452">
        <ele>9.6000003814697</ele>
        <time>2020-10-08T07:17:49.000Z</time>
      </trkpt>
      <trkpt lat="47.25321" lon="-2.31446">
        <ele>10</ele>
        <time>2020-10-08T07:17:50.000Z</time>
      </trkpt>
      <trkpt lat="47.2532" lon="-2.31441">
        <ele>10.39999961853</ele>
        <time>2020-10-08T07:17:51.000Z</time>
      </trkpt>
      <trkpt lat="47.25318" lon="-2.3142">
        <ele>10.39999961853</ele>
        <time>2020-10-08T07:17:55.000Z</time>
      </trkpt>
      <trkpt lat="47.25324" lon="-2.31399">
        <ele>10.39999961853</ele>
        <time>2020-10-08T07:17:59.000Z</time>
      </trkpt>
      <trkpt lat="47.25326" lon="-2.31394">
        <ele>10.39999961853</ele>
        <time>2020-10-08T07:18:00.000Z</time>
      </trkpt>
      <trkpt lat="47.25332" lon="-2.31368">
        <ele>10.39999961853</ele>
        <time>2020-10-08T07:18:04.000Z</time>
      </trkpt>
      <trkpt lat="47.2534" lon="-2.3131">
        <ele>10.39999961853</ele>
        <time>2020-10-08T07:18:11.000Z</time>
      </trkpt>
      <trkpt lat="47.25341" lon="-2.31301">
        <ele>10</ele>
        <time>2020-10-08T07:18:12.000Z</time>
      </trkpt>
      <trkpt lat="47.25342" lon="-2.31291">
        <ele>9.6000003814697</ele>
        <time>2020-10-08T07:18:13.000Z</time>
      </trkpt>
      <trkpt lat="47.25343" lon="-2.31281">
        <ele>9.1999998092651</ele>
        <time>2020-10-08T07:18:14.000Z</time>
      </trkpt>
      <trkpt lat="47.25344" lon="-2.31271">
        <ele>8.8000001907349</ele>
        <time>2020-10-08T07:18:15.000Z</time>
      </trkpt>
      <trkpt lat="47.25344" lon="-2.3126">
        <ele>8.3999996185303</ele>
        <time>2020-10-08T07:18:16.000Z</time>
      </trkpt>
      <trkpt lat="47.25344" lon="-2.31239">
        <ele>8.3999996185303</ele>
        <time>2020-10-08T07:18:18.000Z</time>
      </trkpt>
      <trkpt lat="47.25344" lon="-2.31227">
        <ele>8</ele>
        <time>2020-10-08T07:18:19.000Z</time>
      </trkpt>
      <trkpt lat="47.25344" lon="-2.31216">
        <ele>7.4000000953674</ele>
        <time>2020-10-08T07:18:20.000Z</time>
      </trkpt>
      <trkpt lat="47.25344" lon="-2.31205">
        <ele>7</ele>
        <time>2020-10-08T07:18:21.000Z</time>
      </trkpt>
      <trkpt lat="47.25343" lon="-2.31194">
        <ele>6.5999999046326</ele>
        <time>2020-10-08T07:18:22.000Z</time>
      </trkpt>
      <trkpt lat="47.25343" lon="-2.31183">
        <ele>6.1999998092651</ele>
        <time>2020-10-08T07:18:23.000Z</time>
      </trkpt>
      <trkpt lat="47.2534" lon="-2.31163">
        <ele>6.1999998092651</ele>
        <time>2020-10-08T07:18:25.000Z</time>
      </trkpt>
      <trkpt lat="47.25329" lon="-2.31141">
        <ele>6.1999998092651</ele>
        <time>2020-10-08T07:18:28.000Z</time>
      </trkpt>
      <trkpt lat="47.25324" lon="-2.31113">
        <ele>6.1999998092651</ele>
        <time>2020-10-08T07:18:32.000Z</time>
      </trkpt>
      <trkpt lat="47.25324" lon="-2.31106">
        <ele>6.1999998092651</ele>
        <time>2020-10-08T07:18:33.000Z</time>
      </trkpt>
      <trkpt lat="47.25323" lon="-2.31085">
        <ele>6.1999998092651</ele>
        <time>2020-10-08T07:18:36.000Z</time>
      </trkpt>
      <trkpt lat="47.2532" lon="-2.31064">
        <ele>6.1999998092651</ele>
        <time>2020-10-08T07:18:39.000Z</time>
      </trkpt>
      <trkpt lat="47.2531" lon="-2.31015">
        <ele>6.1999998092651</ele>
        <time>2020-10-08T07:18:47.000Z</time>
      </trkpt>
      <trkpt lat="47.25299" lon="-2.30969">
        <ele>6.1999998092651</ele>
        <time>2020-10-08T07:18:55.000Z</time>
      </trkpt>
      <trkpt lat="47.25285" lon="-2.30924">
        <ele>6.5999999046326</ele>
        <time>2020-10-08T07:19:04.000Z</time>
      </trkpt>
      <trkpt lat="47.25283" lon="-2.30919">
        <ele>7</ele>
        <time>2020-10-08T07:19:05.000Z</time>
      </trkpt>
      <trkpt lat="47.25282" lon="-2.30914">
        <ele>7.4000000953674</ele>
        <time>2020-10-08T07:19:06.000Z</time>
      </trkpt>
      <trkpt lat="47.25281" lon="-2.30909">
        <ele>7.8000001907349</ele>
        <time>2020-10-08T07:19:07.000Z</time>
      </trkpt>
      <trkpt lat="47.25279" lon="-2.30904">
        <ele>8.1999998092651</ele>
        <time>2020-10-08T07:19:08.000Z</time>
      </trkpt>
      <trkpt lat="47.25275" lon="-2.3089">
        <ele>8.1999998092651</ele>
        <time>2020-10-08T07:19:11.000Z</time>
      </trkpt>
      <trkpt lat="47.25263" lon="-2.30851">
        <ele>8.1999998092651</ele>
        <time>2020-10-08T07:19:19.000Z</time>
      </trkpt>
      <trkpt lat="47.25262" lon="-2.30847">
        <ele>8.6000003814697</ele>
        <time>2020-10-08T07:19:20.000Z</time>
      </trkpt>
      <trkpt lat="47.25261" lon="-2.30842">
        <ele>9</ele>
        <time>2020-10-08T07:19:21.000Z</time>
      </trkpt>
      <trkpt lat="47.25259" lon="-2.30837">
        <ele>9.3999996185303</ele>
        <time>2020-10-08T07:19:22.000Z</time>
      </trkpt>
      <trkpt lat="47.25258" lon="-2.30832">
        <ele>9.8000001907349</ele>
        <time>2020-10-08T07:19:23.000Z</time>
      </trkpt>
      <trkpt lat="47.25257" lon="-2.30827">
        <ele>10.199999809265</ele>
        <time>2020-10-08T07:19:24.000Z</time>
      </trkpt>
      <trkpt lat="47.25255" lon="-2.30816">
        <ele>10.199999809265</ele>
        <time>2020-10-08T07:19:26.000Z</time>
      </trkpt>
      <trkpt lat="47.2525" lon="-2.30779">
        <ele>10.199999809265</ele>
        <time>2020-10-08T07:19:33.000Z</time>
      </trkpt>
      <trkpt lat="47.2525" lon="-2.30774">
        <ele>10.60000038147</ele>
        <time>2020-10-08T07:19:34.000Z</time>
      </trkpt>
      <trkpt lat="47.25249" lon="-2.30769">
        <ele>11</ele>
        <time>2020-10-08T07:19:35.000Z</time>
      </trkpt>
      <trkpt lat="47.25249" lon="-2.30763">
        <ele>11.39999961853</ele>
        <time>2020-10-08T07:19:36.000Z</time>
      </trkpt>
      <trkpt lat="47.25248" lon="-2.30758">
        <ele>11.800000190735</ele>
        <time>2020-10-08T07:19:37.000Z</time>
      </trkpt>
      <trkpt lat="47.25248" lon="-2.30753">
        <ele>12.199999809265</ele>
        <time>2020-10-08T07:19:38.000Z</time>
      </trkpt>
      <trkpt lat="47.25247" lon="-2.30732">
        <ele>12.199999809265</ele>
        <time>2020-10-08T07:19:42.000Z</time>
      </trkpt>
      <trkpt lat="47.25239" lon="-2.30696">
        <ele>12.199999809265</ele>
        <time>2020-10-08T07:19:49.000Z</time>
      </trkpt>
      <trkpt lat="47.25229" lon="-2.30684">
        <ele>12.199999809265</ele>
        <time>2020-10-08T07:19:54.000Z</time>
      </trkpt>
      <trkpt lat="47.25224" lon="-2.30683">
        <ele>12.199999809265</ele>
        <time>2020-10-08T07:19:57.000Z</time>
      </trkpt>
      <trkpt lat="47.25221" lon="-2.30675">
        <ele>12.60000038147</ele>
        <time>2020-10-08T07:19:59.000Z</time>
      </trkpt>
      <trkpt lat="47.25219" lon="-2.3067">
        <ele>13</ele>
        <time>2020-10-08T07:20:00.000Z</time>
      </trkpt>
      <trkpt lat="47.25217" lon="-2.30666">
        <ele>13.39999961853</ele>
        <time>2020-10-08T07:20:01.000Z</time>
      </trkpt>
      <trkpt lat="47.25215" lon="-2.30661">
        <ele>13.800000190735</ele>
        <time>2020-10-08T07:20:02.000Z</time>
      </trkpt>
      <trkpt lat="47.25213" lon="-2.30656">
        <ele>14.199999809265</ele>
        <time>2020-10-08T07:20:03.000Z</time>
      </trkpt>
      <trkpt lat="47.25203" lon="-2.30634">
        <ele>14.199999809265</ele>
        <time>2020-10-08T07:20:08.000Z</time>
      </trkpt>
      <trkpt lat="47.25195" lon="-2.30615">
        <ele>14.800000190735</ele>
        <time>2020-10-08T07:20:12.000Z</time>
      </trkpt>
      <trkpt lat="47.25193" lon="-2.30611">
        <ele>15.199999809265</ele>
        <time>2020-10-08T07:20:13.000Z</time>
      </trkpt>
      <trkpt lat="47.25191" lon="-2.30606">
        <ele>16</ele>
        <time>2020-10-08T07:20:14.000Z</time>
      </trkpt>
      <trkpt lat="47.25189" lon="-2.30602">
        <ele>16.39999961853</ele>
        <time>2020-10-08T07:20:15.000Z</time>
      </trkpt>
      <trkpt lat="47.25178" lon="-2.30571">
        <ele>16.39999961853</ele>
        <time>2020-10-08T07:20:22.000Z</time>
      </trkpt>
      <trkpt lat="47.25169" lon="-2.30537">
        <ele>16.39999961853</ele>
        <time>2020-10-08T07:20:29.000Z</time>
      </trkpt>
      <trkpt lat="47.25167" lon="-2.30527">
        <ele>16.799999237061</ele>
        <time>2020-10-08T07:20:31.000Z</time>
      </trkpt>
      <trkpt lat="47.25166" lon="-2.30521">
        <ele>17.200000762939</ele>
        <time>2020-10-08T07:20:32.000Z</time>
      </trkpt>
      <trkpt lat="47.25165" lon="-2.30516">
        <ele>17.60000038147</ele>
        <time>2020-10-08T07:20:33.000Z</time>
      </trkpt>
      <trkpt lat="47.25163" lon="-2.30511">
        <ele>18</ele>
        <time>2020-10-08T07:20:34.000Z</time>
      </trkpt>
      <trkpt lat="47.25161" lon="-2.30506">
        <ele>18.39999961853</ele>
        <time>2020-10-08T07:20:35.000Z</time>
      </trkpt>
      <trkpt lat="47.25159" lon="-2.30502">
        <ele>18.39999961853</ele>
        <time>2020-10-08T07:20:36.000Z</time>
      </trkpt>
      <trkpt lat="47.25145" lon="-2.30472">
        <ele>18.39999961853</ele>
        <time>2020-10-08T07:20:43.000Z</time>
      </trkpt>
      <trkpt lat="47.2513" lon="-2.30437">
        <ele>18.39999961853</ele>
        <time>2020-10-08T07:20:51.000Z</time>
      </trkpt>
      <trkpt lat="47.2512" lon="-2.30414">
        <ele>18.799999237061</ele>
        <time>2020-10-08T07:20:56.000Z</time>
      </trkpt>
      <trkpt lat="47.25119" lon="-2.30409">
        <ele>19.200000762939</ele>
        <time>2020-10-08T07:20:57.000Z</time>
      </trkpt>
      <trkpt lat="47.25117" lon="-2.30405">
        <ele>19.60000038147</ele>
        <time>2020-10-08T07:20:58.000Z</time>
      </trkpt>
      <trkpt lat="47.25115" lon="-2.304">
        <ele>20</ele>
        <time>2020-10-08T07:20:59.000Z</time>
      </trkpt>
      <trkpt lat="47.25113" lon="-2.30395">
        <ele>20.39999961853</ele>
        <time>2020-10-08T07:21:00.000Z</time>
      </trkpt>
      <trkpt lat="47.25108" lon="-2.30372">
        <ele>20.39999961853</ele>
        <time>2020-10-08T07:21:05.000Z</time>
      </trkpt>
      <trkpt lat="47.25104" lon="-2.30355">
        <ele>20.39999961853</ele>
        <time>2020-10-08T07:21:08.000Z</time>
      </trkpt>
      <trkpt lat="47.25102" lon="-2.30342">
        <ele>20.39999961853</ele>
        <time>2020-10-08T07:21:10.000Z</time>
      </trkpt>
      <trkpt lat="47.25099" lon="-2.3033">
        <ele>20.39999961853</ele>
        <time>2020-10-08T07:21:12.000Z</time>
      </trkpt>
      <trkpt lat="47.25095" lon="-2.30319">
        <ele>20.39999961853</ele>
        <time>2020-10-08T07:21:14.000Z</time>
      </trkpt>
      <trkpt lat="47.25091" lon="-2.30309">
        <ele>20.39999961853</ele>
        <time>2020-10-08T07:21:16.000Z</time>
      </trkpt>
      <trkpt lat="47.25072" lon="-2.30271">
        <ele>20.39999961853</ele>
        <time>2020-10-08T07:21:24.000Z</time>
      </trkpt>
      <trkpt lat="47.25062" lon="-2.30243">
        <ele>20.39999961853</ele>
        <time>2020-10-08T07:21:30.000Z</time>
      </trkpt>
      <trkpt lat="47.25058" lon="-2.30203">
        <ele>20.39999961853</ele>
        <time>2020-10-08T07:21:38.000Z</time>
      </trkpt>
      <trkpt lat="47.25058" lon="-2.30196">
        <ele>20.39999961853</ele>
        <time>2020-10-08T07:21:39.000Z</time>
      </trkpt>
      <trkpt lat="47.25061" lon="-2.30165">
        <ele>20.39999961853</ele>
        <time>2020-10-08T07:21:44.000Z</time>
      </trkpt>
      <trkpt lat="47.25066" lon="-2.30139">
        <ele>20.39999961853</ele>
        <time>2020-10-08T07:21:49.000Z</time>
      </trkpt>
      <trkpt lat="47.25069" lon="-2.30136">
        <ele>20.39999961853</ele>
        <time>2020-10-08T07:21:50.000Z</time>
      </trkpt>
      <trkpt lat="47.25075" lon="-2.30135">
        <ele>20.799999237061</ele>
        <time>2020-10-08T07:21:52.000Z</time>
      </trkpt>
      <trkpt lat="47.25078" lon="-2.30135">
        <ele>21.799999237061</ele>
        <time>2020-10-08T07:21:53.000Z</time>
      </trkpt>
      <trkpt lat="47.25082" lon="-2.30134">
        <ele>22.200000762939</ele>
        <time>2020-10-08T07:21:54.000Z</time>
      </trkpt>
      <trkpt lat="47.25086" lon="-2.30134">
        <ele>22.60000038147</ele>
        <time>2020-10-08T07:21:55.000Z</time>
      </trkpt>
      <trkpt lat="47.25097" lon="-2.30132">
        <ele>22.60000038147</ele>
        <time>2020-10-08T07:21:58.000Z</time>
      </trkpt>
      <trkpt lat="47.25118" lon="-2.30127">
        <ele>22.60000038147</ele>
        <time>2020-10-08T07:22:04.000Z</time>
      </trkpt>
      <trkpt lat="47.2513" lon="-2.30127">
        <ele>22.60000038147</ele>
        <time>2020-10-08T07:22:07.000Z</time>
      </trkpt>
      <trkpt lat="47.25139" lon="-2.30126">
        <ele>22.60000038147</ele>
        <time>2020-10-08T07:22:09.000Z</time>
      </trkpt>
      <trkpt lat="47.25143" lon="-2.30125">
        <ele>22.60000038147</ele>
        <time>2020-10-08T07:22:10.000Z</time>
      </trkpt>
      <trkpt lat="47.25167" lon="-2.30118">
        <ele>22.60000038147</ele>
        <time>2020-10-08T07:22:15.000Z</time>
      </trkpt>
      <trkpt lat="47.25175" lon="-2.30118">
        <ele>22.60000038147</ele>
        <time>2020-10-08T07:22:17.000Z</time>
      </trkpt>
      <trkpt lat="47.2518" lon="-2.3012">
        <ele>22.200000762939</ele>
        <time>2020-10-08T07:22:18.000Z</time>
      </trkpt>
      <trkpt lat="47.25183" lon="-2.30121">
        <ele>21.799999237061</ele>
        <time>2020-10-08T07:22:19.000Z</time>
      </trkpt>
      <trkpt lat="47.25188" lon="-2.30126">
        <ele>21.200000762939</ele>
        <time>2020-10-08T07:22:20.000Z</time>
      </trkpt>
      <trkpt lat="47.2519" lon="-2.30133">
        <ele>20.799999237061</ele>
        <time>2020-10-08T07:22:21.000Z</time>
      </trkpt>
      <trkpt lat="47.25193" lon="-2.30138">
        <ele>20.39999961853</ele>
        <time>2020-10-08T07:22:22.000Z</time>
      </trkpt>
      <trkpt lat="47.252" lon="-2.30148">
        <ele>20.39999961853</ele>
        <time>2020-10-08T07:22:24.000Z</time>
      </trkpt>
      <trkpt lat="47.25209" lon="-2.30158">
        <ele>20.39999961853</ele>
        <time>2020-10-08T07:22:26.000Z</time>
      </trkpt>
      <trkpt lat="47.25228" lon="-2.30176">
        <ele>20.39999961853</ele>
        <time>2020-10-08T07:22:30.000Z</time>
      </trkpt>
      <trkpt lat="47.25234" lon="-2.30177">
        <ele>20</ele>
        <time>2020-10-08T07:22:31.000Z</time>
      </trkpt>
      <trkpt lat="47.2524" lon="-2.30179">
        <ele>19.60000038147</ele>
        <time>2020-10-08T07:22:32.000Z</time>
      </trkpt>
      <trkpt lat="47.25246" lon="-2.30181">
        <ele>19.200000762939</ele>
        <time>2020-10-08T07:22:33.000Z</time>
      </trkpt>
      <trkpt lat="47.25252" lon="-2.30184">
        <ele>18.799999237061</ele>
        <time>2020-10-08T07:22:34.000Z</time>
      </trkpt>
      <trkpt lat="47.25258" lon="-2.30186">
        <ele>18.39999961853</ele>
        <time>2020-10-08T07:22:35.000Z</time>
      </trkpt>
      <trkpt lat="47.25274" lon="-2.30195">
        <ele>18.39999961853</ele>
        <time>2020-10-08T07:22:38.000Z</time>
      </trkpt>
      <trkpt lat="47.25296" lon="-2.30206">
        <ele>18</ele>
        <time>2020-10-08T07:22:43.000Z</time>
      </trkpt>
      <trkpt lat="47.25299" lon="-2.30208">
        <ele>17.39999961853</ele>
        <time>2020-10-08T07:22:44.000Z</time>
      </trkpt>
      <trkpt lat="47.25301" lon="-2.3021">
        <ele>17</ele>
        <time>2020-10-08T07:22:45.000Z</time>
      </trkpt>
      <trkpt lat="47.25304" lon="-2.3021">
        <ele>16.60000038147</ele>
        <time>2020-10-08T07:22:46.000Z</time>
      </trkpt>
      <trkpt lat="47.25305" lon="-2.30207">
        <ele>16.200000762939</ele>
        <time>2020-10-08T07:22:47.000Z</time>
      </trkpt>
      <trkpt lat="47.25305" lon="-2.30204">
        <ele>16.200000762939</ele>
        <time>2020-10-08T07:22:48.000Z</time>
      </trkpt>
      <trkpt lat="47.25314" lon="-2.30204">
        <ele>16.200000762939</ele>
        <time>2020-10-08T07:22:51.000Z</time>
      </trkpt>
      <trkpt lat="47.25319" lon="-2.30205">
        <ele>16.200000762939</ele>
        <time>2020-10-08T07:22:52.000Z</time>
      </trkpt>
      <trkpt lat="47.25329" lon="-2.30206">
        <ele>16.200000762939</ele>
        <time>2020-10-08T07:22:54.000Z</time>
      </trkpt>
      <trkpt lat="47.25335" lon="-2.30207">
        <ele>16.200000762939</ele>
        <time>2020-10-08T07:22:55.000Z</time>
      </trkpt>
      <trkpt lat="47.25374" lon="-2.30209">
        <ele>16.200000762939</ele>
        <time>2020-10-08T07:23:02.000Z</time>
      </trkpt>
      <trkpt lat="47.25378" lon="-2.3021">
        <ele>16.200000762939</ele>
        <time>2020-10-08T07:23:03.000Z</time>
      </trkpt>
      <trkpt lat="47.25386" lon="-2.30214">
        <ele>16.200000762939</ele>
        <time>2020-10-08T07:23:05.000Z</time>
      </trkpt>
      <trkpt lat="47.25402" lon="-2.30221">
        <ele>15.60000038147</ele>
        <time>2020-10-08T07:23:09.000Z</time>
      </trkpt>
      <trkpt lat="47.25408" lon="-2.30223">
        <ele>15.199999809265</ele>
        <time>2020-10-08T07:23:10.000Z</time>
      </trkpt>
      <trkpt lat="47.25413" lon="-2.30224">
        <ele>14.800000190735</ele>
        <time>2020-10-08T07:23:11.000Z</time>
      </trkpt>
      <trkpt lat="47.25418" lon="-2.30225">
        <ele>14.39999961853</ele>
        <time>2020-10-08T07:23:12.000Z</time>
      </trkpt>
      <trkpt lat="47.25422" lon="-2.30226">
        <ele>14</ele>
        <time>2020-10-08T07:23:13.000Z</time>
      </trkpt>
      <trkpt lat="47.25426" lon="-2.30229">
        <ele>14</ele>
        <time>2020-10-08T07:23:14.000Z</time>
      </trkpt>
      <trkpt lat="47.2543" lon="-2.30231">
        <ele>14</ele>
        <time>2020-10-08T07:23:15.000Z</time>
      </trkpt>
      <trkpt lat="47.25455" lon="-2.30238">
        <ele>14</ele>
        <time>2020-10-08T07:23:20.000Z</time>
      </trkpt>
      <trkpt lat="47.25464" lon="-2.30243">
        <ele>14</ele>
        <time>2020-10-08T07:23:22.000Z</time>
      </trkpt>
      <trkpt lat="47.25471" lon="-2.30243">
        <ele>14</ele>
        <time>2020-10-08T07:23:24.000Z</time>
      </trkpt>
      <trkpt lat="47.25475" lon="-2.30228">
        <ele>14</ele>
        <time>2020-10-08T07:23:27.000Z</time>
      </trkpt>
      <trkpt lat="47.2549" lon="-2.30204">
        <ele>14</ele>
        <time>2020-10-08T07:23:32.000Z</time>
      </trkpt>
      <trkpt lat="47.25496" lon="-2.30196">
        <ele>13.60000038147</ele>
        <time>2020-10-08T07:23:34.000Z</time>
      </trkpt>
      <trkpt lat="47.25501" lon="-2.30195">
        <ele>13</ele>
        <time>2020-10-08T07:23:35.000Z</time>
      </trkpt>
      <trkpt lat="47.25506" lon="-2.30195">
        <ele>12.60000038147</ele>
        <time>2020-10-08T07:23:36.000Z</time>
      </trkpt>
      <trkpt lat="47.25511" lon="-2.30196">
        <ele>12</ele>
        <time>2020-10-08T07:23:37.000Z</time>
      </trkpt>
      <trkpt lat="47.25515" lon="-2.30198">
        <ele>11.60000038147</ele>
        <time>2020-10-08T07:23:38.000Z</time>
      </trkpt>
      <trkpt lat="47.25525" lon="-2.30196">
        <ele>11.60000038147</ele>
        <time>2020-10-08T07:23:40.000Z</time>
      </trkpt>
      <trkpt lat="47.25539" lon="-2.30189">
        <ele>11.60000038147</ele>
        <time>2020-10-08T07:23:43.000Z</time>
      </trkpt>
      <trkpt lat="47.25549" lon="-2.30184">
        <ele>11.60000038147</ele>
        <time>2020-10-08T07:23:45.000Z</time>
      </trkpt>
      <trkpt lat="47.25554" lon="-2.30184">
        <ele>11.60000038147</ele>
        <time>2020-10-08T07:23:46.000Z</time>
      </trkpt>
      <trkpt lat="47.2557" lon="-2.30188">
        <ele>11.60000038147</ele>
        <time>2020-10-08T07:23:49.000Z</time>
      </trkpt>
      <trkpt lat="47.25581" lon="-2.30194">
        <ele>11.60000038147</ele>
        <time>2020-10-08T07:23:51.000Z</time>
      </trkpt>
      <trkpt lat="47.25596" lon="-2.30208">
        <ele>11.60000038147</ele>
        <time>2020-10-08T07:23:54.000Z</time>
      </trkpt>
      <trkpt lat="47.25614" lon="-2.30242">
        <ele>11.60000038147</ele>
        <time>2020-10-08T07:23:59.000Z</time>
      </trkpt>
      <trkpt lat="47.25622" lon="-2.30275">
        <ele>11.60000038147</ele>
        <time>2020-10-08T07:24:03.000Z</time>
      </trkpt>
      <trkpt lat="47.25623" lon="-2.30292">
        <ele>11.60000038147</ele>
        <time>2020-10-08T07:24:05.000Z</time>
      </trkpt>
      <trkpt lat="47.25629" lon="-2.30336">
        <ele>11.199999809265</ele>
        <time>2020-10-08T07:24:11.000Z</time>
      </trkpt>
      <trkpt lat="47.25631" lon="-2.3034">
        <ele>10.800000190735</ele>
        <time>2020-10-08T07:24:12.000Z</time>
      </trkpt>
      <trkpt lat="47.25633" lon="-2.30343">
        <ele>10.39999961853</ele>
        <time>2020-10-08T07:24:13.000Z</time>
      </trkpt>
      <trkpt lat="47.25636" lon="-2.30342">
        <ele>9.8000001907349</ele>
        <time>2020-10-08T07:24:14.000Z</time>
      </trkpt>
      <trkpt lat="47.25639" lon="-2.3034">
        <ele>9.3999996185303</ele>
        <time>2020-10-08T07:24:15.000Z</time>
      </trkpt>
      <trkpt lat="47.25649" lon="-2.30322">
        <ele>9.3999996185303</ele>
        <time>2020-10-08T07:24:19.000Z</time>
      </trkpt>
      <trkpt lat="47.25656" lon="-2.30296">
        <ele>9.3999996185303</ele>
        <time>2020-10-08T07:24:24.000Z</time>
      </trkpt>
      <trkpt lat="47.25656" lon="-2.3029">
        <ele>9.3999996185303</ele>
        <time>2020-10-08T07:24:25.000Z</time>
      </trkpt>
      <trkpt lat="47.25658" lon="-2.30284">
        <ele>9.3999996185303</ele>
        <time>2020-10-08T07:24:26.000Z</time>
      </trkpt>
      <trkpt lat="47.25662" lon="-2.30273">
        <ele>9.3999996185303</ele>
        <time>2020-10-08T07:24:28.000Z</time>
      </trkpt>
      <trkpt lat="47.25671" lon="-2.30263">
        <ele>9.3999996185303</ele>
        <time>2020-10-08T07:24:31.000Z</time>
      </trkpt>
      <trkpt lat="47.25674" lon="-2.30258">
        <ele>9.3999996185303</ele>
        <time>2020-10-08T07:24:32.000Z</time>
      </trkpt>
      <trkpt lat="47.25677" lon="-2.30253">
        <ele>9.3999996185303</ele>
        <time>2020-10-08T07:24:33.000Z</time>
      </trkpt>
      <trkpt lat="47.25687" lon="-2.30227">
        <ele>9.3999996185303</ele>
        <time>2020-10-08T07:24:37.000Z</time>
      </trkpt>
      <trkpt lat="47.2569" lon="-2.30221">
        <ele>9.3999996185303</ele>
        <time>2020-10-08T07:24:38.000Z</time>
      </trkpt>
      <trkpt lat="47.25703" lon="-2.30208">
        <ele>9.3999996185303</ele>
        <time>2020-10-08T07:24:41.000Z</time>
      </trkpt>
      <trkpt lat="47.25729" lon="-2.30207">
        <ele>9.3999996185303</ele>
        <time>2020-10-08T07:24:45.000Z</time>
      </trkpt>
      <trkpt lat="47.25735" lon="-2.30209">
        <ele>9</ele>
        <time>2020-10-08T07:24:46.000Z</time>
      </trkpt>
      <trkpt lat="47.25742" lon="-2.30212">
        <ele>8.6000003814697</ele>
        <time>2020-10-08T07:24:47.000Z</time>
      </trkpt>
      <trkpt lat="47.25748" lon="-2.30215">
        <ele>8.1999998092651</ele>
        <time>2020-10-08T07:24:48.000Z</time>
      </trkpt>
      <trkpt lat="47.25755" lon="-2.30217">
        <ele>7.8000001907349</ele>
        <time>2020-10-08T07:24:49.000Z</time>
      </trkpt>
      <trkpt lat="47.25761" lon="-2.3022">
        <ele>7.4000000953674</ele>
        <time>2020-10-08T07:24:50.000Z</time>
      </trkpt>
      <trkpt lat="47.25801" lon="-2.30239">
        <ele>7.4000000953674</ele>
        <time>2020-10-08T07:24:56.000Z</time>
      </trkpt>
      <trkpt lat="47.25851" lon="-2.30261">
        <ele>7.4000000953674</ele>
        <time>2020-10-08T07:25:04.000Z</time>
      </trkpt>
      <trkpt lat="47.25866" lon="-2.30269">
        <ele>7.4000000953674</ele>
        <time>2020-10-08T07:25:07.000Z</time>
      </trkpt>
      <trkpt lat="47.25876" lon="-2.30266">
        <ele>7.4000000953674</ele>
        <time>2020-10-08T07:25:09.000Z</time>
      </trkpt>
      <trkpt lat="47.25888" lon="-2.30251">
        <ele>7.4000000953674</ele>
        <time>2020-10-08T07:25:12.000Z</time>
      </trkpt>
      <trkpt lat="47.25892" lon="-2.30246">
        <ele>7.4000000953674</ele>
        <time>2020-10-08T07:25:13.000Z</time>
      </trkpt>
      <trkpt lat="47.25894" lon="-2.30237">
        <ele>7.4000000953674</ele>
        <time>2020-10-08T07:25:14.000Z</time>
      </trkpt>
      <trkpt lat="47.25894" lon="-2.30229">
        <ele>7.4000000953674</ele>
        <time>2020-10-08T07:25:15.000Z</time>
      </trkpt>
      <trkpt lat="47.2589" lon="-2.30197">
        <ele>7.4000000953674</ele>
        <time>2020-10-08T07:25:19.000Z</time>
      </trkpt>
      <trkpt lat="47.25889" lon="-2.30188">
        <ele>7.4000000953674</ele>
        <time>2020-10-08T07:25:20.000Z</time>
      </trkpt>
      <trkpt lat="47.25895" lon="-2.30174">
        <ele>7.4000000953674</ele>
        <time>2020-10-08T07:25:22.000Z</time>
      </trkpt>
      <trkpt lat="47.25906" lon="-2.30171">
        <ele>7.4000000953674</ele>
        <time>2020-10-08T07:25:24.000Z</time>
      </trkpt>
      <trkpt lat="47.25918" lon="-2.30169">
        <ele>7.4000000953674</ele>
        <time>2020-10-08T07:25:26.000Z</time>
      </trkpt>
      <trkpt lat="47.25937" lon="-2.30164">
        <ele>7.4000000953674</ele>
        <time>2020-10-08T07:25:29.000Z</time>
      </trkpt>
      <trkpt lat="47.25951" lon="-2.3016">
        <ele>7</ele>
        <time>2020-10-08T07:25:31.000Z</time>
      </trkpt>
      <trkpt lat="47.25958" lon="-2.30156">
        <ele>6.5999999046326</ele>
        <time>2020-10-08T07:25:32.000Z</time>
      </trkpt>
      <trkpt lat="47.25964" lon="-2.3015">
        <ele>6</ele>
        <time>2020-10-08T07:25:33.000Z</time>
      </trkpt>
      <trkpt lat="47.25968" lon="-2.30143">
        <ele>5.5999999046326</ele>
        <time>2020-10-08T07:25:34.000Z</time>
      </trkpt>
      <trkpt lat="47.2597" lon="-2.30133">
        <ele>5.1999998092651</ele>
        <time>2020-10-08T07:25:35.000Z</time>
      </trkpt>
      <trkpt lat="47.25973" lon="-2.30113">
        <ele>5.1999998092651</ele>
        <time>2020-10-08T07:25:37.000Z</time>
      </trkpt>
      <trkpt lat="47.25972" lon="-2.30103">
        <ele>5.1999998092651</ele>
        <time>2020-10-08T07:25:38.000Z</time>
      </trkpt>
      <trkpt lat="47.25974" lon="-2.30037">
        <ele>5.1999998092651</ele>
        <time>2020-10-08T07:25:45.000Z</time>
      </trkpt>
      <trkpt lat="47.25976" lon="-2.30005">
        <ele>5.1999998092651</ele>
        <time>2020-10-08T07:25:49.000Z</time>
      </trkpt>
      <trkpt lat="47.25976" lon="-2.29988">
        <ele>5.1999998092651</ele>
        <time>2020-10-08T07:25:51.000Z</time>
      </trkpt>
      <trkpt lat="47.25984" lon="-2.29949">
        <ele>5.1999998092651</ele>
        <time>2020-10-08T07:25:56.000Z</time>
      </trkpt>
      <trkpt lat="47.25989" lon="-2.29937">
        <ele>5.1999998092651</ele>
        <time>2020-10-08T07:25:58.000Z</time>
      </trkpt>
      <trkpt lat="47.25994" lon="-2.29929">
        <ele>5.1999998092651</ele>
        <time>2020-10-08T07:26:00.000Z</time>
      </trkpt>
      <trkpt lat="47.25994" lon="-2.29922">
        <ele>5.1999998092651</ele>
        <time>2020-10-08T07:26:02.000Z</time>
      </trkpt>
      <trkpt lat="47.25991" lon="-2.29918">
        <ele>5.1999998092651</ele>
        <time>2020-10-08T07:26:04.000Z</time>
      </trkpt>
      <trkpt lat="47.25982" lon="-2.29909">
        <ele>5.1999998092651</ele>
        <time>2020-10-08T07:26:07.000Z</time>
      </trkpt>
      <trkpt lat="47.25979" lon="-2.29905">
        <ele>5.1999998092651</ele>
        <time>2020-10-08T07:26:08.000Z</time>
      </trkpt>
      <trkpt lat="47.25968" lon="-2.29884">
        <ele>5.1999998092651</ele>
        <time>2020-10-08T07:26:14.000Z</time>
      </trkpt>
      <trkpt lat="47.25963" lon="-2.29874">
        <ele>5.1999998092651</ele>
        <time>2020-10-08T07:26:19.000Z</time>
      </trkpt>
      <trkpt lat="47.25963" lon="-2.29871">
        <ele>5.1999998092651</ele>
        <time>2020-10-08T07:26:21.000Z</time>
      </trkpt>
      <trkpt lat="47.25961" lon="-2.29858">
        <ele>5.1999998092651</ele>
        <time>2020-10-08T07:26:35.000Z</time>
      </trkpt>
      <trkpt lat="47.25959" lon="-2.29853">
        <ele>5.1999998092651</ele>
        <time>2020-10-08T07:26:37.000Z</time>
      </trkpt>
      <trkpt lat="47.25956" lon="-2.29842">
        <ele>5.1999998092651</ele>
        <time>2020-10-08T07:26:41.000Z</time>
      </trkpt>
      <trkpt lat="47.25955" lon="-2.29834">
        <ele>5.1999998092651</ele>
        <time>2020-10-08T07:26:43.000Z</time>
      </trkpt>
      <trkpt lat="47.25955" lon="-2.2983">
        <ele>5.1999998092651</ele>
        <time>2020-10-08T07:26:44.000Z</time>
      </trkpt>
      <trkpt lat="47.25953" lon="-2.29813">
        <ele>5.1999998092651</ele>
        <time>2020-10-08T07:26:49.000Z</time>
      </trkpt>
      <trkpt lat="47.25951" lon="-2.29806">
        <ele>5.1999998092651</ele>
        <time>2020-10-08T07:26:51.000Z</time>
      </trkpt>
      <trkpt lat="47.25945" lon="-2.29789">
        <ele>5.1999998092651</ele>
        <time>2020-10-08T07:26:55.000Z</time>
      </trkpt>
      <trkpt lat="47.25932" lon="-2.29758">
        <ele>5.1999998092651</ele>
        <time>2020-10-08T07:27:03.000Z</time>
      </trkpt>
      <trkpt lat="47.25928" lon="-2.29747">
        <ele>5.1999998092651</ele>
        <time>2020-10-08T07:27:06.000Z</time>
      </trkpt>
      <trkpt lat="47.25927" lon="-2.29737">
        <ele>5.5999999046326</ele>
        <time>2020-10-08T07:27:08.000Z</time>
      </trkpt>
      <trkpt lat="47.25927" lon="-2.29731">
        <ele>6</ele>
        <time>2020-10-08T07:27:09.000Z</time>
      </trkpt>
      <trkpt lat="47.25927" lon="-2.29725">
        <ele>6.4000000953674</ele>
        <time>2020-10-08T07:27:10.000Z</time>
      </trkpt>
      <trkpt lat="47.25927" lon="-2.29719">
        <ele>7</ele>
        <time>2020-10-08T07:27:11.000Z</time>
      </trkpt>
      <trkpt lat="47.25928" lon="-2.29714">
        <ele>7.4000000953674</ele>
        <time>2020-10-08T07:27:12.000Z</time>
      </trkpt>
      <trkpt lat="47.25929" lon="-2.29704">
        <ele>7.4000000953674</ele>
        <time>2020-10-08T07:27:14.000Z</time>
      </trkpt>
      <trkpt lat="47.25933" lon="-2.29671">
        <ele>7.4000000953674</ele>
        <time>2020-10-08T07:27:20.000Z</time>
      </trkpt>
      <trkpt lat="47.25935" lon="-2.2966">
        <ele>7.8000001907349</ele>
        <time>2020-10-08T07:27:22.000Z</time>
      </trkpt>
      <trkpt lat="47.25935" lon="-2.29654">
        <ele>8.1999998092651</ele>
        <time>2020-10-08T07:27:23.000Z</time>
      </trkpt>
      <trkpt lat="47.25935" lon="-2.29649">
        <ele>8.6000003814697</ele>
        <time>2020-10-08T07:27:24.000Z</time>
      </trkpt>
      <trkpt lat="47.25934" lon="-2.29644">
        <ele>9</ele>
        <time>2020-10-08T07:27:25.000Z</time>
      </trkpt>
      <trkpt lat="47.25935" lon="-2.2964">
        <ele>9.6000003814697</ele>
        <time>2020-10-08T07:27:26.000Z</time>
      </trkpt>
      <trkpt lat="47.25936" lon="-2.29636">
        <ele>9.6000003814697</ele>
        <time>2020-10-08T07:27:27.000Z</time>
      </trkpt>
      <trkpt lat="47.25941" lon="-2.2963">
        <ele>9.6000003814697</ele>
        <time>2020-10-08T07:27:29.000Z</time>
      </trkpt>
      <trkpt lat="47.2595" lon="-2.29638">
        <ele>9.6000003814697</ele>
        <time>2020-10-08T07:27:32.000Z</time>
      </trkpt>
      <trkpt lat="47.25965" lon="-2.29646">
        <ele>9.6000003814697</ele>
        <time>2020-10-08T07:27:36.000Z</time>
      </trkpt>
      <trkpt lat="47.25982" lon="-2.29636">
        <ele>9.6000003814697</ele>
        <time>2020-10-08T07:27:40.000Z</time>
      </trkpt>
      <trkpt lat="47.25991" lon="-2.29631">
        <ele>9.6000003814697</ele>
        <time>2020-10-08T07:27:42.000Z</time>
      </trkpt>
      <trkpt lat="47.25995" lon="-2.29629">
        <ele>9.6000003814697</ele>
        <time>2020-10-08T07:27:43.000Z</time>
      </trkpt>
      <trkpt lat="47.26004" lon="-2.29627">
        <ele>9.6000003814697</ele>
        <time>2020-10-08T07:27:45.000Z</time>
      </trkpt>
      <trkpt lat="47.26023" lon="-2.2962">
        <ele>9.6000003814697</ele>
        <time>2020-10-08T07:27:50.000Z</time>
      </trkpt>
      <trkpt lat="47.26044" lon="-2.29617">
        <ele>9.6000003814697</ele>
        <time>2020-10-08T07:27:56.000Z</time>
      </trkpt>
      <trkpt lat="47.26055" lon="-2.29617">
        <ele>10</ele>
        <time>2020-10-08T07:28:00.000Z</time>
      </trkpt>
      <trkpt lat="47.26058" lon="-2.29617">
        <ele>10.800000190735</ele>
        <time>2020-10-08T07:28:01.000Z</time>
      </trkpt>
      <trkpt lat="47.26061" lon="-2.29617">
        <ele>11.199999809265</ele>
        <time>2020-10-08T07:28:02.000Z</time>
      </trkpt>
      <trkpt lat="47.26064" lon="-2.29617">
        <ele>11.60000038147</ele>
        <time>2020-10-08T07:28:03.000Z</time>
      </trkpt>
      <trkpt lat="47.26079" lon="-2.29614">
        <ele>11.60000038147</ele>
        <time>2020-10-08T07:28:09.000Z</time>
      </trkpt>
      <trkpt lat="47.26084" lon="-2.29613">
        <ele>12</ele>
        <time>2020-10-08T07:28:11.000Z</time>
      </trkpt>
      <trkpt lat="47.26086" lon="-2.29613">
        <ele>12.39999961853</ele>
        <time>2020-10-08T07:28:12.000Z</time>
      </trkpt>
      <trkpt lat="47.26089" lon="-2.29613">
        <ele>12.800000190735</ele>
        <time>2020-10-08T07:28:13.000Z</time>
      </trkpt>
      <trkpt lat="47.26092" lon="-2.29613">
        <ele>13.199999809265</ele>
        <time>2020-10-08T07:28:14.000Z</time>
      </trkpt>
      <trkpt lat="47.26095" lon="-2.29613">
        <ele>13.800000190735</ele>
        <time>2020-10-08T07:28:15.000Z</time>
      </trkpt>
      <trkpt lat="47.2611" lon="-2.2961">
        <ele>14.199999809265</ele>
        <time>2020-10-08T07:28:20.000Z</time>
      </trkpt>
      <trkpt lat="47.26113" lon="-2.29609">
        <ele>14.60000038147</ele>
        <time>2020-10-08T07:28:21.000Z</time>
      </trkpt>
      <trkpt lat="47.26116" lon="-2.29608">
        <ele>15</ele>
        <time>2020-10-08T07:28:22.000Z</time>
      </trkpt>
      <trkpt lat="47.26119" lon="-2.29605">
        <ele>15.39999961853</ele>
        <time>2020-10-08T07:28:23.000Z</time>
      </trkpt>
      <trkpt lat="47.26122" lon="-2.29603">
        <ele>15.800000190735</ele>
        <time>2020-10-08T07:28:24.000Z</time>
      </trkpt>
      <trkpt lat="47.26132" lon="-2.29598">
        <ele>15.800000190735</ele>
        <time>2020-10-08T07:28:27.000Z</time>
      </trkpt>
      <trkpt lat="47.26136" lon="-2.29596">
        <ele>16.200000762939</ele>
        <time>2020-10-08T07:28:28.000Z</time>
      </trkpt>
      <trkpt lat="47.26139" lon="-2.29594">
        <ele>16.799999237061</ele>
        <time>2020-10-08T07:28:29.000Z</time>
      </trkpt>
      <trkpt lat="47.26143" lon="-2.29592">
        <ele>17.200000762939</ele>
        <time>2020-10-08T07:28:30.000Z</time>
      </trkpt>
      <trkpt lat="47.26146" lon="-2.2959">
        <ele>17.60000038147</ele>
        <time>2020-10-08T07:28:31.000Z</time>
      </trkpt>
      <trkpt lat="47.2615" lon="-2.29588">
        <ele>18</ele>
        <time>2020-10-08T07:28:32.000Z</time>
      </trkpt>
      <trkpt lat="47.26157" lon="-2.29584">
        <ele>18</ele>
        <time>2020-10-08T07:28:34.000Z</time>
      </trkpt>
      <trkpt lat="47.2617" lon="-2.29578">
        <ele>18.39999961853</ele>
        <time>2020-10-08T07:28:38.000Z</time>
      </trkpt>
      <trkpt lat="47.26174" lon="-2.29577">
        <ele>19</ele>
        <time>2020-10-08T07:28:39.000Z</time>
      </trkpt>
      <trkpt lat="47.26177" lon="-2.29576">
        <ele>19.39999961853</ele>
        <time>2020-10-08T07:28:40.000Z</time>
      </trkpt>
      <trkpt lat="47.2618" lon="-2.29575">
        <ele>19.799999237061</ele>
        <time>2020-10-08T07:28:41.000Z</time>
      </trkpt>
      <trkpt lat="47.26184" lon="-2.29573">
        <ele>20.200000762939</ele>
        <time>2020-10-08T07:28:42.000Z</time>
      </trkpt>
      <trkpt lat="47.26189" lon="-2.29568">
        <ele>20.200000762939</ele>
        <time>2020-10-08T07:28:44.000Z</time>
      </trkpt>
      <trkpt lat="47.26192" lon="-2.29561">
        <ele>20.200000762939</ele>
        <time>2020-10-08T07:28:46.000Z</time>
      </trkpt>
      <trkpt lat="47.26191" lon="-2.29557">
        <ele>20.799999237061</ele>
        <time>2020-10-08T07:28:47.000Z</time>
      </trkpt>
      <trkpt lat="47.2619" lon="-2.29553">
        <ele>21.200000762939</ele>
        <time>2020-10-08T07:28:48.000Z</time>
      </trkpt>
      <trkpt lat="47.26189" lon="-2.29549">
        <ele>21.60000038147</ele>
        <time>2020-10-08T07:28:49.000Z</time>
      </trkpt>
      <trkpt lat="47.26186" lon="-2.29545">
        <ele>22</ele>
        <time>2020-10-08T07:28:50.000Z</time>
      </trkpt>
      <trkpt lat="47.26184" lon="-2.29541">
        <ele>22.39999961853</ele>
        <time>2020-10-08T07:28:51.000Z</time>
      </trkpt>
      <trkpt lat="47.26174" lon="-2.29531">
        <ele>22.39999961853</ele>
        <time>2020-10-08T07:28:54.000Z</time>
      </trkpt>
      <trkpt lat="47.26169" lon="-2.29529">
        <ele>22.39999961853</ele>
        <time>2020-10-08T07:28:55.000Z</time>
      </trkpt>
      <trkpt lat="47.2616" lon="-2.29524">
        <ele>22.39999961853</ele>
        <time>2020-10-08T07:28:57.000Z</time>
      </trkpt>
      <trkpt lat="47.26147" lon="-2.29511">
        <ele>22.39999961853</ele>
        <time>2020-10-08T07:29:00.000Z</time>
      </trkpt>
      <trkpt lat="47.26134" lon="-2.29487">
        <ele>22.39999961853</ele>
        <time>2020-10-08T07:29:04.000Z</time>
      </trkpt>
      <trkpt lat="47.26131" lon="-2.2948">
        <ele>22.39999961853</ele>
        <time>2020-10-08T07:29:05.000Z</time>
      </trkpt>
      <trkpt lat="47.26126" lon="-2.29466">
        <ele>22.39999961853</ele>
        <time>2020-10-08T07:29:07.000Z</time>
      </trkpt>
      <trkpt lat="47.26124" lon="-2.2945">
        <ele>22.39999961853</ele>
        <time>2020-10-08T07:29:09.000Z</time>
      </trkpt>
      <trkpt lat="47.26126" lon="-2.29408">
        <ele>22.39999961853</ele>
        <time>2020-10-08T07:29:14.000Z</time>
      </trkpt>
      <trkpt lat="47.2613" lon="-2.29392">
        <ele>22</ele>
        <time>2020-10-08T07:29:16.000Z</time>
      </trkpt>
      <trkpt lat="47.26131" lon="-2.29385">
        <ele>21.200000762939</ele>
        <time>2020-10-08T07:29:17.000Z</time>
      </trkpt>
      <trkpt lat="47.26133" lon="-2.29378">
        <ele>20.799999237061</ele>
        <time>2020-10-08T07:29:18.000Z</time>
      </trkpt>
      <trkpt lat="47.26134" lon="-2.2937">
        <ele>20.39999961853</ele>
        <time>2020-10-08T07:29:19.000Z</time>
      </trkpt>
      <trkpt lat="47.26136" lon="-2.29363">
        <ele>20.39999961853</ele>
        <time>2020-10-08T07:29:20.000Z</time>
      </trkpt>
      <trkpt lat="47.26138" lon="-2.29357">
        <ele>20.39999961853</ele>
        <time>2020-10-08T07:29:21.000Z</time>
      </trkpt>
      <trkpt lat="47.26145" lon="-2.29351">
        <ele>20.39999961853</ele>
        <time>2020-10-08T07:29:23.000Z</time>
      </trkpt>
      <trkpt lat="47.26156" lon="-2.29357">
        <ele>20.39999961853</ele>
        <time>2020-10-08T07:29:26.000Z</time>
      </trkpt>
      <trkpt lat="47.26177" lon="-2.29361">
        <ele>20.39999961853</ele>
        <time>2020-10-08T07:29:32.000Z</time>
      </trkpt>
      <trkpt lat="47.26185" lon="-2.29358">
        <ele>20.799999237061</ele>
        <time>2020-10-08T07:29:34.000Z</time>
      </trkpt>
      <trkpt lat="47.26188" lon="-2.29355">
        <ele>21.200000762939</ele>
        <time>2020-10-08T07:29:35.000Z</time>
      </trkpt>
      <trkpt lat="47.26192" lon="-2.29353">
        <ele>21.60000038147</ele>
        <time>2020-10-08T07:29:36.000Z</time>
      </trkpt>
      <trkpt lat="47.26195" lon="-2.2935">
        <ele>22</ele>
        <time>2020-10-08T07:29:37.000Z</time>
      </trkpt>
      <trkpt lat="47.26199" lon="-2.29348">
        <ele>22.60000038147</ele>
        <time>2020-10-08T07:29:38.000Z</time>
      </trkpt>
      <trkpt lat="47.26226" lon="-2.29325">
        <ele>22.60000038147</ele>
        <time>2020-10-08T07:29:45.000Z</time>
      </trkpt>
      <trkpt lat="47.2623" lon="-2.29321">
        <ele>23</ele>
        <time>2020-10-08T07:29:46.000Z</time>
      </trkpt>
      <trkpt lat="47.26235" lon="-2.29318">
        <ele>23.39999961853</ele>
        <time>2020-10-08T07:29:47.000Z</time>
      </trkpt>
      <trkpt lat="47.2624" lon="-2.29314">
        <ele>23.799999237061</ele>
        <time>2020-10-08T07:29:48.000Z</time>
      </trkpt>
      <trkpt lat="47.26245" lon="-2.29309">
        <ele>24.200000762939</ele>
        <time>2020-10-08T07:29:49.000Z</time>
      </trkpt>
      <trkpt lat="47.2625" lon="-2.29305">
        <ele>24.60000038147</ele>
        <time>2020-10-08T07:29:50.000Z</time>
      </trkpt>
      <trkpt lat="47.2626" lon="-2.29298">
        <ele>24.60000038147</ele>
        <time>2020-10-08T07:29:52.000Z</time>
      </trkpt>
      <trkpt lat="47.26273" lon="-2.29288">
        <ele>24.60000038147</ele>
        <time>2020-10-08T07:29:55.000Z</time>
      </trkpt>
      <trkpt lat="47.26292" lon="-2.29279">
        <ele>24.60000038147</ele>
        <time>2020-10-08T07:29:59.000Z</time>
      </trkpt>
      <trkpt lat="47.26307" lon="-2.29275">
        <ele>25</ele>
        <time>2020-10-08T07:30:02.000Z</time>
      </trkpt>
      <trkpt lat="47.26311" lon="-2.29274">
        <ele>25.39999961853</ele>
        <time>2020-10-08T07:30:03.000Z</time>
      </trkpt>
      <trkpt lat="47.26316" lon="-2.29273">
        <ele>25.799999237061</ele>
        <time>2020-10-08T07:30:04.000Z</time>
      </trkpt>
      <trkpt lat="47.26321" lon="-2.29273">
        <ele>26.200000762939</ele>
        <time>2020-10-08T07:30:05.000Z</time>
      </trkpt>
      <trkpt lat="47.26326" lon="-2.29272">
        <ele>26.60000038147</ele>
        <time>2020-10-08T07:30:06.000Z</time>
      </trkpt>
      <trkpt lat="47.26331" lon="-2.29272">
        <ele>26.60000038147</ele>
        <time>2020-10-08T07:30:07.000Z</time>
      </trkpt>
      <trkpt lat="47.2634" lon="-2.29273">
        <ele>26.60000038147</ele>
        <time>2020-10-08T07:30:09.000Z</time>
      </trkpt>
      <trkpt lat="47.26354" lon="-2.29277">
        <ele>26.60000038147</ele>
        <time>2020-10-08T07:30:12.000Z</time>
      </trkpt>
      <trkpt lat="47.26363" lon="-2.29281">
        <ele>27</ele>
        <time>2020-10-08T07:30:14.000Z</time>
      </trkpt>
      <trkpt lat="47.26368" lon="-2.29283">
        <ele>27.39999961853</ele>
        <time>2020-10-08T07:30:15.000Z</time>
      </trkpt>
      <trkpt lat="47.26373" lon="-2.29285">
        <ele>27.799999237061</ele>
        <time>2020-10-08T07:30:16.000Z</time>
      </trkpt>
      <trkpt lat="47.26378" lon="-2.29287">
        <ele>28.39999961853</ele>
        <time>2020-10-08T07:30:17.000Z</time>
      </trkpt>
      <trkpt lat="47.26382" lon="-2.2929">
        <ele>28.799999237061</ele>
        <time>2020-10-08T07:30:18.000Z</time>
      </trkpt>
      <trkpt lat="47.2641" lon="-2.29305">
        <ele>28.799999237061</ele>
        <time>2020-10-08T07:30:24.000Z</time>
      </trkpt>
      <trkpt lat="47.26453" lon="-2.29328">
        <ele>28.799999237061</ele>
        <time>2020-10-08T07:30:33.000Z</time>
      </trkpt>
      <trkpt lat="47.26467" lon="-2.29334">
        <ele>28.799999237061</ele>
        <time>2020-10-08T07:30:36.000Z</time>
      </trkpt>
      <trkpt lat="47.26482" lon="-2.29337">
        <ele>28.799999237061</ele>
        <time>2020-10-08T07:30:39.000Z</time>
      </trkpt>
      <trkpt lat="47.26512" lon="-2.29333">
        <ele>28.799999237061</ele>
        <time>2020-10-08T07:30:45.000Z</time>
      </trkpt>
      <trkpt lat="47.26543" lon="-2.29317">
        <ele>28.799999237061</ele>
        <time>2020-10-08T07:30:51.000Z</time>
      </trkpt>
      <trkpt lat="47.26588" lon="-2.29291">
        <ele>28.799999237061</ele>
        <time>2020-10-08T07:30:59.000Z</time>
      </trkpt>
      <trkpt lat="47.26632" lon="-2.29262">
        <ele>28.799999237061</ele>
        <time>2020-10-08T07:31:07.000Z</time>
      </trkpt>
      <trkpt lat="47.26657" lon="-2.2924">
        <ele>28.200000762939</ele>
        <time>2020-10-08T07:31:12.000Z</time>
      </trkpt>
      <trkpt lat="47.26662" lon="-2.29234">
        <ele>27.799999237061</ele>
        <time>2020-10-08T07:31:13.000Z</time>
      </trkpt>
      <trkpt lat="47.26667" lon="-2.29229">
        <ele>27.39999961853</ele>
        <time>2020-10-08T07:31:14.000Z</time>
      </trkpt>
      <trkpt lat="47.26673" lon="-2.29225">
        <ele>26.799999237061</ele>
        <time>2020-10-08T07:31:15.000Z</time>
      </trkpt>
      <trkpt lat="47.26678" lon="-2.2922">
        <ele>26.39999961853</ele>
        <time>2020-10-08T07:31:16.000Z</time>
      </trkpt>
      <trkpt lat="47.26705" lon="-2.29193">
        <ele>26.39999961853</ele>
        <time>2020-10-08T07:31:21.000Z</time>
      </trkpt>
      <trkpt lat="47.26732" lon="-2.29166">
        <ele>26</ele>
        <time>2020-10-08T07:31:26.000Z</time>
      </trkpt>
      <trkpt lat="47.26737" lon="-2.2916">
        <ele>25.60000038147</ele>
        <time>2020-10-08T07:31:27.000Z</time>
      </trkpt>
      <trkpt lat="47.26743" lon="-2.29155">
        <ele>25</ele>
        <time>2020-10-08T07:31:28.000Z</time>
      </trkpt>
      <trkpt lat="47.26748" lon="-2.29149">
        <ele>24.60000038147</ele>
        <time>2020-10-08T07:31:29.000Z</time>
      </trkpt>
      <trkpt lat="47.26754" lon="-2.29144">
        <ele>24.200000762939</ele>
        <time>2020-10-08T07:31:30.000Z</time>
      </trkpt>
      <trkpt lat="47.26777" lon="-2.29121">
        <ele>24.200000762939</ele>
        <time>2020-10-08T07:31:34.000Z</time>
      </trkpt>
      <trkpt lat="47.2679" lon="-2.29111">
        <ele>23.799999237061</ele>
        <time>2020-10-08T07:31:36.000Z</time>
      </trkpt>
      <trkpt lat="47.26796" lon="-2.29105">
        <ele>23.39999961853</ele>
        <time>2020-10-08T07:31:37.000Z</time>
      </trkpt>
      <trkpt lat="47.26801" lon="-2.29099">
        <ele>23</ele>
        <time>2020-10-08T07:31:38.000Z</time>
      </trkpt>
      <trkpt lat="47.26807" lon="-2.29093">
        <ele>22.60000038147</ele>
        <time>2020-10-08T07:31:39.000Z</time>
      </trkpt>
      <trkpt lat="47.26813" lon="-2.29088">
        <ele>22.200000762939</ele>
        <time>2020-10-08T07:31:40.000Z</time>
      </trkpt>
      <trkpt lat="47.26836" lon="-2.29063">
        <ele>21.799999237061</ele>
        <time>2020-10-08T07:31:44.000Z</time>
      </trkpt>
      <trkpt lat="47.26842" lon="-2.29057">
        <ele>21.39999961853</ele>
        <time>2020-10-08T07:31:45.000Z</time>
      </trkpt>
      <trkpt lat="47.26848" lon="-2.29051">
        <ele>20.60000038147</ele>
        <time>2020-10-08T07:31:46.000Z</time>
      </trkpt>
      <trkpt lat="47.26855" lon="-2.29046">
        <ele>20.200000762939</ele>
        <time>2020-10-08T07:31:47.000Z</time>
      </trkpt>
      <trkpt lat="47.26885" lon="-2.29016">
        <ele>20.200000762939</ele>
        <time>2020-10-08T07:31:52.000Z</time>
      </trkpt>
      <trkpt lat="47.26892" lon="-2.29011">
        <ele>20.200000762939</ele>
        <time>2020-10-08T07:31:53.000Z</time>
      </trkpt>
      <trkpt lat="47.26925" lon="-2.28994">
        <ele>20.200000762939</ele>
        <time>2020-10-08T07:31:58.000Z</time>
      </trkpt>
      <trkpt lat="47.26947" lon="-2.28989">
        <ele>20.200000762939</ele>
        <time>2020-10-08T07:32:01.000Z</time>
      </trkpt>
      <trkpt lat="47.2696" lon="-2.28991">
        <ele>20.200000762939</ele>
        <time>2020-10-08T07:32:03.000Z</time>
      </trkpt>
      <trkpt lat="47.26998" lon="-2.29001">
        <ele>19.799999237061</ele>
        <time>2020-10-08T07:32:09.000Z</time>
      </trkpt>
      <trkpt lat="47.27003" lon="-2.29003">
        <ele>19</ele>
        <time>2020-10-08T07:32:10.000Z</time>
      </trkpt>
      <trkpt lat="47.27008" lon="-2.29005">
        <ele>18.60000038147</ele>
        <time>2020-10-08T07:32:11.000Z</time>
      </trkpt>
      <trkpt lat="47.27012" lon="-2.29006">
        <ele>18.200000762939</ele>
        <time>2020-10-08T07:32:12.000Z</time>
      </trkpt>
      <trkpt lat="47.27016" lon="-2.29007">
        <ele>18.200000762939</ele>
        <time>2020-10-08T07:32:13.000Z</time>
      </trkpt>
      <trkpt lat="47.2702" lon="-2.29008">
        <ele>18.200000762939</ele>
        <time>2020-10-08T07:32:14.000Z</time>
      </trkpt>
      <trkpt lat="47.27041" lon="-2.29019">
        <ele>18.200000762939</ele>
        <time>2020-10-08T07:32:20.000Z</time>
      </trkpt>
      <trkpt lat="47.2705" lon="-2.2904">
        <ele>18.200000762939</ele>
        <time>2020-10-08T07:32:24.000Z</time>
      </trkpt>
      <trkpt lat="47.27053" lon="-2.29045">
        <ele>18.200000762939</ele>
        <time>2020-10-08T07:32:25.000Z</time>
      </trkpt>
      <trkpt lat="47.2706" lon="-2.29053">
        <ele>18.200000762939</ele>
        <time>2020-10-08T07:32:27.000Z</time>
      </trkpt>
      <trkpt lat="47.27064" lon="-2.29056">
        <ele>18.200000762939</ele>
        <time>2020-10-08T07:32:28.000Z</time>
      </trkpt>
      <trkpt lat="47.27078" lon="-2.29061">
        <ele>18.200000762939</ele>
        <time>2020-10-08T07:32:31.000Z</time>
      </trkpt>
      <trkpt lat="47.27088" lon="-2.29065">
        <ele>18.200000762939</ele>
        <time>2020-10-08T07:32:33.000Z</time>
      </trkpt>
      <trkpt lat="47.27114" lon="-2.29076">
        <ele>18.200000762939</ele>
        <time>2020-10-08T07:32:38.000Z</time>
      </trkpt>
      <trkpt lat="47.2712" lon="-2.29079">
        <ele>18.200000762939</ele>
        <time>2020-10-08T07:32:39.000Z</time>
      </trkpt>
      <trkpt lat="47.27152" lon="-2.29095">
        <ele>18.200000762939</ele>
        <time>2020-10-08T07:32:45.000Z</time>
      </trkpt>
      <trkpt lat="47.27162" lon="-2.29101">
        <ele>18.200000762939</ele>
        <time>2020-10-08T07:32:47.000Z</time>
      </trkpt>
      <trkpt lat="47.27176" lon="-2.2911">
        <ele>18.200000762939</ele>
        <time>2020-10-08T07:32:50.000Z</time>
      </trkpt>
      <trkpt lat="47.2719" lon="-2.29106">
        <ele>17.799999237061</ele>
        <time>2020-10-08T07:32:53.000Z</time>
      </trkpt>
      <trkpt lat="47.27193" lon="-2.29102">
        <ele>17.39999961853</ele>
        <time>2020-10-08T07:32:54.000Z</time>
      </trkpt>
      <trkpt lat="47.27195" lon="-2.29096">
        <ele>17</ele>
        <time>2020-10-08T07:32:55.000Z</time>
      </trkpt>
      <trkpt lat="47.27194" lon="-2.2909">
        <ele>16.60000038147</ele>
        <time>2020-10-08T07:32:56.000Z</time>
      </trkpt>
      <trkpt lat="47.27193" lon="-2.29084">
        <ele>16.200000762939</ele>
        <time>2020-10-08T07:32:57.000Z</time>
      </trkpt>
      <trkpt lat="47.27193" lon="-2.29077">
        <ele>16.200000762939</ele>
        <time>2020-10-08T07:32:58.000Z</time>
      </trkpt>
      <trkpt lat="47.27188" lon="-2.29051">
        <ele>16.200000762939</ele>
        <time>2020-10-08T07:33:02.000Z</time>
      </trkpt>
      <trkpt lat="47.27183" lon="-2.2902">
        <ele>16.200000762939</ele>
        <time>2020-10-08T07:33:06.000Z</time>
      </trkpt>
      <trkpt lat="47.27182" lon="-2.29012">
        <ele>16.200000762939</ele>
        <time>2020-10-08T07:33:07.000Z</time>
      </trkpt>
      <trkpt lat="47.27179" lon="-2.28987">
        <ele>16.200000762939</ele>
        <time>2020-10-08T07:33:10.000Z</time>
      </trkpt>
      <trkpt lat="47.27175" lon="-2.28962">
        <ele>16.200000762939</ele>
        <time>2020-10-08T07:33:13.000Z</time>
      </trkpt>
      <trkpt lat="47.27173" lon="-2.28937">
        <ele>16.200000762939</ele>
        <time>2020-10-08T07:33:17.000Z</time>
      </trkpt>
      <trkpt lat="47.27174" lon="-2.28912">
        <ele>16.200000762939</ele>
        <time>2020-10-08T07:33:21.000Z</time>
      </trkpt>
      <trkpt lat="47.27174" lon="-2.28897">
        <ele>16.200000762939</ele>
        <time>2020-10-08T07:33:23.000Z</time>
      </trkpt>
      <trkpt lat="47.27174" lon="-2.28851">
        <ele>16.200000762939</ele>
        <time>2020-10-08T07:33:29.000Z</time>
      </trkpt>
      <trkpt lat="47.27176" lon="-2.28812">
        <ele>16.200000762939</ele>
        <time>2020-10-08T07:33:35.000Z</time>
      </trkpt>
      <trkpt lat="47.2718" lon="-2.28768">
        <ele>16.200000762939</ele>
        <time>2020-10-08T07:33:41.000Z</time>
      </trkpt>
      <trkpt lat="47.2718" lon="-2.28732">
        <ele>16.200000762939</ele>
        <time>2020-10-08T07:33:46.000Z</time>
      </trkpt>
      <trkpt lat="47.2718" lon="-2.28725">
        <ele>16.200000762939</ele>
        <time>2020-10-08T07:33:47.000Z</time>
      </trkpt>
      <trkpt lat="47.2718" lon="-2.28718">
        <ele>16.60000038147</ele>
        <time>2020-10-08T07:33:48.000Z</time>
      </trkpt>
      <trkpt lat="47.2718" lon="-2.2871">
        <ele>17.60000038147</ele>
        <time>2020-10-08T07:33:49.000Z</time>
      </trkpt>
      <trkpt lat="47.27179" lon="-2.28703">
        <ele>18</ele>
        <time>2020-10-08T07:33:50.000Z</time>
      </trkpt>
      <trkpt lat="47.27179" lon="-2.28696">
        <ele>18.39999961853</ele>
        <time>2020-10-08T07:33:51.000Z</time>
      </trkpt>
      <trkpt lat="47.27179" lon="-2.28676">
        <ele>18.39999961853</ele>
        <time>2020-10-08T07:33:54.000Z</time>
      </trkpt>
      <trkpt lat="47.27181" lon="-2.28643">
        <ele>18.39999961853</ele>
        <time>2020-10-08T07:33:59.000Z</time>
      </trkpt>
      <trkpt lat="47.27182" lon="-2.28621">
        <ele>18.39999961853</ele>
        <time>2020-10-08T07:34:02.000Z</time>
      </trkpt>
      <trkpt lat="47.27184" lon="-2.28608">
        <ele>18.39999961853</ele>
        <time>2020-10-08T07:34:04.000Z</time>
      </trkpt>
      <trkpt lat="47.27194" lon="-2.28597">
        <ele>18.39999961853</ele>
        <time>2020-10-08T07:34:07.000Z</time>
      </trkpt>
      <trkpt lat="47.27198" lon="-2.28595">
        <ele>18.39999961853</ele>
        <time>2020-10-08T07:34:08.000Z</time>
      </trkpt>
      <trkpt lat="47.27214" lon="-2.28591">
        <ele>18.39999961853</ele>
        <time>2020-10-08T07:34:11.000Z</time>
      </trkpt>
      <trkpt lat="47.2725" lon="-2.28586">
        <ele>18.39999961853</ele>
        <time>2020-10-08T07:34:17.000Z</time>
      </trkpt>
      <trkpt lat="47.27281" lon="-2.2859">
        <ele>18.39999961853</ele>
        <time>2020-10-08T07:34:22.000Z</time>
      </trkpt>
      <trkpt lat="47.27313" lon="-2.28597">
        <ele>18.39999961853</ele>
        <time>2020-10-08T07:34:27.000Z</time>
      </trkpt>
      <trkpt lat="47.27358" lon="-2.28611">
        <ele>18.39999961853</ele>
        <time>2020-10-08T07:34:34.000Z</time>
      </trkpt>
      <trkpt lat="47.27364" lon="-2.28613">
        <ele>18.39999961853</ele>
        <time>2020-10-08T07:34:35.000Z</time>
      </trkpt>
      <trkpt lat="47.27381" lon="-2.28624">
        <ele>18.39999961853</ele>
        <time>2020-10-08T07:34:38.000Z</time>
      </trkpt>
      <trkpt lat="47.27392" lon="-2.28631">
        <ele>18</ele>
        <time>2020-10-08T07:34:40.000Z</time>
      </trkpt>
      <trkpt lat="47.27398" lon="-2.28634">
        <ele>17.60000038147</ele>
        <time>2020-10-08T07:34:41.000Z</time>
      </trkpt>
      <trkpt lat="47.27404" lon="-2.28637">
        <ele>17</ele>
        <time>2020-10-08T07:34:42.000Z</time>
      </trkpt>
      <trkpt lat="47.2741" lon="-2.28638">
        <ele>16.60000038147</ele>
        <time>2020-10-08T07:34:43.000Z</time>
      </trkpt>
      <trkpt lat="47.27416" lon="-2.28641">
        <ele>16.200000762939</ele>
        <time>2020-10-08T07:34:44.000Z</time>
      </trkpt>
      <trkpt lat="47.27422" lon="-2.28643">
        <ele>16.200000762939</ele>
        <time>2020-10-08T07:34:45.000Z</time>
      </trkpt>
      <trkpt lat="47.27439" lon="-2.28644">
        <ele>16.200000762939</ele>
        <time>2020-10-08T07:34:48.000Z</time>
      </trkpt>
      <trkpt lat="47.27452" lon="-2.28629">
        <ele>16.200000762939</ele>
        <time>2020-10-08T07:34:51.000Z</time>
      </trkpt>
      <trkpt lat="47.2746" lon="-2.28615">
        <ele>16.200000762939</ele>
        <time>2020-10-08T07:34:53.000Z</time>
      </trkpt>
      <trkpt lat="47.27464" lon="-2.28609">
        <ele>16.200000762939</ele>
        <time>2020-10-08T07:34:54.000Z</time>
      </trkpt>
      <trkpt lat="47.27469" lon="-2.28605">
        <ele>16.200000762939</ele>
        <time>2020-10-08T07:34:55.000Z</time>
      </trkpt>
      <trkpt lat="47.27483" lon="-2.28615">
        <ele>16.200000762939</ele>
        <time>2020-10-08T07:34:58.000Z</time>
      </trkpt>
      <trkpt lat="47.27493" lon="-2.28638">
        <ele>16.200000762939</ele>
        <time>2020-10-08T07:35:01.000Z</time>
      </trkpt>
      <trkpt lat="47.27504" lon="-2.28668">
        <ele>16.200000762939</ele>
        <time>2020-10-08T07:35:05.000Z</time>
      </trkpt>
      <trkpt lat="47.27507" lon="-2.28675">
        <ele>16.200000762939</ele>
        <time>2020-10-08T07:35:06.000Z</time>
      </trkpt>
      <trkpt lat="47.27531" lon="-2.28702">
        <ele>16.200000762939</ele>
        <time>2020-10-08T07:35:11.000Z</time>
      </trkpt>
      <trkpt lat="47.27558" lon="-2.28718">
        <ele>16.200000762939</ele>
        <time>2020-10-08T07:35:16.000Z</time>
      </trkpt>
      <trkpt lat="47.27564" lon="-2.28722">
        <ele>16.200000762939</ele>
        <time>2020-10-08T07:35:17.000Z</time>
      </trkpt>
      <trkpt lat="47.27592" lon="-2.28738">
        <ele>16.200000762939</ele>
        <time>2020-10-08T07:35:22.000Z</time>
      </trkpt>
      <trkpt lat="47.27615" lon="-2.28745">
        <ele>15.800000190735</ele>
        <time>2020-10-08T07:35:26.000Z</time>
      </trkpt>
      <trkpt lat="47.27621" lon="-2.28747">
        <ele>14.800000190735</ele>
        <time>2020-10-08T07:35:27.000Z</time>
      </trkpt>
      <trkpt lat="47.27627" lon="-2.28749">
        <ele>14.39999961853</ele>
        <time>2020-10-08T07:35:28.000Z</time>
      </trkpt>
      <trkpt lat="47.27633" lon="-2.2875">
        <ele>13.800000190735</ele>
        <time>2020-10-08T07:35:29.000Z</time>
      </trkpt>
      <trkpt lat="47.27639" lon="-2.28753">
        <ele>13.800000190735</ele>
        <time>2020-10-08T07:35:30.000Z</time>
      </trkpt>
      <trkpt lat="47.27661" lon="-2.28762">
        <ele>13.800000190735</ele>
        <time>2020-10-08T07:35:34.000Z</time>
      </trkpt>
      <trkpt lat="47.27677" lon="-2.28773">
        <ele>13.800000190735</ele>
        <time>2020-10-08T07:35:37.000Z</time>
      </trkpt>
      <trkpt lat="47.27682" lon="-2.28779">
        <ele>13.800000190735</ele>
        <time>2020-10-08T07:35:38.000Z</time>
      </trkpt>
      <trkpt lat="47.27692" lon="-2.288">
        <ele>13.800000190735</ele>
        <time>2020-10-08T07:35:41.000Z</time>
      </trkpt>
      <trkpt lat="47.27696" lon="-2.28806">
        <ele>13.800000190735</ele>
        <time>2020-10-08T07:35:42.000Z</time>
      </trkpt>
      <trkpt lat="47.27711" lon="-2.28814">
        <ele>13.800000190735</ele>
        <time>2020-10-08T07:35:45.000Z</time>
      </trkpt>
      <trkpt lat="47.27721" lon="-2.28812">
        <ele>13.800000190735</ele>
        <time>2020-10-08T07:35:47.000Z</time>
      </trkpt>
      <trkpt lat="47.27733" lon="-2.28806">
        <ele>13.800000190735</ele>
        <time>2020-10-08T07:35:49.000Z</time>
      </trkpt>
      <trkpt lat="47.2777" lon="-2.28795">
        <ele>13.800000190735</ele>
        <time>2020-10-08T07:35:55.000Z</time>
      </trkpt>
      <trkpt lat="47.27777" lon="-2.28795">
        <ele>13.800000190735</ele>
        <time>2020-10-08T07:35:56.000Z</time>
      </trkpt>
      <trkpt lat="47.27796" lon="-2.28796">
        <ele>13.800000190735</ele>
        <time>2020-10-08T07:35:59.000Z</time>
      </trkpt>
      <trkpt lat="47.27803" lon="-2.28795">
        <ele>13.800000190735</ele>
        <time>2020-10-08T07:36:00.000Z</time>
      </trkpt>
      <trkpt lat="47.27817" lon="-2.28793">
        <ele>13.800000190735</ele>
        <time>2020-10-08T07:36:02.000Z</time>
      </trkpt>
      <trkpt lat="47.27835" lon="-2.28798">
        <ele>13.800000190735</ele>
        <time>2020-10-08T07:36:05.000Z</time>
      </trkpt>
      <trkpt lat="47.27845" lon="-2.28804">
        <ele>13.800000190735</ele>
        <time>2020-10-08T07:36:07.000Z</time>
      </trkpt>
      <trkpt lat="47.27856" lon="-2.28812">
        <ele>13.800000190735</ele>
        <time>2020-10-08T07:36:10.000Z</time>
      </trkpt>
      <trkpt lat="47.27863" lon="-2.28813">
        <ele>13.800000190735</ele>
        <time>2020-10-08T07:36:13.000Z</time>
      </trkpt>
      <trkpt lat="47.27866" lon="-2.28811">
        <ele>13.800000190735</ele>
        <time>2020-10-08T07:36:16.000Z</time>
      </trkpt>
      <trkpt lat="47.27868" lon="-2.28807">
        <ele>13.800000190735</ele>
        <time>2020-10-08T07:36:18.000Z</time>
      </trkpt>
      <trkpt lat="47.27868" lon="-2.28804">
        <ele>13.800000190735</ele>
        <time>2020-10-08T07:36:19.000Z</time>
      </trkpt>
      <trkpt lat="47.2787" lon="-2.28788">
        <ele>13.800000190735</ele>
        <time>2020-10-08T07:36:23.000Z</time>
      </trkpt>
      <trkpt lat="47.27875" lon="-2.28752">
        <ele>13.800000190735</ele>
        <time>2020-10-08T07:36:29.000Z</time>
      </trkpt>
      <trkpt lat="47.27883" lon="-2.28695">
        <ele>13.800000190735</ele>
        <time>2020-10-08T07:36:37.000Z</time>
      </trkpt>
      <trkpt lat="47.27891" lon="-2.28639">
        <ele>13.800000190735</ele>
        <time>2020-10-08T07:36:44.000Z</time>
      </trkpt>
      <trkpt lat="47.27893" lon="-2.2863">
        <ele>13.800000190735</ele>
        <time>2020-10-08T07:36:45.000Z</time>
      </trkpt>
      <trkpt lat="47.27908" lon="-2.28591">
        <ele>13.800000190735</ele>
        <time>2020-10-08T07:36:50.000Z</time>
      </trkpt>
      <trkpt lat="47.27934" lon="-2.28528">
        <ele>13.800000190735</ele>
        <time>2020-10-08T07:36:57.000Z</time>
      </trkpt>
      <trkpt lat="47.27958" lon="-2.28468">
        <ele>13.800000190735</ele>
        <time>2020-10-08T07:37:04.000Z</time>
      </trkpt>
      <trkpt lat="47.27985" lon="-2.28399">
        <ele>13.800000190735</ele>
        <time>2020-10-08T07:37:13.000Z</time>
      </trkpt>
      <trkpt lat="47.27988" lon="-2.28392">
        <ele>13.800000190735</ele>
        <time>2020-10-08T07:37:14.000Z</time>
      </trkpt>
      <trkpt lat="47.28005" lon="-2.28339">
        <ele>13.800000190735</ele>
        <time>2020-10-08T07:37:21.000Z</time>
      </trkpt>
      <trkpt lat="47.2802" lon="-2.28282">
        <ele>13.800000190735</ele>
        <time>2020-10-08T07:37:28.000Z</time>
      </trkpt>
      <trkpt lat="47.28034" lon="-2.28214">
        <ele>13.800000190735</ele>
        <time>2020-10-08T07:37:37.000Z</time>
      </trkpt>
      <trkpt lat="47.28044" lon="-2.28155">
        <ele>13.800000190735</ele>
        <time>2020-10-08T07:37:45.000Z</time>
      </trkpt>
      <trkpt lat="47.2805" lon="-2.2811">
        <ele>13.800000190735</ele>
        <time>2020-10-08T07:37:52.000Z</time>
      </trkpt>
      <trkpt lat="47.28053" lon="-2.28084">
        <ele>14.199999809265</ele>
        <time>2020-10-08T07:37:56.000Z</time>
      </trkpt>
      <trkpt lat="47.28053" lon="-2.28077">
        <ele>14.60000038147</ele>
        <time>2020-10-08T07:37:57.000Z</time>
      </trkpt>
      <trkpt lat="47.28054" lon="-2.28072">
        <ele>15</ele>
        <time>2020-10-08T07:37:58.000Z</time>
      </trkpt>
      <trkpt lat="47.28056" lon="-2.28067">
        <ele>15.39999961853</ele>
        <time>2020-10-08T07:37:59.000Z</time>
      </trkpt>
      <trkpt lat="47.2806" lon="-2.28066">
        <ele>16</ele>
        <time>2020-10-08T07:38:00.000Z</time>
      </trkpt>
      <trkpt lat="47.28064" lon="-2.28067">
        <ele>16</ele>
        <time>2020-10-08T07:38:01.000Z</time>
      </trkpt>
      <trkpt lat="47.28076" lon="-2.28082">
        <ele>16</ele>
        <time>2020-10-08T07:38:04.000Z</time>
      </trkpt>
      <trkpt lat="47.2811" lon="-2.28121">
        <ele>16</ele>
        <time>2020-10-08T07:38:11.000Z</time>
      </trkpt>
      <trkpt lat="47.28116" lon="-2.28125">
        <ele>15.39999961853</ele>
        <time>2020-10-08T07:38:12.000Z</time>
      </trkpt>
      <trkpt lat="47.28123" lon="-2.28126">
        <ele>15</ele>
        <time>2020-10-08T07:38:13.000Z</time>
      </trkpt>
      <trkpt lat="47.2813" lon="-2.28123">
        <ele>14.60000038147</ele>
        <time>2020-10-08T07:38:14.000Z</time>
      </trkpt>
      <trkpt lat="47.28135" lon="-2.28119">
        <ele>14.199999809265</ele>
        <time>2020-10-08T07:38:15.000Z</time>
      </trkpt>
      <trkpt lat="47.28141" lon="-2.28114">
        <ele>13.60000038147</ele>
        <time>2020-10-08T07:38:16.000Z</time>
      </trkpt>
      <trkpt lat="47.28154" lon="-2.28104">
        <ele>13.60000038147</ele>
        <time>2020-10-08T07:38:18.000Z</time>
      </trkpt>
      <trkpt lat="47.2816" lon="-2.281">
        <ele>13.60000038147</ele>
        <time>2020-10-08T07:38:19.000Z</time>
      </trkpt>
      <trkpt lat="47.2818" lon="-2.28102">
        <ele>13.60000038147</ele>
        <time>2020-10-08T07:38:22.000Z</time>
      </trkpt>
      <trkpt lat="47.28196" lon="-2.28122">
        <ele>13.60000038147</ele>
        <time>2020-10-08T07:38:25.000Z</time>
      </trkpt>
      <trkpt lat="47.28204" lon="-2.28139">
        <ele>13.60000038147</ele>
        <time>2020-10-08T07:38:27.000Z</time>
      </trkpt>
      <trkpt lat="47.28207" lon="-2.28147">
        <ele>13.60000038147</ele>
        <time>2020-10-08T07:38:28.000Z</time>
      </trkpt>
      <trkpt lat="47.28214" lon="-2.28163">
        <ele>13.60000038147</ele>
        <time>2020-10-08T07:38:30.000Z</time>
      </trkpt>
      <trkpt lat="47.28232" lon="-2.28208">
        <ele>13.60000038147</ele>
        <time>2020-10-08T07:38:36.000Z</time>
      </trkpt>
      <trkpt lat="47.2824" lon="-2.28228">
        <ele>14</ele>
        <time>2020-10-08T07:38:39.000Z</time>
      </trkpt>
      <trkpt lat="47.28243" lon="-2.28234">
        <ele>14.60000038147</ele>
        <time>2020-10-08T07:38:40.000Z</time>
      </trkpt>
      <trkpt lat="47.28247" lon="-2.2824">
        <ele>15</ele>
        <time>2020-10-08T07:38:41.000Z</time>
      </trkpt>
      <trkpt lat="47.2825" lon="-2.28245">
        <ele>15.39999961853</ele>
        <time>2020-10-08T07:38:42.000Z</time>
      </trkpt>
      <trkpt lat="47.28253" lon="-2.28251">
        <ele>15.800000190735</ele>
        <time>2020-10-08T07:38:43.000Z</time>
      </trkpt>
      <trkpt lat="47.28265" lon="-2.28263">
        <ele>15.800000190735</ele>
        <time>2020-10-08T07:38:46.000Z</time>
      </trkpt>
      <trkpt lat="47.28273" lon="-2.28269">
        <ele>15.800000190735</ele>
        <time>2020-10-08T07:38:48.000Z</time>
      </trkpt>
      <trkpt lat="47.28277" lon="-2.28271">
        <ele>16.200000762939</ele>
        <time>2020-10-08T07:38:49.000Z</time>
      </trkpt>
      <trkpt lat="47.28281" lon="-2.28273">
        <ele>16.60000038147</ele>
        <time>2020-10-08T07:38:50.000Z</time>
      </trkpt>
      <trkpt lat="47.28285" lon="-2.28274">
        <ele>17</ele>
        <time>2020-10-08T07:38:51.000Z</time>
      </trkpt>
      <trkpt lat="47.28289" lon="-2.28276">
        <ele>17.60000038147</ele>
        <time>2020-10-08T07:38:52.000Z</time>
      </trkpt>
      <trkpt lat="47.28293" lon="-2.28277">
        <ele>18</ele>
        <time>2020-10-08T07:38:53.000Z</time>
      </trkpt>
      <trkpt lat="47.28301" lon="-2.28281">
        <ele>18</ele>
        <time>2020-10-08T07:38:55.000Z</time>
      </trkpt>
      <trkpt lat="47.28318" lon="-2.28293">
        <ele>18</ele>
        <time>2020-10-08T07:39:01.000Z</time>
      </trkpt>
      <trkpt lat="47.28321" lon="-2.28293">
        <ele>18</ele>
        <time>2020-10-08T07:39:03.000Z</time>
      </trkpt>
      <trkpt lat="47.28325" lon="-2.28289">
        <ele>18</ele>
        <time>2020-10-08T07:39:05.000Z</time>
      </trkpt>
      <trkpt lat="47.28326" lon="-2.28272">
        <ele>18</ele>
        <time>2020-10-08T07:39:08.000Z</time>
      </trkpt>
      <trkpt lat="47.28325" lon="-2.28265">
        <ele>18</ele>
        <time>2020-10-08T07:39:09.000Z</time>
      </trkpt>
      <trkpt lat="47.28325" lon="-2.2822">
        <ele>18</ele>
        <time>2020-10-08T07:39:15.000Z</time>
      </trkpt>
      <trkpt lat="47.28325" lon="-2.28174">
        <ele>17.60000038147</ele>
        <time>2020-10-08T07:39:20.000Z</time>
      </trkpt>
      <trkpt lat="47.28325" lon="-2.28164">
        <ele>17.200000762939</ele>
        <time>2020-10-08T07:39:21.000Z</time>
      </trkpt>
      <trkpt lat="47.28325" lon="-2.28154">
        <ele>16.799999237061</ele>
        <time>2020-10-08T07:39:22.000Z</time>
      </trkpt>
      <trkpt lat="47.28325" lon="-2.28144">
        <ele>16.39999961853</ele>
        <time>2020-10-08T07:39:23.000Z</time>
      </trkpt>
      <trkpt lat="47.28325" lon="-2.28136">
        <ele>15.800000190735</ele>
        <time>2020-10-08T07:39:24.000Z</time>
      </trkpt>
      <trkpt lat="47.28325" lon="-2.28127">
        <ele>15.39999961853</ele>
        <time>2020-10-08T07:39:25.000Z</time>
      </trkpt>
      <trkpt lat="47.28325" lon="-2.28119">
        <ele>14.800000190735</ele>
        <time>2020-10-08T07:39:26.000Z</time>
      </trkpt>
      <trkpt lat="47.28324" lon="-2.28111">
        <ele>14.39999961853</ele>
        <time>2020-10-08T07:39:27.000Z</time>
      </trkpt>
      <trkpt lat="47.28325" lon="-2.28104">
        <ele>13.800000190735</ele>
        <time>2020-10-08T07:39:28.000Z</time>
      </trkpt>
      <trkpt lat="47.28325" lon="-2.28098">
        <ele>13.39999961853</ele>
        <time>2020-10-08T07:39:29.000Z</time>
      </trkpt>
      <trkpt lat="47.28327" lon="-2.28094">
        <ele>13</ele>
        <time>2020-10-08T07:39:30.000Z</time>
      </trkpt>
      <trkpt lat="47.28328" lon="-2.28091">
        <ele>12.60000038147</ele>
        <time>2020-10-08T07:39:31.000Z</time>
      </trkpt>
      <trkpt lat="47.28331" lon="-2.28089">
        <ele>11.800000190735</ele>
        <time>2020-10-08T07:39:32.000Z</time>
      </trkpt>
      <trkpt lat="47.2834" lon="-2.28083">
        <ele>11.800000190735</ele>
        <time>2020-10-08T07:39:36.000Z</time>
      </trkpt>
      <trkpt lat="47.28356" lon="-2.28079">
        <ele>11.800000190735</ele>
        <time>2020-10-08T07:39:42.000Z</time>
      </trkpt>
      <trkpt lat="47.28359" lon="-2.28075">
        <ele>11.800000190735</ele>
        <time>2020-10-08T07:39:44.000Z</time>
      </trkpt>
      <trkpt lat="47.28365" lon="-2.28061">
        <ele>11.800000190735</ele>
        <time>2020-10-08T07:39:50.000Z</time>
      </trkpt>
      <trkpt lat="47.28368" lon="-2.28055">
        <ele>11.800000190735</ele>
        <time>2020-10-08T07:39:56.000Z</time>
      </trkpt>
      <trkpt lat="47.28369" lon="-2.28057">
        <ele>11.800000190735</ele>
        <time>2020-10-08T07:39:58.000Z</time>
      </trkpt>
      <trkpt lat="47.2837" lon="-2.28063">
        <ele>11.800000190735</ele>
        <time>2020-10-08T07:40:01.000Z</time>
      </trkpt>
      <trkpt lat="47.28373" lon="-2.28068">
        <ele>11.800000190735</ele>
        <time>2020-10-08T07:40:07.000Z</time>
      </trkpt>
      <trkpt lat="47.28378" lon="-2.28069">
        <ele>11.800000190735</ele>
        <time>2020-10-08T07:40:12.000Z</time>
      </trkpt>
      <trkpt lat="47.2838" lon="-2.28069">
        <ele>11.800000190735</ele>
        <time>2020-10-08T07:40:13.000Z</time>
      </trkpt>
      <trkpt lat="47.28389" lon="-2.2807">
        <ele>11.800000190735</ele>
        <time>2020-10-08T07:40:16.000Z</time>
      </trkpt>
      <trkpt lat="47.28391" lon="-2.28072">
        <ele>11.800000190735</ele>
        <time>2020-10-08T07:40:17.000Z</time>
      </trkpt>
      <trkpt lat="47.28402" lon="-2.28075">
        <ele>11.800000190735</ele>
        <time>2020-10-08T07:40:21.000Z</time>
      </trkpt>
      <trkpt lat="47.28413" lon="-2.28076">
        <ele>11.800000190735</ele>
        <time>2020-10-08T07:40:25.000Z</time>
      </trkpt>
      <trkpt lat="47.28425" lon="-2.28077">
        <ele>11.800000190735</ele>
        <time>2020-10-08T07:40:29.000Z</time>
      </trkpt>
      <trkpt lat="47.28427" lon="-2.28077">
        <ele>11.800000190735</ele>
        <time>2020-10-08T07:40:30.000Z</time>
      </trkpt>
      <trkpt lat="47.28433" lon="-2.28081">
        <ele>11.800000190735</ele>
        <time>2020-10-08T07:40:33.000Z</time>
      </trkpt>
      <trkpt lat="47.28436" lon="-2.28082">
        <ele>11.800000190735</ele>
        <time>2020-10-08T07:40:34.000Z</time>
      </trkpt>
      <trkpt lat="47.28449" lon="-2.28088">
        <ele>11.800000190735</ele>
        <time>2020-10-08T07:40:39.000Z</time>
      </trkpt>
      <trkpt lat="47.28463" lon="-2.2808">
        <ele>11.800000190735</ele>
        <time>2020-10-08T07:40:44.000Z</time>
      </trkpt>
      <trkpt lat="47.28468" lon="-2.28075">
        <ele>11.800000190735</ele>
        <time>2020-10-08T07:40:46.000Z</time>
      </trkpt>
      <trkpt lat="47.2847" lon="-2.28069">
        <ele>11.800000190735</ele>
        <time>2020-10-08T07:40:48.000Z</time>
      </trkpt>
      <trkpt lat="47.28469" lon="-2.28067">
        <ele>11.800000190735</ele>
        <time>2020-10-08T07:40:49.000Z</time>
      </trkpt>
      <trkpt lat="47.28468" lon="-2.28065">
        <ele>12.199999809265</ele>
        <time>2020-10-08T07:40:50.000Z</time>
      </trkpt>
      <trkpt lat="47.28467" lon="-2.28064">
        <ele>12.60000038147</ele>
        <time>2020-10-08T07:40:51.000Z</time>
      </trkpt>
      <trkpt lat="47.28466" lon="-2.28061">
        <ele>13</ele>
        <time>2020-10-08T07:40:52.000Z</time>
      </trkpt>
      <trkpt lat="47.28465" lon="-2.28059">
        <ele>13.39999961853</ele>
        <time>2020-10-08T07:40:53.000Z</time>
      </trkpt>
      <trkpt lat="47.28465" lon="-2.28057">
        <ele>14</ele>
        <time>2020-10-08T07:40:54.000Z</time>
      </trkpt>
      <trkpt lat="47.28466" lon="-2.28054">
        <ele>14</ele>
        <time>2020-10-08T07:40:55.000Z</time>
      </trkpt>
      <trkpt lat="47.28468" lon="-2.28052">
        <ele>14</ele>
        <time>2020-10-08T07:40:56.000Z</time>
      </trkpt>
      <trkpt lat="47.28474" lon="-2.28046">
        <ele>14</ele>
        <time>2020-10-08T07:41:00.000Z</time>
      </trkpt>
      <trkpt lat="47.28479" lon="-2.28042">
        <ele>14</ele>
        <time>2020-10-08T07:41:02.000Z</time>
      </trkpt>
      <trkpt lat="47.28489" lon="-2.28041">
        <ele>14</ele>
        <time>2020-10-08T07:41:06.000Z</time>
      </trkpt>
      <trkpt lat="47.28501" lon="-2.28047">
        <ele>14</ele>
        <time>2020-10-08T07:41:12.000Z</time>
      </trkpt>
      <trkpt lat="47.28511" lon="-2.28045">
        <ele>13.60000038147</ele>
        <time>2020-10-08T07:41:16.000Z</time>
      </trkpt>
      <trkpt lat="47.28515" lon="-2.28045">
        <ele>13</ele>
        <time>2020-10-08T07:41:17.000Z</time>
      </trkpt>
      <trkpt lat="47.28518" lon="-2.28046">
        <ele>12.60000038147</ele>
        <time>2020-10-08T07:41:18.000Z</time>
      </trkpt>
      <trkpt lat="47.28522" lon="-2.28045">
        <ele>12.199999809265</ele>
        <time>2020-10-08T07:41:19.000Z</time>
      </trkpt>
      <trkpt lat="47.28525" lon="-2.28044">
        <ele>11.800000190735</ele>
        <time>2020-10-08T07:41:20.000Z</time>
      </trkpt>
      <trkpt lat="47.28527" lon="-2.28045">
        <ele>11.39999961853</ele>
        <time>2020-10-08T07:41:21.000Z</time>
      </trkpt>
      <trkpt lat="47.2853" lon="-2.28046">
        <ele>10.800000190735</ele>
        <time>2020-10-08T07:41:22.000Z</time>
      </trkpt>
      <trkpt lat="47.28533" lon="-2.28048">
        <ele>10.39999961853</ele>
        <time>2020-10-08T07:41:23.000Z</time>
      </trkpt>
      <trkpt lat="47.28537" lon="-2.28049">
        <ele>10</ele>
        <time>2020-10-08T07:41:24.000Z</time>
      </trkpt>
      <trkpt lat="47.28543" lon="-2.2805">
        <ele>9.3999996185303</ele>
        <time>2020-10-08T07:41:25.000Z</time>
      </trkpt>
      <trkpt lat="47.28548" lon="-2.28049">
        <ele>9.3999996185303</ele>
        <time>2020-10-08T07:41:26.000Z</time>
      </trkpt>
      <trkpt lat="47.28552" lon="-2.28047">
        <ele>9.3999996185303</ele>
        <time>2020-10-08T07:41:27.000Z</time>
      </trkpt>
      <trkpt lat="47.28565" lon="-2.28046">
        <ele>9.3999996185303</ele>
        <time>2020-10-08T07:41:30.000Z</time>
      </trkpt>
      <trkpt lat="47.28571" lon="-2.28041">
        <ele>9</ele>
        <time>2020-10-08T07:41:32.000Z</time>
      </trkpt>
      <trkpt lat="47.28574" lon="-2.28036">
        <ele>8.6000003814697</ele>
        <time>2020-10-08T07:41:33.000Z</time>
      </trkpt>
      <trkpt lat="47.28578" lon="-2.28032">
        <ele>8.1999998092651</ele>
        <time>2020-10-08T07:41:34.000Z</time>
      </trkpt>
      <trkpt lat="47.28582" lon="-2.28028">
        <ele>7.8000001907349</ele>
        <time>2020-10-08T07:41:35.000Z</time>
      </trkpt>
      <trkpt lat="47.28586" lon="-2.28024">
        <ele>7.4000000953674</ele>
        <time>2020-10-08T07:41:36.000Z</time>
      </trkpt>
      <trkpt lat="47.2859" lon="-2.28019">
        <ele>7.4000000953674</ele>
        <time>2020-10-08T07:41:37.000Z</time>
      </trkpt>
      <trkpt lat="47.28596" lon="-2.28007">
        <ele>7.4000000953674</ele>
        <time>2020-10-08T07:41:39.000Z</time>
      </trkpt>
      <trkpt lat="47.28598" lon="-2.28">
        <ele>7.4000000953674</ele>
        <time>2020-10-08T07:41:40.000Z</time>
      </trkpt>
      <trkpt lat="47.28608" lon="-2.27971">
        <ele>7.4000000953674</ele>
        <time>2020-10-08T07:41:45.000Z</time>
      </trkpt>
      <trkpt lat="47.28616" lon="-2.27954">
        <ele>7.4000000953674</ele>
        <time>2020-10-08T07:41:50.000Z</time>
      </trkpt>
      <trkpt lat="47.28617" lon="-2.27952">
        <ele>7.4000000953674</ele>
        <time>2020-10-08T07:41:51.000Z</time>
      </trkpt>
      <trkpt lat="47.28619" lon="-2.2795">
        <ele>7.4000000953674</ele>
        <time>2020-10-08T07:41:53.000Z</time>
      </trkpt>
      <trkpt lat="47.28622" lon="-2.27945">
        <ele>7.4000000953674</ele>
        <time>2020-10-08T07:42:32.000Z</time>
      </trkpt>
      <trkpt lat="47.28622" lon="-2.27942">
        <ele>7.4000000953674</ele>
        <time>2020-10-08T07:42:33.000Z</time>
      </trkpt>
      <trkpt lat="47.28623" lon="-2.2792">
        <ele>7.4000000953674</ele>
        <time>2020-10-08T07:42:38.000Z</time>
      </trkpt>
      <trkpt lat="47.2863" lon="-2.27888">
        <ele>7.4000000953674</ele>
        <time>2020-10-08T07:42:43.000Z</time>
      </trkpt>
      <trkpt lat="47.28633" lon="-2.27869">
        <ele>7.4000000953674</ele>
        <time>2020-10-08T07:42:46.000Z</time>
      </trkpt>
      <trkpt lat="47.28638" lon="-2.27843">
        <ele>6.5999999046326</ele>
        <time>2020-10-08T07:42:50.000Z</time>
      </trkpt>
      <trkpt lat="47.28639" lon="-2.27836">
        <ele>6.1999998092651</ele>
        <time>2020-10-08T07:42:51.000Z</time>
      </trkpt>
      <trkpt lat="47.2864" lon="-2.2783">
        <ele>5.8000001907349</ele>
        <time>2020-10-08T07:42:52.000Z</time>
      </trkpt>
      <trkpt lat="47.28642" lon="-2.27823">
        <ele>5.4000000953674</ele>
        <time>2020-10-08T07:42:53.000Z</time>
      </trkpt>
      <trkpt lat="47.28647" lon="-2.27796">
        <ele>5.4000000953674</ele>
        <time>2020-10-08T07:42:57.000Z</time>
      </trkpt>
      <trkpt lat="47.2866" lon="-2.27756">
        <ele>5.4000000953674</ele>
        <time>2020-10-08T07:43:03.000Z</time>
      </trkpt>
      <trkpt lat="47.28662" lon="-2.27751">
        <ele>5.4000000953674</ele>
        <time>2020-10-08T07:43:04.000Z</time>
      </trkpt>
      <trkpt lat="47.28674" lon="-2.27729">
        <ele>5.4000000953674</ele>
        <time>2020-10-08T07:43:08.000Z</time>
      </trkpt>
      <trkpt lat="47.28682" lon="-2.27713">
        <ele>5.4000000953674</ele>
        <time>2020-10-08T07:43:11.000Z</time>
      </trkpt>
      <trkpt lat="47.28702" lon="-2.27677">
        <ele>5.4000000953674</ele>
        <time>2020-10-08T07:43:18.000Z</time>
      </trkpt>
      <trkpt lat="47.2871" lon="-2.27662">
        <ele>5.4000000953674</ele>
        <time>2020-10-08T07:43:21.000Z</time>
      </trkpt>
      <trkpt lat="47.28718" lon="-2.27648">
        <ele>5.4000000953674</ele>
        <time>2020-10-08T07:43:24.000Z</time>
      </trkpt>
      <trkpt lat="47.28737" lon="-2.2762">
        <ele>5.4000000953674</ele>
        <time>2020-10-08T07:43:30.000Z</time>
      </trkpt>
      <trkpt lat="47.28761" lon="-2.27587">
        <ele>5.4000000953674</ele>
        <time>2020-10-08T07:43:37.000Z</time>
      </trkpt>
      <trkpt lat="47.28765" lon="-2.27583">
        <ele>5</ele>
        <time>2020-10-08T07:43:38.000Z</time>
      </trkpt>
      <trkpt lat="47.28768" lon="-2.27579">
        <ele>4.5999999046326</ele>
        <time>2020-10-08T07:43:39.000Z</time>
      </trkpt>
      <trkpt lat="47.28772" lon="-2.27574">
        <ele>3.7999999523163</ele>
        <time>2020-10-08T07:43:40.000Z</time>
      </trkpt>
      <trkpt lat="47.28776" lon="-2.27569">
        <ele>3.4000000953674</ele>
        <time>2020-10-08T07:43:41.000Z</time>
      </trkpt>
      <trkpt lat="47.28786" lon="-2.27559">
        <ele>3.4000000953674</ele>
        <time>2020-10-08T07:43:43.000Z</time>
      </trkpt>
      <trkpt lat="47.28804" lon="-2.27538">
        <ele>3.4000000953674</ele>
        <time>2020-10-08T07:43:47.000Z</time>
      </trkpt>
      <trkpt lat="47.28819" lon="-2.27535">
        <ele>3.4000000953674</ele>
        <time>2020-10-08T07:43:50.000Z</time>
      </trkpt>
      <trkpt lat="47.2883" lon="-2.27534">
        <ele>3.4000000953674</ele>
        <time>2020-10-08T07:43:52.000Z</time>
      </trkpt>
      <trkpt lat="47.28855" lon="-2.27532">
        <ele>3.4000000953674</ele>
        <time>2020-10-08T07:43:57.000Z</time>
      </trkpt>
      <trkpt lat="47.28894" lon="-2.27525">
        <ele>3.4000000953674</ele>
        <time>2020-10-08T07:44:05.000Z</time>
      </trkpt>
      <trkpt lat="47.28933" lon="-2.27522">
        <ele>3.4000000953674</ele>
        <time>2020-10-08T07:44:13.000Z</time>
      </trkpt>
      <trkpt lat="47.28977" lon="-2.27521">
        <ele>3.4000000953674</ele>
        <time>2020-10-08T07:44:22.000Z</time>
      </trkpt>
      <trkpt lat="47.29016" lon="-2.2752">
        <ele>3.4000000953674</ele>
        <time>2020-10-08T07:44:30.000Z</time>
      </trkpt>
      <trkpt lat="47.29053" lon="-2.2752">
        <ele>3.4000000953674</ele>
        <time>2020-10-08T07:44:37.000Z</time>
      </trkpt>
      <trkpt lat="47.29095" lon="-2.27527">
        <ele>3.4000000953674</ele>
        <time>2020-10-08T07:44:45.000Z</time>
      </trkpt>
      <trkpt lat="47.29115" lon="-2.27527">
        <ele>3.4000000953674</ele>
        <time>2020-10-08T07:44:49.000Z</time>
      </trkpt>
      <trkpt lat="47.29125" lon="-2.27528">
        <ele>3.4000000953674</ele>
        <time>2020-10-08T07:44:51.000Z</time>
      </trkpt>
      <trkpt lat="47.29155" lon="-2.27527">
        <ele>3.4000000953674</ele>
        <time>2020-10-08T07:44:57.000Z</time>
      </trkpt>
      <trkpt lat="47.29187" lon="-2.27527">
        <ele>3.4000000953674</ele>
        <time>2020-10-08T07:45:03.000Z</time>
      </trkpt>
      <trkpt lat="47.29213" lon="-2.27527">
        <ele>3.4000000953674</ele>
        <time>2020-10-08T07:45:08.000Z</time>
      </trkpt>
      <trkpt lat="47.29217" lon="-2.27526">
        <ele>3.4000000953674</ele>
        <time>2020-10-08T07:45:09.000Z</time>
      </trkpt>
      <trkpt lat="47.29249" lon="-2.27525">
        <ele>3.4000000953674</ele>
        <time>2020-10-08T07:45:16.000Z</time>
      </trkpt>
      <trkpt lat="47.29258" lon="-2.27521">
        <ele>3.4000000953674</ele>
        <time>2020-10-08T07:45:18.000Z</time>
      </trkpt>
      <trkpt lat="47.29271" lon="-2.27515">
        <ele>3.4000000953674</ele>
        <time>2020-10-08T07:45:21.000Z</time>
      </trkpt>
      <trkpt lat="47.29285" lon="-2.27521">
        <ele>3.4000000953674</ele>
        <time>2020-10-08T07:45:24.000Z</time>
      </trkpt>
      <trkpt lat="47.2929" lon="-2.27524">
        <ele>3.4000000953674</ele>
        <time>2020-10-08T07:45:25.000Z</time>
      </trkpt>
      <trkpt lat="47.29295" lon="-2.27527">
        <ele>3.4000000953674</ele>
        <time>2020-10-08T07:45:26.000Z</time>
      </trkpt>
      <trkpt lat="47.29312" lon="-2.27531">
        <ele>3.4000000953674</ele>
        <time>2020-10-08T07:45:29.000Z</time>
      </trkpt>
      <trkpt lat="47.29349" lon="-2.27529">
        <ele>3.4000000953674</ele>
        <time>2020-10-08T07:45:35.000Z</time>
      </trkpt>
      <trkpt lat="47.29361" lon="-2.27527">
        <ele>3.7999999523163</ele>
        <time>2020-10-08T07:45:37.000Z</time>
      </trkpt>
      <trkpt lat="47.29366" lon="-2.27525">
        <ele>4.1999998092651</ele>
        <time>2020-10-08T07:45:38.000Z</time>
      </trkpt>
      <trkpt lat="47.29371" lon="-2.27524">
        <ele>4.5999999046326</ele>
        <time>2020-10-08T07:45:39.000Z</time>
      </trkpt>
      <trkpt lat="47.29377" lon="-2.27522">
        <ele>5</ele>
        <time>2020-10-08T07:45:40.000Z</time>
      </trkpt>
      <trkpt lat="47.29383" lon="-2.27521">
        <ele>5.4000000953674</ele>
        <time>2020-10-08T07:45:41.000Z</time>
      </trkpt>
      <trkpt lat="47.2943" lon="-2.27511">
        <ele>5.4000000953674</ele>
        <time>2020-10-08T07:45:49.000Z</time>
      </trkpt>
      <trkpt lat="47.29473" lon="-2.27517">
        <ele>5.4000000953674</ele>
        <time>2020-10-08T07:45:56.000Z</time>
      </trkpt>
      <trkpt lat="47.29515" lon="-2.2753">
        <ele>5.4000000953674</ele>
        <time>2020-10-08T07:46:03.000Z</time>
      </trkpt>
      <trkpt lat="47.29556" lon="-2.27544">
        <ele>5.4000000953674</ele>
        <time>2020-10-08T07:46:10.000Z</time>
      </trkpt>
      <trkpt lat="47.29568" lon="-2.27549">
        <ele>5</ele>
        <time>2020-10-08T07:46:12.000Z</time>
      </trkpt>
      <trkpt lat="47.29574" lon="-2.27551">
        <ele>4.5999999046326</ele>
        <time>2020-10-08T07:46:13.000Z</time>
      </trkpt>
      <trkpt lat="47.2958" lon="-2.27554">
        <ele>4.1999998092651</ele>
        <time>2020-10-08T07:46:14.000Z</time>
      </trkpt>
      <trkpt lat="47.29586" lon="-2.27558">
        <ele>3.5999999046326</ele>
        <time>2020-10-08T07:46:15.000Z</time>
      </trkpt>
      <trkpt lat="47.29591" lon="-2.27561">
        <ele>3.2000000476837</ele>
        <time>2020-10-08T07:46:16.000Z</time>
      </trkpt>
      <trkpt lat="47.29602" lon="-2.27568">
        <ele>3.2000000476837</ele>
        <time>2020-10-08T07:46:18.000Z</time>
      </trkpt>
      <trkpt lat="47.29635" lon="-2.27591">
        <ele>3.2000000476837</ele>
        <time>2020-10-08T07:46:23.000Z</time>
      </trkpt>
      <trkpt lat="47.29677" lon="-2.27612">
        <ele>3.2000000476837</ele>
        <time>2020-10-08T07:46:28.000Z</time>
      </trkpt>
      <trkpt lat="47.29686" lon="-2.27614">
        <ele>2.7999999523163</ele>
        <time>2020-10-08T07:46:29.000Z</time>
      </trkpt>
      <trkpt lat="47.29695" lon="-2.27616">
        <ele>2.4000000953674</ele>
        <time>2020-10-08T07:46:30.000Z</time>
      </trkpt>
      <trkpt lat="47.29704" lon="-2.27615">
        <ele>1.7999999523163</ele>
        <time>2020-10-08T07:46:31.000Z</time>
      </trkpt>
      <trkpt lat="47.29713" lon="-2.27614">
        <ele>1.3999999761581</ele>
        <time>2020-10-08T07:46:32.000Z</time>
      </trkpt>
      <trkpt lat="47.29722" lon="-2.27613">
        <ele>0.80000001192093</ele>
        <time>2020-10-08T07:46:33.000Z</time>
      </trkpt>
      <trkpt lat="47.29756" lon="-2.27601">
        <ele>0.80000001192093</ele>
        <time>2020-10-08T07:46:37.000Z</time>
      </trkpt>
      <trkpt lat="47.29787" lon="-2.27592">
        <ele>0.80000001192093</ele>
        <time>2020-10-08T07:46:41.000Z</time>
      </trkpt>
      <trkpt lat="47.29795" lon="-2.27594">
        <ele>0.80000001192093</ele>
        <time>2020-10-08T07:46:42.000Z</time>
      </trkpt>
      <trkpt lat="47.29826" lon="-2.27608">
        <ele>0.80000001192093</ele>
        <time>2020-10-08T07:46:46.000Z</time>
      </trkpt>
      <trkpt lat="47.29851" lon="-2.27621">
        <ele>0.80000001192093</ele>
        <time>2020-10-08T07:46:50.000Z</time>
      </trkpt>
      <trkpt lat="47.29857" lon="-2.27622">
        <ele>0.80000001192093</ele>
        <time>2020-10-08T07:46:51.000Z</time>
      </trkpt>
      <trkpt lat="47.29873" lon="-2.27619">
        <ele>0.80000001192093</ele>
        <time>2020-10-08T07:46:54.000Z</time>
      </trkpt>
      <trkpt lat="47.29883" lon="-2.27614">
        <ele>0.80000001192093</ele>
        <time>2020-10-08T07:46:56.000Z</time>
      </trkpt>
      <trkpt lat="47.29887" lon="-2.27611">
        <ele>0.40000000596046</ele>
        <time>2020-10-08T07:46:57.000Z</time>
      </trkpt>
      <trkpt lat="47.29892" lon="-2.27609">
        <ele>11</ele>
        <time>2020-10-08T07:46:58.000Z</time>
      </trkpt>
      <trkpt lat="47.29898" lon="-2.27606">
        <ele>-0.40000000596046</ele>
        <time>2020-10-08T07:46:59.000Z</time>
      </trkpt>
      <trkpt lat="47.29902" lon="-2.27603">
        <ele>-0.80000001192093</ele>
        <time>2020-10-08T07:47:00.000Z</time>
      </trkpt>
      <trkpt lat="47.29907" lon="-2.276">
        <ele>-1.2000000476837</ele>
        <time>2020-10-08T07:47:01.000Z</time>
      </trkpt>
      <trkpt lat="47.29918" lon="-2.27596">
        <ele>-1.2000000476837</ele>
        <time>2020-10-08T07:47:03.000Z</time>
      </trkpt>
      <trkpt lat="47.29929" lon="-2.27595">
        <ele>-1.2000000476837</ele>
        <time>2020-10-08T07:47:05.000Z</time>
      </trkpt>
      <trkpt lat="47.2995" lon="-2.27599">
        <ele>-1.2000000476837</ele>
        <time>2020-10-08T07:47:09.000Z</time>
      </trkpt>
      <trkpt lat="47.29954" lon="-2.27604">
        <ele>-1.2000000476837</ele>
        <time>2020-10-08T07:47:10.000Z</time>
      </trkpt>
      <trkpt lat="47.2996" lon="-2.27625">
        <ele>-1.2000000476837</ele>
        <time>2020-10-08T07:47:13.000Z</time>
      </trkpt>
      <trkpt lat="47.29958" lon="-2.27651">
        <ele>-1.2000000476837</ele>
        <time>2020-10-08T07:47:16.000Z</time>
      </trkpt>
      <trkpt lat="47.29957" lon="-2.27659">
        <ele>-1.2000000476837</ele>
        <time>2020-10-08T07:47:17.000Z</time>
      </trkpt>
      <trkpt lat="47.29954" lon="-2.27706">
        <ele>-1.2000000476837</ele>
        <time>2020-10-08T07:47:23.000Z</time>
      </trkpt>
      <trkpt lat="47.29949" lon="-2.27766">
        <ele>-1.2000000476837</ele>
        <time>2020-10-08T07:47:31.000Z</time>
      </trkpt>
      <trkpt lat="47.29946" lon="-2.27809">
        <ele>-1.2000000476837</ele>
        <time>2020-10-08T07:47:37.000Z</time>
      </trkpt>
      <trkpt lat="47.29942" lon="-2.2786">
        <ele>-1.2000000476837</ele>
        <time>2020-10-08T07:47:44.000Z</time>
      </trkpt>
      <trkpt lat="47.29941" lon="-2.27881">
        <ele>-1.2000000476837</ele>
        <time>2020-10-08T07:47:47.000Z</time>
      </trkpt>
      <trkpt lat="47.29938" lon="-2.27911">
        <ele>-1.2000000476837</ele>
        <time>2020-10-08T07:47:51.000Z</time>
      </trkpt>
      <trkpt lat="47.29935" lon="-2.27955">
        <ele>-1.2000000476837</ele>
        <time>2020-10-08T07:47:57.000Z</time>
      </trkpt>
      <trkpt lat="47.29936" lon="-2.27976">
        <ele>-1.2000000476837</ele>
        <time>2020-10-08T07:48:00.000Z</time>
      </trkpt>
      <trkpt lat="47.29937" lon="-2.27998">
        <ele>-1.2000000476837</ele>
        <time>2020-10-08T07:48:03.000Z</time>
      </trkpt>
      <trkpt lat="47.29945" lon="-2.28033">
        <ele>-1.2000000476837</ele>
        <time>2020-10-08T07:48:08.000Z</time>
      </trkpt>
      <trkpt lat="47.29948" lon="-2.28039">
        <ele>-1.2000000476837</ele>
        <time>2020-10-08T07:48:09.000Z</time>
      </trkpt>
      <trkpt lat="47.29961" lon="-2.28044">
        <ele>-1.2000000476837</ele>
        <time>2020-10-08T07:48:12.000Z</time>
      </trkpt>
      <trkpt lat="47.29973" lon="-2.28038">
        <ele>-1.2000000476837</ele>
        <time>2020-10-08T07:48:15.000Z</time>
      </trkpt>
      <trkpt lat="47.29981" lon="-2.28034">
        <ele>-1.2000000476837</ele>
        <time>2020-10-08T07:48:17.000Z</time>
      </trkpt>
      <trkpt lat="47.2999" lon="-2.28031">
        <ele>-1.2000000476837</ele>
        <time>2020-10-08T07:48:21.000Z</time>
      </trkpt>
      <trkpt lat="47.29992" lon="-2.28032">
        <ele>-1.2000000476837</ele>
        <time>2020-10-08T07:48:22.000Z</time>
      </trkpt>
      <trkpt lat="47.29994" lon="-2.28039">
        <ele>-1.2000000476837</ele>
        <time>2020-10-08T07:48:24.000Z</time>
      </trkpt>
      <trkpt lat="47.29992" lon="-2.28046">
        <ele>-1.2000000476837</ele>
        <time>2020-10-08T07:48:26.000Z</time>
      </trkpt>
      <trkpt lat="47.29991" lon="-2.2805">
        <ele>-1.2000000476837</ele>
        <time>2020-10-08T07:48:27.000Z</time>
      </trkpt>
      <trkpt lat="47.29984" lon="-2.28072">
        <ele>-1.2000000476837</ele>
        <time>2020-10-08T07:48:31.000Z</time>
      </trkpt>
      <trkpt lat="47.29982" lon="-2.28078">
        <ele>-1.2000000476837</ele>
        <time>2020-10-08T07:48:32.000Z</time>
      </trkpt>
      <trkpt lat="47.29975" lon="-2.28103">
        <ele>-0.40000000596046</ele>
        <time>2020-10-08T07:48:36.000Z</time>
      </trkpt>
      <trkpt lat="47.29972" lon="-2.2811">
        <ele>12</ele>
        <time>2020-10-08T07:48:37.000Z</time>
      </trkpt>
      <trkpt lat="47.29971" lon="-2.28117">
        <ele>0.40000000596046</ele>
        <time>2020-10-08T07:48:38.000Z</time>
      </trkpt>
      <trkpt lat="47.29969" lon="-2.28123">
        <ele>0.80000001192093</ele>
        <time>2020-10-08T07:48:39.000Z</time>
      </trkpt>
      <trkpt lat="47.29959" lon="-2.28159">
        <ele>0.80000001192093</ele>
        <time>2020-10-08T07:48:45.000Z</time>
      </trkpt>
      <trkpt lat="47.29949" lon="-2.28192">
        <ele>0.80000001192093</ele>
        <time>2020-10-08T07:48:50.000Z</time>
      </trkpt>
      <trkpt lat="47.29951" lon="-2.28221">
        <ele>0.80000001192093</ele>
        <time>2020-10-08T07:48:54.000Z</time>
      </trkpt>
      <trkpt lat="47.29954" lon="-2.28257">
        <ele>0.80000001192093</ele>
        <time>2020-10-08T07:48:59.000Z</time>
      </trkpt>
      <trkpt lat="47.29956" lon="-2.28288">
        <ele>0.80000001192093</ele>
        <time>2020-10-08T07:49:03.000Z</time>
      </trkpt>
      <trkpt lat="47.29956" lon="-2.28301">
        <ele>0.80000001192093</ele>
        <time>2020-10-08T07:49:05.000Z</time>
      </trkpt>
      <trkpt lat="47.29956" lon="-2.28334">
        <ele>0.80000001192093</ele>
        <time>2020-10-08T07:49:09.000Z</time>
      </trkpt>
      <trkpt lat="47.29956" lon="-2.28344">
        <ele>0.80000001192093</ele>
        <time>2020-10-08T07:49:10.000Z</time>
      </trkpt>
      <trkpt lat="47.29955" lon="-2.2838">
        <ele>0.80000001192093</ele>
        <time>2020-10-08T07:49:14.000Z</time>
      </trkpt>
      <trkpt lat="47.29957" lon="-2.28396">
        <ele>0.80000001192093</ele>
        <time>2020-10-08T07:49:16.000Z</time>
      </trkpt>
      <trkpt lat="47.29958" lon="-2.28403">
        <ele>0.80000001192093</ele>
        <time>2020-10-08T07:49:17.000Z</time>
      </trkpt>
      <trkpt lat="47.29951" lon="-2.28421">
        <ele>0.80000001192093</ele>
        <time>2020-10-08T07:49:20.000Z</time>
      </trkpt>
      <trkpt lat="47.29945" lon="-2.28447">
        <ele>0.80000001192093</ele>
        <time>2020-10-08T07:49:24.000Z</time>
      </trkpt>
      <trkpt lat="47.29944" lon="-2.28454">
        <ele>0.80000001192093</ele>
        <time>2020-10-08T07:49:25.000Z</time>
      </trkpt>
      <trkpt lat="47.29943" lon="-2.28469">
        <ele>0.80000001192093</ele>
        <time>2020-10-08T07:49:27.000Z</time>
      </trkpt>
      <trkpt lat="47.29941" lon="-2.28492">
        <ele>0.80000001192093</ele>
        <time>2020-10-08T07:49:30.000Z</time>
      </trkpt>
      <trkpt lat="47.29936" lon="-2.28508">
        <ele>0.80000001192093</ele>
        <time>2020-10-08T07:49:32.000Z</time>
      </trkpt>
      <trkpt lat="47.29932" lon="-2.28526">
        <ele>0.80000001192093</ele>
        <time>2020-10-08T07:49:34.000Z</time>
      </trkpt>
      <trkpt lat="47.29932" lon="-2.28535">
        <ele>0.80000001192093</ele>
        <time>2020-10-08T07:49:35.000Z</time>
      </trkpt>
      <trkpt lat="47.29939" lon="-2.28554">
        <ele>0.80000001192093</ele>
        <time>2020-10-08T07:49:38.000Z</time>
      </trkpt>
      <trkpt lat="47.29942" lon="-2.2856">
        <ele>0.80000001192093</ele>
        <time>2020-10-08T07:49:39.000Z</time>
      </trkpt>
      <trkpt lat="47.29944" lon="-2.28566">
        <ele>0.80000001192093</ele>
        <time>2020-10-08T07:49:40.000Z</time>
      </trkpt>
      <trkpt lat="47.29943" lon="-2.2858">
        <ele>0.80000001192093</ele>
        <time>2020-10-08T07:49:42.000Z</time>
      </trkpt>
      <trkpt lat="47.29937" lon="-2.28625">
        <ele>0.80000001192093</ele>
        <time>2020-10-08T07:49:48.000Z</time>
      </trkpt>
      <trkpt lat="47.29935" lon="-2.28633">
        <ele>0.40000000596046</ele>
        <time>2020-10-08T07:49:49.000Z</time>
      </trkpt>
      <trkpt lat="47.29933" lon="-2.28641">
        <ele>-0.60000002384186</ele>
        <time>2020-10-08T07:49:50.000Z</time>
      </trkpt>
      <trkpt lat="47.29931" lon="-2.28649">
        <ele>-1</ele>
        <time>2020-10-08T07:49:51.000Z</time>
      </trkpt>
      <trkpt lat="47.29929" lon="-2.28657">
        <ele>-1.3999999761581</ele>
        <time>2020-10-08T07:49:52.000Z</time>
      </trkpt>
      <trkpt lat="47.29926" lon="-2.28665">
        <ele>-1.3999999761581</ele>
        <time>2020-10-08T07:49:53.000Z</time>
      </trkpt>
      <trkpt lat="47.29917" lon="-2.28703">
        <ele>-1.3999999761581</ele>
        <time>2020-10-08T07:49:58.000Z</time>
      </trkpt>
      <trkpt lat="47.29916" lon="-2.28711">
        <ele>-1.3999999761581</ele>
        <time>2020-10-08T07:49:59.000Z</time>
      </trkpt>
      <trkpt lat="47.29905" lon="-2.2876">
        <ele>-1.3999999761581</ele>
        <time>2020-10-08T07:50:05.000Z</time>
      </trkpt>
      <trkpt lat="47.29896" lon="-2.28812">
        <ele>-1.3999999761581</ele>
        <time>2020-10-08T07:50:12.000Z</time>
      </trkpt>
      <trkpt lat="47.29886" lon="-2.28865">
        <ele>-1.3999999761581</ele>
        <time>2020-10-08T07:50:19.000Z</time>
      </trkpt>
      <trkpt lat="47.29884" lon="-2.28879">
        <ele>-1.3999999761581</ele>
        <time>2020-10-08T07:50:21.000Z</time>
      </trkpt>
      <trkpt lat="47.29876" lon="-2.28897">
        <ele>-1.3999999761581</ele>
        <time>2020-10-08T07:50:24.000Z</time>
      </trkpt>
      <trkpt lat="47.29875" lon="-2.28923">
        <ele>-1.3999999761581</ele>
        <time>2020-10-08T07:50:28.000Z</time>
      </trkpt>
      <trkpt lat="47.29881" lon="-2.28938">
        <ele>-1.3999999761581</ele>
        <time>2020-10-08T07:50:31.000Z</time>
      </trkpt>
      <trkpt lat="47.29885" lon="-2.28939">
        <ele>-1.7999999523163</ele>
        <time>2020-10-08T07:50:32.000Z</time>
      </trkpt>
      <trkpt lat="47.2989" lon="-2.2894">
        <ele>-2.2000000476837</ele>
        <time>2020-10-08T07:50:33.000Z</time>
      </trkpt>
      <trkpt lat="47.29895" lon="-2.28941">
        <ele>-2.7999999523163</ele>
        <time>2020-10-08T07:50:34.000Z</time>
      </trkpt>
      <trkpt lat="47.29901" lon="-2.28943">
        <ele>-3.2000000476837</ele>
        <time>2020-10-08T07:50:35.000Z</time>
      </trkpt>
      <trkpt lat="47.29906" lon="-2.28943">
        <ele>-3.5999999046326</ele>
        <time>2020-10-08T07:50:36.000Z</time>
      </trkpt>
      <trkpt lat="47.29916" lon="-2.28946">
        <ele>-3.5999999046326</ele>
        <time>2020-10-08T07:50:38.000Z</time>
      </trkpt>
      <trkpt lat="47.29924" lon="-2.28951">
        <ele>-3.5999999046326</ele>
        <time>2020-10-08T07:50:40.000Z</time>
      </trkpt>
      <trkpt lat="47.29931" lon="-2.28968">
        <ele>-3.5999999046326</ele>
        <time>2020-10-08T07:50:43.000Z</time>
      </trkpt>
      <trkpt lat="47.29935" lon="-2.28972">
        <ele>-3.5999999046326</ele>
        <time>2020-10-08T07:50:44.000Z</time>
      </trkpt>
      <trkpt lat="47.29949" lon="-2.28995">
        <ele>-3.5999999046326</ele>
        <time>2020-10-08T07:50:48.000Z</time>
      </trkpt>
      <trkpt lat="47.29975" lon="-2.29037">
        <ele>-3.5999999046326</ele>
        <time>2020-10-08T07:50:55.000Z</time>
      </trkpt>
      <trkpt lat="47.29983" lon="-2.2905">
        <ele>-4</ele>
        <time>2020-10-08T07:50:57.000Z</time>
      </trkpt>
      <trkpt lat="47.29987" lon="-2.29057">
        <ele>-4.4000000953674</ele>
        <time>2020-10-08T07:50:58.000Z</time>
      </trkpt>
      <trkpt lat="47.2999" lon="-2.29064">
        <ele>-4.8000001907349</ele>
        <time>2020-10-08T07:50:59.000Z</time>
      </trkpt>
      <trkpt lat="47.29994" lon="-2.29071">
        <ele>-5.1999998092651</ele>
        <time>2020-10-08T07:51:00.000Z</time>
      </trkpt>
      <trkpt lat="47.29998" lon="-2.29077">
        <ele>-5.5999999046326</ele>
        <time>2020-10-08T07:51:01.000Z</time>
      </trkpt>
      <trkpt lat="47.30018" lon="-2.29098">
        <ele>-5.5999999046326</ele>
        <time>2020-10-08T07:51:05.000Z</time>
      </trkpt>
      <trkpt lat="47.30042" lon="-2.29115">
        <ele>-5.5999999046326</ele>
        <time>2020-10-08T07:51:09.000Z</time>
      </trkpt>
      <trkpt lat="47.30049" lon="-2.29117">
        <ele>-5.5999999046326</ele>
        <time>2020-10-08T07:51:10.000Z</time>
      </trkpt>
      <trkpt lat="47.30069" lon="-2.29109">
        <ele>-5.5999999046326</ele>
        <time>2020-10-08T07:51:13.000Z</time>
      </trkpt>
      <trkpt lat="47.30086" lon="-2.29093">
        <ele>-5.5999999046326</ele>
        <time>2020-10-08T07:51:16.000Z</time>
      </trkpt>
      <trkpt lat="47.30102" lon="-2.29077">
        <ele>-5.5999999046326</ele>
        <time>2020-10-08T07:51:19.000Z</time>
      </trkpt>
      <trkpt lat="47.30129" lon="-2.29051">
        <ele>-5.5999999046326</ele>
        <time>2020-10-08T07:51:25.000Z</time>
      </trkpt>
      <trkpt lat="47.30138" lon="-2.29044">
        <ele>-5.1999998092651</ele>
        <time>2020-10-08T07:51:27.000Z</time>
      </trkpt>
      <trkpt lat="47.30142" lon="-2.2904">
        <ele>-4.4000000953674</ele>
        <time>2020-10-08T07:51:28.000Z</time>
      </trkpt>
      <trkpt lat="47.30146" lon="-2.29036">
        <ele>-4</ele>
        <time>2020-10-08T07:51:29.000Z</time>
      </trkpt>
      <trkpt lat="47.3015" lon="-2.29032">
        <ele>-3.5999999046326</ele>
        <time>2020-10-08T07:51:30.000Z</time>
      </trkpt>
      <trkpt lat="47.30161" lon="-2.29021">
        <ele>-3.5999999046326</ele>
        <time>2020-10-08T07:51:33.000Z</time>
      </trkpt>
      <trkpt lat="47.30183" lon="-2.28989">
        <ele>-3.5999999046326</ele>
        <time>2020-10-08T07:51:40.000Z</time>
      </trkpt>
      <trkpt lat="47.30196" lon="-2.28968">
        <ele>-3.5999999046326</ele>
        <time>2020-10-08T07:51:45.000Z</time>
      </trkpt>
      <trkpt lat="47.30218" lon="-2.28947">
        <ele>-3.5999999046326</ele>
        <time>2020-10-08T07:51:50.000Z</time>
      </trkpt>
      <trkpt lat="47.30245" lon="-2.28931">
        <ele>-3.5999999046326</ele>
        <time>2020-10-08T07:51:55.000Z</time>
      </trkpt>
      <trkpt lat="47.30251" lon="-2.28928">
        <ele>-3.5999999046326</ele>
        <time>2020-10-08T07:51:56.000Z</time>
      </trkpt>
      <trkpt lat="47.30294" lon="-2.28912">
        <ele>-3.5999999046326</ele>
        <time>2020-10-08T07:52:03.000Z</time>
      </trkpt>
      <trkpt lat="47.30325" lon="-2.28902">
        <ele>-3.5999999046326</ele>
        <time>2020-10-08T07:52:08.000Z</time>
      </trkpt>
      <trkpt lat="47.30331" lon="-2.28901">
        <ele>-3.5999999046326</ele>
        <time>2020-10-08T07:52:09.000Z</time>
      </trkpt>
      <trkpt lat="47.30355" lon="-2.28902">
        <ele>-3.5999999046326</ele>
        <time>2020-10-08T07:52:13.000Z</time>
      </trkpt>
      <trkpt lat="47.30361" lon="-2.28904">
        <ele>-3.5999999046326</ele>
        <time>2020-10-08T07:52:14.000Z</time>
      </trkpt>
      <trkpt lat="47.30392" lon="-2.28922">
        <ele>-4</ele>
        <time>2020-10-08T07:52:19.000Z</time>
      </trkpt>
      <trkpt lat="47.30397" lon="-2.28925">
        <ele>-4.4000000953674</ele>
        <time>2020-10-08T07:52:20.000Z</time>
      </trkpt>
      <trkpt lat="47.30403" lon="-2.28929">
        <ele>-4.8000001907349</ele>
        <time>2020-10-08T07:52:21.000Z</time>
      </trkpt>
      <trkpt lat="47.30409" lon="-2.28932">
        <ele>-5.4000000953674</ele>
        <time>2020-10-08T07:52:22.000Z</time>
      </trkpt>
      <trkpt lat="47.30415" lon="-2.28935">
        <ele>-5.8000001907349</ele>
        <time>2020-10-08T07:52:23.000Z</time>
      </trkpt>
      <trkpt lat="47.3044" lon="-2.28949">
        <ele>-5.8000001907349</ele>
        <time>2020-10-08T07:52:27.000Z</time>
      </trkpt>
      <trkpt lat="47.3048" lon="-2.28978">
        <ele>-5.8000001907349</ele>
        <time>2020-10-08T07:52:34.000Z</time>
      </trkpt>
      <trkpt lat="47.30495" lon="-2.2899">
        <ele>-5.8000001907349</ele>
        <time>2020-10-08T07:52:37.000Z</time>
      </trkpt>
      <trkpt lat="47.305" lon="-2.28988">
        <ele>-5.8000001907349</ele>
        <time>2020-10-08T07:52:38.000Z</time>
      </trkpt>
      <trkpt lat="47.30511" lon="-2.28975">
        <ele>-5.8000001907349</ele>
        <time>2020-10-08T07:52:41.000Z</time>
      </trkpt>
      <trkpt lat="47.30516" lon="-2.2897">
        <ele>-5.8000001907349</ele>
        <time>2020-10-08T07:52:42.000Z</time>
      </trkpt>
      <trkpt lat="47.30532" lon="-2.28962">
        <ele>-5.8000001907349</ele>
        <time>2020-10-08T07:52:45.000Z</time>
      </trkpt>
      <trkpt lat="47.30552" lon="-2.28949">
        <ele>-5.8000001907349</ele>
        <time>2020-10-08T07:52:49.000Z</time>
      </trkpt>
      <trkpt lat="47.30561" lon="-2.2894">
        <ele>-5.8000001907349</ele>
        <time>2020-10-08T07:52:51.000Z</time>
      </trkpt>
      <trkpt lat="47.30574" lon="-2.28929">
        <ele>-5.8000001907349</ele>
        <time>2020-10-08T07:52:54.000Z</time>
      </trkpt>
      <trkpt lat="47.30583" lon="-2.28921">
        <ele>-5.8000001907349</ele>
        <time>2020-10-08T07:52:56.000Z</time>
      </trkpt>
      <trkpt lat="47.30588" lon="-2.28918">
        <ele>-5.8000001907349</ele>
        <time>2020-10-08T07:52:57.000Z</time>
      </trkpt>
      <trkpt lat="47.30607" lon="-2.28905">
        <ele>-5.8000001907349</ele>
        <time>2020-10-08T07:53:01.000Z</time>
      </trkpt>
      <trkpt lat="47.3063" lon="-2.2889">
        <ele>-5.8000001907349</ele>
        <time>2020-10-08T07:53:06.000Z</time>
      </trkpt>
      <trkpt lat="47.30639" lon="-2.28885">
        <ele>-5.8000001907349</ele>
        <time>2020-10-08T07:53:08.000Z</time>
      </trkpt>
      <trkpt lat="47.30675" lon="-2.28862">
        <ele>-5.8000001907349</ele>
        <time>2020-10-08T07:53:16.000Z</time>
      </trkpt>
      <trkpt lat="47.30691" lon="-2.28848">
        <ele>-5.8000001907349</ele>
        <time>2020-10-08T07:53:20.000Z</time>
      </trkpt>
      <trkpt lat="47.30699" lon="-2.28842">
        <ele>-5.8000001907349</ele>
        <time>2020-10-08T07:53:22.000Z</time>
      </trkpt>
      <trkpt lat="47.30721" lon="-2.28831">
        <ele>-5.8000001907349</ele>
        <time>2020-10-08T07:53:26.000Z</time>
      </trkpt>
      <trkpt lat="47.30732" lon="-2.28828">
        <ele>-5.8000001907349</ele>
        <time>2020-10-08T07:53:28.000Z</time>
      </trkpt>
      <trkpt lat="47.30782" lon="-2.28819">
        <ele>-5.8000001907349</ele>
        <time>2020-10-08T07:53:36.000Z</time>
      </trkpt>
      <trkpt lat="47.30813" lon="-2.28816">
        <ele>-5.8000001907349</ele>
        <time>2020-10-08T07:53:41.000Z</time>
      </trkpt>
      <trkpt lat="47.30833" lon="-2.28818">
        <ele>-5.8000001907349</ele>
        <time>2020-10-08T07:53:44.000Z</time>
      </trkpt>
      <trkpt lat="47.30848" lon="-2.2882">
        <ele>-5.8000001907349</ele>
        <time>2020-10-08T07:53:46.000Z</time>
      </trkpt>
      <trkpt lat="47.30878" lon="-2.28821">
        <ele>-6.1999998092651</ele>
        <time>2020-10-08T07:53:50.000Z</time>
      </trkpt>
      <trkpt lat="47.30885" lon="-2.28821">
        <ele>-6.5999999046326</ele>
        <time>2020-10-08T07:53:51.000Z</time>
      </trkpt>
      <trkpt lat="47.30892" lon="-2.28821">
        <ele>-7</ele>
        <time>2020-10-08T07:53:52.000Z</time>
      </trkpt>
      <trkpt lat="47.30899" lon="-2.2882">
        <ele>-7.4000000953674</ele>
        <time>2020-10-08T07:53:53.000Z</time>
      </trkpt>
      <trkpt lat="47.30906" lon="-2.2882">
        <ele>-7.8000001907349</ele>
        <time>2020-10-08T07:53:54.000Z</time>
      </trkpt>
      <trkpt lat="47.30947" lon="-2.28821">
        <ele>-7.8000001907349</ele>
        <time>2020-10-08T07:54:00.000Z</time>
      </trkpt>
      <trkpt lat="47.30958" lon="-2.28822">
        <ele>-7.8000001907349</ele>
        <time>2020-10-08T07:54:02.000Z</time>
      </trkpt>
      <trkpt lat="47.30964" lon="-2.28822">
        <ele>-7.4000000953674</ele>
        <time>2020-10-08T07:54:03.000Z</time>
      </trkpt>
      <trkpt lat="47.30969" lon="-2.2882">
        <ele>-7</ele>
        <time>2020-10-08T07:54:04.000Z</time>
      </trkpt>
      <trkpt lat="47.30974" lon="-2.28818">
        <ele>-6.5999999046326</ele>
        <time>2020-10-08T07:54:05.000Z</time>
      </trkpt>
      <trkpt lat="47.30978" lon="-2.28816">
        <ele>-6</ele>
        <time>2020-10-08T07:54:06.000Z</time>
      </trkpt>
      <trkpt lat="47.30982" lon="-2.28814">
        <ele>-5.5999999046326</ele>
        <time>2020-10-08T07:54:07.000Z</time>
      </trkpt>
      <trkpt lat="47.30986" lon="-2.28812">
        <ele>-5.1999998092651</ele>
        <time>2020-10-08T07:54:08.000Z</time>
      </trkpt>
      <trkpt lat="47.3099" lon="-2.2881">
        <ele>-4.8000001907349</ele>
        <time>2020-10-08T07:54:09.000Z</time>
      </trkpt>
      <trkpt lat="47.30994" lon="-2.28809">
        <ele>-4.4000000953674</ele>
        <time>2020-10-08T07:54:10.000Z</time>
      </trkpt>
      <trkpt lat="47.30998" lon="-2.28808">
        <ele>-4</ele>
        <time>2020-10-08T07:54:11.000Z</time>
      </trkpt>
      <trkpt lat="47.31002" lon="-2.28808">
        <ele>-3.5999999046326</ele>
        <time>2020-10-08T07:54:12.000Z</time>
      </trkpt>
      <trkpt lat="47.31013" lon="-2.28811">
        <ele>-3.5999999046326</ele>
        <time>2020-10-08T07:54:15.000Z</time>
      </trkpt>
      <trkpt lat="47.31018" lon="-2.28816">
        <ele>-3.5999999046326</ele>
        <time>2020-10-08T07:54:17.000Z</time>
      </trkpt>
      <trkpt lat="47.31027" lon="-2.28824">
        <ele>-3.5999999046326</ele>
        <time>2020-10-08T07:54:20.000Z</time>
      </trkpt>
      <trkpt lat="47.31051" lon="-2.28842">
        <ele>-3.5999999046326</ele>
        <time>2020-10-08T07:54:25.000Z</time>
      </trkpt>
      <trkpt lat="47.31083" lon="-2.28866">
        <ele>-3.5999999046326</ele>
        <time>2020-10-08T07:54:31.000Z</time>
      </trkpt>
      <trkpt lat="47.31127" lon="-2.28904">
        <ele>-4</ele>
        <time>2020-10-08T07:54:39.000Z</time>
      </trkpt>
      <trkpt lat="47.31133" lon="-2.28907">
        <ele>-4.4000000953674</ele>
        <time>2020-10-08T07:54:40.000Z</time>
      </trkpt>
      <trkpt lat="47.31139" lon="-2.28906">
        <ele>-4.8000001907349</ele>
        <time>2020-10-08T07:54:41.000Z</time>
      </trkpt>
      <trkpt lat="47.31145" lon="-2.28904">
        <ele>-5.1999998092651</ele>
        <time>2020-10-08T07:54:42.000Z</time>
      </trkpt>
      <trkpt lat="47.3115" lon="-2.28902">
        <ele>-5.5999999046326</ele>
        <time>2020-10-08T07:54:43.000Z</time>
      </trkpt>
      <trkpt lat="47.31156" lon="-2.28899">
        <ele>-5.5999999046326</ele>
        <time>2020-10-08T07:54:44.000Z</time>
      </trkpt>
      <trkpt lat="47.31171" lon="-2.28896">
        <ele>-5.5999999046326</ele>
        <time>2020-10-08T07:54:47.000Z</time>
      </trkpt>
      <trkpt lat="47.31181" lon="-2.28912">
        <ele>-5.5999999046326</ele>
        <time>2020-10-08T07:54:50.000Z</time>
      </trkpt>
      <trkpt lat="47.31185" lon="-2.28926">
        <ele>-5.5999999046326</ele>
        <time>2020-10-08T07:54:52.000Z</time>
      </trkpt>
      <trkpt lat="47.3119" lon="-2.28948">
        <ele>-5.5999999046326</ele>
        <time>2020-10-08T07:54:55.000Z</time>
      </trkpt>
      <trkpt lat="47.31192" lon="-2.28956">
        <ele>-5.5999999046326</ele>
        <time>2020-10-08T07:54:56.000Z</time>
      </trkpt>
      <trkpt lat="47.31199" lon="-2.29001">
        <ele>-5.5999999046326</ele>
        <time>2020-10-08T07:55:02.000Z</time>
      </trkpt>
      <trkpt lat="47.31203" lon="-2.29057">
        <ele>-5.5999999046326</ele>
        <time>2020-10-08T07:55:09.000Z</time>
      </trkpt>
      <trkpt lat="47.31206" lon="-2.29074">
        <ele>-5.1999998092651</ele>
        <time>2020-10-08T07:55:11.000Z</time>
      </trkpt>
      <trkpt lat="47.31207" lon="-2.29083">
        <ele>-4.4000000953674</ele>
        <time>2020-10-08T07:55:12.000Z</time>
      </trkpt>
      <trkpt lat="47.31208" lon="-2.29091">
        <ele>-4</ele>
        <time>2020-10-08T07:55:13.000Z</time>
      </trkpt>
      <trkpt lat="47.3121" lon="-2.29101">
        <ele>-3.5999999046326</ele>
        <time>2020-10-08T07:55:14.000Z</time>
      </trkpt>
      <trkpt lat="47.31211" lon="-2.2911">
        <ele>-3.5999999046326</ele>
        <time>2020-10-08T07:55:15.000Z</time>
      </trkpt>
      <trkpt lat="47.3122" lon="-2.29172">
        <ele>-3.5999999046326</ele>
        <time>2020-10-08T07:55:22.000Z</time>
      </trkpt>
      <trkpt lat="47.31236" lon="-2.29235">
        <ele>-3.5999999046326</ele>
        <time>2020-10-08T07:55:29.000Z</time>
      </trkpt>
      <trkpt lat="47.31249" lon="-2.29285">
        <ele>-3.5999999046326</ele>
        <time>2020-10-08T07:55:35.000Z</time>
      </trkpt>
      <trkpt lat="47.31263" lon="-2.29339">
        <ele>-3.5999999046326</ele>
        <time>2020-10-08T07:55:42.000Z</time>
      </trkpt>
      <trkpt lat="47.31266" lon="-2.29343">
        <ele>-3.5999999046326</ele>
        <time>2020-10-08T07:55:43.000Z</time>
      </trkpt>
      <trkpt lat="47.31273" lon="-2.29339">
        <ele>-3.5999999046326</ele>
        <time>2020-10-08T07:55:45.000Z</time>
      </trkpt>
      <trkpt lat="47.31276" lon="-2.2933">
        <ele>-3.5999999046326</ele>
        <time>2020-10-08T07:55:47.000Z</time>
      </trkpt>
      <trkpt lat="47.31281" lon="-2.29318">
        <ele>-3.5999999046326</ele>
        <time>2020-10-08T07:55:49.000Z</time>
      </trkpt>
      <trkpt lat="47.31284" lon="-2.29312">
        <ele>-3.5999999046326</ele>
        <time>2020-10-08T07:55:50.000Z</time>
      </trkpt>
      <trkpt lat="47.31297" lon="-2.29299">
        <ele>-3.5999999046326</ele>
        <time>2020-10-08T07:55:53.000Z</time>
      </trkpt>
      <trkpt lat="47.31317" lon="-2.29294">
        <ele>-3.5999999046326</ele>
        <time>2020-10-08T07:55:57.000Z</time>
      </trkpt>
      <trkpt lat="47.31327" lon="-2.29297">
        <ele>-3.5999999046326</ele>
        <time>2020-10-08T07:55:59.000Z</time>
      </trkpt>
      <trkpt lat="47.31332" lon="-2.29298">
        <ele>-3.5999999046326</ele>
        <time>2020-10-08T07:56:00.000Z</time>
      </trkpt>
      <trkpt lat="47.31342" lon="-2.29303">
        <ele>-3.5999999046326</ele>
        <time>2020-10-08T07:56:02.000Z</time>
      </trkpt>
      <trkpt lat="47.31368" lon="-2.29314">
        <ele>-3.5999999046326</ele>
        <time>2020-10-08T07:56:08.000Z</time>
      </trkpt>
      <trkpt lat="47.31398" lon="-2.29328">
        <ele>-3.5999999046326</ele>
        <time>2020-10-08T07:56:15.000Z</time>
      </trkpt>
      <trkpt lat="47.31414" lon="-2.29342">
        <ele>-3.2000000476837</ele>
        <time>2020-10-08T07:56:19.000Z</time>
      </trkpt>
      <trkpt lat="47.31417" lon="-2.29345">
        <ele>-2.7999999523163</ele>
        <time>2020-10-08T07:56:20.000Z</time>
      </trkpt>
      <trkpt lat="47.3142" lon="-2.29349">
        <ele>-2.2000000476837</ele>
        <time>2020-10-08T07:56:21.000Z</time>
      </trkpt>
      <trkpt lat="47.31422" lon="-2.29354">
        <ele>-1.7999999523163</ele>
        <time>2020-10-08T07:56:22.000Z</time>
      </trkpt>
      <trkpt lat="47.31424" lon="-2.29358">
        <ele>-1.3999999761581</ele>
        <time>2020-10-08T07:56:23.000Z</time>
      </trkpt>
      <trkpt lat="47.3143" lon="-2.29366">
        <ele>-1.3999999761581</ele>
        <time>2020-10-08T07:56:25.000Z</time>
      </trkpt>
      <trkpt lat="47.31442" lon="-2.29384">
        <ele>-1.3999999761581</ele>
        <time>2020-10-08T07:56:29.000Z</time>
      </trkpt>
      <trkpt lat="47.31448" lon="-2.29394">
        <ele>-1.3999999761581</ele>
        <time>2020-10-08T07:56:31.000Z</time>
      </trkpt>
      <trkpt lat="47.31452" lon="-2.29398">
        <ele>-1.3999999761581</ele>
        <time>2020-10-08T07:56:32.000Z</time>
      </trkpt>
      <trkpt lat="47.31465" lon="-2.294">
        <ele>-1.3999999761581</ele>
        <time>2020-10-08T07:56:35.000Z</time>
      </trkpt>
      <trkpt lat="47.31477" lon="-2.29397">
        <ele>-1.3999999761581</ele>
        <time>2020-10-08T07:56:38.000Z</time>
      </trkpt>
      <trkpt lat="47.31489" lon="-2.29394">
        <ele>-1.3999999761581</ele>
        <time>2020-10-08T07:56:41.000Z</time>
      </trkpt>
      <trkpt lat="47.31498" lon="-2.29397">
        <ele>-1</ele>
        <time>2020-10-08T07:56:43.000Z</time>
      </trkpt>
      <trkpt lat="47.31501" lon="-2.29399">
        <ele>-0.60000002384186</ele>
        <time>2020-10-08T07:56:44.000Z</time>
      </trkpt>
      <trkpt lat="47.31505" lon="-2.29403">
        <ele>-0.20000000298023</ele>
        <time>2020-10-08T07:56:45.000Z</time>
      </trkpt>
      <trkpt lat="47.31509" lon="-2.29408">
        <ele>0.20000000298023</ele>
        <time>2020-10-08T07:56:46.000Z</time>
      </trkpt>
      <trkpt lat="47.31513" lon="-2.29413">
        <ele>0.60000002384186</ele>
        <time>2020-10-08T07:56:47.000Z</time>
      </trkpt>
      <trkpt lat="47.31518" lon="-2.29424">
        <ele>0.60000002384186</ele>
        <time>2020-10-08T07:56:49.000Z</time>
      </trkpt>
      <trkpt lat="47.31521" lon="-2.2943">
        <ele>0.60000002384186</ele>
        <time>2020-10-08T07:56:50.000Z</time>
      </trkpt>
      <trkpt lat="47.3153" lon="-2.29454">
        <ele>0.60000002384186</ele>
        <time>2020-10-08T07:56:54.000Z</time>
      </trkpt>
      <trkpt lat="47.31534" lon="-2.29467">
        <ele>0.60000002384186</ele>
        <time>2020-10-08T07:56:56.000Z</time>
      </trkpt>
      <trkpt lat="47.31538" lon="-2.2948">
        <ele>1</ele>
        <time>2020-10-08T07:56:58.000Z</time>
      </trkpt>
      <trkpt lat="47.31539" lon="-2.29486">
        <ele>1.6000000238419</ele>
        <time>2020-10-08T07:56:59.000Z</time>
      </trkpt>
      <trkpt lat="47.31541" lon="-2.29493">
        <ele>2</ele>
        <time>2020-10-08T07:57:00.000Z</time>
      </trkpt>
      <trkpt lat="47.31542" lon="-2.295">
        <ele>2.4000000953674</ele>
        <time>2020-10-08T07:57:01.000Z</time>
      </trkpt>
      <trkpt lat="47.31543" lon="-2.29508">
        <ele>2.7999999523163</ele>
        <time>2020-10-08T07:57:02.000Z</time>
      </trkpt>
      <trkpt lat="47.31547" lon="-2.29522">
        <ele>2.7999999523163</ele>
        <time>2020-10-08T07:57:04.000Z</time>
      </trkpt>
      <trkpt lat="47.31557" lon="-2.29548">
        <ele>2.7999999523163</ele>
        <time>2020-10-08T07:57:08.000Z</time>
      </trkpt>
      <trkpt lat="47.31561" lon="-2.29552">
        <ele>2.7999999523163</ele>
        <time>2020-10-08T07:57:09.000Z</time>
      </trkpt>
      <trkpt lat="47.31585" lon="-2.29585">
        <ele>2.7999999523163</ele>
        <time>2020-10-08T07:57:16.000Z</time>
      </trkpt>
      <trkpt lat="47.31609" lon="-2.29608">
        <ele>2.7999999523163</ele>
        <time>2020-10-08T07:57:22.000Z</time>
      </trkpt>
      <trkpt lat="47.31616" lon="-2.29618">
        <ele>2.7999999523163</ele>
        <time>2020-10-08T07:57:24.000Z</time>
      </trkpt>
      <trkpt lat="47.31626" lon="-2.29635">
        <ele>2.7999999523163</ele>
        <time>2020-10-08T07:57:27.000Z</time>
      </trkpt>
      <trkpt lat="47.31641" lon="-2.2967">
        <ele>3.2000000476837</ele>
        <time>2020-10-08T07:57:32.000Z</time>
      </trkpt>
      <trkpt lat="47.31644" lon="-2.29677">
        <ele>3.5999999046326</ele>
        <time>2020-10-08T07:57:33.000Z</time>
      </trkpt>
      <trkpt lat="47.31646" lon="-2.29684">
        <ele>4.1999998092651</ele>
        <time>2020-10-08T07:57:34.000Z</time>
      </trkpt>
      <trkpt lat="47.31649" lon="-2.29691">
        <ele>4.5999999046326</ele>
        <time>2020-10-08T07:57:35.000Z</time>
      </trkpt>
      <trkpt lat="47.3165" lon="-2.29698">
        <ele>5</ele>
        <time>2020-10-08T07:57:36.000Z</time>
      </trkpt>
      <trkpt lat="47.31657" lon="-2.29717">
        <ele>5</ele>
        <time>2020-10-08T07:57:39.000Z</time>
      </trkpt>
      <trkpt lat="47.31663" lon="-2.29729">
        <ele>5</ele>
        <time>2020-10-08T07:57:41.000Z</time>
      </trkpt>
      <trkpt lat="47.31678" lon="-2.29735">
        <ele>5</ele>
        <time>2020-10-08T07:57:44.000Z</time>
      </trkpt>
      <trkpt lat="47.31689" lon="-2.29734">
        <ele>5</ele>
        <time>2020-10-08T07:57:46.000Z</time>
      </trkpt>
      <trkpt lat="47.31706" lon="-2.29728">
        <ele>5</ele>
        <time>2020-10-08T07:57:49.000Z</time>
      </trkpt>
      <trkpt lat="47.31727" lon="-2.2971">
        <ele>5</ele>
        <time>2020-10-08T07:57:53.000Z</time>
      </trkpt>
      <trkpt lat="47.31763" lon="-2.29683">
        <ele>5</ele>
        <time>2020-10-08T07:57:59.000Z</time>
      </trkpt>
      <trkpt lat="47.31804" lon="-2.29652">
        <ele>5</ele>
        <time>2020-10-08T07:58:06.000Z</time>
      </trkpt>
      <trkpt lat="47.31852" lon="-2.29624">
        <ele>5</ele>
        <time>2020-10-08T07:58:14.000Z</time>
      </trkpt>
      <trkpt lat="47.31857" lon="-2.29619">
        <ele>5</ele>
        <time>2020-10-08T07:58:15.000Z</time>
      </trkpt>
      <trkpt lat="47.31872" lon="-2.29599">
        <ele>5</ele>
        <time>2020-10-08T07:58:18.000Z</time>
      </trkpt>
      <trkpt lat="47.31887" lon="-2.29581">
        <ele>5</ele>
        <time>2020-10-08T07:58:21.000Z</time>
      </trkpt>
      <trkpt lat="47.31904" lon="-2.29566">
        <ele>5</ele>
        <time>2020-10-08T07:58:24.000Z</time>
      </trkpt>
      <trkpt lat="47.31935" lon="-2.29538">
        <ele>4.5999999046326</ele>
        <time>2020-10-08T07:58:29.000Z</time>
      </trkpt>
      <trkpt lat="47.31941" lon="-2.29532">
        <ele>4.1999998092651</ele>
        <time>2020-10-08T07:58:30.000Z</time>
      </trkpt>
      <trkpt lat="47.31947" lon="-2.29527">
        <ele>3.7999999523163</ele>
        <time>2020-10-08T07:58:31.000Z</time>
      </trkpt>
      <trkpt lat="47.31953" lon="-2.29522">
        <ele>3.4000000953674</ele>
        <time>2020-10-08T07:58:32.000Z</time>
      </trkpt>
      <trkpt lat="47.31959" lon="-2.29517">
        <ele>2.7999999523163</ele>
        <time>2020-10-08T07:58:33.000Z</time>
      </trkpt>
      <trkpt lat="47.31971" lon="-2.29505">
        <ele>2.4000000953674</ele>
        <time>2020-10-08T07:58:35.000Z</time>
      </trkpt>
      <trkpt lat="47.31977" lon="-2.29499">
        <ele>2</ele>
        <time>2020-10-08T07:58:36.000Z</time>
      </trkpt>
      <trkpt lat="47.31984" lon="-2.29493">
        <ele>1.6000000238419</ele>
        <time>2020-10-08T07:58:37.000Z</time>
      </trkpt>
      <trkpt lat="47.3199" lon="-2.29487">
        <ele>1.2000000476837</ele>
        <time>2020-10-08T07:58:38.000Z</time>
      </trkpt>
      <trkpt lat="47.31996" lon="-2.2948">
        <ele>0.80000001192093</ele>
        <time>2020-10-08T07:58:39.000Z</time>
      </trkpt>
      <trkpt lat="47.32003" lon="-2.29474">
        <ele>0.80000001192093</ele>
        <time>2020-10-08T07:58:40.000Z</time>
      </trkpt>
      <trkpt lat="47.32047" lon="-2.29425">
        <ele>0.80000001192093</ele>
        <time>2020-10-08T07:58:47.000Z</time>
      </trkpt>
      <trkpt lat="47.32073" lon="-2.29396">
        <ele>0.40000000596046</ele>
        <time>2020-10-08T07:58:51.000Z</time>
      </trkpt>
      <trkpt lat="47.32081" lon="-2.29388">
        <ele>-0.40000000596046</ele>
        <time>2020-10-08T07:58:52.000Z</time>
      </trkpt>
      <trkpt lat="47.32087" lon="-2.2938">
        <ele>-0.80000001192093</ele>
        <time>2020-10-08T07:58:53.000Z</time>
      </trkpt>
      <trkpt lat="47.32095" lon="-2.29372">
        <ele>-1.2000000476837</ele>
        <time>2020-10-08T07:58:54.000Z</time>
      </trkpt>
      <trkpt lat="47.32138" lon="-2.29324">
        <ele>-1.2000000476837</ele>
        <time>2020-10-08T07:59:00.000Z</time>
      </trkpt>
      <trkpt lat="47.32183" lon="-2.29272">
        <ele>-1.2000000476837</ele>
        <time>2020-10-08T07:59:06.000Z</time>
      </trkpt>
      <trkpt lat="47.32199" lon="-2.29256">
        <ele>-1.2000000476837</ele>
        <time>2020-10-08T07:59:08.000Z</time>
      </trkpt>
      <trkpt lat="47.32242" lon="-2.29226">
        <ele>-1.2000000476837</ele>
        <time>2020-10-08T07:59:13.000Z</time>
      </trkpt>
      <trkpt lat="47.32251" lon="-2.29223">
        <ele>-1.2000000476837</ele>
        <time>2020-10-08T07:59:14.000Z</time>
      </trkpt>
      <trkpt lat="47.32279" lon="-2.29216">
        <ele>-2</ele>
        <time>2020-10-08T07:59:17.000Z</time>
      </trkpt>
      <trkpt lat="47.32287" lon="-2.29214">
        <ele>-2.7999999523163</ele>
        <time>2020-10-08T07:59:18.000Z</time>
      </trkpt>
      <trkpt lat="47.32296" lon="-2.29212">
        <ele>-3.4000000953674</ele>
        <time>2020-10-08T07:59:19.000Z</time>
      </trkpt>
      <trkpt lat="47.32304" lon="-2.2921">
        <ele>-4</ele>
        <time>2020-10-08T07:59:20.000Z</time>
      </trkpt>
      <trkpt lat="47.32312" lon="-2.29208">
        <ele>-4.8000001907349</ele>
        <time>2020-10-08T07:59:21.000Z</time>
      </trkpt>
      <trkpt lat="47.32321" lon="-2.29205">
        <ele>-5.4000000953674</ele>
        <time>2020-10-08T07:59:22.000Z</time>
      </trkpt>
      <trkpt lat="47.32337" lon="-2.29203">
        <ele>-5.4000000953674</ele>
        <time>2020-10-08T07:59:24.000Z</time>
      </trkpt>
      <trkpt lat="47.32392" lon="-2.29188">
        <ele>-5.4000000953674</ele>
        <time>2020-10-08T07:59:31.000Z</time>
      </trkpt>
      <trkpt lat="47.324" lon="-2.29186">
        <ele>-5.4000000953674</ele>
        <time>2020-10-08T07:59:32.000Z</time>
      </trkpt>
      <trkpt lat="47.32456" lon="-2.2917">
        <ele>-5.4000000953674</ele>
        <time>2020-10-08T07:59:39.000Z</time>
      </trkpt>
      <trkpt lat="47.32471" lon="-2.29165">
        <ele>-5.4000000953674</ele>
        <time>2020-10-08T07:59:41.000Z</time>
      </trkpt>
      <trkpt lat="47.32528" lon="-2.2915">
        <ele>-5.4000000953674</ele>
        <time>2020-10-08T07:59:48.000Z</time>
      </trkpt>
      <trkpt lat="47.32581" lon="-2.29136">
        <ele>-5.4000000953674</ele>
        <time>2020-10-08T07:59:55.000Z</time>
      </trkpt>
      <trkpt lat="47.32639" lon="-2.29119">
        <ele>-5.4000000953674</ele>
        <time>2020-10-08T08:00:03.000Z</time>
      </trkpt>
      <trkpt lat="47.32653" lon="-2.29116">
        <ele>-5.4000000953674</ele>
        <time>2020-10-08T08:00:05.000Z</time>
      </trkpt>
      <trkpt lat="47.32704" lon="-2.29103">
        <ele>-5.4000000953674</ele>
        <time>2020-10-08T08:00:13.000Z</time>
      </trkpt>
      <trkpt lat="47.32711" lon="-2.29103">
        <ele>-5.4000000953674</ele>
        <time>2020-10-08T08:00:14.000Z</time>
      </trkpt>
      <trkpt lat="47.32728" lon="-2.29106">
        <ele>-5.4000000953674</ele>
        <time>2020-10-08T08:00:17.000Z</time>
      </trkpt>
      <trkpt lat="47.32749" lon="-2.29111">
        <ele>-5.4000000953674</ele>
        <time>2020-10-08T08:00:21.000Z</time>
      </trkpt>
      <trkpt lat="47.32753" lon="-2.29106">
        <ele>-5.4000000953674</ele>
        <time>2020-10-08T08:00:22.000Z</time>
      </trkpt>
      <trkpt lat="47.32757" lon="-2.29086">
        <ele>-5.4000000953674</ele>
        <time>2020-10-08T08:00:25.000Z</time>
      </trkpt>
      <trkpt lat="47.3276" lon="-2.2903">
        <ele>-5.4000000953674</ele>
        <time>2020-10-08T08:00:32.000Z</time>
      </trkpt>
      <trkpt lat="47.32762" lon="-2.29015">
        <ele>-5.4000000953674</ele>
        <time>2020-10-08T08:00:34.000Z</time>
      </trkpt>
      <trkpt lat="47.32775" lon="-2.29002">
        <ele>-5.4000000953674</ele>
        <time>2020-10-08T08:00:37.000Z</time>
      </trkpt>
      <trkpt lat="47.3278" lon="-2.28999">
        <ele>-5.4000000953674</ele>
        <time>2020-10-08T08:00:38.000Z</time>
      </trkpt>
      <trkpt lat="47.32813" lon="-2.28979">
        <ele>-5.4000000953674</ele>
        <time>2020-10-08T08:00:45.000Z</time>
      </trkpt>
      <trkpt lat="47.32818" lon="-2.28975">
        <ele>-5.4000000953674</ele>
        <time>2020-10-08T08:00:46.000Z</time>
      </trkpt>
      <trkpt lat="47.32842" lon="-2.28957">
        <ele>-5.4000000953674</ele>
        <time>2020-10-08T08:00:51.000Z</time>
      </trkpt>
      <trkpt lat="47.32846" lon="-2.28952">
        <ele>-5.4000000953674</ele>
        <time>2020-10-08T08:00:52.000Z</time>
      </trkpt>
      <trkpt lat="47.32862" lon="-2.28937">
        <ele>-5.4000000953674</ele>
        <time>2020-10-08T08:00:56.000Z</time>
      </trkpt>
      <trkpt lat="47.32876" lon="-2.28933">
        <ele>-5.4000000953674</ele>
        <time>2020-10-08T08:01:01.000Z</time>
      </trkpt>
      <trkpt lat="47.32891" lon="-2.28937">
        <ele>-5.4000000953674</ele>
        <time>2020-10-08T08:01:08.000Z</time>
      </trkpt>
      <trkpt lat="47.329" lon="-2.28937">
        <ele>-5.4000000953674</ele>
        <time>2020-10-08T08:01:15.000Z</time>
      </trkpt>
      <trkpt lat="47.32901" lon="-2.28937">
        <ele>-5.4000000953674</ele>
        <time>2020-10-08T08:01:17.000Z</time>
      </trkpt>
      <trkpt lat="47.32907" lon="-2.28936">
        <ele>-5.4000000953674</ele>
        <time>2020-10-08T08:04:10.000Z</time>
      </trkpt>
      <trkpt lat="47.32909" lon="-2.28935">
        <ele>-5.4000000953674</ele>
        <time>2020-10-08T08:04:11.000Z</time>
      </trkpt>
      <trkpt lat="47.32924" lon="-2.28926">
        <ele>-5.4000000953674</ele>
        <time>2020-10-08T08:04:17.000Z</time>
      </trkpt>
      <trkpt lat="47.32939" lon="-2.28912">
        <ele>-5</ele>
        <time>2020-10-08T08:04:23.000Z</time>
      </trkpt>
      <trkpt lat="47.32942" lon="-2.28909">
        <ele>-4.5999999046326</ele>
        <time>2020-10-08T08:04:24.000Z</time>
      </trkpt>
      <trkpt lat="47.32945" lon="-2.28907">
        <ele>-4.1999998092651</ele>
        <time>2020-10-08T08:04:25.000Z</time>
      </trkpt>
      <trkpt lat="47.32949" lon="-2.28904">
        <ele>-3.7999999523163</ele>
        <time>2020-10-08T08:04:26.000Z</time>
      </trkpt>
      <trkpt lat="47.32953" lon="-2.289">
        <ele>-3.4000000953674</ele>
        <time>2020-10-08T08:04:27.000Z</time>
      </trkpt>
      <trkpt lat="47.3297" lon="-2.28889">
        <ele>-3.4000000953674</ele>
        <time>2020-10-08T08:04:31.000Z</time>
      </trkpt>
      <trkpt lat="47.32992" lon="-2.2887">
        <ele>-3.4000000953674</ele>
        <time>2020-10-08T08:04:37.000Z</time>
      </trkpt>
      <trkpt lat="47.33016" lon="-2.28855">
        <ele>-3.4000000953674</ele>
        <time>2020-10-08T08:04:43.000Z</time>
      </trkpt>
      <trkpt lat="47.33042" lon="-2.28839">
        <ele>-3.4000000953674</ele>
        <time>2020-10-08T08:04:49.000Z</time>
      </trkpt>
      <trkpt lat="47.33071" lon="-2.28824">
        <ele>-3.4000000953674</ele>
        <time>2020-10-08T08:04:55.000Z</time>
      </trkpt>
      <trkpt lat="47.33098" lon="-2.28815">
        <ele>-3.4000000953674</ele>
        <time>2020-10-08T08:05:01.000Z</time>
      </trkpt>
      <trkpt lat="47.33105" lon="-2.28827">
        <ele>-3.4000000953674</ele>
        <time>2020-10-08T08:05:04.000Z</time>
      </trkpt>
      <trkpt lat="47.33107" lon="-2.28833">
        <ele>-3.4000000953674</ele>
        <time>2020-10-08T08:05:05.000Z</time>
      </trkpt>
      <trkpt lat="47.33114" lon="-2.28858">
        <ele>-3.4000000953674</ele>
        <time>2020-10-08T08:05:10.000Z</time>
      </trkpt>
      <trkpt lat="47.33118" lon="-2.28869">
        <ele>-3.4000000953674</ele>
        <time>2020-10-08T08:05:12.000Z</time>
      </trkpt>
      <trkpt lat="47.3312" lon="-2.28888">
        <ele>-3.4000000953674</ele>
        <time>2020-10-08T08:05:15.000Z</time>
      </trkpt>
      <trkpt lat="47.3312" lon="-2.28902">
        <ele>-3.4000000953674</ele>
        <time>2020-10-08T08:05:17.000Z</time>
      </trkpt>
      <trkpt lat="47.33119" lon="-2.28929">
        <ele>-3.4000000953674</ele>
        <time>2020-10-08T08:05:21.000Z</time>
      </trkpt>
      <trkpt lat="47.33111" lon="-2.28964">
        <ele>-3.4000000953674</ele>
        <time>2020-10-08T08:05:26.000Z</time>
      </trkpt>
      <trkpt lat="47.33108" lon="-2.2898">
        <ele>-3.4000000953674</ele>
        <time>2020-10-08T08:05:28.000Z</time>
      </trkpt>
      <trkpt lat="47.33104" lon="-2.29003">
        <ele>-3</ele>
        <time>2020-10-08T08:05:31.000Z</time>
      </trkpt>
      <trkpt lat="47.33103" lon="-2.29009">
        <ele>-2.5999999046326</ele>
        <time>2020-10-08T08:05:32.000Z</time>
      </trkpt>
      <trkpt lat="47.33101" lon="-2.29015">
        <ele>-2.2000000476837</ele>
        <time>2020-10-08T08:05:33.000Z</time>
      </trkpt>
      <trkpt lat="47.33099" lon="-2.29022">
        <ele>-1.6000000238419</ele>
        <time>2020-10-08T08:05:34.000Z</time>
      </trkpt>
      <trkpt lat="47.33096" lon="-2.29028">
        <ele>-1.2000000476837</ele>
        <time>2020-10-08T08:05:35.000Z</time>
      </trkpt>
      <trkpt lat="47.33094" lon="-2.29035">
        <ele>-1.2000000476837</ele>
        <time>2020-10-08T08:05:36.000Z</time>
      </trkpt>
      <trkpt lat="47.33093" lon="-2.29042">
        <ele>-1.2000000476837</ele>
        <time>2020-10-08T08:05:37.000Z</time>
      </trkpt>
      <trkpt lat="47.331" lon="-2.29059">
        <ele>-1.2000000476837</ele>
        <time>2020-10-08T08:05:40.000Z</time>
      </trkpt>
      <trkpt lat="47.33113" lon="-2.29059">
        <ele>-1.2000000476837</ele>
        <time>2020-10-08T08:05:43.000Z</time>
      </trkpt>
      <trkpt lat="47.33148" lon="-2.29054">
        <ele>-1.2000000476837</ele>
        <time>2020-10-08T08:05:49.000Z</time>
      </trkpt>
      <trkpt lat="47.33193" lon="-2.29058">
        <ele>-1.2000000476837</ele>
        <time>2020-10-08T08:05:56.000Z</time>
      </trkpt>
      <trkpt lat="47.33219" lon="-2.29066">
        <ele>-1.7999999523163</ele>
        <time>2020-10-08T08:06:00.000Z</time>
      </trkpt>
      <trkpt lat="47.33225" lon="-2.2907">
        <ele>-2.2000000476837</ele>
        <time>2020-10-08T08:06:01.000Z</time>
      </trkpt>
      <trkpt lat="47.33231" lon="-2.29073">
        <ele>-2.5999999046326</ele>
        <time>2020-10-08T08:06:02.000Z</time>
      </trkpt>
      <trkpt lat="47.33238" lon="-2.29076">
        <ele>-3</ele>
        <time>2020-10-08T08:06:03.000Z</time>
      </trkpt>
      <trkpt lat="47.33244" lon="-2.29079">
        <ele>-3.4000000953674</ele>
        <time>2020-10-08T08:06:04.000Z</time>
      </trkpt>
      <trkpt lat="47.33255" lon="-2.29086">
        <ele>-3.4000000953674</ele>
        <time>2020-10-08T08:06:06.000Z</time>
      </trkpt>
      <trkpt lat="47.33258" lon="-2.29092">
        <ele>-3.4000000953674</ele>
        <time>2020-10-08T08:06:07.000Z</time>
      </trkpt>
      <trkpt lat="47.33262" lon="-2.29115">
        <ele>-3.4000000953674</ele>
        <time>2020-10-08T08:06:10.000Z</time>
      </trkpt>
      <trkpt lat="47.33262" lon="-2.29124">
        <ele>-3.4000000953674</ele>
        <time>2020-10-08T08:06:11.000Z</time>
      </trkpt>
      <trkpt lat="47.33259" lon="-2.29177">
        <ele>-3.4000000953674</ele>
        <time>2020-10-08T08:06:17.000Z</time>
      </trkpt>
      <trkpt lat="47.33255" lon="-2.29235">
        <ele>-3.4000000953674</ele>
        <time>2020-10-08T08:06:24.000Z</time>
      </trkpt>
      <trkpt lat="47.33252" lon="-2.29278">
        <ele>-3.4000000953674</ele>
        <time>2020-10-08T08:06:29.000Z</time>
      </trkpt>
      <trkpt lat="47.33247" lon="-2.29342">
        <ele>-3.4000000953674</ele>
        <time>2020-10-08T08:06:36.000Z</time>
      </trkpt>
      <trkpt lat="47.33245" lon="-2.29397">
        <ele>-3.4000000953674</ele>
        <time>2020-10-08T08:06:42.000Z</time>
      </trkpt>
      <trkpt lat="47.33245" lon="-2.29431">
        <ele>-3.7999999523163</ele>
        <time>2020-10-08T08:06:46.000Z</time>
      </trkpt>
      <trkpt lat="47.33245" lon="-2.29441">
        <ele>-4.1999998092651</ele>
        <time>2020-10-08T08:06:47.000Z</time>
      </trkpt>
      <trkpt lat="47.33244" lon="-2.2945">
        <ele>-4.5999999046326</ele>
        <time>2020-10-08T08:06:48.000Z</time>
      </trkpt>
      <trkpt lat="47.33245" lon="-2.2946">
        <ele>-5</ele>
        <time>2020-10-08T08:06:49.000Z</time>
      </trkpt>
      <trkpt lat="47.33245" lon="-2.29469">
        <ele>-5.4000000953674</ele>
        <time>2020-10-08T08:06:50.000Z</time>
      </trkpt>
      <trkpt lat="47.33244" lon="-2.29513">
        <ele>-5.4000000953674</ele>
        <time>2020-10-08T08:06:55.000Z</time>
      </trkpt>
      <trkpt lat="47.33243" lon="-2.29555">
        <ele>-5.4000000953674</ele>
        <time>2020-10-08T08:07:00.000Z</time>
      </trkpt>
      <trkpt lat="47.33243" lon="-2.29569">
        <ele>-5.4000000953674</ele>
        <time>2020-10-08T08:07:02.000Z</time>
      </trkpt>
      <trkpt lat="47.33245" lon="-2.29579">
        <ele>-5.4000000953674</ele>
        <time>2020-10-08T08:07:04.000Z</time>
      </trkpt>
      <trkpt lat="47.33252" lon="-2.29579">
        <ele>-5.4000000953674</ele>
        <time>2020-10-08T08:07:07.000Z</time>
      </trkpt>
      <trkpt lat="47.33255" lon="-2.29576">
        <ele>-5.4000000953674</ele>
        <time>2020-10-08T08:07:08.000Z</time>
      </trkpt>
      <trkpt lat="47.33259" lon="-2.29573">
        <ele>-5.4000000953674</ele>
        <time>2020-10-08T08:07:09.000Z</time>
      </trkpt>
      <trkpt lat="47.33269" lon="-2.29566">
        <ele>-5.4000000953674</ele>
        <time>2020-10-08T08:07:11.000Z</time>
      </trkpt>
      <trkpt lat="47.33302" lon="-2.29547">
        <ele>-5.4000000953674</ele>
        <time>2020-10-08T08:07:17.000Z</time>
      </trkpt>
      <trkpt lat="47.33343" lon="-2.29524">
        <ele>-5.4000000953674</ele>
        <time>2020-10-08T08:07:24.000Z</time>
      </trkpt>
      <trkpt lat="47.33364" lon="-2.29521">
        <ele>-5.4000000953674</ele>
        <time>2020-10-08T08:07:27.000Z</time>
      </trkpt>
      <trkpt lat="47.33377" lon="-2.29523">
        <ele>-5.8000001907349</ele>
        <time>2020-10-08T08:07:29.000Z</time>
      </trkpt>
      <trkpt lat="47.33383" lon="-2.29524">
        <ele>-6.1999998092651</ele>
        <time>2020-10-08T08:07:30.000Z</time>
      </trkpt>
      <trkpt lat="47.3339" lon="-2.29526">
        <ele>-7</ele>
        <time>2020-10-08T08:07:31.000Z</time>
      </trkpt>
      <trkpt lat="47.33396" lon="-2.29528">
        <ele>-7.4000000953674</ele>
        <time>2020-10-08T08:07:32.000Z</time>
      </trkpt>
      <trkpt lat="47.33416" lon="-2.29535">
        <ele>-7.4000000953674</ele>
        <time>2020-10-08T08:07:35.000Z</time>
      </trkpt>
      <trkpt lat="47.33454" lon="-2.29544">
        <ele>-7.4000000953674</ele>
        <time>2020-10-08T08:07:41.000Z</time>
      </trkpt>
      <trkpt lat="47.33461" lon="-2.29544">
        <ele>-8</ele>
        <time>2020-10-08T08:07:42.000Z</time>
      </trkpt>
      <trkpt lat="47.33467" lon="-2.29545">
        <ele>-8.3999996185303</ele>
        <time>2020-10-08T08:07:43.000Z</time>
      </trkpt>
      <trkpt lat="47.33474" lon="-2.29545">
        <ele>-8.8000001907349</ele>
        <time>2020-10-08T08:07:44.000Z</time>
      </trkpt>
      <trkpt lat="47.33481" lon="-2.29545">
        <ele>-9.1999998092651</ele>
        <time>2020-10-08T08:07:45.000Z</time>
      </trkpt>
      <trkpt lat="47.33488" lon="-2.29546">
        <ele>-9.6000003814697</ele>
        <time>2020-10-08T08:07:46.000Z</time>
      </trkpt>
      <trkpt lat="47.33507" lon="-2.29548">
        <ele>-9.6000003814697</ele>
        <time>2020-10-08T08:07:49.000Z</time>
      </trkpt>
      <trkpt lat="47.33551" lon="-2.29553">
        <ele>-9.6000003814697</ele>
        <time>2020-10-08T08:07:56.000Z</time>
      </trkpt>
      <trkpt lat="47.33593" lon="-2.29558">
        <ele>-9.6000003814697</ele>
        <time>2020-10-08T08:08:03.000Z</time>
      </trkpt>
      <trkpt lat="47.33645" lon="-2.29561">
        <ele>-9.6000003814697</ele>
        <time>2020-10-08T08:08:12.000Z</time>
      </trkpt>
      <trkpt lat="47.33686" lon="-2.29562">
        <ele>-9.6000003814697</ele>
        <time>2020-10-08T08:08:19.000Z</time>
      </trkpt>
      <trkpt lat="47.33708" lon="-2.29559">
        <ele>-9.6000003814697</ele>
        <time>2020-10-08T08:08:24.000Z</time>
      </trkpt>
      <trkpt lat="47.3373" lon="-2.29555">
        <ele>-9.6000003814697</ele>
        <time>2020-10-08T08:08:30.000Z</time>
      </trkpt>
      <trkpt lat="47.33748" lon="-2.29551">
        <ele>-9.6000003814697</ele>
        <time>2020-10-08T08:08:36.000Z</time>
      </trkpt>
      <trkpt lat="47.33768" lon="-2.29547">
        <ele>-9.6000003814697</ele>
        <time>2020-10-08T08:08:42.000Z</time>
      </trkpt>
      <trkpt lat="47.33801" lon="-2.29541">
        <ele>-9.6000003814697</ele>
        <time>2020-10-08T08:08:51.000Z</time>
      </trkpt>
      <trkpt lat="47.33826" lon="-2.29542">
        <ele>-9.6000003814697</ele>
        <time>2020-10-08T08:08:58.000Z</time>
      </trkpt>
      <trkpt lat="47.3383" lon="-2.29557">
        <ele>-9.6000003814697</ele>
        <time>2020-10-08T08:09:01.000Z</time>
      </trkpt>
      <trkpt lat="47.33831" lon="-2.29562">
        <ele>-9.6000003814697</ele>
        <time>2020-10-08T08:09:02.000Z</time>
      </trkpt>
      <trkpt lat="47.33835" lon="-2.29596">
        <ele>-9.6000003814697</ele>
        <time>2020-10-08T08:09:08.000Z</time>
      </trkpt>
      <trkpt lat="47.33839" lon="-2.29636">
        <ele>-9.6000003814697</ele>
        <time>2020-10-08T08:09:15.000Z</time>
      </trkpt>
      <trkpt lat="47.33843" lon="-2.29683">
        <ele>-9.6000003814697</ele>
        <time>2020-10-08T08:09:22.000Z</time>
      </trkpt>
      <trkpt lat="47.33846" lon="-2.29737">
        <ele>-9.6000003814697</ele>
        <time>2020-10-08T08:09:30.000Z</time>
      </trkpt>
      <trkpt lat="47.33848" lon="-2.29757">
        <ele>-9.6000003814697</ele>
        <time>2020-10-08T08:09:35.000Z</time>
      </trkpt>
      <trkpt lat="47.33848" lon="-2.29769">
        <ele>-9.6000003814697</ele>
        <time>2020-10-08T08:09:40.000Z</time>
      </trkpt>
      <trkpt lat="47.33847" lon="-2.29771">
        <ele>-9.6000003814697</ele>
        <time>2020-10-08T08:09:41.000Z</time>
      </trkpt>
      <trkpt lat="47.33847" lon="-2.29773">
        <ele>-9.6000003814697</ele>
        <time>2020-10-08T08:09:43.000Z</time>
      </trkpt>
      <trkpt lat="47.33851" lon="-2.29792">
        <ele>-10.800000190735</ele>
        <time>2020-10-08T08:11:18.000Z</time>
      </trkpt>
      <trkpt lat="47.3385" lon="-2.29795">
        <ele>-11.199999809265</ele>
        <time>2020-10-08T08:11:19.000Z</time>
      </trkpt>
      <trkpt lat="47.33848" lon="-2.29797">
        <ele>-11.60000038147</ele>
        <time>2020-10-08T08:11:20.000Z</time>
      </trkpt>
      <trkpt lat="47.33841" lon="-2.29799">
        <ele>-11.60000038147</ele>
        <time>2020-10-08T08:11:23.000Z</time>
      </trkpt>
      <trkpt lat="47.33825" lon="-2.29807">
        <ele>-11.60000038147</ele>
        <time>2020-10-08T08:11:28.000Z</time>
      </trkpt>
      <trkpt lat="47.33808" lon="-2.29815">
        <ele>-11.60000038147</ele>
        <time>2020-10-08T08:11:32.000Z</time>
      </trkpt>
      <trkpt lat="47.338" lon="-2.29817">
        <ele>-11.60000038147</ele>
        <time>2020-10-08T08:11:34.000Z</time>
      </trkpt>
      <trkpt lat="47.33782" lon="-2.29816">
        <ele>-11.60000038147</ele>
        <time>2020-10-08T08:11:39.000Z</time>
      </trkpt>
      <trkpt lat="47.3376" lon="-2.29809">
        <ele>-11.60000038147</ele>
        <time>2020-10-08T08:11:45.000Z</time>
      </trkpt>
      <trkpt lat="47.3373" lon="-2.29802">
        <ele>-11.60000038147</ele>
        <time>2020-10-08T08:11:52.000Z</time>
      </trkpt>
      <trkpt lat="47.3371" lon="-2.29798">
        <ele>-11.199999809265</ele>
        <time>2020-10-08T08:11:56.000Z</time>
      </trkpt>
      <trkpt lat="47.33705" lon="-2.29797">
        <ele>-10.800000190735</ele>
        <time>2020-10-08T08:11:57.000Z</time>
      </trkpt>
      <trkpt lat="47.337" lon="-2.29796">
        <ele>-10.39999961853</ele>
        <time>2020-10-08T08:11:58.000Z</time>
      </trkpt>
      <trkpt lat="47.33694" lon="-2.29796">
        <ele>-9.8000001907349</ele>
        <time>2020-10-08T08:11:59.000Z</time>
      </trkpt>
      <trkpt lat="47.33688" lon="-2.29797">
        <ele>-9.3999996185303</ele>
        <time>2020-10-08T08:12:00.000Z</time>
      </trkpt>
      <trkpt lat="47.3367" lon="-2.29803">
        <ele>-9.3999996185303</ele>
        <time>2020-10-08T08:12:03.000Z</time>
      </trkpt>
      <trkpt lat="47.33664" lon="-2.29805">
        <ele>-9.3999996185303</ele>
        <time>2020-10-08T08:12:04.000Z</time>
      </trkpt>
      <trkpt lat="47.33639" lon="-2.29819">
        <ele>-9.3999996185303</ele>
        <time>2020-10-08T08:12:09.000Z</time>
      </trkpt>
      <trkpt lat="47.33636" lon="-2.29834">
        <ele>-9.3999996185303</ele>
        <time>2020-10-08T08:12:11.000Z</time>
      </trkpt>
      <trkpt lat="47.33642" lon="-2.29859">
        <ele>-9.3999996185303</ele>
        <time>2020-10-08T08:12:14.000Z</time>
      </trkpt>
      <trkpt lat="47.3365" lon="-2.29882">
        <ele>-9.3999996185303</ele>
        <time>2020-10-08T08:12:17.000Z</time>
      </trkpt>
      <trkpt lat="47.33649" lon="-2.29898">
        <ele>-9.3999996185303</ele>
        <time>2020-10-08T08:12:19.000Z</time>
      </trkpt>
      <trkpt lat="47.33636" lon="-2.29923">
        <ele>-9.3999996185303</ele>
        <time>2020-10-08T08:12:23.000Z</time>
      </trkpt>
      <trkpt lat="47.33628" lon="-2.29933">
        <ele>-9.3999996185303</ele>
        <time>2020-10-08T08:12:25.000Z</time>
      </trkpt>
      <trkpt lat="47.33624" lon="-2.29939">
        <ele>-9.3999996185303</ele>
        <time>2020-10-08T08:12:26.000Z</time>
      </trkpt>
      <trkpt lat="47.33615" lon="-2.2995">
        <ele>-9.3999996185303</ele>
        <time>2020-10-08T08:12:28.000Z</time>
      </trkpt>
      <trkpt lat="47.33589" lon="-2.29981">
        <ele>-9.3999996185303</ele>
        <time>2020-10-08T08:12:34.000Z</time>
      </trkpt>
      <trkpt lat="47.33572" lon="-2.30001">
        <ele>-9.3999996185303</ele>
        <time>2020-10-08T08:12:38.000Z</time>
      </trkpt>
      <trkpt lat="47.33561" lon="-2.30007">
        <ele>-9.3999996185303</ele>
        <time>2020-10-08T08:12:40.000Z</time>
      </trkpt>
      <trkpt lat="47.33539" lon="-2.30007">
        <ele>-9.3999996185303</ele>
        <time>2020-10-08T08:12:44.000Z</time>
      </trkpt>
      <trkpt lat="47.3351" lon="-2.30001">
        <ele>-9.3999996185303</ele>
        <time>2020-10-08T08:12:49.000Z</time>
      </trkpt>
      <trkpt lat="47.33504" lon="-2.3">
        <ele>-9.3999996185303</ele>
        <time>2020-10-08T08:12:50.000Z</time>
      </trkpt>
      <trkpt lat="47.33488" lon="-2.30003">
        <ele>-9.3999996185303</ele>
        <time>2020-10-08T08:12:53.000Z</time>
      </trkpt>
      <trkpt lat="47.33483" lon="-2.30007">
        <ele>-9.3999996185303</ele>
        <time>2020-10-08T08:12:54.000Z</time>
      </trkpt>
      <trkpt lat="47.33475" lon="-2.30027">
        <ele>-9.3999996185303</ele>
        <time>2020-10-08T08:12:57.000Z</time>
      </trkpt>
      <trkpt lat="47.33473" lon="-2.30034">
        <ele>-10</ele>
        <time>2020-10-08T08:12:58.000Z</time>
      </trkpt>
      <trkpt lat="47.33471" lon="-2.30041">
        <ele>-10.39999961853</ele>
        <time>2020-10-08T08:12:59.000Z</time>
      </trkpt>
      <trkpt lat="47.33469" lon="-2.30048">
        <ele>-10.800000190735</ele>
        <time>2020-10-08T08:13:00.000Z</time>
      </trkpt>
      <trkpt lat="47.33467" lon="-2.30054">
        <ele>-11.199999809265</ele>
        <time>2020-10-08T08:13:01.000Z</time>
      </trkpt>
      <trkpt lat="47.33465" lon="-2.30061">
        <ele>-11.800000190735</ele>
        <time>2020-10-08T08:13:02.000Z</time>
      </trkpt>
      <trkpt lat="47.33457" lon="-2.30091">
        <ele>-11.800000190735</ele>
        <time>2020-10-08T08:13:08.000Z</time>
      </trkpt>
      <trkpt lat="47.33448" lon="-2.30113">
        <ele>-11.800000190735</ele>
        <time>2020-10-08T08:13:13.000Z</time>
      </trkpt>
      <trkpt lat="47.33445" lon="-2.30124">
        <ele>-11.800000190735</ele>
        <time>2020-10-08T08:13:15.000Z</time>
      </trkpt>
      <trkpt lat="47.33442" lon="-2.30136">
        <ele>-11.800000190735</ele>
        <time>2020-10-08T08:13:17.000Z</time>
      </trkpt>
      <trkpt lat="47.33427" lon="-2.30163">
        <ele>-11.800000190735</ele>
        <time>2020-10-08T08:13:22.000Z</time>
      </trkpt>
      <trkpt lat="47.33424" lon="-2.30168">
        <ele>-11.800000190735</ele>
        <time>2020-10-08T08:13:23.000Z</time>
      </trkpt>
      <trkpt lat="47.33414" lon="-2.3019">
        <ele>-11.800000190735</ele>
        <time>2020-10-08T08:13:27.000Z</time>
      </trkpt>
      <trkpt lat="47.33412" lon="-2.30196">
        <ele>-11.800000190735</ele>
        <time>2020-10-08T08:13:28.000Z</time>
      </trkpt>
      <trkpt lat="47.33408" lon="-2.30208">
        <ele>-11.800000190735</ele>
        <time>2020-10-08T08:13:30.000Z</time>
      </trkpt>
      <trkpt lat="47.33405" lon="-2.30219">
        <ele>-11.800000190735</ele>
        <time>2020-10-08T08:13:32.000Z</time>
      </trkpt>
      <trkpt lat="47.33401" lon="-2.30232">
        <ele>-11.800000190735</ele>
        <time>2020-10-08T08:13:35.000Z</time>
      </trkpt>
      <trkpt lat="47.334" lon="-2.30238">
        <ele>-11.800000190735</ele>
        <time>2020-10-08T08:13:36.000Z</time>
      </trkpt>
      <trkpt lat="47.33394" lon="-2.30265">
        <ele>-11.800000190735</ele>
        <time>2020-10-08T08:13:41.000Z</time>
      </trkpt>
      <trkpt lat="47.33392" lon="-2.30278">
        <ele>-11.800000190735</ele>
        <time>2020-10-08T08:13:43.000Z</time>
      </trkpt>
      <trkpt lat="47.33395" lon="-2.30306">
        <ele>-11.800000190735</ele>
        <time>2020-10-08T08:13:48.000Z</time>
      </trkpt>
      <trkpt lat="47.33394" lon="-2.30343">
        <ele>-11.800000190735</ele>
        <time>2020-10-08T08:13:54.000Z</time>
      </trkpt>
      <trkpt lat="47.33393" lon="-2.30349">
        <ele>-11.800000190735</ele>
        <time>2020-10-08T08:13:55.000Z</time>
      </trkpt>
      <trkpt lat="47.33387" lon="-2.30377">
        <ele>-11.800000190735</ele>
        <time>2020-10-08T08:14:00.000Z</time>
      </trkpt>
      <trkpt lat="47.33377" lon="-2.30392">
        <ele>-11.800000190735</ele>
        <time>2020-10-08T08:14:04.000Z</time>
      </trkpt>
      <trkpt lat="47.33365" lon="-2.30397">
        <ele>-11.800000190735</ele>
        <time>2020-10-08T08:14:07.000Z</time>
      </trkpt>
      <trkpt lat="47.33361" lon="-2.304">
        <ele>-11.800000190735</ele>
        <time>2020-10-08T08:14:08.000Z</time>
      </trkpt>
      <trkpt lat="47.33352" lon="-2.30418">
        <ele>-11.800000190735</ele>
        <time>2020-10-08T08:14:12.000Z</time>
      </trkpt>
      <trkpt lat="47.3335" lon="-2.30428">
        <ele>-11.800000190735</ele>
        <time>2020-10-08T08:14:14.000Z</time>
      </trkpt>
      <trkpt lat="47.3335" lon="-2.30436">
        <ele>-11.800000190735</ele>
        <time>2020-10-08T08:14:16.000Z</time>
      </trkpt>
      <trkpt lat="47.33349" lon="-2.30454">
        <ele>-11.800000190735</ele>
        <time>2020-10-08T08:14:22.000Z</time>
      </trkpt>
      <trkpt lat="47.33349" lon="-2.30482">
        <ele>-11.800000190735</ele>
        <time>2020-10-08T08:14:29.000Z</time>
      </trkpt>
      <trkpt lat="47.33353" lon="-2.30496">
        <ele>-11.800000190735</ele>
        <time>2020-10-08T08:14:33.000Z</time>
      </trkpt>
      <trkpt lat="47.33355" lon="-2.3051">
        <ele>-11.800000190735</ele>
        <time>2020-10-08T08:14:39.000Z</time>
      </trkpt>
      <trkpt lat="47.33354" lon="-2.30518">
        <ele>-11.800000190735</ele>
        <time>2020-10-08T08:14:44.000Z</time>
      </trkpt>
      <trkpt lat="47.33354" lon="-2.30512">
        <ele>-11.800000190735</ele>
        <time>2020-10-08T08:16:01.000Z</time>
      </trkpt>
      <trkpt lat="47.33352" lon="-2.30503">
        <ele>-11.800000190735</ele>
        <time>2020-10-08T08:16:06.000Z</time>
      </trkpt>
      <trkpt lat="47.3335" lon="-2.30502">
        <ele>-11.800000190735</ele>
        <time>2020-10-08T08:16:08.000Z</time>
      </trkpt>
      <trkpt lat="47.33345" lon="-2.30501">
        <ele>-11.800000190735</ele>
        <time>2020-10-08T08:16:12.000Z</time>
      </trkpt>
      <trkpt lat="47.3334" lon="-2.30498">
        <ele>-11.800000190735</ele>
        <time>2020-10-08T08:16:17.000Z</time>
      </trkpt>
      <trkpt lat="47.33338" lon="-2.30497">
        <ele>-11.800000190735</ele>
        <time>2020-10-08T08:16:20.000Z</time>
      </trkpt>
      <trkpt lat="47.33337" lon="-2.30497">
        <ele>-11.800000190735</ele>
        <time>2020-10-08T08:16:22.000Z</time>
      </trkpt>
      <trkpt lat="47.33332" lon="-2.30497">
        <ele>-11.800000190735</ele>
        <time>2020-10-08T08:16:36.000Z</time>
      </trkpt>
      <trkpt lat="47.33326" lon="-2.30496">
        <ele>-11.800000190735</ele>
        <time>2020-10-08T08:16:39.000Z</time>
      </trkpt>
      <trkpt lat="47.3332" lon="-2.30498">
        <ele>-11.800000190735</ele>
        <time>2020-10-08T08:16:42.000Z</time>
      </trkpt>
      <trkpt lat="47.33316" lon="-2.305">
        <ele>-11.800000190735</ele>
        <time>2020-10-08T08:16:44.000Z</time>
      </trkpt>
      <trkpt lat="47.33301" lon="-2.30504">
        <ele>-11.800000190735</ele>
        <time>2020-10-08T08:16:49.000Z</time>
      </trkpt>
      <trkpt lat="47.33279" lon="-2.30507">
        <ele>-11.800000190735</ele>
        <time>2020-10-08T08:16:56.000Z</time>
      </trkpt>
      <trkpt lat="47.33263" lon="-2.30511">
        <ele>-11.800000190735</ele>
        <time>2020-10-08T08:17:01.000Z</time>
      </trkpt>
      <trkpt lat="47.3324" lon="-2.30518">
        <ele>-11.800000190735</ele>
        <time>2020-10-08T08:17:08.000Z</time>
      </trkpt>
      <trkpt lat="47.33224" lon="-2.30523">
        <ele>-11.800000190735</ele>
        <time>2020-10-08T08:17:14.000Z</time>
      </trkpt>
      <trkpt lat="47.33204" lon="-2.3053">
        <ele>-11.800000190735</ele>
        <time>2020-10-08T08:17:21.000Z</time>
      </trkpt>
      <trkpt lat="47.33189" lon="-2.30537">
        <ele>-11.800000190735</ele>
        <time>2020-10-08T08:17:26.000Z</time>
      </trkpt>
      <trkpt lat="47.3317" lon="-2.30544">
        <ele>-11.800000190735</ele>
        <time>2020-10-08T08:17:33.000Z</time>
      </trkpt>
      <trkpt lat="47.33148" lon="-2.30551">
        <ele>-11.800000190735</ele>
        <time>2020-10-08T08:17:40.000Z</time>
      </trkpt>
      <trkpt lat="47.33128" lon="-2.3056">
        <ele>-11.800000190735</ele>
        <time>2020-10-08T08:17:46.000Z</time>
      </trkpt>
      <trkpt lat="47.3311" lon="-2.30568">
        <ele>-11.800000190735</ele>
        <time>2020-10-08T08:17:52.000Z</time>
      </trkpt>
      <trkpt lat="47.33095" lon="-2.30586">
        <ele>-11.800000190735</ele>
        <time>2020-10-08T08:17:58.000Z</time>
      </trkpt>
      <trkpt lat="47.33092" lon="-2.30614">
        <ele>-11.800000190735</ele>
        <time>2020-10-08T08:18:03.000Z</time>
      </trkpt>
      <trkpt lat="47.33083" lon="-2.30656">
        <ele>-11.800000190735</ele>
        <time>2020-10-08T08:18:09.000Z</time>
      </trkpt>
      <trkpt lat="47.33074" lon="-2.307">
        <ele>-11.800000190735</ele>
        <time>2020-10-08T08:18:16.000Z</time>
      </trkpt>
      <trkpt lat="47.33071" lon="-2.30713">
        <ele>-11.800000190735</ele>
        <time>2020-10-08T08:18:18.000Z</time>
      </trkpt>
      <trkpt lat="47.33066" lon="-2.30732">
        <ele>-11.800000190735</ele>
        <time>2020-10-08T08:18:21.000Z</time>
      </trkpt>
      <trkpt lat="47.33063" lon="-2.30753">
        <ele>-11.800000190735</ele>
        <time>2020-10-08T08:18:24.000Z</time>
      </trkpt>
      <trkpt lat="47.33059" lon="-2.30774">
        <ele>-11.800000190735</ele>
        <time>2020-10-08T08:18:27.000Z</time>
      </trkpt>
      <trkpt lat="47.33054" lon="-2.30795">
        <ele>-11.800000190735</ele>
        <time>2020-10-08T08:18:30.000Z</time>
      </trkpt>
      <trkpt lat="47.33046" lon="-2.30804">
        <ele>-11.800000190735</ele>
        <time>2020-10-08T08:18:32.000Z</time>
      </trkpt>
      <trkpt lat="47.33033" lon="-2.30808">
        <ele>-11.800000190735</ele>
        <time>2020-10-08T08:18:35.000Z</time>
      </trkpt>
      <trkpt lat="47.33024" lon="-2.30807">
        <ele>-11.800000190735</ele>
        <time>2020-10-08T08:18:37.000Z</time>
      </trkpt>
      <trkpt lat="47.33005" lon="-2.30806">
        <ele>-11.800000190735</ele>
        <time>2020-10-08T08:18:41.000Z</time>
      </trkpt>
      <trkpt lat="47.32987" lon="-2.30805">
        <ele>-11.39999961853</ele>
        <time>2020-10-08T08:18:45.000Z</time>
      </trkpt>
      <trkpt lat="47.32982" lon="-2.30805">
        <ele>-11</ele>
        <time>2020-10-08T08:18:46.000Z</time>
      </trkpt>
      <trkpt lat="47.32977" lon="-2.30805">
        <ele>-10.39999961853</ele>
        <time>2020-10-08T08:18:47.000Z</time>
      </trkpt>
      <trkpt lat="47.32973" lon="-2.30805">
        <ele>-10</ele>
        <time>2020-10-08T08:18:48.000Z</time>
      </trkpt>
      <trkpt lat="47.32969" lon="-2.30806">
        <ele>-9.6000003814697</ele>
        <time>2020-10-08T08:18:49.000Z</time>
      </trkpt>
      <trkpt lat="47.32964" lon="-2.30805">
        <ele>-9.6000003814697</ele>
        <time>2020-10-08T08:18:50.000Z</time>
      </trkpt>
      <trkpt lat="47.32952" lon="-2.30807">
        <ele>-9.6000003814697</ele>
        <time>2020-10-08T08:18:53.000Z</time>
      </trkpt>
      <trkpt lat="47.32937" lon="-2.30808">
        <ele>-9.6000003814697</ele>
        <time>2020-10-08T08:18:58.000Z</time>
      </trkpt>
      <trkpt lat="47.32927" lon="-2.30807">
        <ele>-9.6000003814697</ele>
        <time>2020-10-08T08:19:03.000Z</time>
      </trkpt>
      <trkpt lat="47.32917" lon="-2.30809">
        <ele>-9.6000003814697</ele>
        <time>2020-10-08T08:19:09.000Z</time>
      </trkpt>
      <trkpt lat="47.32914" lon="-2.3081">
        <ele>-9.6000003814697</ele>
        <time>2020-10-08T08:19:12.000Z</time>
      </trkpt>
      <trkpt lat="47.32913" lon="-2.30814">
        <ele>-9.6000003814697</ele>
        <time>2020-10-08T08:19:22.000Z</time>
      </trkpt>
      <trkpt lat="47.32911" lon="-2.30834">
        <ele>-9.6000003814697</ele>
        <time>2020-10-08T08:19:26.000Z</time>
      </trkpt>
      <trkpt lat="47.32908" lon="-2.30846">
        <ele>-9.6000003814697</ele>
        <time>2020-10-08T08:19:30.000Z</time>
      </trkpt>
      <trkpt lat="47.32906" lon="-2.3087">
        <ele>-9.6000003814697</ele>
        <time>2020-10-08T08:19:36.000Z</time>
      </trkpt>
      <trkpt lat="47.32904" lon="-2.30897">
        <ele>-9.6000003814697</ele>
        <time>2020-10-08T08:19:42.000Z</time>
      </trkpt>
      <trkpt lat="47.32901" lon="-2.30934">
        <ele>-9.6000003814697</ele>
        <time>2020-10-08T08:19:49.000Z</time>
      </trkpt>
      <trkpt lat="47.32899" lon="-2.30952">
        <ele>-9.1999998092651</ele>
        <time>2020-10-08T08:19:52.000Z</time>
      </trkpt>
      <trkpt lat="47.32898" lon="-2.30959">
        <ele>-8.8000001907349</ele>
        <time>2020-10-08T08:19:53.000Z</time>
      </trkpt>
      <trkpt lat="47.32897" lon="-2.30966">
        <ele>-8</ele>
        <time>2020-10-08T08:19:54.000Z</time>
      </trkpt>
      <trkpt lat="47.32897" lon="-2.30974">
        <ele>-7.5999999046326</ele>
        <time>2020-10-08T08:19:55.000Z</time>
      </trkpt>
      <trkpt lat="47.32893" lon="-2.31029">
        <ele>-7.5999999046326</ele>
        <time>2020-10-08T08:20:02.000Z</time>
      </trkpt>
      <trkpt lat="47.32896" lon="-2.31074">
        <ele>-7.5999999046326</ele>
        <time>2020-10-08T08:20:07.000Z</time>
      </trkpt>
      <trkpt lat="47.32898" lon="-2.31091">
        <ele>-7.5999999046326</ele>
        <time>2020-10-08T08:20:09.000Z</time>
      </trkpt>
      <trkpt lat="47.32906" lon="-2.31125">
        <ele>-8</ele>
        <time>2020-10-08T08:20:13.000Z</time>
      </trkpt>
      <trkpt lat="47.32908" lon="-2.31133">
        <ele>-8.3999996185303</ele>
        <time>2020-10-08T08:20:14.000Z</time>
      </trkpt>
      <trkpt lat="47.3291" lon="-2.31142">
        <ele>-8.8000001907349</ele>
        <time>2020-10-08T08:20:15.000Z</time>
      </trkpt>
      <trkpt lat="47.32912" lon="-2.3115">
        <ele>-9.1999998092651</ele>
        <time>2020-10-08T08:20:16.000Z</time>
      </trkpt>
      <trkpt lat="47.32914" lon="-2.31158">
        <ele>-9.6000003814697</ele>
        <time>2020-10-08T08:20:17.000Z</time>
      </trkpt>
      <trkpt lat="47.32925" lon="-2.31199">
        <ele>-9.6000003814697</ele>
        <time>2020-10-08T08:20:22.000Z</time>
      </trkpt>
      <trkpt lat="47.32939" lon="-2.31248">
        <ele>-9.6000003814697</ele>
        <time>2020-10-08T08:20:29.000Z</time>
      </trkpt>
      <trkpt lat="47.32943" lon="-2.31277">
        <ele>-9.6000003814697</ele>
        <time>2020-10-08T08:20:34.000Z</time>
      </trkpt>
      <trkpt lat="47.32943" lon="-2.31318">
        <ele>-9.6000003814697</ele>
        <time>2020-10-08T08:20:40.000Z</time>
      </trkpt>
      <trkpt lat="47.32943" lon="-2.31325">
        <ele>-9.6000003814697</ele>
        <time>2020-10-08T08:20:41.000Z</time>
      </trkpt>
      <trkpt lat="47.32936" lon="-2.31349">
        <ele>-9.6000003814697</ele>
        <time>2020-10-08T08:20:45.000Z</time>
      </trkpt>
      <trkpt lat="47.32921" lon="-2.31393">
        <ele>-9.6000003814697</ele>
        <time>2020-10-08T08:20:53.000Z</time>
      </trkpt>
      <trkpt lat="47.32917" lon="-2.31426">
        <ele>-9.6000003814697</ele>
        <time>2020-10-08T08:20:59.000Z</time>
      </trkpt>
      <trkpt lat="47.32919" lon="-2.31464">
        <ele>-9.6000003814697</ele>
        <time>2020-10-08T08:21:06.000Z</time>
      </trkpt>
      <trkpt lat="47.3292" lon="-2.31482">
        <ele>-9.6000003814697</ele>
        <time>2020-10-08T08:21:11.000Z</time>
      </trkpt>
      <trkpt lat="47.32918" lon="-2.31475">
        <ele>-9.6000003814697</ele>
        <time>2020-10-08T08:21:29.000Z</time>
      </trkpt>
      <trkpt lat="47.32917" lon="-2.31469">
        <ele>-9.6000003814697</ele>
        <time>2020-10-08T08:21:31.000Z</time>
      </trkpt>
      <trkpt lat="47.32916" lon="-2.31452">
        <ele>-9.6000003814697</ele>
        <time>2020-10-08T08:21:35.000Z</time>
      </trkpt>
      <trkpt lat="47.32915" lon="-2.3142">
        <ele>-9.6000003814697</ele>
        <time>2020-10-08T08:21:40.000Z</time>
      </trkpt>
      <trkpt lat="47.32916" lon="-2.31412">
        <ele>-9.6000003814697</ele>
        <time>2020-10-08T08:21:41.000Z</time>
      </trkpt>
      <trkpt lat="47.32919" lon="-2.31397">
        <ele>-9.6000003814697</ele>
        <time>2020-10-08T08:21:43.000Z</time>
      </trkpt>
      <trkpt lat="47.32927" lon="-2.31369">
        <ele>-9.6000003814697</ele>
        <time>2020-10-08T08:21:47.000Z</time>
      </trkpt>
      <trkpt lat="47.3294" lon="-2.31329">
        <ele>-9.6000003814697</ele>
        <time>2020-10-08T08:21:53.000Z</time>
      </trkpt>
      <trkpt lat="47.32945" lon="-2.31291">
        <ele>-9.6000003814697</ele>
        <time>2020-10-08T08:21:59.000Z</time>
      </trkpt>
      <trkpt lat="47.32947" lon="-2.31288">
        <ele>-9.6000003814697</ele>
        <time>2020-10-08T08:22:00.000Z</time>
      </trkpt>
      <trkpt lat="47.32952" lon="-2.31287">
        <ele>-9.6000003814697</ele>
        <time>2020-10-08T08:22:02.000Z</time>
      </trkpt>
      <trkpt lat="47.32961" lon="-2.31296">
        <ele>-9.6000003814697</ele>
        <time>2020-10-08T08:22:05.000Z</time>
      </trkpt>
      <trkpt lat="47.32964" lon="-2.313">
        <ele>-9.6000003814697</ele>
        <time>2020-10-08T08:22:06.000Z</time>
      </trkpt>
      <trkpt lat="47.32968" lon="-2.31304">
        <ele>-9.6000003814697</ele>
        <time>2020-10-08T08:22:07.000Z</time>
      </trkpt>
      <trkpt lat="47.32974" lon="-2.31321">
        <ele>-9.6000003814697</ele>
        <time>2020-10-08T08:22:10.000Z</time>
      </trkpt>
      <trkpt lat="47.32984" lon="-2.31354">
        <ele>-9.6000003814697</ele>
        <time>2020-10-08T08:22:15.000Z</time>
      </trkpt>
      <trkpt lat="47.33" lon="-2.31393">
        <ele>-9.6000003814697</ele>
        <time>2020-10-08T08:22:21.000Z</time>
      </trkpt>
      <trkpt lat="47.33002" lon="-2.31403">
        <ele>-9.6000003814697</ele>
        <time>2020-10-08T08:22:24.000Z</time>
      </trkpt>
      <trkpt lat="47.33" lon="-2.31417">
        <ele>-9.6000003814697</ele>
        <time>2020-10-08T08:22:29.000Z</time>
      </trkpt>
      <trkpt lat="47.32999" lon="-2.31434">
        <ele>-9.6000003814697</ele>
        <time>2020-10-08T08:22:34.000Z</time>
      </trkpt>
      <trkpt lat="47.32998" lon="-2.31453">
        <ele>-9.6000003814697</ele>
        <time>2020-10-08T08:22:39.000Z</time>
      </trkpt>
      <trkpt lat="47.32993" lon="-2.31479">
        <ele>-9.1999998092651</ele>
        <time>2020-10-08T08:22:44.000Z</time>
      </trkpt>
      <trkpt lat="47.3299" lon="-2.31486">
        <ele>-8.8000001907349</ele>
        <time>2020-10-08T08:22:45.000Z</time>
      </trkpt>
      <trkpt lat="47.32987" lon="-2.31492">
        <ele>-8.3999996185303</ele>
        <time>2020-10-08T08:22:46.000Z</time>
      </trkpt>
      <trkpt lat="47.32985" lon="-2.31498">
        <ele>-7.4000000953674</ele>
        <time>2020-10-08T08:22:47.000Z</time>
      </trkpt>
      <trkpt lat="47.32978" lon="-2.31513">
        <ele>-7.4000000953674</ele>
        <time>2020-10-08T08:22:50.000Z</time>
      </trkpt>
      <trkpt lat="47.32971" lon="-2.31534">
        <ele>-7.4000000953674</ele>
        <time>2020-10-08T08:22:55.000Z</time>
      </trkpt>
      <trkpt lat="47.3296" lon="-2.31564">
        <ele>-7.4000000953674</ele>
        <time>2020-10-08T08:23:01.000Z</time>
      </trkpt>
      <trkpt lat="47.32945" lon="-2.3159">
        <ele>-7.4000000953674</ele>
        <time>2020-10-08T08:23:06.000Z</time>
      </trkpt>
      <trkpt lat="47.32933" lon="-2.31617">
        <ele>-7.4000000953674</ele>
        <time>2020-10-08T08:23:11.000Z</time>
      </trkpt>
      <trkpt lat="47.3292" lon="-2.3165">
        <ele>-7.4000000953674</ele>
        <time>2020-10-08T08:23:17.000Z</time>
      </trkpt>
      <trkpt lat="47.32918" lon="-2.31656">
        <ele>-7.4000000953674</ele>
        <time>2020-10-08T08:23:18.000Z</time>
      </trkpt>
      <trkpt lat="47.32907" lon="-2.31678">
        <ele>-7.4000000953674</ele>
        <time>2020-10-08T08:23:23.000Z</time>
      </trkpt>
      <trkpt lat="47.32901" lon="-2.31697">
        <ele>-7.4000000953674</ele>
        <time>2020-10-08T08:23:27.000Z</time>
      </trkpt>
      <trkpt lat="47.32891" lon="-2.31718">
        <ele>-7.4000000953674</ele>
        <time>2020-10-08T08:23:32.000Z</time>
      </trkpt>
      <trkpt lat="47.32883" lon="-2.31748">
        <ele>-7.4000000953674</ele>
        <time>2020-10-08T08:23:39.000Z</time>
      </trkpt>
      <trkpt lat="47.32871" lon="-2.31778">
        <ele>-7.4000000953674</ele>
        <time>2020-10-08T08:23:46.000Z</time>
      </trkpt>
      <trkpt lat="47.32862" lon="-2.31798">
        <ele>-7.4000000953674</ele>
        <time>2020-10-08T08:23:51.000Z</time>
      </trkpt>
      <trkpt lat="47.32859" lon="-2.31808">
        <ele>-7.4000000953674</ele>
        <time>2020-10-08T08:23:55.000Z</time>
      </trkpt>
      <trkpt lat="47.32857" lon="-2.31818">
        <ele>-7.4000000953674</ele>
        <time>2020-10-08T08:24:01.000Z</time>
      </trkpt>
      <trkpt lat="47.32857" lon="-2.31819">
        <ele>-7.4000000953674</ele>
        <time>2020-10-08T08:24:02.000Z</time>
      </trkpt>
      <trkpt lat="47.32859" lon="-2.31859">
        <ele>-7.4000000953674</ele>
        <time>2020-10-08T08:24:53.000Z</time>
      </trkpt>
      <trkpt lat="47.3286" lon="-2.31867">
        <ele>-7.4000000953674</ele>
        <time>2020-10-08T08:24:55.000Z</time>
      </trkpt>
      <trkpt lat="47.32859" lon="-2.31889">
        <ele>-7.4000000953674</ele>
        <time>2020-10-08T08:24:59.000Z</time>
      </trkpt>
      <trkpt lat="47.3286" lon="-2.3193">
        <ele>-7.4000000953674</ele>
        <time>2020-10-08T08:25:06.000Z</time>
      </trkpt>
      <trkpt lat="47.3286" lon="-2.31962">
        <ele>-7.4000000953674</ele>
        <time>2020-10-08T08:25:12.000Z</time>
      </trkpt>
      <trkpt lat="47.32855" lon="-2.31991">
        <ele>-7.4000000953674</ele>
        <time>2020-10-08T08:25:18.000Z</time>
      </trkpt>
      <trkpt lat="47.32849" lon="-2.31997">
        <ele>-7.4000000953674</ele>
        <time>2020-10-08T08:25:20.000Z</time>
      </trkpt>
      <trkpt lat="47.3284" lon="-2.32003">
        <ele>-7.4000000953674</ele>
        <time>2020-10-08T08:25:22.000Z</time>
      </trkpt>
      <trkpt lat="47.32809" lon="-2.32022">
        <ele>-7.4000000953674</ele>
        <time>2020-10-08T08:25:28.000Z</time>
      </trkpt>
      <trkpt lat="47.32764" lon="-2.32044">
        <ele>-7.4000000953674</ele>
        <time>2020-10-08T08:25:36.000Z</time>
      </trkpt>
      <trkpt lat="47.3273" lon="-2.32061">
        <ele>-7.4000000953674</ele>
        <time>2020-10-08T08:25:42.000Z</time>
      </trkpt>
      <trkpt lat="47.32694" lon="-2.32078">
        <ele>-7.4000000953674</ele>
        <time>2020-10-08T08:25:49.000Z</time>
      </trkpt>
      <trkpt lat="47.32666" lon="-2.32089">
        <ele>-7.4000000953674</ele>
        <time>2020-10-08T08:25:54.000Z</time>
      </trkpt>
      <trkpt lat="47.32655" lon="-2.32091">
        <ele>-7.4000000953674</ele>
        <time>2020-10-08T08:25:56.000Z</time>
      </trkpt>
      <trkpt lat="47.32625" lon="-2.32094">
        <ele>-7.4000000953674</ele>
        <time>2020-10-08T08:26:01.000Z</time>
      </trkpt>
      <trkpt lat="47.32604" lon="-2.32098">
        <ele>-7.4000000953674</ele>
        <time>2020-10-08T08:26:05.000Z</time>
      </trkpt>
      <trkpt lat="47.32596" lon="-2.32107">
        <ele>-7</ele>
        <time>2020-10-08T08:26:07.000Z</time>
      </trkpt>
      <trkpt lat="47.32593" lon="-2.32114">
        <ele>-6.5999999046326</ele>
        <time>2020-10-08T08:26:08.000Z</time>
      </trkpt>
      <trkpt lat="47.32591" lon="-2.32122">
        <ele>-6.1999998092651</ele>
        <time>2020-10-08T08:26:09.000Z</time>
      </trkpt>
      <trkpt lat="47.32588" lon="-2.3213">
        <ele>-5.8000001907349</ele>
        <time>2020-10-08T08:26:10.000Z</time>
      </trkpt>
      <trkpt lat="47.32586" lon="-2.32139">
        <ele>-5.4000000953674</ele>
        <time>2020-10-08T08:26:11.000Z</time>
      </trkpt>
      <trkpt lat="47.3257" lon="-2.32189">
        <ele>-5.4000000953674</ele>
        <time>2020-10-08T08:26:16.000Z</time>
      </trkpt>
      <trkpt lat="47.32555" lon="-2.32237">
        <ele>-5.8000001907349</ele>
        <time>2020-10-08T08:26:21.000Z</time>
      </trkpt>
      <trkpt lat="47.32552" lon="-2.32245">
        <ele>-6.1999998092651</ele>
        <time>2020-10-08T08:26:22.000Z</time>
      </trkpt>
      <trkpt lat="47.32549" lon="-2.32253">
        <ele>-6.8000001907349</ele>
        <time>2020-10-08T08:26:23.000Z</time>
      </trkpt>
      <trkpt lat="47.32547" lon="-2.3226">
        <ele>-7.1999998092651</ele>
        <time>2020-10-08T08:26:24.000Z</time>
      </trkpt>
      <trkpt lat="47.32545" lon="-2.32266">
        <ele>-7.5999999046326</ele>
        <time>2020-10-08T08:26:25.000Z</time>
      </trkpt>
      <trkpt lat="47.32539" lon="-2.32285">
        <ele>-7.5999999046326</ele>
        <time>2020-10-08T08:26:28.000Z</time>
      </trkpt>
      <trkpt lat="47.32534" lon="-2.32305">
        <ele>-7.1999998092651</ele>
        <time>2020-10-08T08:26:32.000Z</time>
      </trkpt>
      <trkpt lat="47.32535" lon="-2.3231">
        <ele>-6.8000001907349</ele>
        <time>2020-10-08T08:26:33.000Z</time>
      </trkpt>
      <trkpt lat="47.32537" lon="-2.32314">
        <ele>-6.1999998092651</ele>
        <time>2020-10-08T08:26:34.000Z</time>
      </trkpt>
      <trkpt lat="47.3254" lon="-2.32317">
        <ele>-5.8000001907349</ele>
        <time>2020-10-08T08:26:35.000Z</time>
      </trkpt>
      <trkpt lat="47.32544" lon="-2.32319">
        <ele>-5.4000000953674</ele>
        <time>2020-10-08T08:26:36.000Z</time>
      </trkpt>
      <trkpt lat="47.32549" lon="-2.32318">
        <ele>-5.4000000953674</ele>
        <time>2020-10-08T08:26:37.000Z</time>
      </trkpt>
      <trkpt lat="47.32554" lon="-2.32318">
        <ele>-5.4000000953674</ele>
        <time>2020-10-08T08:26:38.000Z</time>
      </trkpt>
      <trkpt lat="47.3258" lon="-2.32315">
        <ele>-5.4000000953674</ele>
        <time>2020-10-08T08:26:42.000Z</time>
      </trkpt>
      <trkpt lat="47.32619" lon="-2.3231">
        <ele>-5.4000000953674</ele>
        <time>2020-10-08T08:26:48.000Z</time>
      </trkpt>
      <trkpt lat="47.32653" lon="-2.32311">
        <ele>-5.4000000953674</ele>
        <time>2020-10-08T08:26:53.000Z</time>
      </trkpt>
      <trkpt lat="47.32691" lon="-2.32321">
        <ele>-5.4000000953674</ele>
        <time>2020-10-08T08:26:58.000Z</time>
      </trkpt>
      <trkpt lat="47.32738" lon="-2.32344">
        <ele>-5.4000000953674</ele>
        <time>2020-10-08T08:27:04.000Z</time>
      </trkpt>
      <trkpt lat="47.32773" lon="-2.32363">
        <ele>-5.8000001907349</ele>
        <time>2020-10-08T08:27:09.000Z</time>
      </trkpt>
      <trkpt lat="47.3278" lon="-2.32367">
        <ele>-6.4000000953674</ele>
        <time>2020-10-08T08:27:10.000Z</time>
      </trkpt>
      <trkpt lat="47.32787" lon="-2.32371">
        <ele>-6.8000001907349</ele>
        <time>2020-10-08T08:27:11.000Z</time>
      </trkpt>
      <trkpt lat="47.32794" lon="-2.32376">
        <ele>-7.4000000953674</ele>
        <time>2020-10-08T08:27:12.000Z</time>
      </trkpt>
      <trkpt lat="47.328" lon="-2.32381">
        <ele>-7.8000001907349</ele>
        <time>2020-10-08T08:27:13.000Z</time>
      </trkpt>
      <trkpt lat="47.32812" lon="-2.32395">
        <ele>-7.8000001907349</ele>
        <time>2020-10-08T08:27:15.000Z</time>
      </trkpt>
      <trkpt lat="47.32843" lon="-2.32425">
        <ele>-7.8000001907349</ele>
        <time>2020-10-08T08:27:20.000Z</time>
      </trkpt>
      <trkpt lat="47.32862" lon="-2.32438">
        <ele>-7.4000000953674</ele>
        <time>2020-10-08T08:27:23.000Z</time>
      </trkpt>
      <trkpt lat="47.32869" lon="-2.32442">
        <ele>-7</ele>
        <time>2020-10-08T08:27:24.000Z</time>
      </trkpt>
      <trkpt lat="47.32875" lon="-2.32446">
        <ele>-6.5999999046326</ele>
        <time>2020-10-08T08:27:25.000Z</time>
      </trkpt>
      <trkpt lat="47.32881" lon="-2.32449">
        <ele>-6.1999998092651</ele>
        <time>2020-10-08T08:27:26.000Z</time>
      </trkpt>
      <trkpt lat="47.32888" lon="-2.32453">
        <ele>-5.8000001907349</ele>
        <time>2020-10-08T08:27:27.000Z</time>
      </trkpt>
      <trkpt lat="47.32893" lon="-2.32458">
        <ele>-5.8000001907349</ele>
        <time>2020-10-08T08:27:28.000Z</time>
      </trkpt>
      <trkpt lat="47.32897" lon="-2.32465">
        <ele>-5.8000001907349</ele>
        <time>2020-10-08T08:27:29.000Z</time>
      </trkpt>
      <trkpt lat="47.32905" lon="-2.32494">
        <ele>-5.8000001907349</ele>
        <time>2020-10-08T08:27:32.000Z</time>
      </trkpt>
      <trkpt lat="47.32907" lon="-2.32502">
        <ele>-5.8000001907349</ele>
        <time>2020-10-08T08:27:33.000Z</time>
      </trkpt>
      <trkpt lat="47.32915" lon="-2.32529">
        <ele>-5.8000001907349</ele>
        <time>2020-10-08T08:27:36.000Z</time>
      </trkpt>
      <trkpt lat="47.32917" lon="-2.32537">
        <ele>-5.8000001907349</ele>
        <time>2020-10-08T08:27:37.000Z</time>
      </trkpt>
      <trkpt lat="47.3292" lon="-2.32553">
        <ele>-5.8000001907349</ele>
        <time>2020-10-08T08:27:39.000Z</time>
      </trkpt>
      <trkpt lat="47.3292" lon="-2.32581">
        <ele>-5.8000001907349</ele>
        <time>2020-10-08T08:27:42.000Z</time>
      </trkpt>
      <trkpt lat="47.3292" lon="-2.32631">
        <ele>-5.8000001907349</ele>
        <time>2020-10-08T08:27:47.000Z</time>
      </trkpt>
      <trkpt lat="47.32923" lon="-2.32638">
        <ele>-6.4000000953674</ele>
        <time>2020-10-08T08:27:48.000Z</time>
      </trkpt>
      <trkpt lat="47.32927" lon="-2.32642">
        <ele>-6.8000001907349</ele>
        <time>2020-10-08T08:27:49.000Z</time>
      </trkpt>
      <trkpt lat="47.32932" lon="-2.32644">
        <ele>-7.1999998092651</ele>
        <time>2020-10-08T08:27:50.000Z</time>
      </trkpt>
      <trkpt lat="47.32939" lon="-2.32644">
        <ele>-7.8000001907349</ele>
        <time>2020-10-08T08:27:51.000Z</time>
      </trkpt>
      <trkpt lat="47.32945" lon="-2.32643">
        <ele>-8.1999998092651</ele>
        <time>2020-10-08T08:27:52.000Z</time>
      </trkpt>
      <trkpt lat="47.32958" lon="-2.3264">
        <ele>-8.1999998092651</ele>
        <time>2020-10-08T08:27:54.000Z</time>
      </trkpt>
      <trkpt lat="47.32965" lon="-2.32638">
        <ele>-8.1999998092651</ele>
        <time>2020-10-08T08:27:55.000Z</time>
      </trkpt>
      <trkpt lat="47.32978" lon="-2.32631">
        <ele>-8.1999998092651</ele>
        <time>2020-10-08T08:27:57.000Z</time>
      </trkpt>
      <trkpt lat="47.32996" lon="-2.32624">
        <ele>-8.1999998092651</ele>
        <time>2020-10-08T08:28:00.000Z</time>
      </trkpt>
      <trkpt lat="47.33002" lon="-2.32626">
        <ele>-8.6000003814697</ele>
        <time>2020-10-08T08:28:01.000Z</time>
      </trkpt>
      <trkpt lat="47.33008" lon="-2.3263">
        <ele>-9</ele>
        <time>2020-10-08T08:28:02.000Z</time>
      </trkpt>
      <trkpt lat="47.33013" lon="-2.32633">
        <ele>-9.3999996185303</ele>
        <time>2020-10-08T08:28:03.000Z</time>
      </trkpt>
      <trkpt lat="47.33019" lon="-2.32636">
        <ele>-10</ele>
        <time>2020-10-08T08:28:04.000Z</time>
      </trkpt>
      <trkpt lat="47.33026" lon="-2.32636">
        <ele>-10.39999961853</ele>
        <time>2020-10-08T08:28:05.000Z</time>
      </trkpt>
      <trkpt lat="47.33033" lon="-2.32634">
        <ele>-10.39999961853</ele>
        <time>2020-10-08T08:28:06.000Z</time>
      </trkpt>
      <trkpt lat="47.33044" lon="-2.32626">
        <ele>-10.39999961853</ele>
        <time>2020-10-08T08:28:08.000Z</time>
      </trkpt>
      <trkpt lat="47.33055" lon="-2.32617">
        <ele>-10.39999961853</ele>
        <time>2020-10-08T08:28:10.000Z</time>
      </trkpt>
      <trkpt lat="47.33083" lon="-2.32593">
        <ele>-10.39999961853</ele>
        <time>2020-10-08T08:28:16.000Z</time>
      </trkpt>
      <trkpt lat="47.33088" lon="-2.32589">
        <ele>-9.8000001907349</ele>
        <time>2020-10-08T08:28:17.000Z</time>
      </trkpt>
      <trkpt lat="47.33094" lon="-2.32584">
        <ele>-9.3999996185303</ele>
        <time>2020-10-08T08:28:18.000Z</time>
      </trkpt>
      <trkpt lat="47.331" lon="-2.32579">
        <ele>-9</ele>
        <time>2020-10-08T08:28:19.000Z</time>
      </trkpt>
      <trkpt lat="47.33106" lon="-2.32575">
        <ele>-8.6000003814697</ele>
        <time>2020-10-08T08:28:20.000Z</time>
      </trkpt>
      <trkpt lat="47.33111" lon="-2.32569">
        <ele>-8.1999998092651</ele>
        <time>2020-10-08T08:28:21.000Z</time>
      </trkpt>
      <trkpt lat="47.33116" lon="-2.32565">
        <ele>-8.1999998092651</ele>
        <time>2020-10-08T08:28:22.000Z</time>
      </trkpt>
      <trkpt lat="47.33156" lon="-2.32535">
        <ele>-8.1999998092651</ele>
        <time>2020-10-08T08:28:29.000Z</time>
      </trkpt>
      <trkpt lat="47.33178" lon="-2.3252">
        <ele>-8.1999998092651</ele>
        <time>2020-10-08T08:28:33.000Z</time>
      </trkpt>
      <trkpt lat="47.33183" lon="-2.32516">
        <ele>-7.8000001907349</ele>
        <time>2020-10-08T08:28:34.000Z</time>
      </trkpt>
      <trkpt lat="47.33189" lon="-2.32514">
        <ele>-7.4000000953674</ele>
        <time>2020-10-08T08:28:35.000Z</time>
      </trkpt>
      <trkpt lat="47.33196" lon="-2.32512">
        <ele>-7</ele>
        <time>2020-10-08T08:28:36.000Z</time>
      </trkpt>
      <trkpt lat="47.33201" lon="-2.32509">
        <ele>-6.4000000953674</ele>
        <time>2020-10-08T08:28:37.000Z</time>
      </trkpt>
      <trkpt lat="47.33207" lon="-2.32507">
        <ele>-6</ele>
        <time>2020-10-08T08:28:38.000Z</time>
      </trkpt>
      <trkpt lat="47.33219" lon="-2.32503">
        <ele>-6</ele>
        <time>2020-10-08T08:28:40.000Z</time>
      </trkpt>
      <trkpt lat="47.33257" lon="-2.32487">
        <ele>-6</ele>
        <time>2020-10-08T08:28:46.000Z</time>
      </trkpt>
      <trkpt lat="47.33264" lon="-2.32485">
        <ele>-6</ele>
        <time>2020-10-08T08:28:47.000Z</time>
      </trkpt>
      <trkpt lat="47.33289" lon="-2.32473">
        <ele>-6</ele>
        <time>2020-10-08T08:28:51.000Z</time>
      </trkpt>
      <trkpt lat="47.33331" lon="-2.32452">
        <ele>-6</ele>
        <time>2020-10-08T08:28:58.000Z</time>
      </trkpt>
      <trkpt lat="47.33343" lon="-2.3244">
        <ele>-6</ele>
        <time>2020-10-08T08:29:00.000Z</time>
      </trkpt>
      <trkpt lat="47.33353" lon="-2.32425">
        <ele>-6</ele>
        <time>2020-10-08T08:29:02.000Z</time>
      </trkpt>
      <trkpt lat="47.33364" lon="-2.32412">
        <ele>-6</ele>
        <time>2020-10-08T08:29:04.000Z</time>
      </trkpt>
      <trkpt lat="47.33385" lon="-2.32395">
        <ele>-6</ele>
        <time>2020-10-08T08:29:07.000Z</time>
      </trkpt>
      <trkpt lat="47.33425" lon="-2.32362">
        <ele>-6</ele>
        <time>2020-10-08T08:29:13.000Z</time>
      </trkpt>
      <trkpt lat="47.33473" lon="-2.32329">
        <ele>-6.4000000953674</ele>
        <time>2020-10-08T08:29:20.000Z</time>
      </trkpt>
      <trkpt lat="47.33481" lon="-2.32326">
        <ele>-6.8000001907349</ele>
        <time>2020-10-08T08:29:21.000Z</time>
      </trkpt>
      <trkpt lat="47.33487" lon="-2.32322">
        <ele>-7.1999998092651</ele>
        <time>2020-10-08T08:29:22.000Z</time>
      </trkpt>
      <trkpt lat="47.33494" lon="-2.32318">
        <ele>-7.5999999046326</ele>
        <time>2020-10-08T08:29:23.000Z</time>
      </trkpt>
      <trkpt lat="47.33501" lon="-2.32315">
        <ele>-8.1999998092651</ele>
        <time>2020-10-08T08:29:24.000Z</time>
      </trkpt>
      <trkpt lat="47.33508" lon="-2.32312">
        <ele>-8.1999998092651</ele>
        <time>2020-10-08T08:29:25.000Z</time>
      </trkpt>
      <trkpt lat="47.33534" lon="-2.32304">
        <ele>-8.1999998092651</ele>
        <time>2020-10-08T08:29:29.000Z</time>
      </trkpt>
      <trkpt lat="47.33547" lon="-2.32304">
        <ele>-8.1999998092651</ele>
        <time>2020-10-08T08:29:31.000Z</time>
      </trkpt>
      <trkpt lat="47.33553" lon="-2.32304">
        <ele>-7.8000001907349</ele>
        <time>2020-10-08T08:29:32.000Z</time>
      </trkpt>
      <trkpt lat="47.33559" lon="-2.32301">
        <ele>-7.1999998092651</ele>
        <time>2020-10-08T08:29:33.000Z</time>
      </trkpt>
      <trkpt lat="47.33565" lon="-2.32298">
        <ele>-6.8000001907349</ele>
        <time>2020-10-08T08:29:34.000Z</time>
      </trkpt>
      <trkpt lat="47.33571" lon="-2.32296">
        <ele>-6.4000000953674</ele>
        <time>2020-10-08T08:29:35.000Z</time>
      </trkpt>
      <trkpt lat="47.33578" lon="-2.32294">
        <ele>-6</ele>
        <time>2020-10-08T08:29:36.000Z</time>
      </trkpt>
      <trkpt lat="47.33589" lon="-2.32291">
        <ele>-6</ele>
        <time>2020-10-08T08:29:38.000Z</time>
      </trkpt>
      <trkpt lat="47.33602" lon="-2.32289">
        <ele>-6</ele>
        <time>2020-10-08T08:29:40.000Z</time>
      </trkpt>
      <trkpt lat="47.33648" lon="-2.32281">
        <ele>-6</ele>
        <time>2020-10-08T08:29:47.000Z</time>
      </trkpt>
      <trkpt lat="47.33688" lon="-2.3226">
        <ele>-6</ele>
        <time>2020-10-08T08:29:53.000Z</time>
      </trkpt>
      <trkpt lat="47.33726" lon="-2.32236">
        <ele>-6</ele>
        <time>2020-10-08T08:29:59.000Z</time>
      </trkpt>
      <trkpt lat="47.33774" lon="-2.32212">
        <ele>-6</ele>
        <time>2020-10-08T08:30:06.000Z</time>
      </trkpt>
      <trkpt lat="47.33814" lon="-2.32204">
        <ele>-6</ele>
        <time>2020-10-08T08:30:12.000Z</time>
      </trkpt>
      <trkpt lat="47.33847" lon="-2.32199">
        <ele>-6</ele>
        <time>2020-10-08T08:30:17.000Z</time>
      </trkpt>
      <trkpt lat="47.33854" lon="-2.32198">
        <ele>-6</ele>
        <time>2020-10-08T08:30:18.000Z</time>
      </trkpt>
      <trkpt lat="47.33888" lon="-2.32196">
        <ele>-6</ele>
        <time>2020-10-08T08:30:23.000Z</time>
      </trkpt>
      <trkpt lat="47.33895" lon="-2.32197">
        <ele>-6</ele>
        <time>2020-10-08T08:30:24.000Z</time>
      </trkpt>
      <trkpt lat="47.33915" lon="-2.32198">
        <ele>-6</ele>
        <time>2020-10-08T08:30:27.000Z</time>
      </trkpt>
      <trkpt lat="47.33928" lon="-2.32195">
        <ele>-6</ele>
        <time>2020-10-08T08:30:29.000Z</time>
      </trkpt>
      <trkpt lat="47.33958" lon="-2.32182">
        <ele>-7</ele>
        <time>2020-10-08T08:30:34.000Z</time>
      </trkpt>
      <trkpt lat="47.33962" lon="-2.32178">
        <ele>-7.4000000953674</ele>
        <time>2020-10-08T08:30:35.000Z</time>
      </trkpt>
      <trkpt lat="47.33967" lon="-2.32175">
        <ele>-8</ele>
        <time>2020-10-08T08:30:36.000Z</time>
      </trkpt>
      <trkpt lat="47.33971" lon="-2.32172">
        <ele>-8.3999996185303</ele>
        <time>2020-10-08T08:30:37.000Z</time>
      </trkpt>
      <trkpt lat="47.33979" lon="-2.32166">
        <ele>-8.3999996185303</ele>
        <time>2020-10-08T08:30:39.000Z</time>
      </trkpt>
      <trkpt lat="47.33992" lon="-2.32158">
        <ele>-8.3999996185303</ele>
        <time>2020-10-08T08:30:42.000Z</time>
      </trkpt>
      <trkpt lat="47.34003" lon="-2.32151">
        <ele>-8.3999996185303</ele>
        <time>2020-10-08T08:30:45.000Z</time>
      </trkpt>
      <trkpt lat="47.34015" lon="-2.32143">
        <ele>-8.8000001907349</ele>
        <time>2020-10-08T08:30:50.000Z</time>
      </trkpt>
      <trkpt lat="47.34017" lon="-2.32142">
        <ele>-9.1999998092651</ele>
        <time>2020-10-08T08:30:51.000Z</time>
      </trkpt>
      <trkpt lat="47.34019" lon="-2.32142">
        <ele>-9.6000003814697</ele>
        <time>2020-10-08T08:30:52.000Z</time>
      </trkpt>
      <trkpt lat="47.3402" lon="-2.3214">
        <ele>-10</ele>
        <time>2020-10-08T08:30:53.000Z</time>
      </trkpt>
      <trkpt lat="47.34022" lon="-2.32139">
        <ele>-10.60000038147</ele>
        <time>2020-10-08T08:30:54.000Z</time>
      </trkpt>
      <trkpt lat="47.34025" lon="-2.32137">
        <ele>-10.60000038147</ele>
        <time>2020-10-08T08:30:56.000Z</time>
      </trkpt>
      <trkpt lat="47.34037" lon="-2.32127">
        <ele>-10.60000038147</ele>
        <time>2020-10-08T08:31:03.000Z</time>
      </trkpt>
      <trkpt lat="47.34052" lon="-2.32117">
        <ele>-10.60000038147</ele>
        <time>2020-10-08T08:31:09.000Z</time>
      </trkpt>
      <trkpt lat="47.34074" lon="-2.32103">
        <ele>-10.60000038147</ele>
        <time>2020-10-08T08:31:16.000Z</time>
      </trkpt>
      <trkpt lat="47.34098" lon="-2.32088">
        <ele>-10.60000038147</ele>
        <time>2020-10-08T08:31:23.000Z</time>
      </trkpt>
      <trkpt lat="47.34116" lon="-2.32076">
        <ele>-10.60000038147</ele>
        <time>2020-10-08T08:31:29.000Z</time>
      </trkpt>
      <trkpt lat="47.34132" lon="-2.32065">
        <ele>-10.60000038147</ele>
        <time>2020-10-08T08:31:34.000Z</time>
      </trkpt>
      <trkpt lat="47.34158" lon="-2.3205">
        <ele>-10.60000038147</ele>
        <time>2020-10-08T08:31:41.000Z</time>
      </trkpt>
      <trkpt lat="47.34172" lon="-2.32041">
        <ele>-10.60000038147</ele>
        <time>2020-10-08T08:31:47.000Z</time>
      </trkpt>
      <trkpt lat="47.34173" lon="-2.32041">
        <ele>-10.60000038147</ele>
        <time>2020-10-08T08:31:48.000Z</time>
      </trkpt>
      <trkpt lat="47.3418" lon="-2.32039">
        <ele>-10.60000038147</ele>
        <time>2020-10-08T08:31:55.000Z</time>
      </trkpt>
      <trkpt lat="47.34182" lon="-2.32039">
        <ele>-10.60000038147</ele>
        <time>2020-10-08T08:31:57.000Z</time>
      </trkpt>
      <trkpt lat="47.34182" lon="-2.3204">
        <ele>-10.60000038147</ele>
        <time>2020-10-08T08:31:58.000Z</time>
      </trkpt>
      <trkpt lat="47.34217" lon="-2.3207">
        <ele>-10.60000038147</ele>
        <time>2020-10-08T08:33:01.000Z</time>
      </trkpt>
      <trkpt lat="47.34221" lon="-2.32075">
        <ele>-10.60000038147</ele>
        <time>2020-10-08T08:33:04.000Z</time>
      </trkpt>
      <trkpt lat="47.34233" lon="-2.32087">
        <ele>-10.60000038147</ele>
        <time>2020-10-08T08:33:12.000Z</time>
      </trkpt>
      <trkpt lat="47.34235" lon="-2.32089">
        <ele>-10.60000038147</ele>
        <time>2020-10-08T08:33:14.000Z</time>
      </trkpt>
      <trkpt lat="47.34239" lon="-2.32093">
        <ele>-10.60000038147</ele>
        <time>2020-10-08T08:33:38.000Z</time>
      </trkpt>
      <trkpt lat="47.34243" lon="-2.32096">
        <ele>-10.60000038147</ele>
        <time>2020-10-08T08:33:40.000Z</time>
      </trkpt>
      <trkpt lat="47.34259" lon="-2.32107">
        <ele>-10.60000038147</ele>
        <time>2020-10-08T08:33:45.000Z</time>
      </trkpt>
      <trkpt lat="47.34274" lon="-2.32121">
        <ele>-10.60000038147</ele>
        <time>2020-10-08T08:33:50.000Z</time>
      </trkpt>
      <trkpt lat="47.34289" lon="-2.32141">
        <ele>-10.60000038147</ele>
        <time>2020-10-08T08:33:57.000Z</time>
      </trkpt>
      <trkpt lat="47.34303" lon="-2.32159">
        <ele>-10.60000038147</ele>
        <time>2020-10-08T08:34:03.000Z</time>
      </trkpt>
      <trkpt lat="47.3431" lon="-2.32165">
        <ele>-10.60000038147</ele>
        <time>2020-10-08T08:34:06.000Z</time>
      </trkpt>
      <trkpt lat="47.34314" lon="-2.3217">
        <ele>-10.60000038147</ele>
        <time>2020-10-08T08:34:08.000Z</time>
      </trkpt>
      <trkpt lat="47.34326" lon="-2.32182">
        <ele>-10.60000038147</ele>
        <time>2020-10-08T08:34:14.000Z</time>
      </trkpt>
      <trkpt lat="47.34328" lon="-2.32183">
        <ele>-10.60000038147</ele>
        <time>2020-10-08T08:34:15.000Z</time>
      </trkpt>
      <trkpt lat="47.34333" lon="-2.32183">
        <ele>-10.60000038147</ele>
        <time>2020-10-08T08:34:17.000Z</time>
      </trkpt>
      <trkpt lat="47.34339" lon="-2.32181">
        <ele>-10.60000038147</ele>
        <time>2020-10-08T08:34:19.000Z</time>
      </trkpt>
      <trkpt lat="47.34349" lon="-2.32173">
        <ele>-10.60000038147</ele>
        <time>2020-10-08T08:34:24.000Z</time>
      </trkpt>
      <trkpt lat="47.34353" lon="-2.32173">
        <ele>-10.60000038147</ele>
        <time>2020-10-08T08:34:29.000Z</time>
      </trkpt>
      <trkpt lat="47.34371" lon="-2.32156">
        <ele>-12.60000038147</ele>
        <time>2020-10-08T08:35:27.000Z</time>
      </trkpt>
      <trkpt lat="47.3438" lon="-2.32143">
        <ele>-12.60000038147</ele>
        <time>2020-10-08T08:35:32.000Z</time>
      </trkpt>
      <trkpt lat="47.3439" lon="-2.32128">
        <ele>-12.60000038147</ele>
        <time>2020-10-08T08:35:38.000Z</time>
      </trkpt>
      <trkpt lat="47.34391" lon="-2.32125">
        <ele>-12.60000038147</ele>
        <time>2020-10-08T08:35:39.000Z</time>
      </trkpt>
      <trkpt lat="47.34395" lon="-2.3211">
        <ele>-12.60000038147</ele>
        <time>2020-10-08T08:35:45.000Z</time>
      </trkpt>
      <trkpt lat="47.34403" lon="-2.32099">
        <ele>-12.60000038147</ele>
        <time>2020-10-08T08:35:51.000Z</time>
      </trkpt>
      <trkpt lat="47.34407" lon="-2.32085">
        <ele>-12.60000038147</ele>
        <time>2020-10-08T08:35:56.000Z</time>
      </trkpt>
      <trkpt lat="47.34411" lon="-2.32074">
        <ele>-12.60000038147</ele>
        <time>2020-10-08T08:36:02.000Z</time>
      </trkpt>
      <trkpt lat="47.34413" lon="-2.32072">
        <ele>-12.60000038147</ele>
        <time>2020-10-08T08:36:03.000Z</time>
      </trkpt>
      <trkpt lat="47.34417" lon="-2.32063">
        <ele>-12.60000038147</ele>
        <time>2020-10-08T08:36:08.000Z</time>
      </trkpt>
      <trkpt lat="47.34424" lon="-2.32051">
        <ele>-12.60000038147</ele>
        <time>2020-10-08T08:36:14.000Z</time>
      </trkpt>
      <trkpt lat="47.34426" lon="-2.3204">
        <ele>-12.60000038147</ele>
        <time>2020-10-08T08:36:19.000Z</time>
      </trkpt>
      <trkpt lat="47.34439" lon="-2.32002">
        <ele>-12.60000038147</ele>
        <time>2020-10-08T08:37:05.000Z</time>
      </trkpt>
      <trkpt lat="47.34442" lon="-2.31988">
        <ele>-12.60000038147</ele>
        <time>2020-10-08T08:37:12.000Z</time>
      </trkpt>
      <trkpt lat="47.34444" lon="-2.31977">
        <ele>-12.60000038147</ele>
        <time>2020-10-08T08:37:17.000Z</time>
      </trkpt>
      <trkpt lat="47.34444" lon="-2.31974">
        <ele>-12.60000038147</ele>
        <time>2020-10-08T08:37:18.000Z</time>
      </trkpt>
      <trkpt lat="47.34445" lon="-2.31968">
        <ele>-12.60000038147</ele>
        <time>2020-10-08T08:37:21.000Z</time>
      </trkpt>
      <trkpt lat="47.3445" lon="-2.31943">
        <ele>-12.60000038147</ele>
        <time>2020-10-08T08:37:46.000Z</time>
      </trkpt>
      <trkpt lat="47.3445" lon="-2.31939">
        <ele>-12.60000038147</ele>
        <time>2020-10-08T08:37:47.000Z</time>
      </trkpt>
      <trkpt lat="47.34453" lon="-2.31928">
        <ele>-12.60000038147</ele>
        <time>2020-10-08T08:37:51.000Z</time>
      </trkpt>
      <trkpt lat="47.34454" lon="-2.31925">
        <ele>-12.60000038147</ele>
        <time>2020-10-08T08:37:52.000Z</time>
      </trkpt>
      <trkpt lat="47.3446" lon="-2.3192">
        <ele>-12.60000038147</ele>
        <time>2020-10-08T08:37:55.000Z</time>
      </trkpt>
      <trkpt lat="47.3447" lon="-2.3191">
        <ele>-12.60000038147</ele>
        <time>2020-10-08T08:37:58.000Z</time>
      </trkpt>
      <trkpt lat="47.34473" lon="-2.31909">
        <ele>-12.60000038147</ele>
        <time>2020-10-08T08:37:59.000Z</time>
      </trkpt>
      <trkpt lat="47.34474" lon="-2.31909">
        <ele>-12.60000038147</ele>
        <time>2020-10-08T08:38:00.000Z</time>
      </trkpt>
      <trkpt lat="47.3448" lon="-2.3191">
        <ele>-12.60000038147</ele>
        <time>2020-10-08T08:38:03.000Z</time>
      </trkpt>
      <trkpt lat="47.34493" lon="-2.31917">
        <ele>-12.60000038147</ele>
        <time>2020-10-08T08:38:10.000Z</time>
      </trkpt>
      <trkpt lat="47.34498" lon="-2.31923">
        <ele>-12.60000038147</ele>
        <time>2020-10-08T08:38:14.000Z</time>
      </trkpt>
      <trkpt lat="47.34502" lon="-2.31925">
        <ele>-12.60000038147</ele>
        <time>2020-10-08T08:38:16.000Z</time>
      </trkpt>
      <trkpt lat="47.34513" lon="-2.31928">
        <ele>-12.60000038147</ele>
        <time>2020-10-08T08:38:21.000Z</time>
      </trkpt>
      <trkpt lat="47.34515" lon="-2.3193">
        <ele>-12.60000038147</ele>
        <time>2020-10-08T08:38:22.000Z</time>
      </trkpt>
      <trkpt lat="47.34522" lon="-2.31938">
        <ele>-12.60000038147</ele>
        <time>2020-10-08T08:38:25.000Z</time>
      </trkpt>
      <trkpt lat="47.34524" lon="-2.31939">
        <ele>-12.60000038147</ele>
        <time>2020-10-08T08:38:26.000Z</time>
      </trkpt>
      <trkpt lat="47.3453" lon="-2.31944">
        <ele>-12.60000038147</ele>
        <time>2020-10-08T08:38:29.000Z</time>
      </trkpt>
      <trkpt lat="47.34533" lon="-2.31948">
        <ele>-12.60000038147</ele>
        <time>2020-10-08T08:38:31.000Z</time>
      </trkpt>
      <trkpt lat="47.34547" lon="-2.31959">
        <ele>-12.60000038147</ele>
        <time>2020-10-08T08:38:38.000Z</time>
      </trkpt>
      <trkpt lat="47.34559" lon="-2.31969">
        <ele>-12.60000038147</ele>
        <time>2020-10-08T08:38:43.000Z</time>
      </trkpt>
      <trkpt lat="47.34574" lon="-2.31978">
        <ele>-12.60000038147</ele>
        <time>2020-10-08T08:38:48.000Z</time>
      </trkpt>
      <trkpt lat="47.34583" lon="-2.31983">
        <ele>-12.60000038147</ele>
        <time>2020-10-08T08:38:53.000Z</time>
      </trkpt>
      <trkpt lat="47.34585" lon="-2.31982">
        <ele>-12.60000038147</ele>
        <time>2020-10-08T08:38:54.000Z</time>
      </trkpt>
      <trkpt lat="47.34594" lon="-2.31982">
        <ele>-12.60000038147</ele>
        <time>2020-10-08T08:38:58.000Z</time>
      </trkpt>
      <trkpt lat="47.34596" lon="-2.31983">
        <ele>-12.60000038147</ele>
        <time>2020-10-08T08:38:59.000Z</time>
      </trkpt>
      <trkpt lat="47.34612" lon="-2.3199">
        <ele>-12.60000038147</ele>
        <time>2020-10-08T08:39:04.000Z</time>
      </trkpt>
      <trkpt lat="47.3463" lon="-2.31999">
        <ele>-12.60000038147</ele>
        <time>2020-10-08T08:39:11.000Z</time>
      </trkpt>
      <trkpt lat="47.34646" lon="-2.32008">
        <ele>-12.60000038147</ele>
        <time>2020-10-08T08:39:17.000Z</time>
      </trkpt>
      <trkpt lat="47.34654" lon="-2.32013">
        <ele>-12.60000038147</ele>
        <time>2020-10-08T08:39:21.000Z</time>
      </trkpt>
      <trkpt lat="47.34658" lon="-2.32015">
        <ele>-12.60000038147</ele>
        <time>2020-10-08T08:39:23.000Z</time>
      </trkpt>
      <trkpt lat="47.34662" lon="-2.32016">
        <ele>-12.60000038147</ele>
        <time>2020-10-08T08:39:25.000Z</time>
      </trkpt>
      <trkpt lat="47.34672" lon="-2.32021">
        <ele>-12.60000038147</ele>
        <time>2020-10-08T08:39:29.000Z</time>
      </trkpt>
      <trkpt lat="47.34685" lon="-2.32025">
        <ele>-12.60000038147</ele>
        <time>2020-10-08T08:39:35.000Z</time>
      </trkpt>
      <trkpt lat="47.34704" lon="-2.32035">
        <ele>-12.60000038147</ele>
        <time>2020-10-08T08:39:42.000Z</time>
      </trkpt>
      <trkpt lat="47.34714" lon="-2.32046">
        <ele>-12.60000038147</ele>
        <time>2020-10-08T08:39:46.000Z</time>
      </trkpt>
      <trkpt lat="47.34715" lon="-2.32049">
        <ele>-12.60000038147</ele>
        <time>2020-10-08T08:39:47.000Z</time>
      </trkpt>
      <trkpt lat="47.34714" lon="-2.32075">
        <ele>-12.60000038147</ele>
        <time>2020-10-08T08:39:54.000Z</time>
      </trkpt>
      <trkpt lat="47.3471" lon="-2.321">
        <ele>-12.60000038147</ele>
        <time>2020-10-08T08:40:01.000Z</time>
      </trkpt>
      <trkpt lat="47.34708" lon="-2.32106">
        <ele>-12.60000038147</ele>
        <time>2020-10-08T08:40:04.000Z</time>
      </trkpt>
      <trkpt lat="47.34711" lon="-2.3212">
        <ele>-12.60000038147</ele>
        <time>2020-10-08T08:40:38.000Z</time>
      </trkpt>
      <trkpt lat="47.34713" lon="-2.32119">
        <ele>-12.60000038147</ele>
        <time>2020-10-08T08:40:39.000Z</time>
      </trkpt>
      <trkpt lat="47.34727" lon="-2.32109">
        <ele>-12.60000038147</ele>
        <time>2020-10-08T08:40:44.000Z</time>
      </trkpt>
      <trkpt lat="47.34745" lon="-2.32097">
        <ele>-12.60000038147</ele>
        <time>2020-10-08T08:40:51.000Z</time>
      </trkpt>
      <trkpt lat="47.34753" lon="-2.3209">
        <ele>-12.60000038147</ele>
        <time>2020-10-08T08:40:56.000Z</time>
      </trkpt>
      <trkpt lat="47.34754" lon="-2.32089">
        <ele>-12.60000038147</ele>
        <time>2020-10-08T08:52:05.000Z</time>
      </trkpt>
      <trkpt lat="47.34755" lon="-2.32096">
        <ele>-12.60000038147</ele>
        <time>2020-10-08T08:52:08.000Z</time>
      </trkpt>
      <trkpt lat="47.34755" lon="-2.32098">
        <ele>-12.60000038147</ele>
        <time>2020-10-08T08:52:09.000Z</time>
      </trkpt>
      <trkpt lat="47.34754" lon="-2.3211">
        <ele>-12.60000038147</ele>
        <time>2020-10-08T08:52:13.000Z</time>
      </trkpt>
      <trkpt lat="47.34753" lon="-2.32132">
        <ele>-12.60000038147</ele>
        <time>2020-10-08T08:52:18.000Z</time>
      </trkpt>
      <trkpt lat="47.34758" lon="-2.32157">
        <ele>-12.60000038147</ele>
        <time>2020-10-08T08:52:23.000Z</time>
      </trkpt>
      <trkpt lat="47.34774" lon="-2.32184">
        <ele>-12.60000038147</ele>
        <time>2020-10-08T08:52:29.000Z</time>
      </trkpt>
      <trkpt lat="47.34786" lon="-2.32202">
        <ele>-12.60000038147</ele>
        <time>2020-10-08T08:52:34.000Z</time>
      </trkpt>
      <trkpt lat="47.34789" lon="-2.32207">
        <ele>-12.60000038147</ele>
        <time>2020-10-08T08:52:35.000Z</time>
      </trkpt>
      <trkpt lat="47.34803" lon="-2.32225">
        <ele>-12.60000038147</ele>
        <time>2020-10-08T08:52:39.000Z</time>
      </trkpt>
      <trkpt lat="47.34815" lon="-2.32244">
        <ele>-12.60000038147</ele>
        <time>2020-10-08T08:52:44.000Z</time>
      </trkpt>
      <trkpt lat="47.34825" lon="-2.32254">
        <ele>-12.60000038147</ele>
        <time>2020-10-08T08:52:49.000Z</time>
      </trkpt>
      <trkpt lat="47.34828" lon="-2.32265">
        <ele>-12.60000038147</ele>
        <time>2020-10-08T08:52:54.000Z</time>
      </trkpt>
      <trkpt lat="47.3483" lon="-2.32269">
        <ele>-12.60000038147</ele>
        <time>2020-10-08T08:52:55.000Z</time>
      </trkpt>
      <trkpt lat="47.34843" lon="-2.32286">
        <ele>-12.60000038147</ele>
        <time>2020-10-08T08:53:01.000Z</time>
      </trkpt>
      <trkpt lat="47.34861" lon="-2.32309">
        <ele>-12.60000038147</ele>
        <time>2020-10-08T08:53:08.000Z</time>
      </trkpt>
      <trkpt lat="47.34859" lon="-2.32326">
        <ele>-12.60000038147</ele>
        <time>2020-10-08T08:53:12.000Z</time>
      </trkpt>
      <trkpt lat="47.34848" lon="-2.32349">
        <ele>-12.60000038147</ele>
        <time>2020-10-08T08:53:18.000Z</time>
      </trkpt>
      <trkpt lat="47.34837" lon="-2.32372">
        <ele>-12.60000038147</ele>
        <time>2020-10-08T08:53:24.000Z</time>
      </trkpt>
      <trkpt lat="47.34821" lon="-2.32399">
        <ele>-12.60000038147</ele>
        <time>2020-10-08T08:53:30.000Z</time>
      </trkpt>
      <trkpt lat="47.34807" lon="-2.32425">
        <ele>-12.60000038147</ele>
        <time>2020-10-08T08:53:36.000Z</time>
      </trkpt>
      <trkpt lat="47.34788" lon="-2.32449">
        <ele>-12.60000038147</ele>
        <time>2020-10-08T08:53:42.000Z</time>
      </trkpt>
      <trkpt lat="47.34768" lon="-2.32473">
        <ele>-12.60000038147</ele>
        <time>2020-10-08T08:53:48.000Z</time>
      </trkpt>
      <trkpt lat="47.34749" lon="-2.32491">
        <ele>-12.60000038147</ele>
        <time>2020-10-08T08:53:54.000Z</time>
      </trkpt>
      <trkpt lat="47.34726" lon="-2.32506">
        <ele>-12.60000038147</ele>
        <time>2020-10-08T08:54:01.000Z</time>
      </trkpt>
      <trkpt lat="47.34704" lon="-2.32511">
        <ele>-12.60000038147</ele>
        <time>2020-10-08T08:54:07.000Z</time>
      </trkpt>
      <trkpt lat="47.34688" lon="-2.32513">
        <ele>-12.199999809265</ele>
        <time>2020-10-08T08:54:11.000Z</time>
      </trkpt>
      <trkpt lat="47.34685" lon="-2.32515">
        <ele>-11.60000038147</ele>
        <time>2020-10-08T08:54:12.000Z</time>
      </trkpt>
      <trkpt lat="47.34682" lon="-2.32518">
        <ele>-11.199999809265</ele>
        <time>2020-10-08T08:54:13.000Z</time>
      </trkpt>
      <trkpt lat="47.34679" lon="-2.32522">
        <ele>-10.800000190735</ele>
        <time>2020-10-08T08:54:14.000Z</time>
      </trkpt>
      <trkpt lat="47.34677" lon="-2.32525">
        <ele>-10.39999961853</ele>
        <time>2020-10-08T08:54:15.000Z</time>
      </trkpt>
      <trkpt lat="47.34668" lon="-2.32539">
        <ele>-10.39999961853</ele>
        <time>2020-10-08T08:54:18.000Z</time>
      </trkpt>
      <trkpt lat="47.34658" lon="-2.32559">
        <ele>-10.39999961853</ele>
        <time>2020-10-08T08:54:23.000Z</time>
      </trkpt>
      <trkpt lat="47.34646" lon="-2.32583">
        <ele>-10.39999961853</ele>
        <time>2020-10-08T08:54:29.000Z</time>
      </trkpt>
      <trkpt lat="47.3463" lon="-2.32603">
        <ele>-10.39999961853</ele>
        <time>2020-10-08T08:54:35.000Z</time>
      </trkpt>
      <trkpt lat="47.34621" lon="-2.32613">
        <ele>-10.39999961853</ele>
        <time>2020-10-08T08:54:40.000Z</time>
      </trkpt>
      <trkpt lat="47.34606" lon="-2.32634">
        <ele>-10.39999961853</ele>
        <time>2020-10-08T08:54:45.000Z</time>
      </trkpt>
      <trkpt lat="47.34596" lon="-2.32646">
        <ele>-10.39999961853</ele>
        <time>2020-10-08T08:54:49.000Z</time>
      </trkpt>
      <trkpt lat="47.34586" lon="-2.32659">
        <ele>-9.6000003814697</ele>
        <time>2020-10-08T08:54:53.000Z</time>
      </trkpt>
      <trkpt lat="47.34582" lon="-2.32663">
        <ele>-9.1999998092651</ele>
        <time>2020-10-08T08:54:54.000Z</time>
      </trkpt>
      <trkpt lat="47.34578" lon="-2.32667">
        <ele>-8.8000001907349</ele>
        <time>2020-10-08T08:54:55.000Z</time>
      </trkpt>
      <trkpt lat="47.34575" lon="-2.32671">
        <ele>-8.3999996185303</ele>
        <time>2020-10-08T08:54:56.000Z</time>
      </trkpt>
      <trkpt lat="47.34551" lon="-2.32689">
        <ele>-8.3999996185303</ele>
        <time>2020-10-08T08:55:02.000Z</time>
      </trkpt>
      <trkpt lat="47.34547" lon="-2.32692">
        <ele>-7.8000001907349</ele>
        <time>2020-10-08T08:55:03.000Z</time>
      </trkpt>
      <trkpt lat="47.34544" lon="-2.32694">
        <ele>-7.4000000953674</ele>
        <time>2020-10-08T08:55:04.000Z</time>
      </trkpt>
      <trkpt lat="47.3454" lon="-2.32697">
        <ele>-7</ele>
        <time>2020-10-08T08:55:05.000Z</time>
      </trkpt>
      <trkpt lat="47.34536" lon="-2.327">
        <ele>-6.5999999046326</ele>
        <time>2020-10-08T08:55:06.000Z</time>
      </trkpt>
      <trkpt lat="47.34532" lon="-2.32703">
        <ele>-6.1999998092651</ele>
        <time>2020-10-08T08:55:07.000Z</time>
      </trkpt>
      <trkpt lat="47.34525" lon="-2.32708">
        <ele>-6.1999998092651</ele>
        <time>2020-10-08T08:55:09.000Z</time>
      </trkpt>
      <trkpt lat="47.34499" lon="-2.32726">
        <ele>-6.1999998092651</ele>
        <time>2020-10-08T08:55:16.000Z</time>
      </trkpt>
      <trkpt lat="47.34485" lon="-2.32734">
        <ele>-6.1999998092651</ele>
        <time>2020-10-08T08:55:19.000Z</time>
      </trkpt>
      <trkpt lat="47.34473" lon="-2.32741">
        <ele>-6.1999998092651</ele>
        <time>2020-10-08T08:55:22.000Z</time>
      </trkpt>
      <trkpt lat="47.34466" lon="-2.32747">
        <ele>-6.1999998092651</ele>
        <time>2020-10-08T08:55:24.000Z</time>
      </trkpt>
      <trkpt lat="47.34458" lon="-2.3276">
        <ele>-6.1999998092651</ele>
        <time>2020-10-08T08:55:27.000Z</time>
      </trkpt>
      <trkpt lat="47.34457" lon="-2.32785">
        <ele>-6.1999998092651</ele>
        <time>2020-10-08T08:55:31.000Z</time>
      </trkpt>
      <trkpt lat="47.3446" lon="-2.32813">
        <ele>-6.1999998092651</ele>
        <time>2020-10-08T08:55:36.000Z</time>
      </trkpt>
      <trkpt lat="47.34458" lon="-2.32817">
        <ele>-6.1999998092651</ele>
        <time>2020-10-08T08:55:37.000Z</time>
      </trkpt>
      <trkpt lat="47.34452" lon="-2.32825">
        <ele>-6.5999999046326</ele>
        <time>2020-10-08T08:55:39.000Z</time>
      </trkpt>
      <trkpt lat="47.34449" lon="-2.32828">
        <ele>-7.1999998092651</ele>
        <time>2020-10-08T08:55:40.000Z</time>
      </trkpt>
      <trkpt lat="47.34445" lon="-2.32831">
        <ele>-7.5999999046326</ele>
        <time>2020-10-08T08:55:41.000Z</time>
      </trkpt>
      <trkpt lat="47.34441" lon="-2.32834">
        <ele>-8.6000003814697</ele>
        <time>2020-10-08T08:55:42.000Z</time>
      </trkpt>
      <trkpt lat="47.34425" lon="-2.32847">
        <ele>-8.6000003814697</ele>
        <time>2020-10-08T08:55:46.000Z</time>
      </trkpt>
      <trkpt lat="47.34401" lon="-2.32862">
        <ele>-8.6000003814697</ele>
        <time>2020-10-08T08:55:51.000Z</time>
      </trkpt>
      <trkpt lat="47.34397" lon="-2.32866">
        <ele>-8.6000003814697</ele>
        <time>2020-10-08T08:55:52.000Z</time>
      </trkpt>
      <trkpt lat="47.34369" lon="-2.32896">
        <ele>-8.6000003814697</ele>
        <time>2020-10-08T08:55:59.000Z</time>
      </trkpt>
      <trkpt lat="47.34366" lon="-2.32901">
        <ele>-9</ele>
        <time>2020-10-08T08:56:00.000Z</time>
      </trkpt>
      <trkpt lat="47.34364" lon="-2.32905">
        <ele>-9.3999996185303</ele>
        <time>2020-10-08T08:56:01.000Z</time>
      </trkpt>
      <trkpt lat="47.34363" lon="-2.3291">
        <ele>-9.8000001907349</ele>
        <time>2020-10-08T08:56:02.000Z</time>
      </trkpt>
      <trkpt lat="47.34362" lon="-2.32915">
        <ele>-10.199999809265</ele>
        <time>2020-10-08T08:56:03.000Z</time>
      </trkpt>
      <trkpt lat="47.34361" lon="-2.32921">
        <ele>-10.60000038147</ele>
        <time>2020-10-08T08:56:04.000Z</time>
      </trkpt>
      <trkpt lat="47.34362" lon="-2.32933">
        <ele>-10.60000038147</ele>
        <time>2020-10-08T08:56:06.000Z</time>
      </trkpt>
      <trkpt lat="47.34363" lon="-2.32938">
        <ele>-10.60000038147</ele>
        <time>2020-10-08T08:56:07.000Z</time>
      </trkpt>
      <trkpt lat="47.34366" lon="-2.3295">
        <ele>-10.60000038147</ele>
        <time>2020-10-08T08:56:09.000Z</time>
      </trkpt>
      <trkpt lat="47.3437" lon="-2.32973">
        <ele>-10.60000038147</ele>
        <time>2020-10-08T08:56:13.000Z</time>
      </trkpt>
      <trkpt lat="47.34371" lon="-2.32998">
        <ele>-10.60000038147</ele>
        <time>2020-10-08T08:56:19.000Z</time>
      </trkpt>
      <trkpt lat="47.34375" lon="-2.33023">
        <ele>-10.60000038147</ele>
        <time>2020-10-08T08:56:25.000Z</time>
      </trkpt>
      <trkpt lat="47.34383" lon="-2.33053">
        <ele>-10.60000038147</ele>
        <time>2020-10-08T08:56:32.000Z</time>
      </trkpt>
      <trkpt lat="47.34386" lon="-2.33071">
        <ele>-10.60000038147</ele>
        <time>2020-10-08T08:56:37.000Z</time>
      </trkpt>
      <trkpt lat="47.34389" lon="-2.33092">
        <ele>-10.60000038147</ele>
        <time>2020-10-08T08:56:43.000Z</time>
      </trkpt>
      <trkpt lat="47.34395" lon="-2.33117">
        <ele>-10.60000038147</ele>
        <time>2020-10-08T08:56:50.000Z</time>
      </trkpt>
      <trkpt lat="47.34399" lon="-2.3314">
        <ele>-10.60000038147</ele>
        <time>2020-10-08T08:56:55.000Z</time>
      </trkpt>
      <trkpt lat="47.34405" lon="-2.33165">
        <ele>-10.60000038147</ele>
        <time>2020-10-08T08:57:00.000Z</time>
      </trkpt>
      <trkpt lat="47.34412" lon="-2.33186">
        <ele>-10.199999809265</ele>
        <time>2020-10-08T08:57:04.000Z</time>
      </trkpt>
      <trkpt lat="47.34413" lon="-2.33191">
        <ele>-9.8000001907349</ele>
        <time>2020-10-08T08:57:05.000Z</time>
      </trkpt>
      <trkpt lat="47.34413" lon="-2.33197">
        <ele>-9.3999996185303</ele>
        <time>2020-10-08T08:57:06.000Z</time>
      </trkpt>
      <trkpt lat="47.34413" lon="-2.33203">
        <ele>-9</ele>
        <time>2020-10-08T08:57:07.000Z</time>
      </trkpt>
      <trkpt lat="47.34414" lon="-2.33209">
        <ele>-8.6000003814697</ele>
        <time>2020-10-08T08:57:08.000Z</time>
      </trkpt>
      <trkpt lat="47.34419" lon="-2.33235">
        <ele>-8.6000003814697</ele>
        <time>2020-10-08T08:57:13.000Z</time>
      </trkpt>
      <trkpt lat="47.3443" lon="-2.33271">
        <ele>-8.6000003814697</ele>
        <time>2020-10-08T08:57:20.000Z</time>
      </trkpt>
      <trkpt lat="47.34442" lon="-2.33286">
        <ele>-8.6000003814697</ele>
        <time>2020-10-08T08:57:24.000Z</time>
      </trkpt>
      <trkpt lat="47.34455" lon="-2.33311">
        <ele>-8.6000003814697</ele>
        <time>2020-10-08T08:57:29.000Z</time>
      </trkpt>
      <trkpt lat="47.34459" lon="-2.33339">
        <ele>-8.6000003814697</ele>
        <time>2020-10-08T08:57:34.000Z</time>
      </trkpt>
      <trkpt lat="47.3446" lon="-2.33357">
        <ele>-8.6000003814697</ele>
        <time>2020-10-08T08:57:38.000Z</time>
      </trkpt>
      <trkpt lat="47.34465" lon="-2.33382">
        <ele>-8.6000003814697</ele>
        <time>2020-10-08T08:57:43.000Z</time>
      </trkpt>
      <trkpt lat="47.34468" lon="-2.33401">
        <ele>-8.6000003814697</ele>
        <time>2020-10-08T08:57:47.000Z</time>
      </trkpt>
      <trkpt lat="47.3447" lon="-2.3341">
        <ele>-8.6000003814697</ele>
        <time>2020-10-08T08:57:49.000Z</time>
      </trkpt>
      <trkpt lat="47.34472" lon="-2.33419">
        <ele>-8.6000003814697</ele>
        <time>2020-10-08T08:57:51.000Z</time>
      </trkpt>
      <trkpt lat="47.34474" lon="-2.33434">
        <ele>-8.1999998092651</ele>
        <time>2020-10-08T08:57:54.000Z</time>
      </trkpt>
      <trkpt lat="47.34475" lon="-2.33439">
        <ele>-7.5999999046326</ele>
        <time>2020-10-08T08:57:55.000Z</time>
      </trkpt>
      <trkpt lat="47.34475" lon="-2.33444">
        <ele>-7.1999998092651</ele>
        <time>2020-10-08T08:57:56.000Z</time>
      </trkpt>
      <trkpt lat="47.34476" lon="-2.33448">
        <ele>-6.8000001907349</ele>
        <time>2020-10-08T08:57:57.000Z</time>
      </trkpt>
      <trkpt lat="47.34476" lon="-2.33453">
        <ele>-6.4000000953674</ele>
        <time>2020-10-08T08:57:58.000Z</time>
      </trkpt>
      <trkpt lat="47.34477" lon="-2.3347">
        <ele>-6.4000000953674</ele>
        <time>2020-10-08T08:58:02.000Z</time>
      </trkpt>
      <trkpt lat="47.3448" lon="-2.33489">
        <ele>-6.4000000953674</ele>
        <time>2020-10-08T08:58:07.000Z</time>
      </trkpt>
      <trkpt lat="47.34482" lon="-2.33507">
        <ele>-6.4000000953674</ele>
        <time>2020-10-08T08:58:12.000Z</time>
      </trkpt>
      <trkpt lat="47.34485" lon="-2.33533">
        <ele>-6.4000000953674</ele>
        <time>2020-10-08T08:58:17.000Z</time>
      </trkpt>
      <trkpt lat="47.34488" lon="-2.33552">
        <ele>-6.4000000953674</ele>
        <time>2020-10-08T08:58:21.000Z</time>
      </trkpt>
      <trkpt lat="47.34489" lon="-2.33562">
        <ele>-6.4000000953674</ele>
        <time>2020-10-08T08:58:25.000Z</time>
      </trkpt>
      <trkpt lat="47.34494" lon="-2.33578">
        <ele>-6.4000000953674</ele>
        <time>2020-10-08T08:58:31.000Z</time>
      </trkpt>
      <trkpt lat="47.34498" lon="-2.33585">
        <ele>-6</ele>
        <time>2020-10-08T08:58:33.000Z</time>
      </trkpt>
      <trkpt lat="47.34499" lon="-2.33588">
        <ele>-5.5999999046326</ele>
        <time>2020-10-08T08:58:34.000Z</time>
      </trkpt>
      <trkpt lat="47.34499" lon="-2.33592">
        <ele>-4.8000001907349</ele>
        <time>2020-10-08T08:58:35.000Z</time>
      </trkpt>
      <trkpt lat="47.345" lon="-2.33595">
        <ele>-4.4000000953674</ele>
        <time>2020-10-08T08:58:36.000Z</time>
      </trkpt>
      <trkpt lat="47.34504" lon="-2.33608">
        <ele>-4.4000000953674</ele>
        <time>2020-10-08T08:58:40.000Z</time>
      </trkpt>
      <trkpt lat="47.3451" lon="-2.33636">
        <ele>-4.4000000953674</ele>
        <time>2020-10-08T08:58:47.000Z</time>
      </trkpt>
      <trkpt lat="47.34514" lon="-2.33656">
        <ele>-4.4000000953674</ele>
        <time>2020-10-08T08:58:52.000Z</time>
      </trkpt>
      <trkpt lat="47.3452" lon="-2.33675">
        <ele>-4.4000000953674</ele>
        <time>2020-10-08T08:58:57.000Z</time>
      </trkpt>
      <trkpt lat="47.34522" lon="-2.33686">
        <ele>-4.4000000953674</ele>
        <time>2020-10-08T08:59:01.000Z</time>
      </trkpt>
      <trkpt lat="47.34522" lon="-2.33689">
        <ele>-4.4000000953674</ele>
        <time>2020-10-08T08:59:02.000Z</time>
      </trkpt>
      <trkpt lat="47.34529" lon="-2.33704">
        <ele>-4.4000000953674</ele>
        <time>2020-10-08T08:59:06.000Z</time>
      </trkpt>
      <trkpt lat="47.34534" lon="-2.33732">
        <ele>-4</ele>
        <time>2020-10-08T08:59:11.000Z</time>
      </trkpt>
      <trkpt lat="47.34534" lon="-2.33738">
        <ele>-3.5999999046326</ele>
        <time>2020-10-08T08:59:12.000Z</time>
      </trkpt>
      <trkpt lat="47.34536" lon="-2.33744">
        <ele>-3.2000000476837</ele>
        <time>2020-10-08T08:59:13.000Z</time>
      </trkpt>
      <trkpt lat="47.34537" lon="-2.3375">
        <ele>-2.7999999523163</ele>
        <time>2020-10-08T08:59:14.000Z</time>
      </trkpt>
      <trkpt lat="47.34539" lon="-2.33756">
        <ele>-2.2000000476837</ele>
        <time>2020-10-08T08:59:15.000Z</time>
      </trkpt>
      <trkpt lat="47.3454" lon="-2.33762">
        <ele>-2.2000000476837</ele>
        <time>2020-10-08T08:59:16.000Z</time>
      </trkpt>
      <trkpt lat="47.3455" lon="-2.33805">
        <ele>-2.2000000476837</ele>
        <time>2020-10-08T08:59:23.000Z</time>
      </trkpt>
      <trkpt lat="47.34551" lon="-2.33812">
        <ele>-2.2000000476837</ele>
        <time>2020-10-08T08:59:24.000Z</time>
      </trkpt>
      <trkpt lat="47.34553" lon="-2.33826">
        <ele>-2.2000000476837</ele>
        <time>2020-10-08T08:59:26.000Z</time>
      </trkpt>
      <trkpt lat="47.34559" lon="-2.33855">
        <ele>-2.2000000476837</ele>
        <time>2020-10-08T08:59:29.000Z</time>
      </trkpt>
      <trkpt lat="47.34559" lon="-2.33861">
        <ele>-2.2000000476837</ele>
        <time>2020-10-08T08:59:30.000Z</time>
      </trkpt>
      <trkpt lat="47.34555" lon="-2.33872">
        <ele>-2.2000000476837</ele>
        <time>2020-10-08T08:59:32.000Z</time>
      </trkpt>
      <trkpt lat="47.34542" lon="-2.3388">
        <ele>-2.2000000476837</ele>
        <time>2020-10-08T08:59:36.000Z</time>
      </trkpt>
      <trkpt lat="47.34538" lon="-2.33882">
        <ele>-2.2000000476837</ele>
        <time>2020-10-08T08:59:37.000Z</time>
      </trkpt>
      <trkpt lat="47.34519" lon="-2.33892">
        <ele>-2.2000000476837</ele>
        <time>2020-10-08T08:59:42.000Z</time>
      </trkpt>
      <trkpt lat="47.34498" lon="-2.33902">
        <ele>-2.2000000476837</ele>
        <time>2020-10-08T08:59:49.000Z</time>
      </trkpt>
      <trkpt lat="47.34469" lon="-2.33915">
        <ele>-2.2000000476837</ele>
        <time>2020-10-08T08:59:57.000Z</time>
      </trkpt>
      <trkpt lat="47.34447" lon="-2.33925">
        <ele>-2.2000000476837</ele>
        <time>2020-10-08T09:00:03.000Z</time>
      </trkpt>
      <trkpt lat="47.34426" lon="-2.33938">
        <ele>-2.2000000476837</ele>
        <time>2020-10-08T09:00:09.000Z</time>
      </trkpt>
      <trkpt lat="47.34419" lon="-2.33942">
        <ele>-1.7999999523163</ele>
        <time>2020-10-08T09:00:11.000Z</time>
      </trkpt>
      <trkpt lat="47.34415" lon="-2.33944">
        <ele>-1.3999999761581</ele>
        <time>2020-10-08T09:00:12.000Z</time>
      </trkpt>
      <trkpt lat="47.34412" lon="-2.33946">
        <ele>-1</ele>
        <time>2020-10-08T09:00:13.000Z</time>
      </trkpt>
      <trkpt lat="47.34408" lon="-2.33948">
        <ele>-0.60000002384186</ele>
        <time>2020-10-08T09:00:14.000Z</time>
      </trkpt>
      <trkpt lat="47.34405" lon="-2.33949">
        <ele>-0.20000000298023</ele>
        <time>2020-10-08T09:00:15.000Z</time>
      </trkpt>
      <trkpt lat="47.34399" lon="-2.3395">
        <ele>-0.20000000298023</ele>
        <time>2020-10-08T09:00:17.000Z</time>
      </trkpt>
      <trkpt lat="47.34389" lon="-2.33955">
        <ele>-0.20000000298023</ele>
        <time>2020-10-08T09:00:21.000Z</time>
      </trkpt>
      <trkpt lat="47.34388" lon="-2.33959">
        <ele>-0.20000000298023</ele>
        <time>2020-10-08T09:00:23.000Z</time>
      </trkpt>
      <trkpt lat="47.34388" lon="-2.33963">
        <ele>-0.20000000298023</ele>
        <time>2020-10-08T09:00:25.000Z</time>
      </trkpt>
      <trkpt lat="47.34389" lon="-2.33982">
        <ele>-0.20000000298023</ele>
        <time>2020-10-08T09:00:32.000Z</time>
      </trkpt>
      <trkpt lat="47.34392" lon="-2.34002">
        <ele>-0.20000000298023</ele>
        <time>2020-10-08T09:00:37.000Z</time>
      </trkpt>
      <trkpt lat="47.34396" lon="-2.3403">
        <ele>-0.20000000298023</ele>
        <time>2020-10-08T09:00:43.000Z</time>
      </trkpt>
      <trkpt lat="47.34397" lon="-2.34048">
        <ele>-0.20000000298023</ele>
        <time>2020-10-08T09:00:47.000Z</time>
      </trkpt>
      <trkpt lat="47.34395" lon="-2.34052">
        <ele>-0.20000000298023</ele>
        <time>2020-10-08T09:00:48.000Z</time>
      </trkpt>
      <trkpt lat="47.34381" lon="-2.3407">
        <ele>-0.20000000298023</ele>
        <time>2020-10-08T09:00:53.000Z</time>
      </trkpt>
      <trkpt lat="47.34364" lon="-2.34091">
        <ele>-0.20000000298023</ele>
        <time>2020-10-08T09:00:59.000Z</time>
      </trkpt>
      <trkpt lat="47.34347" lon="-2.34107">
        <ele>-0.20000000298023</ele>
        <time>2020-10-08T09:01:05.000Z</time>
      </trkpt>
      <trkpt lat="47.34325" lon="-2.34129">
        <ele>-0.20000000298023</ele>
        <time>2020-10-08T09:01:11.000Z</time>
      </trkpt>
      <trkpt lat="47.34321" lon="-2.34133">
        <ele>-0.20000000298023</ele>
        <time>2020-10-08T09:01:12.000Z</time>
      </trkpt>
      <trkpt lat="47.34306" lon="-2.3415">
        <ele>-0.20000000298023</ele>
        <time>2020-10-08T09:01:16.000Z</time>
      </trkpt>
      <trkpt lat="47.34284" lon="-2.34173">
        <ele>-0.20000000298023</ele>
        <time>2020-10-08T09:01:21.000Z</time>
      </trkpt>
      <trkpt lat="47.3427" lon="-2.34187">
        <ele>-0.20000000298023</ele>
        <time>2020-10-08T09:01:24.000Z</time>
      </trkpt>
      <trkpt lat="47.34264" lon="-2.34192">
        <ele>0.20000000298023</ele>
        <time>2020-10-08T09:01:25.000Z</time>
      </trkpt>
      <trkpt lat="47.34259" lon="-2.34196">
        <ele>0.60000002384186</ele>
        <time>2020-10-08T09:01:26.000Z</time>
      </trkpt>
      <trkpt lat="47.34254" lon="-2.34201">
        <ele>1</ele>
        <time>2020-10-08T09:01:27.000Z</time>
      </trkpt>
      <trkpt lat="47.34249" lon="-2.34205">
        <ele>1.3999999761581</ele>
        <time>2020-10-08T09:01:28.000Z</time>
      </trkpt>
      <trkpt lat="47.34243" lon="-2.3421">
        <ele>1.7999999523163</ele>
        <time>2020-10-08T09:01:29.000Z</time>
      </trkpt>
      <trkpt lat="47.34218" lon="-2.3423">
        <ele>1.7999999523163</ele>
        <time>2020-10-08T09:01:34.000Z</time>
      </trkpt>
      <trkpt lat="47.34214" lon="-2.34235">
        <ele>1.7999999523163</ele>
        <time>2020-10-08T09:01:35.000Z</time>
      </trkpt>
      <trkpt lat="47.34201" lon="-2.34249">
        <ele>2.4000000953674</ele>
        <time>2020-10-08T09:01:38.000Z</time>
      </trkpt>
      <trkpt lat="47.34198" lon="-2.34255">
        <ele>2.7999999523163</ele>
        <time>2020-10-08T09:01:39.000Z</time>
      </trkpt>
      <trkpt lat="47.34194" lon="-2.3426">
        <ele>3.2000000476837</ele>
        <time>2020-10-08T09:01:40.000Z</time>
      </trkpt>
      <trkpt lat="47.34191" lon="-2.34266">
        <ele>3.5999999046326</ele>
        <time>2020-10-08T09:01:41.000Z</time>
      </trkpt>
      <trkpt lat="47.34188" lon="-2.34272">
        <ele>4</ele>
        <time>2020-10-08T09:01:42.000Z</time>
      </trkpt>
      <trkpt lat="47.34172" lon="-2.3431">
        <ele>4</ele>
        <time>2020-10-08T09:01:48.000Z</time>
      </trkpt>
      <trkpt lat="47.34151" lon="-2.34339">
        <ele>4</ele>
        <time>2020-10-08T09:01:54.000Z</time>
      </trkpt>
      <trkpt lat="47.34148" lon="-2.34343">
        <ele>4</ele>
        <time>2020-10-08T09:01:55.000Z</time>
      </trkpt>
      <trkpt lat="47.3413" lon="-2.34366">
        <ele>4</ele>
        <time>2020-10-08T09:02:00.000Z</time>
      </trkpt>
      <trkpt lat="47.34127" lon="-2.3437">
        <ele>4.4000000953674</ele>
        <time>2020-10-08T09:02:01.000Z</time>
      </trkpt>
      <trkpt lat="47.34123" lon="-2.34374">
        <ele>5</ele>
        <time>2020-10-08T09:02:02.000Z</time>
      </trkpt>
      <trkpt lat="47.34119" lon="-2.34378">
        <ele>5.4000000953674</ele>
        <time>2020-10-08T09:02:03.000Z</time>
      </trkpt>
      <trkpt lat="47.34115" lon="-2.34382">
        <ele>5.8000001907349</ele>
        <time>2020-10-08T09:02:04.000Z</time>
      </trkpt>
      <trkpt lat="47.34111" lon="-2.34385">
        <ele>6.1999998092651</ele>
        <time>2020-10-08T09:02:05.000Z</time>
      </trkpt>
      <trkpt lat="47.34106" lon="-2.34388">
        <ele>6.1999998092651</ele>
        <time>2020-10-08T09:02:06.000Z</time>
      </trkpt>
      <trkpt lat="47.34092" lon="-2.344">
        <ele>6.1999998092651</ele>
        <time>2020-10-08T09:02:09.000Z</time>
      </trkpt>
      <trkpt lat="47.34079" lon="-2.34413">
        <ele>6.1999998092651</ele>
        <time>2020-10-08T09:02:12.000Z</time>
      </trkpt>
      <trkpt lat="47.34062" lon="-2.34423">
        <ele>6.1999998092651</ele>
        <time>2020-10-08T09:02:16.000Z</time>
      </trkpt>
      <trkpt lat="47.34058" lon="-2.34424">
        <ele>6.1999998092651</ele>
        <time>2020-10-08T09:02:17.000Z</time>
      </trkpt>
      <trkpt lat="47.34044" lon="-2.34428">
        <ele>6.1999998092651</ele>
        <time>2020-10-08T09:02:21.000Z</time>
      </trkpt>
      <trkpt lat="47.34031" lon="-2.34435">
        <ele>6.1999998092651</ele>
        <time>2020-10-08T09:02:26.000Z</time>
      </trkpt>
      <trkpt lat="47.3403" lon="-2.34437">
        <ele>6.1999998092651</ele>
        <time>2020-10-08T09:02:27.000Z</time>
      </trkpt>
      <trkpt lat="47.34031" lon="-2.34446">
        <ele>6.1999998092651</ele>
        <time>2020-10-08T09:02:30.000Z</time>
      </trkpt>
      <trkpt lat="47.34032" lon="-2.34448">
        <ele>6.1999998092651</ele>
        <time>2020-10-08T09:02:31.000Z</time>
      </trkpt>
      <trkpt lat="47.34037" lon="-2.34462">
        <ele>6.1999998092651</ele>
        <time>2020-10-08T09:02:37.000Z</time>
      </trkpt>
      <trkpt lat="47.34043" lon="-2.34477">
        <ele>6.1999998092651</ele>
        <time>2020-10-08T09:02:43.000Z</time>
      </trkpt>
      <trkpt lat="47.34045" lon="-2.34483">
        <ele>6.1999998092651</ele>
        <time>2020-10-08T09:02:45.000Z</time>
      </trkpt>
      <trkpt lat="47.34048" lon="-2.34493">
        <ele>6.1999998092651</ele>
        <time>2020-10-08T09:02:48.000Z</time>
      </trkpt>
      <trkpt lat="47.34058" lon="-2.34519">
        <ele>6.1999998092651</ele>
        <time>2020-10-08T09:02:55.000Z</time>
      </trkpt>
      <trkpt lat="47.34064" lon="-2.34543">
        <ele>6.1999998092651</ele>
        <time>2020-10-08T09:03:01.000Z</time>
      </trkpt>
      <trkpt lat="47.34073" lon="-2.34573">
        <ele>6.5999999046326</ele>
        <time>2020-10-08T09:03:09.000Z</time>
      </trkpt>
      <trkpt lat="47.34074" lon="-2.34577">
        <ele>7.1999998092651</ele>
        <time>2020-10-08T09:03:10.000Z</time>
      </trkpt>
      <trkpt lat="47.34075" lon="-2.3458">
        <ele>7.5999999046326</ele>
        <time>2020-10-08T09:03:11.000Z</time>
      </trkpt>
      <trkpt lat="47.34076" lon="-2.34584">
        <ele>8</ele>
        <time>2020-10-08T09:03:12.000Z</time>
      </trkpt>
      <trkpt lat="47.34077" lon="-2.34587">
        <ele>8.3999996185303</ele>
        <time>2020-10-08T09:03:13.000Z</time>
      </trkpt>
      <trkpt lat="47.34082" lon="-2.34599">
        <ele>8.3999996185303</ele>
        <time>2020-10-08T09:03:17.000Z</time>
      </trkpt>
      <trkpt lat="47.34089" lon="-2.34617">
        <ele>8.3999996185303</ele>
        <time>2020-10-08T09:03:23.000Z</time>
      </trkpt>
      <trkpt lat="47.34099" lon="-2.34639">
        <ele>8.3999996185303</ele>
        <time>2020-10-08T09:03:29.000Z</time>
      </trkpt>
      <trkpt lat="47.3411" lon="-2.34668">
        <ele>8.3999996185303</ele>
        <time>2020-10-08T09:03:37.000Z</time>
      </trkpt>
      <trkpt lat="47.34117" lon="-2.34693">
        <ele>8.3999996185303</ele>
        <time>2020-10-08T09:03:43.000Z</time>
      </trkpt>
      <trkpt lat="47.3412" lon="-2.34705">
        <ele>8.3999996185303</ele>
        <time>2020-10-08T09:03:49.000Z</time>
      </trkpt>
      <trkpt lat="47.34121" lon="-2.34715">
        <ele>8.3999996185303</ele>
        <time>2020-10-08T09:03:54.000Z</time>
      </trkpt>
      <trkpt lat="47.34121" lon="-2.34715">
        <ele>8.3999996185303</ele>
        <time>2020-10-08T09:03:55.000Z</time>
      </trkpt>
      <trkpt lat="47.34121" lon="-2.34721">
        <ele>8.3999996185303</ele>
        <time>2020-10-08T09:04:27.000Z</time>
      </trkpt>
      <trkpt lat="47.34121" lon="-2.34728">
        <ele>8.3999996185303</ele>
        <time>2020-10-08T09:04:29.000Z</time>
      </trkpt>
      <trkpt lat="47.34122" lon="-2.34755">
        <ele>8.3999996185303</ele>
        <time>2020-10-08T09:04:34.000Z</time>
      </trkpt>
      <trkpt lat="47.34127" lon="-2.34808">
        <ele>8.3999996185303</ele>
        <time>2020-10-08T09:04:42.000Z</time>
      </trkpt>
      <trkpt lat="47.34134" lon="-2.34834">
        <ele>8.3999996185303</ele>
        <time>2020-10-08T09:04:47.000Z</time>
      </trkpt>
      <trkpt lat="47.34144" lon="-2.34875">
        <ele>8.3999996185303</ele>
        <time>2020-10-08T09:04:54.000Z</time>
      </trkpt>
      <trkpt lat="47.34154" lon="-2.34906">
        <ele>8.3999996185303</ele>
        <time>2020-10-08T09:04:59.000Z</time>
      </trkpt>
      <trkpt lat="47.34157" lon="-2.34917">
        <ele>8.3999996185303</ele>
        <time>2020-10-08T09:05:01.000Z</time>
      </trkpt>
      <trkpt lat="47.34178" lon="-2.34959">
        <ele>8.3999996185303</ele>
        <time>2020-10-08T09:05:09.000Z</time>
      </trkpt>
      <trkpt lat="47.34196" lon="-2.34994">
        <ele>8.3999996185303</ele>
        <time>2020-10-08T09:05:15.000Z</time>
      </trkpt>
      <trkpt lat="47.3422" lon="-2.35038">
        <ele>8.3999996185303</ele>
        <time>2020-10-08T09:05:22.000Z</time>
      </trkpt>
      <trkpt lat="47.34242" lon="-2.35078">
        <ele>8.3999996185303</ele>
        <time>2020-10-08T09:05:28.000Z</time>
      </trkpt>
      <trkpt lat="47.34271" lon="-2.3511">
        <ele>8.3999996185303</ele>
        <time>2020-10-08T09:05:34.000Z</time>
      </trkpt>
      <trkpt lat="47.34295" lon="-2.35118">
        <ele>7.8000001907349</ele>
        <time>2020-10-08T09:05:38.000Z</time>
      </trkpt>
      <trkpt lat="47.34302" lon="-2.35119">
        <ele>7.4000000953674</ele>
        <time>2020-10-08T09:05:39.000Z</time>
      </trkpt>
      <trkpt lat="47.34308" lon="-2.35119">
        <ele>6.8000001907349</ele>
        <time>2020-10-08T09:05:40.000Z</time>
      </trkpt>
      <trkpt lat="47.34315" lon="-2.35121">
        <ele>5.8000001907349</ele>
        <time>2020-10-08T09:05:41.000Z</time>
      </trkpt>
      <trkpt lat="47.34338" lon="-2.35131">
        <ele>5.8000001907349</ele>
        <time>2020-10-08T09:05:45.000Z</time>
      </trkpt>
      <trkpt lat="47.34344" lon="-2.35135">
        <ele>5.8000001907349</ele>
        <time>2020-10-08T09:05:46.000Z</time>
      </trkpt>
      <trkpt lat="47.34365" lon="-2.35156">
        <ele>5.8000001907349</ele>
        <time>2020-10-08T09:05:51.000Z</time>
      </trkpt>
      <trkpt lat="47.3439" lon="-2.35191">
        <ele>5.8000001907349</ele>
        <time>2020-10-08T09:05:57.000Z</time>
      </trkpt>
      <trkpt lat="47.34416" lon="-2.35228">
        <ele>5.8000001907349</ele>
        <time>2020-10-08T09:06:04.000Z</time>
      </trkpt>
      <trkpt lat="47.34449" lon="-2.35264">
        <ele>5.8000001907349</ele>
        <time>2020-10-08T09:06:11.000Z</time>
      </trkpt>
      <trkpt lat="47.34464" lon="-2.35277">
        <ele>5.4000000953674</ele>
        <time>2020-10-08T09:06:14.000Z</time>
      </trkpt>
      <trkpt lat="47.3447" lon="-2.35281">
        <ele>5</ele>
        <time>2020-10-08T09:06:15.000Z</time>
      </trkpt>
      <trkpt lat="47.34475" lon="-2.35285">
        <ele>4.5999999046326</ele>
        <time>2020-10-08T09:06:16.000Z</time>
      </trkpt>
      <trkpt lat="47.3448" lon="-2.3529">
        <ele>4.1999998092651</ele>
        <time>2020-10-08T09:06:17.000Z</time>
      </trkpt>
      <trkpt lat="47.34485" lon="-2.35294">
        <ele>3.7999999523163</ele>
        <time>2020-10-08T09:06:18.000Z</time>
      </trkpt>
      <trkpt lat="47.34491" lon="-2.35298">
        <ele>3.7999999523163</ele>
        <time>2020-10-08T09:06:19.000Z</time>
      </trkpt>
      <trkpt lat="47.34529" lon="-2.35324">
        <ele>3.7999999523163</ele>
        <time>2020-10-08T09:06:26.000Z</time>
      </trkpt>
      <trkpt lat="47.34562" lon="-2.3534">
        <ele>3.4000000953674</ele>
        <time>2020-10-08T09:06:32.000Z</time>
      </trkpt>
      <trkpt lat="47.34568" lon="-2.35343">
        <ele>3</ele>
        <time>2020-10-08T09:06:33.000Z</time>
      </trkpt>
      <trkpt lat="47.34573" lon="-2.35346">
        <ele>2.5999999046326</ele>
        <time>2020-10-08T09:06:34.000Z</time>
      </trkpt>
      <trkpt lat="47.34579" lon="-2.35349">
        <ele>2.2000000476837</ele>
        <time>2020-10-08T09:06:35.000Z</time>
      </trkpt>
      <trkpt lat="47.34584" lon="-2.35352">
        <ele>1.7999999523163</ele>
        <time>2020-10-08T09:06:36.000Z</time>
      </trkpt>
      <trkpt lat="47.34602" lon="-2.35364">
        <ele>1.7999999523163</ele>
        <time>2020-10-08T09:06:39.000Z</time>
      </trkpt>
      <trkpt lat="47.34622" lon="-2.35381">
        <ele>1.3999999761581</ele>
        <time>2020-10-08T09:06:42.000Z</time>
      </trkpt>
      <trkpt lat="47.34629" lon="-2.35387">
        <ele>1</ele>
        <time>2020-10-08T09:06:43.000Z</time>
      </trkpt>
      <trkpt lat="47.34636" lon="-2.35393">
        <ele>0.60000002384186</ele>
        <time>2020-10-08T09:06:44.000Z</time>
      </trkpt>
      <trkpt lat="47.34643" lon="-2.354">
        <ele>0.20000000298023</ele>
        <time>2020-10-08T09:06:45.000Z</time>
      </trkpt>
      <trkpt lat="47.34649" lon="-2.35406">
        <ele>-0.20000000298023</ele>
        <time>2020-10-08T09:06:46.000Z</time>
      </trkpt>
      <trkpt lat="47.34675" lon="-2.35432">
        <ele>-0.20000000298023</ele>
        <time>2020-10-08T09:06:50.000Z</time>
      </trkpt>
      <trkpt lat="47.34704" lon="-2.3548">
        <ele>-0.20000000298023</ele>
        <time>2020-10-08T09:06:56.000Z</time>
      </trkpt>
      <trkpt lat="47.34736" lon="-2.35534">
        <ele>-0.20000000298023</ele>
        <time>2020-10-08T09:07:03.000Z</time>
      </trkpt>
      <trkpt lat="47.34753" lon="-2.35562">
        <ele>-0.60000002384186</ele>
        <time>2020-10-08T09:07:07.000Z</time>
      </trkpt>
      <trkpt lat="47.34758" lon="-2.35567">
        <ele>-1.2000000476837</ele>
        <time>2020-10-08T09:07:08.000Z</time>
      </trkpt>
      <trkpt lat="47.34762" lon="-2.35573">
        <ele>-1.6000000238419</ele>
        <time>2020-10-08T09:07:09.000Z</time>
      </trkpt>
      <trkpt lat="47.34766" lon="-2.35579">
        <ele>-2</ele>
        <time>2020-10-08T09:07:10.000Z</time>
      </trkpt>
      <trkpt lat="47.34769" lon="-2.35585">
        <ele>-2.4000000953674</ele>
        <time>2020-10-08T09:07:11.000Z</time>
      </trkpt>
      <trkpt lat="47.34776" lon="-2.35595">
        <ele>-2.4000000953674</ele>
        <time>2020-10-08T09:07:13.000Z</time>
      </trkpt>
      <trkpt lat="47.34778" lon="-2.35608">
        <ele>-2.4000000953674</ele>
        <time>2020-10-08T09:07:15.000Z</time>
      </trkpt>
      <trkpt lat="47.34773" lon="-2.35634">
        <ele>-2.4000000953674</ele>
        <time>2020-10-08T09:07:19.000Z</time>
      </trkpt>
      <trkpt lat="47.34768" lon="-2.35644">
        <ele>-2.4000000953674</ele>
        <time>2020-10-08T09:07:21.000Z</time>
      </trkpt>
      <trkpt lat="47.34765" lon="-2.35648">
        <ele>-2.4000000953674</ele>
        <time>2020-10-08T09:07:22.000Z</time>
      </trkpt>
      <trkpt lat="47.3476" lon="-2.35654">
        <ele>-2.4000000953674</ele>
        <time>2020-10-08T09:07:24.000Z</time>
      </trkpt>
      <trkpt lat="47.34753" lon="-2.35661">
        <ele>-2.4000000953674</ele>
        <time>2020-10-08T09:07:29.000Z</time>
      </trkpt>
      <trkpt lat="47.34747" lon="-2.35665">
        <ele>-2.4000000953674</ele>
        <time>2020-10-08T09:07:35.000Z</time>
      </trkpt>
      <trkpt lat="47.34737" lon="-2.35664">
        <ele>-2.4000000953674</ele>
        <time>2020-10-08T09:08:06.000Z</time>
      </trkpt>
      <trkpt lat="47.34735" lon="-2.35666">
        <ele>-2.4000000953674</ele>
        <time>2020-10-08T09:08:07.000Z</time>
      </trkpt>
      <trkpt lat="47.3473" lon="-2.35672">
        <ele>-2.4000000953674</ele>
        <time>2020-10-08T09:08:10.000Z</time>
      </trkpt>
      <trkpt lat="47.3473" lon="-2.35673">
        <ele>-2.4000000953674</ele>
        <time>2020-10-08T09:08:11.000Z</time>
      </trkpt>
      <trkpt lat="47.34722" lon="-2.3568">
        <ele>-2.4000000953674</ele>
        <time>2020-10-08T09:08:28.000Z</time>
      </trkpt>
      <trkpt lat="47.34721" lon="-2.35683">
        <ele>-2.4000000953674</ele>
        <time>2020-10-08T09:08:29.000Z</time>
      </trkpt>
      <trkpt lat="47.34712" lon="-2.35696">
        <ele>-2.4000000953674</ele>
        <time>2020-10-08T09:08:34.000Z</time>
      </trkpt>
      <trkpt lat="47.347" lon="-2.35705">
        <ele>-2.4000000953674</ele>
        <time>2020-10-08T09:08:39.000Z</time>
      </trkpt>
      <trkpt lat="47.34699" lon="-2.3571">
        <ele>-2.4000000953674</ele>
        <time>2020-10-08T09:08:41.000Z</time>
      </trkpt>
      <trkpt lat="47.347" lon="-2.35714">
        <ele>-2.4000000953674</ele>
        <time>2020-10-08T09:08:43.000Z</time>
      </trkpt>
      <trkpt lat="47.34701" lon="-2.35717">
        <ele>-2.4000000953674</ele>
        <time>2020-10-08T09:08:46.000Z</time>
      </trkpt>
      <trkpt lat="47.34691" lon="-2.35761">
        <ele>-2.4000000953674</ele>
        <time>2020-10-08T09:11:38.000Z</time>
      </trkpt>
      <trkpt lat="47.3468" lon="-2.35778">
        <ele>-2.4000000953674</ele>
        <time>2020-10-08T09:11:44.000Z</time>
      </trkpt>
      <trkpt lat="47.34662" lon="-2.35803">
        <ele>-2.4000000953674</ele>
        <time>2020-10-08T09:11:51.000Z</time>
      </trkpt>
      <trkpt lat="47.34636" lon="-2.35828">
        <ele>-2.4000000953674</ele>
        <time>2020-10-08T09:11:59.000Z</time>
      </trkpt>
      <trkpt lat="47.34617" lon="-2.35849">
        <ele>-2.4000000953674</ele>
        <time>2020-10-08T09:12:05.000Z</time>
      </trkpt>
      <trkpt lat="47.34597" lon="-2.35868">
        <ele>-2.4000000953674</ele>
        <time>2020-10-08T09:12:11.000Z</time>
      </trkpt>
      <trkpt lat="47.3458" lon="-2.35884">
        <ele>-2.4000000953674</ele>
        <time>2020-10-08T09:12:16.000Z</time>
      </trkpt>
      <trkpt lat="47.34559" lon="-2.359">
        <ele>-2.4000000953674</ele>
        <time>2020-10-08T09:12:22.000Z</time>
      </trkpt>
      <trkpt lat="47.34533" lon="-2.35912">
        <ele>-2.4000000953674</ele>
        <time>2020-10-08T09:12:29.000Z</time>
      </trkpt>
      <trkpt lat="47.34504" lon="-2.35923">
        <ele>-2.4000000953674</ele>
        <time>2020-10-08T09:12:37.000Z</time>
      </trkpt>
      <trkpt lat="47.34483" lon="-2.35934">
        <ele>-2.4000000953674</ele>
        <time>2020-10-08T09:12:44.000Z</time>
      </trkpt>
      <trkpt lat="47.3448" lon="-2.35935">
        <ele>-2</ele>
        <time>2020-10-08T09:12:45.000Z</time>
      </trkpt>
      <trkpt lat="47.34477" lon="-2.35937">
        <ele>-1.6000000238419</ele>
        <time>2020-10-08T09:12:46.000Z</time>
      </trkpt>
      <trkpt lat="47.34474" lon="-2.35939">
        <ele>-1</ele>
        <time>2020-10-08T09:12:47.000Z</time>
      </trkpt>
      <trkpt lat="47.34472" lon="-2.35941">
        <ele>-0.60000002384186</ele>
        <time>2020-10-08T09:12:48.000Z</time>
      </trkpt>
      <trkpt lat="47.34469" lon="-2.35943">
        <ele>-0.20000000298023</ele>
        <time>2020-10-08T09:12:49.000Z</time>
      </trkpt>
      <trkpt lat="47.34466" lon="-2.35945">
        <ele>-0.20000000298023</ele>
        <time>2020-10-08T09:12:50.000Z</time>
      </trkpt>
      <trkpt lat="47.34448" lon="-2.35961">
        <ele>-0.20000000298023</ele>
        <time>2020-10-08T09:12:56.000Z</time>
      </trkpt>
      <trkpt lat="47.3444" lon="-2.3597">
        <ele>0.20000000298023</ele>
        <time>2020-10-08T09:12:59.000Z</time>
      </trkpt>
      <trkpt lat="47.34437" lon="-2.35972">
        <ele>0.60000002384186</ele>
        <time>2020-10-08T09:13:00.000Z</time>
      </trkpt>
      <trkpt lat="47.34434" lon="-2.35975">
        <ele>1</ele>
        <time>2020-10-08T09:13:01.000Z</time>
      </trkpt>
      <trkpt lat="47.34431" lon="-2.35977">
        <ele>1.3999999761581</ele>
        <time>2020-10-08T09:13:02.000Z</time>
      </trkpt>
      <trkpt lat="47.34429" lon="-2.35979">
        <ele>2</ele>
        <time>2020-10-08T09:13:03.000Z</time>
      </trkpt>
      <trkpt lat="47.34412" lon="-2.3599">
        <ele>2</ele>
        <time>2020-10-08T09:13:10.000Z</time>
      </trkpt>
      <trkpt lat="47.34409" lon="-2.35995">
        <ele>2</ele>
        <time>2020-10-08T09:13:12.000Z</time>
      </trkpt>
      <trkpt lat="47.34409" lon="-2.35997">
        <ele>2.4000000953674</ele>
        <time>2020-10-08T09:13:13.000Z</time>
      </trkpt>
      <trkpt lat="47.34409" lon="-2.36001">
        <ele>2.7999999523163</ele>
        <time>2020-10-08T09:13:14.000Z</time>
      </trkpt>
      <trkpt lat="47.3441" lon="-2.36005">
        <ele>3.2000000476837</ele>
        <time>2020-10-08T09:13:15.000Z</time>
      </trkpt>
      <trkpt lat="47.34411" lon="-2.36009">
        <ele>3.5999999046326</ele>
        <time>2020-10-08T09:13:16.000Z</time>
      </trkpt>
      <trkpt lat="47.34413" lon="-2.36013">
        <ele>4</ele>
        <time>2020-10-08T09:13:17.000Z</time>
      </trkpt>
      <trkpt lat="47.34416" lon="-2.36017">
        <ele>4</ele>
        <time>2020-10-08T09:13:18.000Z</time>
      </trkpt>
      <trkpt lat="47.34419" lon="-2.36025">
        <ele>4</ele>
        <time>2020-10-08T09:13:20.000Z</time>
      </trkpt>
      <trkpt lat="47.34424" lon="-2.36047">
        <ele>4</ele>
        <time>2020-10-08T09:13:24.000Z</time>
      </trkpt>
      <trkpt lat="47.34436" lon="-2.36089">
        <ele>4</ele>
        <time>2020-10-08T09:13:31.000Z</time>
      </trkpt>
      <trkpt lat="47.3445" lon="-2.36119">
        <ele>4</ele>
        <time>2020-10-08T09:13:37.000Z</time>
      </trkpt>
      <trkpt lat="47.34453" lon="-2.36124">
        <ele>3.5999999046326</ele>
        <time>2020-10-08T09:13:38.000Z</time>
      </trkpt>
      <trkpt lat="47.34456" lon="-2.36129">
        <ele>3.2000000476837</ele>
        <time>2020-10-08T09:13:39.000Z</time>
      </trkpt>
      <trkpt lat="47.34458" lon="-2.36135">
        <ele>2.7999999523163</ele>
        <time>2020-10-08T09:13:40.000Z</time>
      </trkpt>
      <trkpt lat="47.34461" lon="-2.36142">
        <ele>2.4000000953674</ele>
        <time>2020-10-08T09:13:41.000Z</time>
      </trkpt>
      <trkpt lat="47.34463" lon="-2.36148">
        <ele>2</ele>
        <time>2020-10-08T09:13:42.000Z</time>
      </trkpt>
      <trkpt lat="47.34479" lon="-2.3618">
        <ele>2</ele>
        <time>2020-10-08T09:13:47.000Z</time>
      </trkpt>
      <trkpt lat="47.34482" lon="-2.36186">
        <ele>2</ele>
        <time>2020-10-08T09:13:48.000Z</time>
      </trkpt>
      <trkpt lat="47.34506" lon="-2.36231">
        <ele>2</ele>
        <time>2020-10-08T09:13:55.000Z</time>
      </trkpt>
      <trkpt lat="47.34517" lon="-2.36265">
        <ele>2</ele>
        <time>2020-10-08T09:14:00.000Z</time>
      </trkpt>
      <trkpt lat="47.34531" lon="-2.36304">
        <ele>2</ele>
        <time>2020-10-08T09:14:06.000Z</time>
      </trkpt>
      <trkpt lat="47.34547" lon="-2.36354">
        <ele>2</ele>
        <time>2020-10-08T09:14:13.000Z</time>
      </trkpt>
      <trkpt lat="47.34563" lon="-2.36388">
        <ele>2</ele>
        <time>2020-10-08T09:14:19.000Z</time>
      </trkpt>
      <trkpt lat="47.34576" lon="-2.36407">
        <ele>2</ele>
        <time>2020-10-08T09:14:24.000Z</time>
      </trkpt>
      <trkpt lat="47.34588" lon="-2.36427">
        <ele>2</ele>
        <time>2020-10-08T09:14:30.000Z</time>
      </trkpt>
      <trkpt lat="47.34591" lon="-2.36431">
        <ele>2</ele>
        <time>2020-10-08T09:14:35.000Z</time>
      </trkpt>
      <trkpt lat="47.3459" lon="-2.36438">
        <ele>2</ele>
        <time>2020-10-08T09:14:54.000Z</time>
      </trkpt>
      <trkpt lat="47.34588" lon="-2.36446">
        <ele>2</ele>
        <time>2020-10-08T09:14:56.000Z</time>
      </trkpt>
      <trkpt lat="47.34581" lon="-2.36468">
        <ele>2</ele>
        <time>2020-10-08T09:15:00.000Z</time>
      </trkpt>
      <trkpt lat="47.34579" lon="-2.36474">
        <ele>2</ele>
        <time>2020-10-08T09:15:01.000Z</time>
      </trkpt>
      <trkpt lat="47.34569" lon="-2.36507">
        <ele>2</ele>
        <time>2020-10-08T09:15:06.000Z</time>
      </trkpt>
      <trkpt lat="47.34562" lon="-2.36528">
        <ele>2.4000000953674</ele>
        <time>2020-10-08T09:15:09.000Z</time>
      </trkpt>
      <trkpt lat="47.34559" lon="-2.36535">
        <ele>2.7999999523163</ele>
        <time>2020-10-08T09:15:10.000Z</time>
      </trkpt>
      <trkpt lat="47.34556" lon="-2.36542">
        <ele>3.5999999046326</ele>
        <time>2020-10-08T09:15:11.000Z</time>
      </trkpt>
      <trkpt lat="47.34554" lon="-2.36549">
        <ele>4</ele>
        <time>2020-10-08T09:15:12.000Z</time>
      </trkpt>
      <trkpt lat="47.3454" lon="-2.36585">
        <ele>4</ele>
        <time>2020-10-08T09:15:17.000Z</time>
      </trkpt>
      <trkpt lat="47.34523" lon="-2.36629">
        <ele>4</ele>
        <time>2020-10-08T09:15:24.000Z</time>
      </trkpt>
      <trkpt lat="47.34521" lon="-2.36635">
        <ele>4.4000000953674</ele>
        <time>2020-10-08T09:15:25.000Z</time>
      </trkpt>
      <trkpt lat="47.34519" lon="-2.36641">
        <ele>4.8000001907349</ele>
        <time>2020-10-08T09:15:26.000Z</time>
      </trkpt>
      <trkpt lat="47.34517" lon="-2.36647">
        <ele>5.1999998092651</ele>
        <time>2020-10-08T09:15:27.000Z</time>
      </trkpt>
      <trkpt lat="47.34515" lon="-2.36653">
        <ele>5.8000001907349</ele>
        <time>2020-10-08T09:15:28.000Z</time>
      </trkpt>
      <trkpt lat="47.34512" lon="-2.36659">
        <ele>6.1999998092651</ele>
        <time>2020-10-08T09:15:29.000Z</time>
      </trkpt>
      <trkpt lat="47.34502" lon="-2.36682">
        <ele>6.1999998092651</ele>
        <time>2020-10-08T09:15:33.000Z</time>
      </trkpt>
      <trkpt lat="47.34483" lon="-2.36724">
        <ele>6.1999998092651</ele>
        <time>2020-10-08T09:15:41.000Z</time>
      </trkpt>
      <trkpt lat="47.34471" lon="-2.36745">
        <ele>6.5999999046326</ele>
        <time>2020-10-08T09:15:45.000Z</time>
      </trkpt>
      <trkpt lat="47.34469" lon="-2.36749">
        <ele>7</ele>
        <time>2020-10-08T09:15:46.000Z</time>
      </trkpt>
      <trkpt lat="47.34466" lon="-2.36753">
        <ele>7.4000000953674</ele>
        <time>2020-10-08T09:15:47.000Z</time>
      </trkpt>
      <trkpt lat="47.34464" lon="-2.36757">
        <ele>7.8000001907349</ele>
        <time>2020-10-08T09:15:48.000Z</time>
      </trkpt>
      <trkpt lat="47.34461" lon="-2.36762">
        <ele>8.3999996185303</ele>
        <time>2020-10-08T09:15:49.000Z</time>
      </trkpt>
      <trkpt lat="47.34454" lon="-2.36774">
        <ele>8.8000001907349</ele>
        <time>2020-10-08T09:15:52.000Z</time>
      </trkpt>
      <trkpt lat="47.34451" lon="-2.36778">
        <ele>9.1999998092651</ele>
        <time>2020-10-08T09:15:53.000Z</time>
      </trkpt>
      <trkpt lat="47.34448" lon="-2.3678">
        <ele>9.6000003814697</ele>
        <time>2020-10-08T09:15:54.000Z</time>
      </trkpt>
      <trkpt lat="47.34446" lon="-2.36784">
        <ele>10</ele>
        <time>2020-10-08T09:15:55.000Z</time>
      </trkpt>
      <trkpt lat="47.34444" lon="-2.36788">
        <ele>10.39999961853</ele>
        <time>2020-10-08T09:15:56.000Z</time>
      </trkpt>
      <trkpt lat="47.34433" lon="-2.36805">
        <ele>10.39999961853</ele>
        <time>2020-10-08T09:16:00.000Z</time>
      </trkpt>
      <trkpt lat="47.34409" lon="-2.36841">
        <ele>10.39999961853</ele>
        <time>2020-10-08T09:16:07.000Z</time>
      </trkpt>
      <trkpt lat="47.34384" lon="-2.36883">
        <ele>10.39999961853</ele>
        <time>2020-10-08T09:16:15.000Z</time>
      </trkpt>
      <trkpt lat="47.34357" lon="-2.36928">
        <ele>10.39999961853</ele>
        <time>2020-10-08T09:16:23.000Z</time>
      </trkpt>
      <trkpt lat="47.3434" lon="-2.36955">
        <ele>10.39999961853</ele>
        <time>2020-10-08T09:16:28.000Z</time>
      </trkpt>
      <trkpt lat="47.34329" lon="-2.3697">
        <ele>10.39999961853</ele>
        <time>2020-10-08T09:16:31.000Z</time>
      </trkpt>
      <trkpt lat="47.34303" lon="-2.37004">
        <ele>10.39999961853</ele>
        <time>2020-10-08T09:16:38.000Z</time>
      </trkpt>
      <trkpt lat="47.34295" lon="-2.37015">
        <ele>10.39999961853</ele>
        <time>2020-10-08T09:16:40.000Z</time>
      </trkpt>
      <trkpt lat="47.34282" lon="-2.3703">
        <ele>10.39999961853</ele>
        <time>2020-10-08T09:16:43.000Z</time>
      </trkpt>
      <trkpt lat="47.34274" lon="-2.37038">
        <ele>11</ele>
        <time>2020-10-08T09:16:45.000Z</time>
      </trkpt>
      <trkpt lat="47.3427" lon="-2.37042">
        <ele>11.39999961853</ele>
        <time>2020-10-08T09:16:46.000Z</time>
      </trkpt>
      <trkpt lat="47.34265" lon="-2.37046">
        <ele>11.800000190735</ele>
        <time>2020-10-08T09:16:47.000Z</time>
      </trkpt>
      <trkpt lat="47.34261" lon="-2.37049">
        <ele>12.199999809265</ele>
        <time>2020-10-08T09:16:48.000Z</time>
      </trkpt>
      <trkpt lat="47.34257" lon="-2.37052">
        <ele>12.60000038147</ele>
        <time>2020-10-08T09:16:49.000Z</time>
      </trkpt>
      <trkpt lat="47.34241" lon="-2.37062">
        <ele>12.60000038147</ele>
        <time>2020-10-08T09:16:53.000Z</time>
      </trkpt>
      <trkpt lat="47.34236" lon="-2.3706">
        <ele>12.60000038147</ele>
        <time>2020-10-08T09:16:54.000Z</time>
      </trkpt>
      <trkpt lat="47.34224" lon="-2.37046">
        <ele>12.60000038147</ele>
        <time>2020-10-08T09:16:57.000Z</time>
      </trkpt>
      <trkpt lat="47.34217" lon="-2.37032">
        <ele>12.60000038147</ele>
        <time>2020-10-08T09:16:59.000Z</time>
      </trkpt>
      <trkpt lat="47.34204" lon="-2.37011">
        <ele>12.60000038147</ele>
        <time>2020-10-08T09:17:02.000Z</time>
      </trkpt>
      <trkpt lat="47.34199" lon="-2.37004">
        <ele>12</ele>
        <time>2020-10-08T09:17:03.000Z</time>
      </trkpt>
      <trkpt lat="47.34194" lon="-2.36997">
        <ele>11.60000038147</ele>
        <time>2020-10-08T09:17:04.000Z</time>
      </trkpt>
      <trkpt lat="47.34189" lon="-2.3699">
        <ele>11</ele>
        <time>2020-10-08T09:17:05.000Z</time>
      </trkpt>
      <trkpt lat="47.34184" lon="-2.36983">
        <ele>10.60000038147</ele>
        <time>2020-10-08T09:17:06.000Z</time>
      </trkpt>
      <trkpt lat="47.34179" lon="-2.36976">
        <ele>10.199999809265</ele>
        <time>2020-10-08T09:17:07.000Z</time>
      </trkpt>
      <trkpt lat="47.34169" lon="-2.36962">
        <ele>10.199999809265</ele>
        <time>2020-10-08T09:17:09.000Z</time>
      </trkpt>
      <trkpt lat="47.34154" lon="-2.3694">
        <ele>9.6000003814697</ele>
        <time>2020-10-08T09:17:12.000Z</time>
      </trkpt>
      <trkpt lat="47.3415" lon="-2.36933">
        <ele>9.1999998092651</ele>
        <time>2020-10-08T09:17:13.000Z</time>
      </trkpt>
      <trkpt lat="47.34146" lon="-2.36924">
        <ele>8.8000001907349</ele>
        <time>2020-10-08T09:17:14.000Z</time>
      </trkpt>
      <trkpt lat="47.34143" lon="-2.36914">
        <ele>7.8000001907349</ele>
        <time>2020-10-08T09:17:15.000Z</time>
      </trkpt>
      <trkpt lat="47.34121" lon="-2.36874">
        <ele>7.8000001907349</ele>
        <time>2020-10-08T09:17:20.000Z</time>
      </trkpt>
      <trkpt lat="47.34112" lon="-2.3685">
        <ele>7.8000001907349</ele>
        <time>2020-10-08T09:17:23.000Z</time>
      </trkpt>
      <trkpt lat="47.34107" lon="-2.36833">
        <ele>7.8000001907349</ele>
        <time>2020-10-08T09:17:25.000Z</time>
      </trkpt>
      <trkpt lat="47.34097" lon="-2.36782">
        <ele>7.8000001907349</ele>
        <time>2020-10-08T09:17:31.000Z</time>
      </trkpt>
      <trkpt lat="47.34088" lon="-2.3673">
        <ele>7.8000001907349</ele>
        <time>2020-10-08T09:17:38.000Z</time>
      </trkpt>
      <trkpt lat="47.34081" lon="-2.36706">
        <ele>7.8000001907349</ele>
        <time>2020-10-08T09:17:43.000Z</time>
      </trkpt>
      <trkpt lat="47.34076" lon="-2.36705">
        <ele>7.8000001907349</ele>
        <time>2020-10-08T09:17:45.000Z</time>
      </trkpt>
      <trkpt lat="47.34068" lon="-2.36709">
        <ele>7.8000001907349</ele>
        <time>2020-10-08T09:17:47.000Z</time>
      </trkpt>
      <trkpt lat="47.3406" lon="-2.36713">
        <ele>7.8000001907349</ele>
        <time>2020-10-08T09:17:49.000Z</time>
      </trkpt>
      <trkpt lat="47.34043" lon="-2.36723">
        <ele>7.8000001907349</ele>
        <time>2020-10-08T09:17:53.000Z</time>
      </trkpt>
      <trkpt lat="47.34005" lon="-2.3674">
        <ele>7.8000001907349</ele>
        <time>2020-10-08T09:18:01.000Z</time>
      </trkpt>
      <trkpt lat="47.33987" lon="-2.36746">
        <ele>8.3999996185303</ele>
        <time>2020-10-08T09:18:05.000Z</time>
      </trkpt>
      <trkpt lat="47.33983" lon="-2.36748">
        <ele>8.8000001907349</ele>
        <time>2020-10-08T09:18:06.000Z</time>
      </trkpt>
      <trkpt lat="47.33979" lon="-2.36749">
        <ele>9.1999998092651</ele>
        <time>2020-10-08T09:18:07.000Z</time>
      </trkpt>
      <trkpt lat="47.33975" lon="-2.36751">
        <ele>9.6000003814697</ele>
        <time>2020-10-08T09:18:08.000Z</time>
      </trkpt>
      <trkpt lat="47.33972" lon="-2.36752">
        <ele>10</ele>
        <time>2020-10-08T09:18:09.000Z</time>
      </trkpt>
      <trkpt lat="47.33952" lon="-2.36757">
        <ele>10.60000038147</ele>
        <time>2020-10-08T09:18:14.000Z</time>
      </trkpt>
      <trkpt lat="47.33948" lon="-2.36758">
        <ele>11</ele>
        <time>2020-10-08T09:18:15.000Z</time>
      </trkpt>
      <trkpt lat="47.33945" lon="-2.36759">
        <ele>11.39999961853</ele>
        <time>2020-10-08T09:18:16.000Z</time>
      </trkpt>
      <trkpt lat="47.33941" lon="-2.3676">
        <ele>11.800000190735</ele>
        <time>2020-10-08T09:18:17.000Z</time>
      </trkpt>
      <trkpt lat="47.33938" lon="-2.36761">
        <ele>12.199999809265</ele>
        <time>2020-10-08T09:18:18.000Z</time>
      </trkpt>
      <trkpt lat="47.33927" lon="-2.36766">
        <ele>12.199999809265</ele>
        <time>2020-10-08T09:18:22.000Z</time>
      </trkpt>
      <trkpt lat="47.33922" lon="-2.36765">
        <ele>12.199999809265</ele>
        <time>2020-10-08T09:18:24.000Z</time>
      </trkpt>
      <trkpt lat="47.33916" lon="-2.36761">
        <ele>12.199999809265</ele>
        <time>2020-10-08T09:18:26.000Z</time>
      </trkpt>
      <trkpt lat="47.33905" lon="-2.36759">
        <ele>12.199999809265</ele>
        <time>2020-10-08T09:18:29.000Z</time>
      </trkpt>
      <trkpt lat="47.33901" lon="-2.3676">
        <ele>12.199999809265</ele>
        <time>2020-10-08T09:18:30.000Z</time>
      </trkpt>
      <trkpt lat="47.33869" lon="-2.3677">
        <ele>12.199999809265</ele>
        <time>2020-10-08T09:18:37.000Z</time>
      </trkpt>
      <trkpt lat="47.33826" lon="-2.36782">
        <ele>12.199999809265</ele>
        <time>2020-10-08T09:18:46.000Z</time>
      </trkpt>
      <trkpt lat="47.33788" lon="-2.36794">
        <ele>12.199999809265</ele>
        <time>2020-10-08T09:18:53.000Z</time>
      </trkpt>
      <trkpt lat="47.33754" lon="-2.36807">
        <ele>12.60000038147</ele>
        <time>2020-10-08T09:19:00.000Z</time>
      </trkpt>
      <trkpt lat="47.33749" lon="-2.36809">
        <ele>13</ele>
        <time>2020-10-08T09:19:01.000Z</time>
      </trkpt>
      <trkpt lat="47.33745" lon="-2.3681">
        <ele>13.39999961853</ele>
        <time>2020-10-08T09:19:02.000Z</time>
      </trkpt>
      <trkpt lat="47.3374" lon="-2.36812">
        <ele>13.800000190735</ele>
        <time>2020-10-08T09:19:03.000Z</time>
      </trkpt>
      <trkpt lat="47.33736" lon="-2.36813">
        <ele>14.199999809265</ele>
        <time>2020-10-08T09:19:04.000Z</time>
      </trkpt>
      <trkpt lat="47.33723" lon="-2.36818">
        <ele>14.199999809265</ele>
        <time>2020-10-08T09:19:07.000Z</time>
      </trkpt>
      <trkpt lat="47.33706" lon="-2.36828">
        <ele>14.199999809265</ele>
        <time>2020-10-08T09:19:11.000Z</time>
      </trkpt>
      <trkpt lat="47.33697" lon="-2.36836">
        <ele>14.199999809265</ele>
        <time>2020-10-08T09:19:13.000Z</time>
      </trkpt>
      <trkpt lat="47.33664" lon="-2.36873">
        <ele>14.199999809265</ele>
        <time>2020-10-08T09:19:20.000Z</time>
      </trkpt>
      <trkpt lat="47.3363" lon="-2.36916">
        <ele>14.199999809265</ele>
        <time>2020-10-08T09:19:27.000Z</time>
      </trkpt>
      <trkpt lat="47.33621" lon="-2.36928">
        <ele>14.199999809265</ele>
        <time>2020-10-08T09:19:29.000Z</time>
      </trkpt>
      <trkpt lat="47.3361" lon="-2.3695">
        <ele>14.199999809265</ele>
        <time>2020-10-08T09:19:32.000Z</time>
      </trkpt>
      <trkpt lat="47.33605" lon="-2.36967">
        <ele>14.199999809265</ele>
        <time>2020-10-08T09:19:34.000Z</time>
      </trkpt>
      <trkpt lat="47.33601" lon="-2.36983">
        <ele>14.199999809265</ele>
        <time>2020-10-08T09:19:36.000Z</time>
      </trkpt>
      <trkpt lat="47.33602" lon="-2.36991">
        <ele>14.199999809265</ele>
        <time>2020-10-08T09:19:37.000Z</time>
      </trkpt>
      <trkpt lat="47.33603" lon="-2.37013">
        <ele>14.199999809265</ele>
        <time>2020-10-08T09:19:40.000Z</time>
      </trkpt>
      <trkpt lat="47.33603" lon="-2.37036">
        <ele>14.199999809265</ele>
        <time>2020-10-08T09:19:43.000Z</time>
      </trkpt>
      <trkpt lat="47.33604" lon="-2.37091">
        <ele>14.199999809265</ele>
        <time>2020-10-08T09:19:50.000Z</time>
      </trkpt>
      <trkpt lat="47.33604" lon="-2.37145">
        <ele>14.199999809265</ele>
        <time>2020-10-08T09:19:57.000Z</time>
      </trkpt>
      <trkpt lat="47.33601" lon="-2.37175">
        <ele>14.199999809265</ele>
        <time>2020-10-08T09:20:01.000Z</time>
      </trkpt>
      <trkpt lat="47.33596" lon="-2.37185">
        <ele>14.199999809265</ele>
        <time>2020-10-08T09:20:03.000Z</time>
      </trkpt>
      <trkpt lat="47.33589" lon="-2.37193">
        <ele>14.199999809265</ele>
        <time>2020-10-08T09:20:06.000Z</time>
      </trkpt>
      <trkpt lat="47.33584" lon="-2.37197">
        <ele>14.199999809265</ele>
        <time>2020-10-08T09:20:08.000Z</time>
      </trkpt>
      <trkpt lat="47.33569" lon="-2.37208">
        <ele>14.199999809265</ele>
        <time>2020-10-08T09:20:13.000Z</time>
      </trkpt>
      <trkpt lat="47.33548" lon="-2.37226">
        <ele>14.199999809265</ele>
        <time>2020-10-08T09:20:21.000Z</time>
      </trkpt>
      <trkpt lat="47.33534" lon="-2.3723">
        <ele>14.199999809265</ele>
        <time>2020-10-08T09:20:25.000Z</time>
      </trkpt>
      <trkpt lat="47.33525" lon="-2.3723">
        <ele>13.800000190735</ele>
        <time>2020-10-08T09:20:27.000Z</time>
      </trkpt>
      <trkpt lat="47.3352" lon="-2.3723">
        <ele>13.199999809265</ele>
        <time>2020-10-08T09:20:28.000Z</time>
      </trkpt>
      <trkpt lat="47.33516" lon="-2.37229">
        <ele>12.800000190735</ele>
        <time>2020-10-08T09:20:29.000Z</time>
      </trkpt>
      <trkpt lat="47.33512" lon="-2.37229">
        <ele>12.39999961853</ele>
        <time>2020-10-08T09:20:30.000Z</time>
      </trkpt>
      <trkpt lat="47.33507" lon="-2.37229">
        <ele>12</ele>
        <time>2020-10-08T09:20:31.000Z</time>
      </trkpt>
      <trkpt lat="47.33503" lon="-2.37227">
        <ele>12</ele>
        <time>2020-10-08T09:20:32.000Z</time>
      </trkpt>
      <trkpt lat="47.33496" lon="-2.3722">
        <ele>12</ele>
        <time>2020-10-08T09:20:34.000Z</time>
      </trkpt>
      <trkpt lat="47.33488" lon="-2.37193">
        <ele>12</ele>
        <time>2020-10-08T09:20:38.000Z</time>
      </trkpt>
      <trkpt lat="47.33484" lon="-2.37173">
        <ele>11.39999961853</ele>
        <time>2020-10-08T09:20:41.000Z</time>
      </trkpt>
      <trkpt lat="47.33483" lon="-2.37166">
        <ele>11</ele>
        <time>2020-10-08T09:20:42.000Z</time>
      </trkpt>
      <trkpt lat="47.33482" lon="-2.37158">
        <ele>10.60000038147</ele>
        <time>2020-10-08T09:20:43.000Z</time>
      </trkpt>
      <trkpt lat="47.33481" lon="-2.37151">
        <ele>10.199999809265</ele>
        <time>2020-10-08T09:20:44.000Z</time>
      </trkpt>
      <trkpt lat="47.3348" lon="-2.37143">
        <ele>9.6000003814697</ele>
        <time>2020-10-08T09:20:45.000Z</time>
      </trkpt>
      <trkpt lat="47.33475" lon="-2.37098">
        <ele>9.6000003814697</ele>
        <time>2020-10-08T09:20:50.000Z</time>
      </trkpt>
      <trkpt lat="47.33472" lon="-2.37068">
        <ele>9.6000003814697</ele>
        <time>2020-10-08T09:20:53.000Z</time>
      </trkpt>
      <trkpt lat="47.33473" lon="-2.37049">
        <ele>9.1999998092651</ele>
        <time>2020-10-08T09:20:55.000Z</time>
      </trkpt>
      <trkpt lat="47.33474" lon="-2.37039">
        <ele>8.3999996185303</ele>
        <time>2020-10-08T09:20:56.000Z</time>
      </trkpt>
      <trkpt lat="47.33474" lon="-2.37031">
        <ele>8</ele>
        <time>2020-10-08T09:20:57.000Z</time>
      </trkpt>
      <trkpt lat="47.33475" lon="-2.37025">
        <ele>7.5999999046326</ele>
        <time>2020-10-08T09:20:58.000Z</time>
      </trkpt>
      <trkpt lat="47.33475" lon="-2.37019">
        <ele>7.1999998092651</ele>
        <time>2020-10-08T09:20:59.000Z</time>
      </trkpt>
      <trkpt lat="47.33475" lon="-2.37013">
        <ele>6.8000001907349</ele>
        <time>2020-10-08T09:21:00.000Z</time>
      </trkpt>
      <trkpt lat="47.33475" lon="-2.37007">
        <ele>6.4000000953674</ele>
        <time>2020-10-08T09:21:01.000Z</time>
      </trkpt>
      <trkpt lat="47.33475" lon="-2.37003">
        <ele>5.8000001907349</ele>
        <time>2020-10-08T09:21:02.000Z</time>
      </trkpt>
      <trkpt lat="47.33474" lon="-2.36999">
        <ele>5.4000000953674</ele>
        <time>2020-10-08T09:21:03.000Z</time>
      </trkpt>
      <trkpt lat="47.33473" lon="-2.36996">
        <ele>5.4000000953674</ele>
        <time>2020-10-08T09:21:04.000Z</time>
      </trkpt>
      <trkpt lat="47.3347" lon="-2.36991">
        <ele>5.4000000953674</ele>
        <time>2020-10-08T09:21:06.000Z</time>
      </trkpt>
      <trkpt lat="47.33465" lon="-2.36984">
        <ele>5.4000000953674</ele>
        <time>2020-10-08T09:21:08.000Z</time>
      </trkpt>
      <trkpt lat="47.33454" lon="-2.36964">
        <ele>5.4000000953674</ele>
        <time>2020-10-08T09:21:13.000Z</time>
      </trkpt>
      <trkpt lat="47.33453" lon="-2.3696">
        <ele>5.4000000953674</ele>
        <time>2020-10-08T09:21:14.000Z</time>
      </trkpt>
      <trkpt lat="47.33454" lon="-2.36941">
        <ele>5.4000000953674</ele>
        <time>2020-10-08T09:21:18.000Z</time>
      </trkpt>
      <trkpt lat="47.33452" lon="-2.36924">
        <ele>5.4000000953674</ele>
        <time>2020-10-08T09:21:22.000Z</time>
      </trkpt>
      <trkpt lat="47.3345" lon="-2.36897">
        <ele>5.4000000953674</ele>
        <time>2020-10-08T09:21:28.000Z</time>
      </trkpt>
      <trkpt lat="47.33452" lon="-2.36873">
        <ele>5.4000000953674</ele>
        <time>2020-10-08T09:21:33.000Z</time>
      </trkpt>
      <trkpt lat="47.33463" lon="-2.36852">
        <ele>5.4000000953674</ele>
        <time>2020-10-08T09:21:37.000Z</time>
      </trkpt>
      <trkpt lat="47.33466" lon="-2.36839">
        <ele>5</ele>
        <time>2020-10-08T09:21:39.000Z</time>
      </trkpt>
      <trkpt lat="47.33467" lon="-2.36832">
        <ele>4.5999999046326</ele>
        <time>2020-10-08T09:21:40.000Z</time>
      </trkpt>
      <trkpt lat="47.33468" lon="-2.36825">
        <ele>4.1999998092651</ele>
        <time>2020-10-08T09:21:41.000Z</time>
      </trkpt>
      <trkpt lat="47.33469" lon="-2.36818">
        <ele>3.7999999523163</ele>
        <time>2020-10-08T09:21:42.000Z</time>
      </trkpt>
      <trkpt lat="47.3347" lon="-2.36811">
        <ele>3.4000000953674</ele>
        <time>2020-10-08T09:21:43.000Z</time>
      </trkpt>
      <trkpt lat="47.33471" lon="-2.36797">
        <ele>3.4000000953674</ele>
        <time>2020-10-08T09:21:45.000Z</time>
      </trkpt>
      <trkpt lat="47.33473" lon="-2.36784">
        <ele>3.4000000953674</ele>
        <time>2020-10-08T09:21:47.000Z</time>
      </trkpt>
      <trkpt lat="47.3348" lon="-2.36761">
        <ele>3.4000000953674</ele>
        <time>2020-10-08T09:21:51.000Z</time>
      </trkpt>
      <trkpt lat="47.33488" lon="-2.36734">
        <ele>3.4000000953674</ele>
        <time>2020-10-08T09:21:56.000Z</time>
      </trkpt>
      <trkpt lat="47.33495" lon="-2.36714">
        <ele>3.4000000953674</ele>
        <time>2020-10-08T09:22:00.000Z</time>
      </trkpt>
      <trkpt lat="47.33499" lon="-2.36708">
        <ele>3.4000000953674</ele>
        <time>2020-10-08T09:22:01.000Z</time>
      </trkpt>
      <trkpt lat="47.33508" lon="-2.36693">
        <ele>3.4000000953674</ele>
        <time>2020-10-08T09:22:04.000Z</time>
      </trkpt>
      <trkpt lat="47.33513" lon="-2.36683">
        <ele>3.4000000953674</ele>
        <time>2020-10-08T09:22:06.000Z</time>
      </trkpt>
      <trkpt lat="47.33524" lon="-2.36665">
        <ele>3.4000000953674</ele>
        <time>2020-10-08T09:22:10.000Z</time>
      </trkpt>
      <trkpt lat="47.33534" lon="-2.36655">
        <ele>3.4000000953674</ele>
        <time>2020-10-08T09:22:13.000Z</time>
      </trkpt>
      <trkpt lat="47.3354" lon="-2.36644">
        <ele>3.4000000953674</ele>
        <time>2020-10-08T09:22:16.000Z</time>
      </trkpt>
      <trkpt lat="47.33541" lon="-2.36636">
        <ele>3.4000000953674</ele>
        <time>2020-10-08T09:22:18.000Z</time>
      </trkpt>
      <trkpt lat="47.33539" lon="-2.36634">
        <ele>3.4000000953674</ele>
        <time>2020-10-08T09:22:19.000Z</time>
      </trkpt>
      <trkpt lat="47.33533" lon="-2.36625">
        <ele>3.4000000953674</ele>
        <time>2020-10-08T09:22:24.000Z</time>
      </trkpt>
      <trkpt lat="47.33531" lon="-2.36623">
        <ele>3.7999999523163</ele>
        <time>2020-10-08T09:22:25.000Z</time>
      </trkpt>
      <trkpt lat="47.3353" lon="-2.36621">
        <ele>4.4000000953674</ele>
        <time>2020-10-08T09:22:26.000Z</time>
      </trkpt>
      <trkpt lat="47.3353" lon="-2.3662">
        <ele>4.8000001907349</ele>
        <time>2020-10-08T09:22:27.000Z</time>
      </trkpt>
      <trkpt lat="47.33528" lon="-2.36619">
        <ele>5.4000000953674</ele>
        <time>2020-10-08T09:22:28.000Z</time>
      </trkpt>
      <trkpt lat="47.33527" lon="-2.36617">
        <ele>5.8000001907349</ele>
        <time>2020-10-08T09:22:29.000Z</time>
      </trkpt>
      <trkpt lat="47.33525" lon="-2.36615">
        <ele>5.8000001907349</ele>
        <time>2020-10-08T09:22:30.000Z</time>
      </trkpt>
      <trkpt lat="47.33521" lon="-2.36614">
        <ele>6.1999998092651</ele>
        <time>2020-10-08T09:22:32.000Z</time>
      </trkpt>
      <trkpt lat="47.3352" lon="-2.36613">
        <ele>7</ele>
        <time>2020-10-08T09:22:33.000Z</time>
      </trkpt>
      <trkpt lat="47.33517" lon="-2.36612">
        <ele>7.4000000953674</ele>
        <time>2020-10-08T09:22:34.000Z</time>
      </trkpt>
      <trkpt lat="47.33515" lon="-2.36611">
        <ele>7.8000001907349</ele>
        <time>2020-10-08T09:22:35.000Z</time>
      </trkpt>
      <trkpt lat="47.33498" lon="-2.36598">
        <ele>7.8000001907349</ele>
        <time>2020-10-08T09:22:43.000Z</time>
      </trkpt>
      <trkpt lat="47.33487" lon="-2.36597">
        <ele>7.8000001907349</ele>
        <time>2020-10-08T09:22:48.000Z</time>
      </trkpt>
      <trkpt lat="47.33475" lon="-2.36596">
        <ele>7.8000001907349</ele>
        <time>2020-10-08T09:22:53.000Z</time>
      </trkpt>
      <trkpt lat="47.33472" lon="-2.36594">
        <ele>7.8000001907349</ele>
        <time>2020-10-08T09:22:54.000Z</time>
      </trkpt>
      <trkpt lat="47.3347" lon="-2.36588">
        <ele>7.8000001907349</ele>
        <time>2020-10-08T09:22:56.000Z</time>
      </trkpt>
      <trkpt lat="47.3347" lon="-2.36579">
        <ele>7.8000001907349</ele>
        <time>2020-10-08T09:22:58.000Z</time>
      </trkpt>
      <trkpt lat="47.3347" lon="-2.36561">
        <ele>7.8000001907349</ele>
        <time>2020-10-08T09:23:02.000Z</time>
      </trkpt>
      <trkpt lat="47.33471" lon="-2.36532">
        <ele>8.1999998092651</ele>
        <time>2020-10-08T09:23:08.000Z</time>
      </trkpt>
      <trkpt lat="47.33471" lon="-2.36527">
        <ele>8.8000001907349</ele>
        <time>2020-10-08T09:23:09.000Z</time>
      </trkpt>
      <trkpt lat="47.33471" lon="-2.36523">
        <ele>9.1999998092651</ele>
        <time>2020-10-08T09:23:10.000Z</time>
      </trkpt>
      <trkpt lat="47.33472" lon="-2.36518">
        <ele>9.6000003814697</ele>
        <time>2020-10-08T09:23:11.000Z</time>
      </trkpt>
      <trkpt lat="47.33472" lon="-2.36513">
        <ele>10</ele>
        <time>2020-10-08T09:23:12.000Z</time>
      </trkpt>
      <trkpt lat="47.33473" lon="-2.36497">
        <ele>10</ele>
        <time>2020-10-08T09:23:15.000Z</time>
      </trkpt>
      <trkpt lat="47.33475" lon="-2.36471">
        <ele>10</ele>
        <time>2020-10-08T09:23:20.000Z</time>
      </trkpt>
      <trkpt lat="47.33475" lon="-2.36447">
        <ele>10</ele>
        <time>2020-10-08T09:23:25.000Z</time>
      </trkpt>
      <trkpt lat="47.33472" lon="-2.36435">
        <ele>10</ele>
        <time>2020-10-08T09:23:28.000Z</time>
      </trkpt>
      <trkpt lat="47.33469" lon="-2.36433">
        <ele>10</ele>
        <time>2020-10-08T09:23:29.000Z</time>
      </trkpt>
      <trkpt lat="47.33456" lon="-2.36424">
        <ele>10</ele>
        <time>2020-10-08T09:23:34.000Z</time>
      </trkpt>
      <trkpt lat="47.33449" lon="-2.36409">
        <ele>10</ele>
        <time>2020-10-08T09:23:39.000Z</time>
      </trkpt>
      <trkpt lat="47.33443" lon="-2.36389">
        <ele>10.39999961853</ele>
        <time>2020-10-08T09:23:44.000Z</time>
      </trkpt>
      <trkpt lat="47.33442" lon="-2.36385">
        <ele>10.800000190735</ele>
        <time>2020-10-08T09:23:45.000Z</time>
      </trkpt>
      <trkpt lat="47.33441" lon="-2.36381">
        <ele>11.199999809265</ele>
        <time>2020-10-08T09:23:46.000Z</time>
      </trkpt>
      <trkpt lat="47.3344" lon="-2.36376">
        <ele>12</ele>
        <time>2020-10-08T09:23:47.000Z</time>
      </trkpt>
      <trkpt lat="47.33433" lon="-2.36357">
        <ele>12</ele>
        <time>2020-10-08T09:23:52.000Z</time>
      </trkpt>
      <trkpt lat="47.33427" lon="-2.36335">
        <ele>12</ele>
        <time>2020-10-08T09:23:58.000Z</time>
      </trkpt>
      <trkpt lat="47.33423" lon="-2.36321">
        <ele>12.39999961853</ele>
        <time>2020-10-08T09:24:01.000Z</time>
      </trkpt>
      <trkpt lat="47.33422" lon="-2.36316">
        <ele>13</ele>
        <time>2020-10-08T09:24:02.000Z</time>
      </trkpt>
      <trkpt lat="47.33421" lon="-2.36311">
        <ele>13.39999961853</ele>
        <time>2020-10-08T09:24:03.000Z</time>
      </trkpt>
      <trkpt lat="47.33419" lon="-2.36306">
        <ele>13.800000190735</ele>
        <time>2020-10-08T09:24:04.000Z</time>
      </trkpt>
      <trkpt lat="47.33418" lon="-2.36302">
        <ele>14.199999809265</ele>
        <time>2020-10-08T09:24:05.000Z</time>
      </trkpt>
      <trkpt lat="47.33412" lon="-2.3627">
        <ele>14.199999809265</ele>
        <time>2020-10-08T09:24:11.000Z</time>
      </trkpt>
      <trkpt lat="47.33411" lon="-2.36249">
        <ele>14.199999809265</ele>
        <time>2020-10-08T09:24:15.000Z</time>
      </trkpt>
      <trkpt lat="47.33416" lon="-2.36208">
        <ele>14.60000038147</ele>
        <time>2020-10-08T09:24:22.000Z</time>
      </trkpt>
      <trkpt lat="47.33416" lon="-2.36203">
        <ele>15</ele>
        <time>2020-10-08T09:24:23.000Z</time>
      </trkpt>
      <trkpt lat="47.33416" lon="-2.36198">
        <ele>15.39999961853</ele>
        <time>2020-10-08T09:24:24.000Z</time>
      </trkpt>
      <trkpt lat="47.33416" lon="-2.36193">
        <ele>15.800000190735</ele>
        <time>2020-10-08T09:24:25.000Z</time>
      </trkpt>
      <trkpt lat="47.33415" lon="-2.36188">
        <ele>16.200000762939</ele>
        <time>2020-10-08T09:24:26.000Z</time>
      </trkpt>
      <trkpt lat="47.33408" lon="-2.36163">
        <ele>16.200000762939</ele>
        <time>2020-10-08T09:24:32.000Z</time>
      </trkpt>
      <trkpt lat="47.33395" lon="-2.36164">
        <ele>16.200000762939</ele>
        <time>2020-10-08T09:24:36.000Z</time>
      </trkpt>
      <trkpt lat="47.33391" lon="-2.36167">
        <ele>16.799999237061</ele>
        <time>2020-10-08T09:24:37.000Z</time>
      </trkpt>
      <trkpt lat="47.33387" lon="-2.36169">
        <ele>17.200000762939</ele>
        <time>2020-10-08T09:24:38.000Z</time>
      </trkpt>
      <trkpt lat="47.33382" lon="-2.36171">
        <ele>17.60000038147</ele>
        <time>2020-10-08T09:24:39.000Z</time>
      </trkpt>
      <trkpt lat="47.33378" lon="-2.36174">
        <ele>18</ele>
        <time>2020-10-08T09:24:40.000Z</time>
      </trkpt>
      <trkpt lat="47.33374" lon="-2.36176">
        <ele>18.39999961853</ele>
        <time>2020-10-08T09:24:41.000Z</time>
      </trkpt>
      <trkpt lat="47.33366" lon="-2.36181">
        <ele>18.39999961853</ele>
        <time>2020-10-08T09:24:43.000Z</time>
      </trkpt>
      <trkpt lat="47.33337" lon="-2.362">
        <ele>18.39999961853</ele>
        <time>2020-10-08T09:24:50.000Z</time>
      </trkpt>
      <trkpt lat="47.33315" lon="-2.36213">
        <ele>18.39999961853</ele>
        <time>2020-10-08T09:24:56.000Z</time>
      </trkpt>
      <trkpt lat="47.33313" lon="-2.36215">
        <ele>18</ele>
        <time>2020-10-08T09:24:58.000Z</time>
      </trkpt>
      <trkpt lat="47.33312" lon="-2.36215">
        <ele>17.60000038147</ele>
        <time>2020-10-08T09:24:59.000Z</time>
      </trkpt>
      <trkpt lat="47.33311" lon="-2.36213">
        <ele>16.39999961853</ele>
        <time>2020-10-08T09:25:49.000Z</time>
      </trkpt>
      <trkpt lat="47.33311" lon="-2.36198">
        <ele>16.39999961853</ele>
        <time>2020-10-08T09:25:53.000Z</time>
      </trkpt>
      <trkpt lat="47.3331" lon="-2.36185">
        <ele>16.39999961853</ele>
        <time>2020-10-08T09:25:55.000Z</time>
      </trkpt>
      <trkpt lat="47.3331" lon="-2.36171">
        <ele>16.39999961853</ele>
        <time>2020-10-08T09:25:57.000Z</time>
      </trkpt>
      <trkpt lat="47.33309" lon="-2.36109">
        <ele>16.39999961853</ele>
        <time>2020-10-08T09:26:05.000Z</time>
      </trkpt>
      <trkpt lat="47.33309" lon="-2.36063">
        <ele>16.39999961853</ele>
        <time>2020-10-08T09:26:11.000Z</time>
      </trkpt>
      <trkpt lat="47.33312" lon="-2.36012">
        <ele>16.39999961853</ele>
        <time>2020-10-08T09:26:17.000Z</time>
      </trkpt>
      <trkpt lat="47.33316" lon="-2.35988">
        <ele>16.799999237061</ele>
        <time>2020-10-08T09:26:20.000Z</time>
      </trkpt>
      <trkpt lat="47.33317" lon="-2.3598">
        <ele>17.200000762939</ele>
        <time>2020-10-08T09:26:21.000Z</time>
      </trkpt>
      <trkpt lat="47.33319" lon="-2.35972">
        <ele>17.60000038147</ele>
        <time>2020-10-08T09:26:22.000Z</time>
      </trkpt>
      <trkpt lat="47.3332" lon="-2.35964">
        <ele>18</ele>
        <time>2020-10-08T09:26:23.000Z</time>
      </trkpt>
      <trkpt lat="47.33321" lon="-2.35956">
        <ele>18.39999961853</ele>
        <time>2020-10-08T09:26:24.000Z</time>
      </trkpt>
      <trkpt lat="47.33319" lon="-2.35931">
        <ele>18.39999961853</ele>
        <time>2020-10-08T09:26:27.000Z</time>
      </trkpt>
      <trkpt lat="47.33314" lon="-2.35916">
        <ele>18.39999961853</ele>
        <time>2020-10-08T09:26:29.000Z</time>
      </trkpt>
      <trkpt lat="47.33305" lon="-2.35894">
        <ele>18.39999961853</ele>
        <time>2020-10-08T09:26:32.000Z</time>
      </trkpt>
      <trkpt lat="47.33295" lon="-2.35885">
        <ele>18.39999961853</ele>
        <time>2020-10-08T09:26:35.000Z</time>
      </trkpt>
      <trkpt lat="47.3329" lon="-2.35883">
        <ele>18.39999961853</ele>
        <time>2020-10-08T09:26:36.000Z</time>
      </trkpt>
      <trkpt lat="47.33286" lon="-2.35881">
        <ele>18.39999961853</ele>
        <time>2020-10-08T09:26:37.000Z</time>
      </trkpt>
      <trkpt lat="47.33281" lon="-2.35877">
        <ele>18</ele>
        <time>2020-10-08T09:26:38.000Z</time>
      </trkpt>
      <trkpt lat="47.33276" lon="-2.35873">
        <ele>17.39999961853</ele>
        <time>2020-10-08T09:26:39.000Z</time>
      </trkpt>
      <trkpt lat="47.33272" lon="-2.35868">
        <ele>16.60000038147</ele>
        <time>2020-10-08T09:26:40.000Z</time>
      </trkpt>
      <trkpt lat="47.33267" lon="-2.35863">
        <ele>16.200000762939</ele>
        <time>2020-10-08T09:26:41.000Z</time>
      </trkpt>
      <trkpt lat="47.33246" lon="-2.35839">
        <ele>16.200000762939</ele>
        <time>2020-10-08T09:26:45.000Z</time>
      </trkpt>
      <trkpt lat="47.3324" lon="-2.35834">
        <ele>16.200000762939</ele>
        <time>2020-10-08T09:26:46.000Z</time>
      </trkpt>
      <trkpt lat="47.33217" lon="-2.35825">
        <ele>15.60000038147</ele>
        <time>2020-10-08T09:26:49.000Z</time>
      </trkpt>
      <trkpt lat="47.3321" lon="-2.35822">
        <ele>15.199999809265</ele>
        <time>2020-10-08T09:26:50.000Z</time>
      </trkpt>
      <trkpt lat="47.33202" lon="-2.35819">
        <ele>14.800000190735</ele>
        <time>2020-10-08T09:26:51.000Z</time>
      </trkpt>
      <trkpt lat="47.33194" lon="-2.35817">
        <ele>14.199999809265</ele>
        <time>2020-10-08T09:26:52.000Z</time>
      </trkpt>
      <trkpt lat="47.33186" lon="-2.35815">
        <ele>13.800000190735</ele>
        <time>2020-10-08T09:26:53.000Z</time>
      </trkpt>
      <trkpt lat="47.33164" lon="-2.35812">
        <ele>13.800000190735</ele>
        <time>2020-10-08T09:26:56.000Z</time>
      </trkpt>
      <trkpt lat="47.33123" lon="-2.35807">
        <ele>13.800000190735</ele>
        <time>2020-10-08T09:27:02.000Z</time>
      </trkpt>
      <trkpt lat="47.33116" lon="-2.35807">
        <ele>13.199999809265</ele>
        <time>2020-10-08T09:27:03.000Z</time>
      </trkpt>
      <trkpt lat="47.33109" lon="-2.35807">
        <ele>12.800000190735</ele>
        <time>2020-10-08T09:27:04.000Z</time>
      </trkpt>
      <trkpt lat="47.33101" lon="-2.35807">
        <ele>12</ele>
        <time>2020-10-08T09:27:05.000Z</time>
      </trkpt>
      <trkpt lat="47.33094" lon="-2.35807">
        <ele>11.39999961853</ele>
        <time>2020-10-08T09:27:06.000Z</time>
      </trkpt>
      <trkpt lat="47.33078" lon="-2.35808">
        <ele>11.39999961853</ele>
        <time>2020-10-08T09:27:08.000Z</time>
      </trkpt>
      <trkpt lat="47.33042" lon="-2.35807">
        <ele>11.39999961853</ele>
        <time>2020-10-08T09:27:13.000Z</time>
      </trkpt>
      <trkpt lat="47.33035" lon="-2.35804">
        <ele>11.39999961853</ele>
        <time>2020-10-08T09:27:14.000Z</time>
      </trkpt>
      <trkpt lat="47.33017" lon="-2.35785">
        <ele>11</ele>
        <time>2020-10-08T09:27:17.000Z</time>
      </trkpt>
      <trkpt lat="47.33012" lon="-2.35777">
        <ele>10.39999961853</ele>
        <time>2020-10-08T09:27:18.000Z</time>
      </trkpt>
      <trkpt lat="47.33009" lon="-2.35767">
        <ele>9.8000001907349</ele>
        <time>2020-10-08T09:27:19.000Z</time>
      </trkpt>
      <trkpt lat="47.33007" lon="-2.35756">
        <ele>9.3999996185303</ele>
        <time>2020-10-08T09:27:20.000Z</time>
      </trkpt>
      <trkpt lat="47.33006" lon="-2.35746">
        <ele>8.8000001907349</ele>
        <time>2020-10-08T09:27:21.000Z</time>
      </trkpt>
      <trkpt lat="47.33007" lon="-2.35713">
        <ele>8.8000001907349</ele>
        <time>2020-10-08T09:27:24.000Z</time>
      </trkpt>
      <trkpt lat="47.3301" lon="-2.35683">
        <ele>8.8000001907349</ele>
        <time>2020-10-08T09:27:27.000Z</time>
      </trkpt>
      <trkpt lat="47.33012" lon="-2.35673">
        <ele>8.3999996185303</ele>
        <time>2020-10-08T09:27:28.000Z</time>
      </trkpt>
      <trkpt lat="47.33012" lon="-2.35664">
        <ele>7.5999999046326</ele>
        <time>2020-10-08T09:27:29.000Z</time>
      </trkpt>
      <trkpt lat="47.33013" lon="-2.35656">
        <ele>7.1999998092651</ele>
        <time>2020-10-08T09:27:30.000Z</time>
      </trkpt>
      <trkpt lat="47.33014" lon="-2.35647">
        <ele>6.8000001907349</ele>
        <time>2020-10-08T09:27:31.000Z</time>
      </trkpt>
      <trkpt lat="47.33017" lon="-2.35631">
        <ele>6.8000001907349</ele>
        <time>2020-10-08T09:27:33.000Z</time>
      </trkpt>
      <trkpt lat="47.33018" lon="-2.35624">
        <ele>6.8000001907349</ele>
        <time>2020-10-08T09:27:34.000Z</time>
      </trkpt>
      <trkpt lat="47.3302" lon="-2.35602">
        <ele>6.8000001907349</ele>
        <time>2020-10-08T09:27:37.000Z</time>
      </trkpt>
      <trkpt lat="47.33021" lon="-2.3559">
        <ele>6.8000001907349</ele>
        <time>2020-10-08T09:27:39.000Z</time>
      </trkpt>
      <trkpt lat="47.33023" lon="-2.35561">
        <ele>6.8000001907349</ele>
        <time>2020-10-08T09:27:44.000Z</time>
      </trkpt>
      <trkpt lat="47.33024" lon="-2.35539">
        <ele>6.8000001907349</ele>
        <time>2020-10-08T09:27:48.000Z</time>
      </trkpt>
      <trkpt lat="47.33024" lon="-2.35535">
        <ele>6.8000001907349</ele>
        <time>2020-10-08T09:27:49.000Z</time>
      </trkpt>
      <trkpt lat="47.33024" lon="-2.35511">
        <ele>6.8000001907349</ele>
        <time>2020-10-08T09:27:54.000Z</time>
      </trkpt>
      <trkpt lat="47.33025" lon="-2.35505">
        <ele>7.1999998092651</ele>
        <time>2020-10-08T09:27:55.000Z</time>
      </trkpt>
      <trkpt lat="47.33025" lon="-2.35499">
        <ele>7.5999999046326</ele>
        <time>2020-10-08T09:27:56.000Z</time>
      </trkpt>
      <trkpt lat="47.33026" lon="-2.35493">
        <ele>8</ele>
        <time>2020-10-08T09:27:57.000Z</time>
      </trkpt>
      <trkpt lat="47.33026" lon="-2.35487">
        <ele>8.3999996185303</ele>
        <time>2020-10-08T09:27:58.000Z</time>
      </trkpt>
      <trkpt lat="47.33027" lon="-2.35481">
        <ele>8.8000001907349</ele>
        <time>2020-10-08T09:27:59.000Z</time>
      </trkpt>
      <trkpt lat="47.33028" lon="-2.35468">
        <ele>8.8000001907349</ele>
        <time>2020-10-08T09:28:01.000Z</time>
      </trkpt>
      <trkpt lat="47.33027" lon="-2.35447">
        <ele>8.8000001907349</ele>
        <time>2020-10-08T09:28:05.000Z</time>
      </trkpt>
      <trkpt lat="47.33028" lon="-2.35429">
        <ele>9.1999998092651</ele>
        <time>2020-10-08T09:28:08.000Z</time>
      </trkpt>
      <trkpt lat="47.33029" lon="-2.35422">
        <ele>9.6000003814697</ele>
        <time>2020-10-08T09:28:09.000Z</time>
      </trkpt>
      <trkpt lat="47.33028" lon="-2.35414">
        <ele>10</ele>
        <time>2020-10-08T09:28:10.000Z</time>
      </trkpt>
      <trkpt lat="47.33028" lon="-2.35408">
        <ele>10.39999961853</ele>
        <time>2020-10-08T09:28:11.000Z</time>
      </trkpt>
      <trkpt lat="47.33028" lon="-2.35401">
        <ele>10.800000190735</ele>
        <time>2020-10-08T09:28:12.000Z</time>
      </trkpt>
      <trkpt lat="47.33026" lon="-2.35377">
        <ele>10.800000190735</ele>
        <time>2020-10-08T09:28:16.000Z</time>
      </trkpt>
      <trkpt lat="47.33024" lon="-2.35332">
        <ele>10.800000190735</ele>
        <time>2020-10-08T09:28:23.000Z</time>
      </trkpt>
      <trkpt lat="47.33023" lon="-2.35295">
        <ele>10.800000190735</ele>
        <time>2020-10-08T09:28:29.000Z</time>
      </trkpt>
      <trkpt lat="47.33024" lon="-2.35266">
        <ele>10.800000190735</ele>
        <time>2020-10-08T09:28:34.000Z</time>
      </trkpt>
      <trkpt lat="47.33021" lon="-2.35236">
        <ele>10.800000190735</ele>
        <time>2020-10-08T09:28:39.000Z</time>
      </trkpt>
      <trkpt lat="47.3302" lon="-2.35207">
        <ele>10.800000190735</ele>
        <time>2020-10-08T09:28:44.000Z</time>
      </trkpt>
      <trkpt lat="47.33016" lon="-2.35178">
        <ele>10.800000190735</ele>
        <time>2020-10-08T09:28:48.000Z</time>
      </trkpt>
      <trkpt lat="47.33015" lon="-2.35172">
        <ele>10.800000190735</ele>
        <time>2020-10-08T09:28:49.000Z</time>
      </trkpt>
      <trkpt lat="47.33015" lon="-2.35151">
        <ele>10.800000190735</ele>
        <time>2020-10-08T09:28:52.000Z</time>
      </trkpt>
      <trkpt lat="47.33014" lon="-2.35138">
        <ele>10.800000190735</ele>
        <time>2020-10-08T09:28:54.000Z</time>
      </trkpt>
      <trkpt lat="47.33011" lon="-2.35118">
        <ele>10.800000190735</ele>
        <time>2020-10-08T09:28:58.000Z</time>
      </trkpt>
      <trkpt lat="47.33008" lon="-2.35096">
        <ele>10.800000190735</ele>
        <time>2020-10-08T09:29:03.000Z</time>
      </trkpt>
      <trkpt lat="47.33002" lon="-2.35075">
        <ele>10.800000190735</ele>
        <time>2020-10-08T09:29:08.000Z</time>
      </trkpt>
      <trkpt lat="47.32998" lon="-2.35047">
        <ele>10.800000190735</ele>
        <time>2020-10-08T09:29:14.000Z</time>
      </trkpt>
      <trkpt lat="47.32995" lon="-2.35036">
        <ele>10.39999961853</ele>
        <time>2020-10-08T09:29:16.000Z</time>
      </trkpt>
      <trkpt lat="47.32993" lon="-2.3503">
        <ele>10</ele>
        <time>2020-10-08T09:29:17.000Z</time>
      </trkpt>
      <trkpt lat="47.3299" lon="-2.35024">
        <ele>9.6000003814697</ele>
        <time>2020-10-08T09:29:18.000Z</time>
      </trkpt>
      <trkpt lat="47.32988" lon="-2.35018">
        <ele>9.1999998092651</ele>
        <time>2020-10-08T09:29:19.000Z</time>
      </trkpt>
      <trkpt lat="47.32985" lon="-2.35013">
        <ele>8.8000001907349</ele>
        <time>2020-10-08T09:29:20.000Z</time>
      </trkpt>
      <trkpt lat="47.32976" lon="-2.34988">
        <ele>8.8000001907349</ele>
        <time>2020-10-08T09:29:25.000Z</time>
      </trkpt>
      <trkpt lat="47.32965" lon="-2.3495">
        <ele>8.8000001907349</ele>
        <time>2020-10-08T09:29:30.000Z</time>
      </trkpt>
      <trkpt lat="47.32954" lon="-2.34922">
        <ele>8.8000001907349</ele>
        <time>2020-10-08T09:29:35.000Z</time>
      </trkpt>
      <trkpt lat="47.32937" lon="-2.34878">
        <ele>8.8000001907349</ele>
        <time>2020-10-08T09:29:42.000Z</time>
      </trkpt>
      <trkpt lat="47.32922" lon="-2.34832">
        <ele>8.8000001907349</ele>
        <time>2020-10-08T09:29:49.000Z</time>
      </trkpt>
      <trkpt lat="47.32909" lon="-2.34798">
        <ele>8.8000001907349</ele>
        <time>2020-10-08T09:29:55.000Z</time>
      </trkpt>
      <trkpt lat="47.32905" lon="-2.34794">
        <ele>8.8000001907349</ele>
        <time>2020-10-08T09:29:56.000Z</time>
      </trkpt>
      <trkpt lat="47.32898" lon="-2.34791">
        <ele>8.8000001907349</ele>
        <time>2020-10-08T09:29:58.000Z</time>
      </trkpt>
      <trkpt lat="47.32882" lon="-2.34798">
        <ele>8.8000001907349</ele>
        <time>2020-10-08T09:30:02.000Z</time>
      </trkpt>
      <trkpt lat="47.32867" lon="-2.34808">
        <ele>8.8000001907349</ele>
        <time>2020-10-08T09:30:06.000Z</time>
      </trkpt>
      <trkpt lat="47.32859" lon="-2.34813">
        <ele>8.8000001907349</ele>
        <time>2020-10-08T09:30:08.000Z</time>
      </trkpt>
      <trkpt lat="47.32829" lon="-2.34832">
        <ele>8.8000001907349</ele>
        <time>2020-10-08T09:30:15.000Z</time>
      </trkpt>
      <trkpt lat="47.32806" lon="-2.34849">
        <ele>8.8000001907349</ele>
        <time>2020-10-08T09:30:21.000Z</time>
      </trkpt>
      <trkpt lat="47.32787" lon="-2.34863">
        <ele>8.8000001907349</ele>
        <time>2020-10-08T09:30:26.000Z</time>
      </trkpt>
      <trkpt lat="47.32766" lon="-2.34878">
        <ele>8.8000001907349</ele>
        <time>2020-10-08T09:30:32.000Z</time>
      </trkpt>
      <trkpt lat="47.32747" lon="-2.34892">
        <ele>8.8000001907349</ele>
        <time>2020-10-08T09:30:37.000Z</time>
      </trkpt>
      <trkpt lat="47.32725" lon="-2.34909">
        <ele>8.8000001907349</ele>
        <time>2020-10-08T09:30:43.000Z</time>
      </trkpt>
      <trkpt lat="47.327" lon="-2.34927">
        <ele>9.1999998092651</ele>
        <time>2020-10-08T09:30:50.000Z</time>
      </trkpt>
      <trkpt lat="47.32696" lon="-2.34929">
        <ele>9.6000003814697</ele>
        <time>2020-10-08T09:30:51.000Z</time>
      </trkpt>
      <trkpt lat="47.32693" lon="-2.34931">
        <ele>10</ele>
        <time>2020-10-08T09:30:52.000Z</time>
      </trkpt>
      <trkpt lat="47.32689" lon="-2.34933">
        <ele>10.39999961853</ele>
        <time>2020-10-08T09:30:53.000Z</time>
      </trkpt>
      <trkpt lat="47.32686" lon="-2.34935">
        <ele>10.800000190735</ele>
        <time>2020-10-08T09:30:54.000Z</time>
      </trkpt>
      <trkpt lat="47.3268" lon="-2.3494">
        <ele>10.800000190735</ele>
        <time>2020-10-08T09:30:56.000Z</time>
      </trkpt>
      <trkpt lat="47.32669" lon="-2.34948">
        <ele>10.800000190735</ele>
        <time>2020-10-08T09:31:02.000Z</time>
      </trkpt>
      <trkpt lat="47.32667" lon="-2.34949">
        <ele>10.800000190735</ele>
        <time>2020-10-08T09:31:03.000Z</time>
      </trkpt>
      <trkpt lat="47.32658" lon="-2.34954">
        <ele>10.800000190735</ele>
        <time>2020-10-08T09:31:06.000Z</time>
      </trkpt>
      <trkpt lat="47.32638" lon="-2.3497">
        <ele>10.800000190735</ele>
        <time>2020-10-08T09:31:12.000Z</time>
      </trkpt>
      <trkpt lat="47.32613" lon="-2.34981">
        <ele>10.800000190735</ele>
        <time>2020-10-08T09:31:18.000Z</time>
      </trkpt>
      <trkpt lat="47.32591" lon="-2.34995">
        <ele>10.800000190735</ele>
        <time>2020-10-08T09:31:24.000Z</time>
      </trkpt>
      <trkpt lat="47.32571" lon="-2.35003">
        <ele>10.800000190735</ele>
        <time>2020-10-08T09:31:29.000Z</time>
      </trkpt>
      <trkpt lat="47.32564" lon="-2.35007">
        <ele>11.199999809265</ele>
        <time>2020-10-08T09:31:31.000Z</time>
      </trkpt>
      <trkpt lat="47.32561" lon="-2.35008">
        <ele>11.60000038147</ele>
        <time>2020-10-08T09:31:32.000Z</time>
      </trkpt>
      <trkpt lat="47.32557" lon="-2.35009">
        <ele>12.199999809265</ele>
        <time>2020-10-08T09:31:33.000Z</time>
      </trkpt>
      <trkpt lat="47.32554" lon="-2.3501">
        <ele>12.60000038147</ele>
        <time>2020-10-08T09:31:34.000Z</time>
      </trkpt>
      <trkpt lat="47.3255" lon="-2.3501">
        <ele>13</ele>
        <time>2020-10-08T09:31:35.000Z</time>
      </trkpt>
      <trkpt lat="47.32529" lon="-2.35014">
        <ele>13</ele>
        <time>2020-10-08T09:31:40.000Z</time>
      </trkpt>
      <trkpt lat="47.32506" lon="-2.35019">
        <ele>13</ele>
        <time>2020-10-08T09:31:46.000Z</time>
      </trkpt>
      <trkpt lat="47.32479" lon="-2.35025">
        <ele>13</ele>
        <time>2020-10-08T09:31:53.000Z</time>
      </trkpt>
      <trkpt lat="47.32459" lon="-2.3503">
        <ele>13</ele>
        <time>2020-10-08T09:31:58.000Z</time>
      </trkpt>
      <trkpt lat="47.32437" lon="-2.35037">
        <ele>13</ele>
        <time>2020-10-08T09:32:03.000Z</time>
      </trkpt>
      <trkpt lat="47.32409" lon="-2.3504">
        <ele>13</ele>
        <time>2020-10-08T09:32:09.000Z</time>
      </trkpt>
      <trkpt lat="47.32404" lon="-2.35041">
        <ele>13</ele>
        <time>2020-10-08T09:32:10.000Z</time>
      </trkpt>
      <trkpt lat="47.32391" lon="-2.35043">
        <ele>13</ele>
        <time>2020-10-08T09:32:13.000Z</time>
      </trkpt>
      <trkpt lat="47.32382" lon="-2.35043">
        <ele>13</ele>
        <time>2020-10-08T09:32:15.000Z</time>
      </trkpt>
      <trkpt lat="47.32365" lon="-2.35044">
        <ele>13</ele>
        <time>2020-10-08T09:32:19.000Z</time>
      </trkpt>
      <trkpt lat="47.32357" lon="-2.35046">
        <ele>13</ele>
        <time>2020-10-08T09:32:21.000Z</time>
      </trkpt>
      <trkpt lat="47.32328" lon="-2.35047">
        <ele>13</ele>
        <time>2020-10-08T09:32:27.000Z</time>
      </trkpt>
      <trkpt lat="47.32297" lon="-2.35046">
        <ele>13</ele>
        <time>2020-10-08T09:32:33.000Z</time>
      </trkpt>
      <trkpt lat="47.32257" lon="-2.35048">
        <ele>13</ele>
        <time>2020-10-08T09:32:40.000Z</time>
      </trkpt>
      <trkpt lat="47.32226" lon="-2.35049">
        <ele>13</ele>
        <time>2020-10-08T09:32:46.000Z</time>
      </trkpt>
      <trkpt lat="47.322" lon="-2.35054">
        <ele>12</ele>
        <time>2020-10-08T09:32:51.000Z</time>
      </trkpt>
      <trkpt lat="47.32194" lon="-2.35055">
        <ele>11.60000038147</ele>
        <time>2020-10-08T09:32:52.000Z</time>
      </trkpt>
      <trkpt lat="47.32189" lon="-2.35056">
        <ele>11.199999809265</ele>
        <time>2020-10-08T09:32:53.000Z</time>
      </trkpt>
      <trkpt lat="47.32183" lon="-2.35056">
        <ele>10.800000190735</ele>
        <time>2020-10-08T09:32:54.000Z</time>
      </trkpt>
      <trkpt lat="47.32158" lon="-2.35059">
        <ele>10.800000190735</ele>
        <time>2020-10-08T09:32:58.000Z</time>
      </trkpt>
      <trkpt lat="47.32145" lon="-2.3506">
        <ele>10.800000190735</ele>
        <time>2020-10-08T09:33:00.000Z</time>
      </trkpt>
      <trkpt lat="47.32134" lon="-2.35059">
        <ele>10.800000190735</ele>
        <time>2020-10-08T09:33:02.000Z</time>
      </trkpt>
      <trkpt lat="47.32104" lon="-2.35059">
        <ele>10.800000190735</ele>
        <time>2020-10-08T09:33:07.000Z</time>
      </trkpt>
      <trkpt lat="47.32071" lon="-2.35059">
        <ele>10.800000190735</ele>
        <time>2020-10-08T09:33:13.000Z</time>
      </trkpt>
      <trkpt lat="47.32046" lon="-2.35056">
        <ele>10.800000190735</ele>
        <time>2020-10-08T09:33:18.000Z</time>
      </trkpt>
      <trkpt lat="47.32037" lon="-2.35066">
        <ele>10.800000190735</ele>
        <time>2020-10-08T09:33:21.000Z</time>
      </trkpt>
      <trkpt lat="47.32041" lon="-2.35081">
        <ele>10.800000190735</ele>
        <time>2020-10-08T09:33:24.000Z</time>
      </trkpt>
      <trkpt lat="47.32042" lon="-2.35086">
        <ele>10.800000190735</ele>
        <time>2020-10-08T09:33:25.000Z</time>
      </trkpt>
      <trkpt lat="47.32044" lon="-2.35108">
        <ele>10.800000190735</ele>
        <time>2020-10-08T09:33:29.000Z</time>
      </trkpt>
      <trkpt lat="47.32042" lon="-2.35113">
        <ele>10.800000190735</ele>
        <time>2020-10-08T09:33:30.000Z</time>
      </trkpt>
      <trkpt lat="47.32032" lon="-2.35124">
        <ele>10.800000190735</ele>
        <time>2020-10-08T09:33:33.000Z</time>
      </trkpt>
      <trkpt lat="47.32027" lon="-2.35128">
        <ele>10.800000190735</ele>
        <time>2020-10-08T09:33:34.000Z</time>
      </trkpt>
      <trkpt lat="47.32001" lon="-2.35152">
        <ele>10.800000190735</ele>
        <time>2020-10-08T09:33:40.000Z</time>
      </trkpt>
      <trkpt lat="47.31972" lon="-2.35178">
        <ele>10.800000190735</ele>
        <time>2020-10-08T09:33:46.000Z</time>
      </trkpt>
      <trkpt lat="47.31968" lon="-2.35184">
        <ele>10.800000190735</ele>
        <time>2020-10-08T09:33:47.000Z</time>
      </trkpt>
      <trkpt lat="47.31956" lon="-2.35199">
        <ele>10.800000190735</ele>
        <time>2020-10-08T09:33:50.000Z</time>
      </trkpt>
      <trkpt lat="47.31947" lon="-2.35207">
        <ele>10.800000190735</ele>
        <time>2020-10-08T09:33:52.000Z</time>
      </trkpt>
      <trkpt lat="47.31932" lon="-2.3522">
        <ele>10.800000190735</ele>
        <time>2020-10-08T09:33:55.000Z</time>
      </trkpt>
      <trkpt lat="47.31911" lon="-2.35241">
        <ele>10.800000190735</ele>
        <time>2020-10-08T09:34:00.000Z</time>
      </trkpt>
      <trkpt lat="47.31896" lon="-2.35254">
        <ele>10.800000190735</ele>
        <time>2020-10-08T09:34:03.000Z</time>
      </trkpt>
      <trkpt lat="47.31881" lon="-2.35266">
        <ele>10.800000190735</ele>
        <time>2020-10-08T09:34:06.000Z</time>
      </trkpt>
      <trkpt lat="47.31861" lon="-2.35281">
        <ele>11.199999809265</ele>
        <time>2020-10-08T09:34:10.000Z</time>
      </trkpt>
      <trkpt lat="47.31857" lon="-2.35285">
        <ele>11.800000190735</ele>
        <time>2020-10-08T09:34:11.000Z</time>
      </trkpt>
      <trkpt lat="47.31852" lon="-2.35288">
        <ele>12.199999809265</ele>
        <time>2020-10-08T09:34:12.000Z</time>
      </trkpt>
      <trkpt lat="47.31847" lon="-2.35292">
        <ele>12.60000038147</ele>
        <time>2020-10-08T09:34:13.000Z</time>
      </trkpt>
      <trkpt lat="47.31841" lon="-2.35294">
        <ele>13</ele>
        <time>2020-10-08T09:34:14.000Z</time>
      </trkpt>
      <trkpt lat="47.31831" lon="-2.35302">
        <ele>13</ele>
        <time>2020-10-08T09:34:16.000Z</time>
      </trkpt>
      <trkpt lat="47.31811" lon="-2.35314">
        <ele>13</ele>
        <time>2020-10-08T09:34:20.000Z</time>
      </trkpt>
      <trkpt lat="47.31802" lon="-2.3532">
        <ele>13</ele>
        <time>2020-10-08T09:34:22.000Z</time>
      </trkpt>
      <trkpt lat="47.31792" lon="-2.35326">
        <ele>13</ele>
        <time>2020-10-08T09:34:24.000Z</time>
      </trkpt>
      <trkpt lat="47.31788" lon="-2.35329">
        <ele>13.39999961853</ele>
        <time>2020-10-08T09:34:25.000Z</time>
      </trkpt>
      <trkpt lat="47.31784" lon="-2.35332">
        <ele>13.800000190735</ele>
        <time>2020-10-08T09:34:26.000Z</time>
      </trkpt>
      <trkpt lat="47.31779" lon="-2.35334">
        <ele>14.199999809265</ele>
        <time>2020-10-08T09:34:27.000Z</time>
      </trkpt>
      <trkpt lat="47.31775" lon="-2.35337">
        <ele>14.60000038147</ele>
        <time>2020-10-08T09:34:28.000Z</time>
      </trkpt>
      <trkpt lat="47.31771" lon="-2.35339">
        <ele>15.199999809265</ele>
        <time>2020-10-08T09:34:29.000Z</time>
      </trkpt>
      <trkpt lat="47.31768" lon="-2.35341">
        <ele>15.199999809265</ele>
        <time>2020-10-08T09:34:30.000Z</time>
      </trkpt>
      <trkpt lat="47.31758" lon="-2.35355">
        <ele>15.199999809265</ele>
        <time>2020-10-08T09:34:34.000Z</time>
      </trkpt>
      <trkpt lat="47.31759" lon="-2.3536">
        <ele>15.199999809265</ele>
        <time>2020-10-08T09:34:35.000Z</time>
      </trkpt>
      <trkpt lat="47.31765" lon="-2.35375">
        <ele>15.199999809265</ele>
        <time>2020-10-08T09:34:38.000Z</time>
      </trkpt>
      <trkpt lat="47.31768" lon="-2.3538">
        <ele>15.199999809265</ele>
        <time>2020-10-08T09:34:39.000Z</time>
      </trkpt>
      <trkpt lat="47.31783" lon="-2.35405">
        <ele>15.199999809265</ele>
        <time>2020-10-08T09:34:43.000Z</time>
      </trkpt>
      <trkpt lat="47.31787" lon="-2.35412">
        <ele>15.199999809265</ele>
        <time>2020-10-08T09:34:44.000Z</time>
      </trkpt>
      <trkpt lat="47.31806" lon="-2.35448">
        <ele>15.199999809265</ele>
        <time>2020-10-08T09:34:49.000Z</time>
      </trkpt>
      <trkpt lat="47.31823" lon="-2.35481">
        <ele>14.199999809265</ele>
        <time>2020-10-08T09:34:54.000Z</time>
      </trkpt>
      <trkpt lat="47.31825" lon="-2.35487">
        <ele>13.800000190735</ele>
        <time>2020-10-08T09:34:55.000Z</time>
      </trkpt>
      <trkpt lat="47.31828" lon="-2.35494">
        <ele>13.39999961853</ele>
        <time>2020-10-08T09:34:56.000Z</time>
      </trkpt>
      <trkpt lat="47.31831" lon="-2.35501">
        <ele>13</ele>
        <time>2020-10-08T09:34:57.000Z</time>
      </trkpt>
      <trkpt lat="47.31843" lon="-2.35532">
        <ele>13</ele>
        <time>2020-10-08T09:35:02.000Z</time>
      </trkpt>
      <trkpt lat="47.31843" lon="-2.35543">
        <ele>13</ele>
        <time>2020-10-08T09:35:04.000Z</time>
      </trkpt>
      <trkpt lat="47.31839" lon="-2.35546">
        <ele>13</ele>
        <time>2020-10-08T09:35:05.000Z</time>
      </trkpt>
      <trkpt lat="47.31828" lon="-2.35555">
        <ele>13</ele>
        <time>2020-10-08T09:35:08.000Z</time>
      </trkpt>
      <trkpt lat="47.3182" lon="-2.35564">
        <ele>13</ele>
        <time>2020-10-08T09:35:10.000Z</time>
      </trkpt>
      <trkpt lat="47.31806" lon="-2.35592">
        <ele>13</ele>
        <time>2020-10-08T09:35:15.000Z</time>
      </trkpt>
      <trkpt lat="47.31798" lon="-2.35609">
        <ele>13</ele>
        <time>2020-10-08T09:35:18.000Z</time>
      </trkpt>
      <trkpt lat="47.31793" lon="-2.35621">
        <ele>13</ele>
        <time>2020-10-08T09:35:20.000Z</time>
      </trkpt>
      <trkpt lat="47.31788" lon="-2.35644">
        <ele>13.39999961853</ele>
        <time>2020-10-08T09:35:24.000Z</time>
      </trkpt>
      <trkpt lat="47.31787" lon="-2.35649">
        <ele>13.800000190735</ele>
        <time>2020-10-08T09:35:25.000Z</time>
      </trkpt>
      <trkpt lat="47.31787" lon="-2.35654">
        <ele>14.199999809265</ele>
        <time>2020-10-08T09:35:26.000Z</time>
      </trkpt>
      <trkpt lat="47.31787" lon="-2.3566">
        <ele>14.60000038147</ele>
        <time>2020-10-08T09:35:27.000Z</time>
      </trkpt>
      <trkpt lat="47.31787" lon="-2.35665">
        <ele>15.199999809265</ele>
        <time>2020-10-08T09:35:28.000Z</time>
      </trkpt>
      <trkpt lat="47.31786" lon="-2.35682">
        <ele>15.199999809265</ele>
        <time>2020-10-08T09:35:31.000Z</time>
      </trkpt>
      <trkpt lat="47.31784" lon="-2.35711">
        <ele>15.199999809265</ele>
        <time>2020-10-08T09:35:36.000Z</time>
      </trkpt>
      <trkpt lat="47.31784" lon="-2.35722">
        <ele>15.60000038147</ele>
        <time>2020-10-08T09:35:38.000Z</time>
      </trkpt>
      <trkpt lat="47.31784" lon="-2.35728">
        <ele>16</ele>
        <time>2020-10-08T09:35:39.000Z</time>
      </trkpt>
      <trkpt lat="47.31783" lon="-2.35734">
        <ele>16.39999961853</ele>
        <time>2020-10-08T09:35:40.000Z</time>
      </trkpt>
      <trkpt lat="47.31783" lon="-2.35739">
        <ele>17</ele>
        <time>2020-10-08T09:35:41.000Z</time>
      </trkpt>
      <trkpt lat="47.31782" lon="-2.35746">
        <ele>17.39999961853</ele>
        <time>2020-10-08T09:35:42.000Z</time>
      </trkpt>
      <trkpt lat="47.31782" lon="-2.35752">
        <ele>17.39999961853</ele>
        <time>2020-10-08T09:35:43.000Z</time>
      </trkpt>
      <trkpt lat="47.31786" lon="-2.35781">
        <ele>17.39999961853</ele>
        <time>2020-10-08T09:35:48.000Z</time>
      </trkpt>
      <trkpt lat="47.31802" lon="-2.35806">
        <ele>17.39999961853</ele>
        <time>2020-10-08T09:35:53.000Z</time>
      </trkpt>
      <trkpt lat="47.31806" lon="-2.35812">
        <ele>17.39999961853</ele>
        <time>2020-10-08T09:35:54.000Z</time>
      </trkpt>
      <trkpt lat="47.31818" lon="-2.35838">
        <ele>17.39999961853</ele>
        <time>2020-10-08T09:35:59.000Z</time>
      </trkpt>
      <trkpt lat="47.31822" lon="-2.35853">
        <ele>17.39999961853</ele>
        <time>2020-10-08T09:36:03.000Z</time>
      </trkpt>
      <trkpt lat="47.31822" lon="-2.35854">
        <ele>17.39999961853</ele>
        <time>2020-10-08T09:36:04.000Z</time>
      </trkpt>
      <trkpt lat="47.31821" lon="-2.35863">
        <ele>17.39999961853</ele>
        <time>2020-10-08T09:36:23.000Z</time>
      </trkpt>
      <trkpt lat="47.3182" lon="-2.35866">
        <ele>17.39999961853</ele>
        <time>2020-10-08T09:36:24.000Z</time>
      </trkpt>
      <trkpt lat="47.31819" lon="-2.35869">
        <ele>17.39999961853</ele>
        <time>2020-10-08T09:36:27.000Z</time>
      </trkpt>
      <trkpt lat="47.31818" lon="-2.35871">
        <ele>17.39999961853</ele>
        <time>2020-10-08T09:36:38.000Z</time>
      </trkpt>
      <trkpt lat="47.31806" lon="-2.35882">
        <ele>17.39999961853</ele>
        <time>2020-10-08T09:36:43.000Z</time>
      </trkpt>
      <trkpt lat="47.31785" lon="-2.35895">
        <ele>17.39999961853</ele>
        <time>2020-10-08T09:36:49.000Z</time>
      </trkpt>
      <trkpt lat="47.31767" lon="-2.35906">
        <ele>17.39999961853</ele>
        <time>2020-10-08T09:36:54.000Z</time>
      </trkpt>
      <trkpt lat="47.31755" lon="-2.35912">
        <ele>17.799999237061</ele>
        <time>2020-10-08T09:36:57.000Z</time>
      </trkpt>
      <trkpt lat="47.31751" lon="-2.35914">
        <ele>18.200000762939</ele>
        <time>2020-10-08T09:36:58.000Z</time>
      </trkpt>
      <trkpt lat="47.31747" lon="-2.35917">
        <ele>18.60000038147</ele>
        <time>2020-10-08T09:36:59.000Z</time>
      </trkpt>
      <trkpt lat="47.31743" lon="-2.3592">
        <ele>19</ele>
        <time>2020-10-08T09:37:00.000Z</time>
      </trkpt>
      <trkpt lat="47.31739" lon="-2.35923">
        <ele>19.39999961853</ele>
        <time>2020-10-08T09:37:01.000Z</time>
      </trkpt>
      <trkpt lat="47.31719" lon="-2.35936">
        <ele>19.799999237061</ele>
        <time>2020-10-08T09:37:06.000Z</time>
      </trkpt>
      <trkpt lat="47.31714" lon="-2.35938">
        <ele>20.39999961853</ele>
        <time>2020-10-08T09:37:07.000Z</time>
      </trkpt>
      <trkpt lat="47.3171" lon="-2.3594">
        <ele>20.799999237061</ele>
        <time>2020-10-08T09:37:08.000Z</time>
      </trkpt>
      <trkpt lat="47.31707" lon="-2.35942">
        <ele>21.200000762939</ele>
        <time>2020-10-08T09:37:09.000Z</time>
      </trkpt>
      <trkpt lat="47.31703" lon="-2.35945">
        <ele>21.60000038147</ele>
        <time>2020-10-08T09:37:10.000Z</time>
      </trkpt>
      <trkpt lat="47.31688" lon="-2.35952">
        <ele>21.60000038147</ele>
        <time>2020-10-08T09:37:14.000Z</time>
      </trkpt>
      <trkpt lat="47.31662" lon="-2.35966">
        <ele>21.60000038147</ele>
        <time>2020-10-08T09:37:21.000Z</time>
      </trkpt>
      <trkpt lat="47.31639" lon="-2.35987">
        <ele>21.60000038147</ele>
        <time>2020-10-08T09:37:28.000Z</time>
      </trkpt>
      <trkpt lat="47.31611" lon="-2.36018">
        <ele>21.60000038147</ele>
        <time>2020-10-08T09:37:36.000Z</time>
      </trkpt>
      <trkpt lat="47.31604" lon="-2.36026">
        <ele>22</ele>
        <time>2020-10-08T09:37:38.000Z</time>
      </trkpt>
      <trkpt lat="47.316" lon="-2.3603">
        <ele>22.39999961853</ele>
        <time>2020-10-08T09:37:39.000Z</time>
      </trkpt>
      <trkpt lat="47.31597" lon="-2.36033">
        <ele>22.799999237061</ele>
        <time>2020-10-08T09:37:40.000Z</time>
      </trkpt>
      <trkpt lat="47.31593" lon="-2.36037">
        <ele>23.200000762939</ele>
        <time>2020-10-08T09:37:41.000Z</time>
      </trkpt>
      <trkpt lat="47.31589" lon="-2.3604">
        <ele>23.60000038147</ele>
        <time>2020-10-08T09:37:42.000Z</time>
      </trkpt>
      <trkpt lat="47.31568" lon="-2.36061">
        <ele>23.60000038147</ele>
        <time>2020-10-08T09:37:48.000Z</time>
      </trkpt>
      <trkpt lat="47.31549" lon="-2.36078">
        <ele>23.60000038147</ele>
        <time>2020-10-08T09:37:53.000Z</time>
      </trkpt>
      <trkpt lat="47.3154" lon="-2.3609">
        <ele>24</ele>
        <time>2020-10-08T09:37:56.000Z</time>
      </trkpt>
      <trkpt lat="47.31536" lon="-2.36094">
        <ele>24.39999961853</ele>
        <time>2020-10-08T09:37:57.000Z</time>
      </trkpt>
      <trkpt lat="47.31533" lon="-2.36098">
        <ele>24.799999237061</ele>
        <time>2020-10-08T09:37:58.000Z</time>
      </trkpt>
      <trkpt lat="47.31529" lon="-2.36101">
        <ele>25.39999961853</ele>
        <time>2020-10-08T09:37:59.000Z</time>
      </trkpt>
      <trkpt lat="47.31526" lon="-2.36105">
        <ele>25.799999237061</ele>
        <time>2020-10-08T09:38:00.000Z</time>
      </trkpt>
      <trkpt lat="47.31508" lon="-2.36126">
        <ele>25.799999237061</ele>
        <time>2020-10-08T09:38:05.000Z</time>
      </trkpt>
      <trkpt lat="47.31491" lon="-2.36144">
        <ele>25.799999237061</ele>
        <time>2020-10-08T09:38:10.000Z</time>
      </trkpt>
      <trkpt lat="47.31474" lon="-2.36161">
        <ele>25.799999237061</ele>
        <time>2020-10-08T09:38:16.000Z</time>
      </trkpt>
      <trkpt lat="47.31465" lon="-2.36167">
        <ele>25.799999237061</ele>
        <time>2020-10-08T09:38:22.000Z</time>
      </trkpt>
      <trkpt lat="47.31464" lon="-2.36167">
        <ele>25.799999237061</ele>
        <time>2020-10-08T09:38:23.000Z</time>
      </trkpt>
      <trkpt lat="47.31462" lon="-2.36165">
        <ele>25.799999237061</ele>
        <time>2020-10-08T09:40:18.000Z</time>
      </trkpt>
      <trkpt lat="47.3146" lon="-2.36158">
        <ele>25.799999237061</ele>
        <time>2020-10-08T09:40:20.000Z</time>
      </trkpt>
      <trkpt lat="47.31456" lon="-2.36138">
        <ele>25.799999237061</ele>
        <time>2020-10-08T09:40:25.000Z</time>
      </trkpt>
      <trkpt lat="47.31447" lon="-2.36113">
        <ele>25.799999237061</ele>
        <time>2020-10-08T09:40:30.000Z</time>
      </trkpt>
      <trkpt lat="47.31434" lon="-2.36075">
        <ele>25.799999237061</ele>
        <time>2020-10-08T09:40:36.000Z</time>
      </trkpt>
      <trkpt lat="47.31427" lon="-2.36053">
        <ele>25.799999237061</ele>
        <time>2020-10-08T09:40:39.000Z</time>
      </trkpt>
      <trkpt lat="47.31425" lon="-2.36045">
        <ele>25.39999961853</ele>
        <time>2020-10-08T09:40:40.000Z</time>
      </trkpt>
      <trkpt lat="47.31422" lon="-2.36038">
        <ele>24.799999237061</ele>
        <time>2020-10-08T09:40:41.000Z</time>
      </trkpt>
      <trkpt lat="47.31419" lon="-2.36031">
        <ele>24.39999961853</ele>
        <time>2020-10-08T09:40:42.000Z</time>
      </trkpt>
      <trkpt lat="47.31416" lon="-2.36023">
        <ele>24</ele>
        <time>2020-10-08T09:40:43.000Z</time>
      </trkpt>
      <trkpt lat="47.31413" lon="-2.36015">
        <ele>23.60000038147</ele>
        <time>2020-10-08T09:40:44.000Z</time>
      </trkpt>
      <trkpt lat="47.31407" lon="-2.36">
        <ele>23.200000762939</ele>
        <time>2020-10-08T09:40:46.000Z</time>
      </trkpt>
      <trkpt lat="47.31404" lon="-2.35992">
        <ele>22.799999237061</ele>
        <time>2020-10-08T09:40:47.000Z</time>
      </trkpt>
      <trkpt lat="47.31402" lon="-2.35983">
        <ele>22.39999961853</ele>
        <time>2020-10-08T09:40:48.000Z</time>
      </trkpt>
      <trkpt lat="47.31399" lon="-2.35975">
        <ele>22</ele>
        <time>2020-10-08T09:40:49.000Z</time>
      </trkpt>
      <trkpt lat="47.31396" lon="-2.35967">
        <ele>21.60000038147</ele>
        <time>2020-10-08T09:40:50.000Z</time>
      </trkpt>
      <trkpt lat="47.31392" lon="-2.35957">
        <ele>21.60000038147</ele>
        <time>2020-10-08T09:40:51.000Z</time>
      </trkpt>
      <trkpt lat="47.31381" lon="-2.3594">
        <ele>21.60000038147</ele>
        <time>2020-10-08T09:40:53.000Z</time>
      </trkpt>
      <trkpt lat="47.31361" lon="-2.35902">
        <ele>21.60000038147</ele>
        <time>2020-10-08T09:40:58.000Z</time>
      </trkpt>
      <trkpt lat="47.31355" lon="-2.35886">
        <ele>21.60000038147</ele>
        <time>2020-10-08T09:41:00.000Z</time>
      </trkpt>
      <trkpt lat="47.31349" lon="-2.35872">
        <ele>21.60000038147</ele>
        <time>2020-10-08T09:41:02.000Z</time>
      </trkpt>
      <trkpt lat="47.31341" lon="-2.35837">
        <ele>21.60000038147</ele>
        <time>2020-10-08T09:41:07.000Z</time>
      </trkpt>
      <trkpt lat="47.31336" lon="-2.35789">
        <ele>21.60000038147</ele>
        <time>2020-10-08T09:41:13.000Z</time>
      </trkpt>
      <trkpt lat="47.31333" lon="-2.35756">
        <ele>21.60000038147</ele>
        <time>2020-10-08T09:41:17.000Z</time>
      </trkpt>
      <trkpt lat="47.31332" lon="-2.35749">
        <ele>21.60000038147</ele>
        <time>2020-10-08T09:41:18.000Z</time>
      </trkpt>
      <trkpt lat="47.31332" lon="-2.35699">
        <ele>21.60000038147</ele>
        <time>2020-10-08T09:41:24.000Z</time>
      </trkpt>
      <trkpt lat="47.31332" lon="-2.35683">
        <ele>21.60000038147</ele>
        <time>2020-10-08T09:41:26.000Z</time>
      </trkpt>
      <trkpt lat="47.31332" lon="-2.35658">
        <ele>21.60000038147</ele>
        <time>2020-10-08T09:41:29.000Z</time>
      </trkpt>
      <trkpt lat="47.31331" lon="-2.35622">
        <ele>21.60000038147</ele>
        <time>2020-10-08T09:41:33.000Z</time>
      </trkpt>
      <trkpt lat="47.31328" lon="-2.35596">
        <ele>21.60000038147</ele>
        <time>2020-10-08T09:41:36.000Z</time>
      </trkpt>
      <trkpt lat="47.31327" lon="-2.35579">
        <ele>21.60000038147</ele>
        <time>2020-10-08T09:41:38.000Z</time>
      </trkpt>
      <trkpt lat="47.31329" lon="-2.35553">
        <ele>21.60000038147</ele>
        <time>2020-10-08T09:41:41.000Z</time>
      </trkpt>
      <trkpt lat="47.3133" lon="-2.35544">
        <ele>21.60000038147</ele>
        <time>2020-10-08T09:41:42.000Z</time>
      </trkpt>
      <trkpt lat="47.31332" lon="-2.35516">
        <ele>21.60000038147</ele>
        <time>2020-10-08T09:41:45.000Z</time>
      </trkpt>
      <trkpt lat="47.31332" lon="-2.35506">
        <ele>21.60000038147</ele>
        <time>2020-10-08T09:41:46.000Z</time>
      </trkpt>
      <trkpt lat="47.31334" lon="-2.35438">
        <ele>21.60000038147</ele>
        <time>2020-10-08T09:41:53.000Z</time>
      </trkpt>
      <trkpt lat="47.31336" lon="-2.35378">
        <ele>21.60000038147</ele>
        <time>2020-10-08T09:41:59.000Z</time>
      </trkpt>
      <trkpt lat="47.31339" lon="-2.35324">
        <ele>21.60000038147</ele>
        <time>2020-10-08T09:42:04.000Z</time>
      </trkpt>
      <trkpt lat="47.31341" lon="-2.35238">
        <ele>21.60000038147</ele>
        <time>2020-10-08T09:42:12.000Z</time>
      </trkpt>
      <trkpt lat="47.31342" lon="-2.35165">
        <ele>21.60000038147</ele>
        <time>2020-10-08T09:42:19.000Z</time>
      </trkpt>
      <trkpt lat="47.31344" lon="-2.35094">
        <ele>21.60000038147</ele>
        <time>2020-10-08T09:42:26.000Z</time>
      </trkpt>
      <trkpt lat="47.31344" lon="-2.35026">
        <ele>21.60000038147</ele>
        <time>2020-10-08T09:42:33.000Z</time>
      </trkpt>
      <trkpt lat="47.31341" lon="-2.34998">
        <ele>21.60000038147</ele>
        <time>2020-10-08T09:42:36.000Z</time>
      </trkpt>
      <trkpt lat="47.31336" lon="-2.3497">
        <ele>21.60000038147</ele>
        <time>2020-10-08T09:42:39.000Z</time>
      </trkpt>
      <trkpt lat="47.31331" lon="-2.34952">
        <ele>21.60000038147</ele>
        <time>2020-10-08T09:42:41.000Z</time>
      </trkpt>
      <trkpt lat="47.31324" lon="-2.34929">
        <ele>21.60000038147</ele>
        <time>2020-10-08T09:42:44.000Z</time>
      </trkpt>
      <trkpt lat="47.31311" lon="-2.34878">
        <ele>21.60000038147</ele>
        <time>2020-10-08T09:42:51.000Z</time>
      </trkpt>
      <trkpt lat="47.31301" lon="-2.34834">
        <ele>21.60000038147</ele>
        <time>2020-10-08T09:42:57.000Z</time>
      </trkpt>
      <trkpt lat="47.31288" lon="-2.34779">
        <ele>21.60000038147</ele>
        <time>2020-10-08T09:43:04.000Z</time>
      </trkpt>
      <trkpt lat="47.31279" lon="-2.34716">
        <ele>21.60000038147</ele>
        <time>2020-10-08T09:43:12.000Z</time>
      </trkpt>
      <trkpt lat="47.31278" lon="-2.34703">
        <ele>21.60000038147</ele>
        <time>2020-10-08T09:43:14.000Z</time>
      </trkpt>
      <trkpt lat="47.3128" lon="-2.34691">
        <ele>21.60000038147</ele>
        <time>2020-10-08T09:43:16.000Z</time>
      </trkpt>
      <trkpt lat="47.31291" lon="-2.34665">
        <ele>21.60000038147</ele>
        <time>2020-10-08T09:43:20.000Z</time>
      </trkpt>
      <trkpt lat="47.31293" lon="-2.34658">
        <ele>21.60000038147</ele>
        <time>2020-10-08T09:43:21.000Z</time>
      </trkpt>
      <trkpt lat="47.31293" lon="-2.34649">
        <ele>21.200000762939</ele>
        <time>2020-10-08T09:43:22.000Z</time>
      </trkpt>
      <trkpt lat="47.31293" lon="-2.3464">
        <ele>20.799999237061</ele>
        <time>2020-10-08T09:43:23.000Z</time>
      </trkpt>
      <trkpt lat="47.31292" lon="-2.34631">
        <ele>20.39999961853</ele>
        <time>2020-10-08T09:43:24.000Z</time>
      </trkpt>
      <trkpt lat="47.31291" lon="-2.34622">
        <ele>20</ele>
        <time>2020-10-08T09:43:25.000Z</time>
      </trkpt>
      <trkpt lat="47.3129" lon="-2.34612">
        <ele>19.60000038147</ele>
        <time>2020-10-08T09:43:26.000Z</time>
      </trkpt>
      <trkpt lat="47.31287" lon="-2.34592">
        <ele>19.60000038147</ele>
        <time>2020-10-08T09:43:28.000Z</time>
      </trkpt>
      <trkpt lat="47.31281" lon="-2.34538">
        <ele>19.60000038147</ele>
        <time>2020-10-08T09:43:33.000Z</time>
      </trkpt>
      <trkpt lat="47.31278" lon="-2.34506">
        <ele>19</ele>
        <time>2020-10-08T09:43:36.000Z</time>
      </trkpt>
      <trkpt lat="47.31277" lon="-2.34495">
        <ele>18.60000038147</ele>
        <time>2020-10-08T09:43:37.000Z</time>
      </trkpt>
      <trkpt lat="47.31276" lon="-2.34485">
        <ele>18.200000762939</ele>
        <time>2020-10-08T09:43:38.000Z</time>
      </trkpt>
      <trkpt lat="47.31275" lon="-2.34475">
        <ele>17.60000038147</ele>
        <time>2020-10-08T09:43:39.000Z</time>
      </trkpt>
      <trkpt lat="47.31274" lon="-2.34464">
        <ele>17</ele>
        <time>2020-10-08T09:43:40.000Z</time>
      </trkpt>
      <trkpt lat="47.31273" lon="-2.34453">
        <ele>16.39999961853</ele>
        <time>2020-10-08T09:43:41.000Z</time>
      </trkpt>
      <trkpt lat="47.31271" lon="-2.34441">
        <ele>15.800000190735</ele>
        <time>2020-10-08T09:43:42.000Z</time>
      </trkpt>
      <trkpt lat="47.3127" lon="-2.34429">
        <ele>15</ele>
        <time>2020-10-08T09:43:43.000Z</time>
      </trkpt>
      <trkpt lat="47.31267" lon="-2.34405">
        <ele>15</ele>
        <time>2020-10-08T09:43:45.000Z</time>
      </trkpt>
      <trkpt lat="47.31263" lon="-2.3438">
        <ele>15</ele>
        <time>2020-10-08T09:43:47.000Z</time>
      </trkpt>
      <trkpt lat="47.31253" lon="-2.34358">
        <ele>15</ele>
        <time>2020-10-08T09:43:49.000Z</time>
      </trkpt>
      <trkpt lat="47.31233" lon="-2.34341">
        <ele>15</ele>
        <time>2020-10-08T09:43:52.000Z</time>
      </trkpt>
      <trkpt lat="47.31217" lon="-2.34334">
        <ele>15</ele>
        <time>2020-10-08T09:43:54.000Z</time>
      </trkpt>
      <trkpt lat="47.31203" lon="-2.34324">
        <ele>14.60000038147</ele>
        <time>2020-10-08T09:43:56.000Z</time>
      </trkpt>
      <trkpt lat="47.31196" lon="-2.34317">
        <ele>14.199999809265</ele>
        <time>2020-10-08T09:43:57.000Z</time>
      </trkpt>
      <trkpt lat="47.31191" lon="-2.34308">
        <ele>13.199999809265</ele>
        <time>2020-10-08T09:43:58.000Z</time>
      </trkpt>
      <trkpt lat="47.31185" lon="-2.34299">
        <ele>12.800000190735</ele>
        <time>2020-10-08T09:43:59.000Z</time>
      </trkpt>
      <trkpt lat="47.31181" lon="-2.34289">
        <ele>12.39999961853</ele>
        <time>2020-10-08T09:44:00.000Z</time>
      </trkpt>
      <trkpt lat="47.31177" lon="-2.3428">
        <ele>12</ele>
        <time>2020-10-08T09:44:01.000Z</time>
      </trkpt>
      <trkpt lat="47.31173" lon="-2.34271">
        <ele>11.60000038147</ele>
        <time>2020-10-08T09:44:02.000Z</time>
      </trkpt>
      <trkpt lat="47.31168" lon="-2.34262">
        <ele>11</ele>
        <time>2020-10-08T09:44:03.000Z</time>
      </trkpt>
      <trkpt lat="47.31164" lon="-2.34253">
        <ele>10.60000038147</ele>
        <time>2020-10-08T09:44:04.000Z</time>
      </trkpt>
      <trkpt lat="47.31152" lon="-2.34229">
        <ele>10.60000038147</ele>
        <time>2020-10-08T09:44:07.000Z</time>
      </trkpt>
      <trkpt lat="47.31123" lon="-2.34176">
        <ele>10.60000038147</ele>
        <time>2020-10-08T09:44:14.000Z</time>
      </trkpt>
      <trkpt lat="47.31119" lon="-2.34168">
        <ele>11</ele>
        <time>2020-10-08T09:44:15.000Z</time>
      </trkpt>
      <trkpt lat="47.31114" lon="-2.34161">
        <ele>11.60000038147</ele>
        <time>2020-10-08T09:44:16.000Z</time>
      </trkpt>
      <trkpt lat="47.3111" lon="-2.34153">
        <ele>12</ele>
        <time>2020-10-08T09:44:17.000Z</time>
      </trkpt>
      <trkpt lat="47.31106" lon="-2.34144">
        <ele>12.39999961853</ele>
        <time>2020-10-08T09:44:18.000Z</time>
      </trkpt>
      <trkpt lat="47.31103" lon="-2.34136">
        <ele>12.800000190735</ele>
        <time>2020-10-08T09:44:19.000Z</time>
      </trkpt>
      <trkpt lat="47.3109" lon="-2.34112">
        <ele>13.39999961853</ele>
        <time>2020-10-08T09:44:22.000Z</time>
      </trkpt>
      <trkpt lat="47.31085" lon="-2.34105">
        <ele>14.39999961853</ele>
        <time>2020-10-08T09:44:23.000Z</time>
      </trkpt>
      <trkpt lat="47.31081" lon="-2.34097">
        <ele>14.800000190735</ele>
        <time>2020-10-08T09:44:24.000Z</time>
      </trkpt>
      <trkpt lat="47.31078" lon="-2.34089">
        <ele>15.199999809265</ele>
        <time>2020-10-08T09:44:25.000Z</time>
      </trkpt>
      <trkpt lat="47.31069" lon="-2.34061">
        <ele>15.800000190735</ele>
        <time>2020-10-08T09:44:28.000Z</time>
      </trkpt>
      <trkpt lat="47.31067" lon="-2.34052">
        <ele>16.200000762939</ele>
        <time>2020-10-08T09:44:29.000Z</time>
      </trkpt>
      <trkpt lat="47.31065" lon="-2.34042">
        <ele>16.60000038147</ele>
        <time>2020-10-08T09:44:30.000Z</time>
      </trkpt>
      <trkpt lat="47.31064" lon="-2.34032">
        <ele>17.200000762939</ele>
        <time>2020-10-08T09:44:31.000Z</time>
      </trkpt>
      <trkpt lat="47.31063" lon="-2.34023">
        <ele>17.60000038147</ele>
        <time>2020-10-08T09:44:32.000Z</time>
      </trkpt>
      <trkpt lat="47.31061" lon="-2.34003">
        <ele>18</ele>
        <time>2020-10-08T09:44:34.000Z</time>
      </trkpt>
      <trkpt lat="47.31061" lon="-2.33994">
        <ele>18.39999961853</ele>
        <time>2020-10-08T09:44:35.000Z</time>
      </trkpt>
      <trkpt lat="47.3106" lon="-2.33984">
        <ele>18.799999237061</ele>
        <time>2020-10-08T09:44:36.000Z</time>
      </trkpt>
      <trkpt lat="47.3106" lon="-2.33974">
        <ele>19.200000762939</ele>
        <time>2020-10-08T09:44:37.000Z</time>
      </trkpt>
      <trkpt lat="47.3106" lon="-2.33964">
        <ele>19.799999237061</ele>
        <time>2020-10-08T09:44:38.000Z</time>
      </trkpt>
      <trkpt lat="47.31059" lon="-2.33955">
        <ele>19.799999237061</ele>
        <time>2020-10-08T09:44:39.000Z</time>
      </trkpt>
      <trkpt lat="47.31055" lon="-2.33948">
        <ele>19.799999237061</ele>
        <time>2020-10-08T09:44:40.000Z</time>
      </trkpt>
      <trkpt lat="47.31043" lon="-2.33944">
        <ele>19.799999237061</ele>
        <time>2020-10-08T09:44:42.000Z</time>
      </trkpt>
      <trkpt lat="47.31029" lon="-2.33948">
        <ele>19.799999237061</ele>
        <time>2020-10-08T09:44:45.000Z</time>
      </trkpt>
      <trkpt lat="47.31025" lon="-2.33949">
        <ele>19.799999237061</ele>
        <time>2020-10-08T09:44:46.000Z</time>
      </trkpt>
      <trkpt lat="47.31007" lon="-2.33951">
        <ele>19.799999237061</ele>
        <time>2020-10-08T09:44:51.000Z</time>
      </trkpt>
      <trkpt lat="47.30997" lon="-2.33951">
        <ele>20.200000762939</ele>
        <time>2020-10-08T09:44:54.000Z</time>
      </trkpt>
      <trkpt lat="47.30993" lon="-2.33951">
        <ele>20.60000038147</ele>
        <time>2020-10-08T09:44:55.000Z</time>
      </trkpt>
      <trkpt lat="47.3099" lon="-2.33951">
        <ele>21</ele>
        <time>2020-10-08T09:44:56.000Z</time>
      </trkpt>
      <trkpt lat="47.30987" lon="-2.33952">
        <ele>21.39999961853</ele>
        <time>2020-10-08T09:44:57.000Z</time>
      </trkpt>
      <trkpt lat="47.30984" lon="-2.33953">
        <ele>21.799999237061</ele>
        <time>2020-10-08T09:44:58.000Z</time>
      </trkpt>
      <trkpt lat="47.30963" lon="-2.33952">
        <ele>21.799999237061</ele>
        <time>2020-10-08T09:45:04.000Z</time>
      </trkpt>
      <trkpt lat="47.30941" lon="-2.33948">
        <ele>21.799999237061</ele>
        <time>2020-10-08T09:45:10.000Z</time>
      </trkpt>
      <trkpt lat="47.30913" lon="-2.33944">
        <ele>21.799999237061</ele>
        <time>2020-10-08T09:45:16.000Z</time>
      </trkpt>
      <trkpt lat="47.30871" lon="-2.33947">
        <ele>21.799999237061</ele>
        <time>2020-10-08T09:45:24.000Z</time>
      </trkpt>
      <trkpt lat="47.30834" lon="-2.33953">
        <ele>21.799999237061</ele>
        <time>2020-10-08T09:45:31.000Z</time>
      </trkpt>
      <trkpt lat="47.30801" lon="-2.33962">
        <ele>21.799999237061</ele>
        <time>2020-10-08T09:45:38.000Z</time>
      </trkpt>
      <trkpt lat="47.30792" lon="-2.33964">
        <ele>21.799999237061</ele>
        <time>2020-10-08T09:45:40.000Z</time>
      </trkpt>
      <trkpt lat="47.3078" lon="-2.33971">
        <ele>21.799999237061</ele>
        <time>2020-10-08T09:45:43.000Z</time>
      </trkpt>
      <trkpt lat="47.30778" lon="-2.33989">
        <ele>21.799999237061</ele>
        <time>2020-10-08T09:45:46.000Z</time>
      </trkpt>
      <trkpt lat="47.30779" lon="-2.34002">
        <ele>21.799999237061</ele>
        <time>2020-10-08T09:45:48.000Z</time>
      </trkpt>
      <trkpt lat="47.30778" lon="-2.34024">
        <ele>21.799999237061</ele>
        <time>2020-10-08T09:45:51.000Z</time>
      </trkpt>
      <trkpt lat="47.30778" lon="-2.34039">
        <ele>21.799999237061</ele>
        <time>2020-10-08T09:45:53.000Z</time>
      </trkpt>
      <trkpt lat="47.30778" lon="-2.34061">
        <ele>21.799999237061</ele>
        <time>2020-10-08T09:45:56.000Z</time>
      </trkpt>
      <trkpt lat="47.30775" lon="-2.34107">
        <ele>21.799999237061</ele>
        <time>2020-10-08T09:46:02.000Z</time>
      </trkpt>
      <trkpt lat="47.30773" lon="-2.34147">
        <ele>21.799999237061</ele>
        <time>2020-10-08T09:46:07.000Z</time>
      </trkpt>
      <trkpt lat="47.30767" lon="-2.34204">
        <ele>21.799999237061</ele>
        <time>2020-10-08T09:46:14.000Z</time>
      </trkpt>
      <trkpt lat="47.30753" lon="-2.34211">
        <ele>22.200000762939</ele>
        <time>2020-10-08T09:46:17.000Z</time>
      </trkpt>
      <trkpt lat="47.30748" lon="-2.34212">
        <ele>22.799999237061</ele>
        <time>2020-10-08T09:46:18.000Z</time>
      </trkpt>
      <trkpt lat="47.30742" lon="-2.34214">
        <ele>23.200000762939</ele>
        <time>2020-10-08T09:46:19.000Z</time>
      </trkpt>
      <trkpt lat="47.30737" lon="-2.34215">
        <ele>23.60000038147</ele>
        <time>2020-10-08T09:46:20.000Z</time>
      </trkpt>
      <trkpt lat="47.30733" lon="-2.34217">
        <ele>24</ele>
        <time>2020-10-08T09:46:21.000Z</time>
      </trkpt>
      <trkpt lat="47.30732" lon="-2.34223">
        <ele>24</ele>
        <time>2020-10-08T09:46:22.000Z</time>
      </trkpt>
      <trkpt lat="47.30731" lon="-2.34242">
        <ele>24</ele>
        <time>2020-10-08T09:46:25.000Z</time>
      </trkpt>
      <trkpt lat="47.30731" lon="-2.34249">
        <ele>24</ele>
        <time>2020-10-08T09:46:26.000Z</time>
      </trkpt>
      <trkpt lat="47.3073" lon="-2.34255">
        <ele>24</ele>
        <time>2020-10-08T09:46:27.000Z</time>
      </trkpt>
      <trkpt lat="47.30724" lon="-2.34274">
        <ele>24</ele>
        <time>2020-10-08T09:46:30.000Z</time>
      </trkpt>
      <trkpt lat="47.30718" lon="-2.34286">
        <ele>24</ele>
        <time>2020-10-08T09:46:32.000Z</time>
      </trkpt>
      <trkpt lat="47.30707" lon="-2.34309">
        <ele>24</ele>
        <time>2020-10-08T09:46:36.000Z</time>
      </trkpt>
      <trkpt lat="47.30701" lon="-2.34321">
        <ele>24</ele>
        <time>2020-10-08T09:46:38.000Z</time>
      </trkpt>
      <trkpt lat="47.30688" lon="-2.34345">
        <ele>24</ele>
        <time>2020-10-08T09:46:42.000Z</time>
      </trkpt>
      <trkpt lat="47.30661" lon="-2.34391">
        <ele>24</ele>
        <time>2020-10-08T09:46:49.000Z</time>
      </trkpt>
      <trkpt lat="47.30657" lon="-2.34396">
        <ele>24</ele>
        <time>2020-10-08T09:46:50.000Z</time>
      </trkpt>
      <trkpt lat="47.30644" lon="-2.34413">
        <ele>24</ele>
        <time>2020-10-08T09:46:53.000Z</time>
      </trkpt>
      <trkpt lat="47.30612" lon="-2.34458">
        <ele>24</ele>
        <time>2020-10-08T09:47:00.000Z</time>
      </trkpt>
      <trkpt lat="47.30583" lon="-2.34512">
        <ele>24</ele>
        <time>2020-10-08T09:47:07.000Z</time>
      </trkpt>
      <trkpt lat="47.30558" lon="-2.34556">
        <ele>24</ele>
        <time>2020-10-08T09:47:13.000Z</time>
      </trkpt>
      <trkpt lat="47.30532" lon="-2.34593">
        <ele>24</ele>
        <time>2020-10-08T09:47:18.000Z</time>
      </trkpt>
      <trkpt lat="47.3051" lon="-2.34619">
        <ele>24</ele>
        <time>2020-10-08T09:47:22.000Z</time>
      </trkpt>
      <trkpt lat="47.30506" lon="-2.34627">
        <ele>24</ele>
        <time>2020-10-08T09:47:23.000Z</time>
      </trkpt>
      <trkpt lat="47.30487" lon="-2.34654">
        <ele>24</ele>
        <time>2020-10-08T09:47:27.000Z</time>
      </trkpt>
      <trkpt lat="47.30476" lon="-2.34666">
        <ele>24</ele>
        <time>2020-10-08T09:47:29.000Z</time>
      </trkpt>
      <trkpt lat="47.30449" lon="-2.34691">
        <ele>24</ele>
        <time>2020-10-08T09:47:34.000Z</time>
      </trkpt>
      <trkpt lat="47.3044" lon="-2.34699">
        <ele>24</ele>
        <time>2020-10-08T09:47:36.000Z</time>
      </trkpt>
      <trkpt lat="47.30426" lon="-2.34715">
        <ele>24</ele>
        <time>2020-10-08T09:47:39.000Z</time>
      </trkpt>
      <trkpt lat="47.3042" lon="-2.34719">
        <ele>24</ele>
        <time>2020-10-08T09:47:40.000Z</time>
      </trkpt>
      <trkpt lat="47.30405" lon="-2.3473">
        <ele>24</ele>
        <time>2020-10-08T09:47:43.000Z</time>
      </trkpt>
      <trkpt lat="47.30395" lon="-2.34737">
        <ele>24</ele>
        <time>2020-10-08T09:47:45.000Z</time>
      </trkpt>
      <trkpt lat="47.30375" lon="-2.3475">
        <ele>24</ele>
        <time>2020-10-08T09:47:49.000Z</time>
      </trkpt>
      <trkpt lat="47.30344" lon="-2.34772">
        <ele>24</ele>
        <time>2020-10-08T09:47:55.000Z</time>
      </trkpt>
      <trkpt lat="47.30328" lon="-2.34798">
        <ele>24</ele>
        <time>2020-10-08T09:47:59.000Z</time>
      </trkpt>
      <trkpt lat="47.3032" lon="-2.34813">
        <ele>24</ele>
        <time>2020-10-08T09:48:01.000Z</time>
      </trkpt>
      <trkpt lat="47.30306" lon="-2.34832">
        <ele>24</ele>
        <time>2020-10-08T09:48:04.000Z</time>
      </trkpt>
      <trkpt lat="47.30296" lon="-2.34844">
        <ele>24</ele>
        <time>2020-10-08T09:48:06.000Z</time>
      </trkpt>
      <trkpt lat="47.30279" lon="-2.34855">
        <ele>24</ele>
        <time>2020-10-08T09:48:09.000Z</time>
      </trkpt>
      <trkpt lat="47.30273" lon="-2.34857">
        <ele>23.60000038147</ele>
        <time>2020-10-08T09:48:10.000Z</time>
      </trkpt>
      <trkpt lat="47.30267" lon="-2.34861">
        <ele>23.200000762939</ele>
        <time>2020-10-08T09:48:11.000Z</time>
      </trkpt>
      <trkpt lat="47.30261" lon="-2.34864">
        <ele>22.799999237061</ele>
        <time>2020-10-08T09:48:12.000Z</time>
      </trkpt>
      <trkpt lat="47.30255" lon="-2.34868">
        <ele>22.39999961853</ele>
        <time>2020-10-08T09:48:13.000Z</time>
      </trkpt>
      <trkpt lat="47.30249" lon="-2.34871">
        <ele>22</ele>
        <time>2020-10-08T09:48:14.000Z</time>
      </trkpt>
      <trkpt lat="47.30237" lon="-2.34878">
        <ele>22</ele>
        <time>2020-10-08T09:48:16.000Z</time>
      </trkpt>
      <trkpt lat="47.30232" lon="-2.34884">
        <ele>22</ele>
        <time>2020-10-08T09:48:17.000Z</time>
      </trkpt>
      <trkpt lat="47.3022" lon="-2.34894">
        <ele>22</ele>
        <time>2020-10-08T09:48:19.000Z</time>
      </trkpt>
      <trkpt lat="47.30214" lon="-2.349">
        <ele>22</ele>
        <time>2020-10-08T09:48:20.000Z</time>
      </trkpt>
      <trkpt lat="47.3021" lon="-2.34907">
        <ele>22</ele>
        <time>2020-10-08T09:48:21.000Z</time>
      </trkpt>
      <trkpt lat="47.30207" lon="-2.34926">
        <ele>22</ele>
        <time>2020-10-08T09:48:23.000Z</time>
      </trkpt>
      <trkpt lat="47.30207" lon="-2.34947">
        <ele>22</ele>
        <time>2020-10-08T09:48:25.000Z</time>
      </trkpt>
      <trkpt lat="47.30207" lon="-2.34967">
        <ele>22</ele>
        <time>2020-10-08T09:48:27.000Z</time>
      </trkpt>
      <trkpt lat="47.30209" lon="-2.3501">
        <ele>22</ele>
        <time>2020-10-08T09:48:31.000Z</time>
      </trkpt>
      <trkpt lat="47.30209" lon="-2.35034">
        <ele>22</ele>
        <time>2020-10-08T09:48:33.000Z</time>
      </trkpt>
      <trkpt lat="47.3021" lon="-2.35045">
        <ele>21.60000038147</ele>
        <time>2020-10-08T09:48:34.000Z</time>
      </trkpt>
      <trkpt lat="47.30211" lon="-2.35056">
        <ele>21.200000762939</ele>
        <time>2020-10-08T09:48:35.000Z</time>
      </trkpt>
      <trkpt lat="47.30211" lon="-2.35067">
        <ele>20.60000038147</ele>
        <time>2020-10-08T09:48:36.000Z</time>
      </trkpt>
      <trkpt lat="47.3021" lon="-2.35078">
        <ele>20.200000762939</ele>
        <time>2020-10-08T09:48:37.000Z</time>
      </trkpt>
      <trkpt lat="47.30211" lon="-2.35088">
        <ele>19.799999237061</ele>
        <time>2020-10-08T09:48:38.000Z</time>
      </trkpt>
      <trkpt lat="47.3021" lon="-2.35109">
        <ele>19.799999237061</ele>
        <time>2020-10-08T09:48:40.000Z</time>
      </trkpt>
      <trkpt lat="47.30208" lon="-2.35129">
        <ele>19.799999237061</ele>
        <time>2020-10-08T09:48:42.000Z</time>
      </trkpt>
      <trkpt lat="47.30208" lon="-2.35158">
        <ele>19.39999961853</ele>
        <time>2020-10-08T09:48:45.000Z</time>
      </trkpt>
      <trkpt lat="47.30204" lon="-2.35165">
        <ele>19</ele>
        <time>2020-10-08T09:48:46.000Z</time>
      </trkpt>
      <trkpt lat="47.30199" lon="-2.35168">
        <ele>18.39999961853</ele>
        <time>2020-10-08T09:48:47.000Z</time>
      </trkpt>
      <trkpt lat="47.30194" lon="-2.35169">
        <ele>18</ele>
        <time>2020-10-08T09:48:48.000Z</time>
      </trkpt>
      <trkpt lat="47.30188" lon="-2.35171">
        <ele>17.60000038147</ele>
        <time>2020-10-08T09:48:49.000Z</time>
      </trkpt>
      <trkpt lat="47.30171" lon="-2.35175">
        <ele>17.60000038147</ele>
        <time>2020-10-08T09:48:52.000Z</time>
      </trkpt>
      <trkpt lat="47.30167" lon="-2.3518">
        <ele>17.60000038147</ele>
        <time>2020-10-08T09:48:53.000Z</time>
      </trkpt>
      <trkpt lat="47.30153" lon="-2.35191">
        <ele>17.60000038147</ele>
        <time>2020-10-08T09:48:56.000Z</time>
      </trkpt>
      <trkpt lat="47.30148" lon="-2.35192">
        <ele>17.200000762939</ele>
        <time>2020-10-08T09:48:57.000Z</time>
      </trkpt>
      <trkpt lat="47.30144" lon="-2.35193">
        <ele>16.60000038147</ele>
        <time>2020-10-08T09:48:58.000Z</time>
      </trkpt>
      <trkpt lat="47.3014" lon="-2.35193">
        <ele>16.200000762939</ele>
        <time>2020-10-08T09:48:59.000Z</time>
      </trkpt>
      <trkpt lat="47.30136" lon="-2.35194">
        <ele>15.800000190735</ele>
        <time>2020-10-08T09:49:00.000Z</time>
      </trkpt>
      <trkpt lat="47.30131" lon="-2.35195">
        <ele>15.199999809265</ele>
        <time>2020-10-08T09:49:01.000Z</time>
      </trkpt>
      <trkpt lat="47.30118" lon="-2.35198">
        <ele>15.199999809265</ele>
        <time>2020-10-08T09:49:03.000Z</time>
      </trkpt>
      <trkpt lat="47.3009" lon="-2.35211">
        <ele>15.199999809265</ele>
        <time>2020-10-08T09:49:08.000Z</time>
      </trkpt>
      <trkpt lat="47.30072" lon="-2.3522">
        <ele>15.199999809265</ele>
        <time>2020-10-08T09:49:11.000Z</time>
      </trkpt>
      <trkpt lat="47.30061" lon="-2.35227">
        <ele>15.199999809265</ele>
        <time>2020-10-08T09:49:13.000Z</time>
      </trkpt>
      <trkpt lat="47.30055" lon="-2.35229">
        <ele>15.199999809265</ele>
        <time>2020-10-08T09:49:14.000Z</time>
      </trkpt>
      <trkpt lat="47.30034" lon="-2.3524">
        <ele>15.199999809265</ele>
        <time>2020-10-08T09:49:18.000Z</time>
      </trkpt>
      <trkpt lat="47.30029" lon="-2.35243">
        <ele>15.199999809265</ele>
        <time>2020-10-08T09:49:21.000Z</time>
      </trkpt>
      <trkpt lat="47.30026" lon="-2.35244">
        <ele>15.199999809265</ele>
        <time>2020-10-08T09:49:23.000Z</time>
      </trkpt>
      <trkpt lat="47.30021" lon="-2.35245">
        <ele>15.199999809265</ele>
        <time>2020-10-08T09:49:26.000Z</time>
      </trkpt>
      <trkpt lat="47.30017" lon="-2.3525">
        <ele>15.199999809265</ele>
        <time>2020-10-08T09:49:28.000Z</time>
      </trkpt>
      <trkpt lat="47.3001" lon="-2.35252">
        <ele>15.199999809265</ele>
        <time>2020-10-08T09:49:31.000Z</time>
      </trkpt>
      <trkpt lat="47.30001" lon="-2.35256">
        <ele>15.199999809265</ele>
        <time>2020-10-08T09:49:37.000Z</time>
      </trkpt>
      <trkpt lat="47.29998" lon="-2.35261">
        <ele>15.199999809265</ele>
        <time>2020-10-08T09:50:31.000Z</time>
      </trkpt>
      <trkpt lat="47.29992" lon="-2.35267">
        <ele>15.199999809265</ele>
        <time>2020-10-08T09:50:33.000Z</time>
      </trkpt>
      <trkpt lat="47.29969" lon="-2.35294">
        <ele>15.199999809265</ele>
        <time>2020-10-08T09:50:40.000Z</time>
      </trkpt>
      <trkpt lat="47.29947" lon="-2.35321">
        <ele>15.199999809265</ele>
        <time>2020-10-08T09:50:46.000Z</time>
      </trkpt>
      <trkpt lat="47.29926" lon="-2.35348">
        <ele>15.199999809265</ele>
        <time>2020-10-08T09:50:53.000Z</time>
      </trkpt>
      <trkpt lat="47.2991" lon="-2.35368">
        <ele>15.199999809265</ele>
        <time>2020-10-08T09:50:59.000Z</time>
      </trkpt>
      <trkpt lat="47.29894" lon="-2.35388">
        <ele>15.199999809265</ele>
        <time>2020-10-08T09:51:05.000Z</time>
      </trkpt>
      <trkpt lat="47.29875" lon="-2.35409">
        <ele>15.199999809265</ele>
        <time>2020-10-08T09:51:11.000Z</time>
      </trkpt>
      <trkpt lat="47.29848" lon="-2.35437">
        <ele>15.199999809265</ele>
        <time>2020-10-08T09:51:18.000Z</time>
      </trkpt>
      <trkpt lat="47.2984" lon="-2.35447">
        <ele>15.199999809265</ele>
        <time>2020-10-08T09:51:20.000Z</time>
      </trkpt>
      <trkpt lat="47.2983" lon="-2.35464">
        <ele>15.199999809265</ele>
        <time>2020-10-08T09:51:23.000Z</time>
      </trkpt>
      <trkpt lat="47.29832" lon="-2.35485">
        <ele>15.199999809265</ele>
        <time>2020-10-08T09:51:26.000Z</time>
      </trkpt>
      <trkpt lat="47.29835" lon="-2.35497">
        <ele>15.199999809265</ele>
        <time>2020-10-08T09:51:28.000Z</time>
      </trkpt>
      <trkpt lat="47.29838" lon="-2.35509">
        <ele>15.199999809265</ele>
        <time>2020-10-08T09:51:30.000Z</time>
      </trkpt>
      <trkpt lat="47.2984" lon="-2.35516">
        <ele>15.199999809265</ele>
        <time>2020-10-08T09:51:31.000Z</time>
      </trkpt>
      <trkpt lat="47.29842" lon="-2.35522">
        <ele>15.60000038147</ele>
        <time>2020-10-08T09:51:32.000Z</time>
      </trkpt>
      <trkpt lat="47.29844" lon="-2.35528">
        <ele>16</ele>
        <time>2020-10-08T09:51:33.000Z</time>
      </trkpt>
      <trkpt lat="47.29846" lon="-2.35534">
        <ele>16.60000038147</ele>
        <time>2020-10-08T09:51:34.000Z</time>
      </trkpt>
      <trkpt lat="47.29848" lon="-2.3554">
        <ele>17</ele>
        <time>2020-10-08T09:51:35.000Z</time>
      </trkpt>
      <trkpt lat="47.2985" lon="-2.35546">
        <ele>17.39999961853</ele>
        <time>2020-10-08T09:51:36.000Z</time>
      </trkpt>
      <trkpt lat="47.29853" lon="-2.35559">
        <ele>17.39999961853</ele>
        <time>2020-10-08T09:51:38.000Z</time>
      </trkpt>
      <trkpt lat="47.29867" lon="-2.3561">
        <ele>17.39999961853</ele>
        <time>2020-10-08T09:51:46.000Z</time>
      </trkpt>
      <trkpt lat="47.29868" lon="-2.35616">
        <ele>17.39999961853</ele>
        <time>2020-10-08T09:51:47.000Z</time>
      </trkpt>
      <trkpt lat="47.29878" lon="-2.35665">
        <ele>17.799999237061</ele>
        <time>2020-10-08T09:51:55.000Z</time>
      </trkpt>
      <trkpt lat="47.29879" lon="-2.35671">
        <ele>18.200000762939</ele>
        <time>2020-10-08T09:51:56.000Z</time>
      </trkpt>
      <trkpt lat="47.2988" lon="-2.35678">
        <ele>18.60000038147</ele>
        <time>2020-10-08T09:51:57.000Z</time>
      </trkpt>
      <trkpt lat="47.29881" lon="-2.35685">
        <ele>19</ele>
        <time>2020-10-08T09:51:58.000Z</time>
      </trkpt>
      <trkpt lat="47.29882" lon="-2.35691">
        <ele>19.39999961853</ele>
        <time>2020-10-08T09:51:59.000Z</time>
      </trkpt>
      <trkpt lat="47.29888" lon="-2.35713">
        <ele>19.39999961853</ele>
        <time>2020-10-08T09:52:03.000Z</time>
      </trkpt>
      <trkpt lat="47.29896" lon="-2.35741">
        <ele>19.39999961853</ele>
        <time>2020-10-08T09:52:10.000Z</time>
      </trkpt>
      <trkpt lat="47.29895" lon="-2.35758">
        <ele>19.39999961853</ele>
        <time>2020-10-08T09:52:16.000Z</time>
      </trkpt>
      <trkpt lat="47.29884" lon="-2.35765">
        <ele>19.39999961853</ele>
        <time>2020-10-08T09:52:19.000Z</time>
      </trkpt>
      <trkpt lat="47.2988" lon="-2.35767">
        <ele>19.39999961853</ele>
        <time>2020-10-08T09:52:20.000Z</time>
      </trkpt>
      <trkpt lat="47.29852" lon="-2.35778">
        <ele>19.39999961853</ele>
        <time>2020-10-08T09:52:26.000Z</time>
      </trkpt>
      <trkpt lat="47.29826" lon="-2.35788">
        <ele>19.39999961853</ele>
        <time>2020-10-08T09:52:32.000Z</time>
      </trkpt>
      <trkpt lat="47.29798" lon="-2.35796">
        <ele>19.799999237061</ele>
        <time>2020-10-08T09:52:39.000Z</time>
      </trkpt>
      <trkpt lat="47.29795" lon="-2.35798">
        <ele>20.200000762939</ele>
        <time>2020-10-08T09:52:40.000Z</time>
      </trkpt>
      <trkpt lat="47.29791" lon="-2.35799">
        <ele>20.60000038147</ele>
        <time>2020-10-08T09:52:41.000Z</time>
      </trkpt>
      <trkpt lat="47.29787" lon="-2.358">
        <ele>21</ele>
        <time>2020-10-08T09:52:42.000Z</time>
      </trkpt>
      <trkpt lat="47.29783" lon="-2.35801">
        <ele>21.39999961853</ele>
        <time>2020-10-08T09:52:43.000Z</time>
      </trkpt>
      <trkpt lat="47.29758" lon="-2.35809">
        <ele>21.39999961853</ele>
        <time>2020-10-08T09:52:49.000Z</time>
      </trkpt>
      <trkpt lat="47.29754" lon="-2.35811">
        <ele>21.39999961853</ele>
        <time>2020-10-08T09:52:50.000Z</time>
      </trkpt>
      <trkpt lat="47.29725" lon="-2.35825">
        <ele>21.39999961853</ele>
        <time>2020-10-08T09:52:56.000Z</time>
      </trkpt>
      <trkpt lat="47.29691" lon="-2.35842">
        <ele>21</ele>
        <time>2020-10-08T09:53:02.000Z</time>
      </trkpt>
      <trkpt lat="47.29686" lon="-2.35844">
        <ele>20.60000038147</ele>
        <time>2020-10-08T09:53:03.000Z</time>
      </trkpt>
      <trkpt lat="47.2968" lon="-2.35845">
        <ele>20.200000762939</ele>
        <time>2020-10-08T09:53:04.000Z</time>
      </trkpt>
      <trkpt lat="47.29675" lon="-2.35847">
        <ele>19.799999237061</ele>
        <time>2020-10-08T09:53:05.000Z</time>
      </trkpt>
      <trkpt lat="47.29671" lon="-2.35852">
        <ele>19.39999961853</ele>
        <time>2020-10-08T09:53:06.000Z</time>
      </trkpt>
      <trkpt lat="47.29663" lon="-2.3586">
        <ele>19.39999961853</ele>
        <time>2020-10-08T09:53:08.000Z</time>
      </trkpt>
      <trkpt lat="47.29649" lon="-2.35869">
        <ele>19.39999961853</ele>
        <time>2020-10-08T09:53:11.000Z</time>
      </trkpt>
      <trkpt lat="47.29639" lon="-2.35874">
        <ele>19.39999961853</ele>
        <time>2020-10-08T09:53:13.000Z</time>
      </trkpt>
      <trkpt lat="47.29609" lon="-2.35889">
        <ele>19.39999961853</ele>
        <time>2020-10-08T09:53:20.000Z</time>
      </trkpt>
      <trkpt lat="47.29583" lon="-2.35907">
        <ele>19.39999961853</ele>
        <time>2020-10-08T09:53:26.000Z</time>
      </trkpt>
      <trkpt lat="47.29547" lon="-2.35926">
        <ele>19.39999961853</ele>
        <time>2020-10-08T09:53:34.000Z</time>
      </trkpt>
      <trkpt lat="47.29521" lon="-2.35938">
        <ele>19.39999961853</ele>
        <time>2020-10-08T09:53:40.000Z</time>
      </trkpt>
      <trkpt lat="47.29516" lon="-2.35939">
        <ele>19.39999961853</ele>
        <time>2020-10-08T09:53:41.000Z</time>
      </trkpt>
      <trkpt lat="47.29508" lon="-2.35932">
        <ele>19.39999961853</ele>
        <time>2020-10-08T09:53:44.000Z</time>
      </trkpt>
      <trkpt lat="47.29502" lon="-2.35913">
        <ele>19.39999961853</ele>
        <time>2020-10-08T09:53:48.000Z</time>
      </trkpt>
      <trkpt lat="47.29497" lon="-2.35899">
        <ele>19.39999961853</ele>
        <time>2020-10-08T09:53:51.000Z</time>
      </trkpt>
      <trkpt lat="47.29494" lon="-2.35897">
        <ele>19.39999961853</ele>
        <time>2020-10-08T09:53:52.000Z</time>
      </trkpt>
      <trkpt lat="47.29491" lon="-2.35897">
        <ele>19.39999961853</ele>
        <time>2020-10-08T09:53:53.000Z</time>
      </trkpt>
      <trkpt lat="47.29483" lon="-2.35898">
        <ele>19.39999961853</ele>
        <time>2020-10-08T09:53:55.000Z</time>
      </trkpt>
      <trkpt lat="47.29477" lon="-2.359">
        <ele>19.39999961853</ele>
        <time>2020-10-08T09:53:57.000Z</time>
      </trkpt>
      <trkpt lat="47.29467" lon="-2.35899">
        <ele>19</ele>
        <time>2020-10-08T09:54:00.000Z</time>
      </trkpt>
      <trkpt lat="47.29463" lon="-2.35899">
        <ele>18.60000038147</ele>
        <time>2020-10-08T09:54:01.000Z</time>
      </trkpt>
      <trkpt lat="47.2946" lon="-2.35899">
        <ele>18.200000762939</ele>
        <time>2020-10-08T09:54:02.000Z</time>
      </trkpt>
      <trkpt lat="47.29457" lon="-2.359">
        <ele>17.799999237061</ele>
        <time>2020-10-08T09:54:03.000Z</time>
      </trkpt>
      <trkpt lat="47.29455" lon="-2.35901">
        <ele>17.39999961853</ele>
        <time>2020-10-08T09:54:04.000Z</time>
      </trkpt>
      <trkpt lat="47.29454" lon="-2.35902">
        <ele>17.39999961853</ele>
        <time>2020-10-08T09:54:05.000Z</time>
      </trkpt>
      <trkpt lat="47.29449" lon="-2.35901">
        <ele>17.39999961853</ele>
        <time>2020-10-08T09:54:09.000Z</time>
      </trkpt>
      <trkpt lat="47.29445" lon="-2.35897">
        <ele>17.39999961853</ele>
        <time>2020-10-08T09:54:11.000Z</time>
      </trkpt>
      <trkpt lat="47.29434" lon="-2.35893">
        <ele>17.39999961853</ele>
        <time>2020-10-08T09:54:15.000Z</time>
      </trkpt>
      <trkpt lat="47.29431" lon="-2.35893">
        <ele>17.39999961853</ele>
        <time>2020-10-08T09:54:16.000Z</time>
      </trkpt>
      <trkpt lat="47.29423" lon="-2.3589">
        <ele>17.39999961853</ele>
        <time>2020-10-08T09:54:18.000Z</time>
      </trkpt>
      <trkpt lat="47.29417" lon="-2.35881">
        <ele>17.39999961853</ele>
        <time>2020-10-08T09:54:20.000Z</time>
      </trkpt>
      <trkpt lat="47.29396" lon="-2.35857">
        <ele>17.39999961853</ele>
        <time>2020-10-08T09:54:27.000Z</time>
      </trkpt>
      <trkpt lat="47.29375" lon="-2.35834">
        <ele>17.39999961853</ele>
        <time>2020-10-08T09:54:34.000Z</time>
      </trkpt>
      <trkpt lat="47.29371" lon="-2.35831">
        <ele>17.39999961853</ele>
        <time>2020-10-08T09:54:35.000Z</time>
      </trkpt>
      <trkpt lat="47.29364" lon="-2.35824">
        <ele>17.39999961853</ele>
        <time>2020-10-08T09:54:37.000Z</time>
      </trkpt>
      <trkpt lat="47.29354" lon="-2.35815">
        <ele>17.39999961853</ele>
        <time>2020-10-08T09:54:40.000Z</time>
      </trkpt>
      <trkpt lat="47.29324" lon="-2.3579">
        <ele>17.39999961853</ele>
        <time>2020-10-08T09:54:48.000Z</time>
      </trkpt>
      <trkpt lat="47.29296" lon="-2.35766">
        <ele>17.39999961853</ele>
        <time>2020-10-08T09:54:55.000Z</time>
      </trkpt>
      <trkpt lat="47.29267" lon="-2.35741">
        <ele>17.39999961853</ele>
        <time>2020-10-08T09:55:03.000Z</time>
      </trkpt>
      <trkpt lat="47.29254" lon="-2.35737">
        <ele>17.799999237061</ele>
        <time>2020-10-08T09:55:07.000Z</time>
      </trkpt>
      <trkpt lat="47.29251" lon="-2.3574">
        <ele>18.200000762939</ele>
        <time>2020-10-08T09:55:08.000Z</time>
      </trkpt>
      <trkpt lat="47.29248" lon="-2.35744">
        <ele>18.60000038147</ele>
        <time>2020-10-08T09:55:09.000Z</time>
      </trkpt>
      <trkpt lat="47.29247" lon="-2.35748">
        <ele>19</ele>
        <time>2020-10-08T09:55:10.000Z</time>
      </trkpt>
      <trkpt lat="47.29244" lon="-2.35752">
        <ele>19.39999961853</ele>
        <time>2020-10-08T09:55:11.000Z</time>
      </trkpt>
      <trkpt lat="47.29239" lon="-2.35759">
        <ele>19.39999961853</ele>
        <time>2020-10-08T09:55:13.000Z</time>
      </trkpt>
      <trkpt lat="47.29224" lon="-2.35777">
        <ele>19.39999961853</ele>
        <time>2020-10-08T09:55:19.000Z</time>
      </trkpt>
      <trkpt lat="47.29199" lon="-2.358">
        <ele>19.39999961853</ele>
        <time>2020-10-08T09:55:28.000Z</time>
      </trkpt>
      <trkpt lat="47.29168" lon="-2.35822">
        <ele>19.39999961853</ele>
        <time>2020-10-08T09:55:37.000Z</time>
      </trkpt>
      <trkpt lat="47.29141" lon="-2.35843">
        <ele>19.39999961853</ele>
        <time>2020-10-08T09:55:44.000Z</time>
      </trkpt>
      <trkpt lat="47.29108" lon="-2.3588">
        <ele>19.39999961853</ele>
        <time>2020-10-08T09:55:53.000Z</time>
      </trkpt>
      <trkpt lat="47.29089" lon="-2.35903">
        <ele>19.39999961853</ele>
        <time>2020-10-08T09:56:00.000Z</time>
      </trkpt>
      <trkpt lat="47.29066" lon="-2.3593">
        <ele>19.39999961853</ele>
        <time>2020-10-08T09:56:08.000Z</time>
      </trkpt>
      <trkpt lat="47.29045" lon="-2.35953">
        <ele>19.39999961853</ele>
        <time>2020-10-08T09:56:15.000Z</time>
      </trkpt>
      <trkpt lat="47.29016" lon="-2.35984">
        <ele>19.39999961853</ele>
        <time>2020-10-08T09:56:24.000Z</time>
      </trkpt>
      <trkpt lat="47.28991" lon="-2.36011">
        <ele>19.39999961853</ele>
        <time>2020-10-08T09:56:32.000Z</time>
      </trkpt>
      <trkpt lat="47.28971" lon="-2.36031">
        <ele>19.39999961853</ele>
        <time>2020-10-08T09:56:38.000Z</time>
      </trkpt>
      <trkpt lat="47.2895" lon="-2.36048">
        <ele>19.39999961853</ele>
        <time>2020-10-08T09:56:44.000Z</time>
      </trkpt>
      <trkpt lat="47.28922" lon="-2.36065">
        <ele>19.39999961853</ele>
        <time>2020-10-08T09:56:51.000Z</time>
      </trkpt>
      <trkpt lat="47.28893" lon="-2.36092">
        <ele>19.39999961853</ele>
        <time>2020-10-08T09:56:59.000Z</time>
      </trkpt>
      <trkpt lat="47.28857" lon="-2.36126">
        <ele>19.39999961853</ele>
        <time>2020-10-08T09:57:09.000Z</time>
      </trkpt>
      <trkpt lat="47.28849" lon="-2.36134">
        <ele>19.39999961853</ele>
        <time>2020-10-08T09:57:11.000Z</time>
      </trkpt>
      <trkpt lat="47.28837" lon="-2.36153">
        <ele>19.39999961853</ele>
        <time>2020-10-08T09:57:15.000Z</time>
      </trkpt>
      <trkpt lat="47.28814" lon="-2.3618">
        <ele>19.39999961853</ele>
        <time>2020-10-08T09:57:22.000Z</time>
      </trkpt>
      <trkpt lat="47.28783" lon="-2.362">
        <ele>19.39999961853</ele>
        <time>2020-10-08T09:57:30.000Z</time>
      </trkpt>
      <trkpt lat="47.28758" lon="-2.36218">
        <ele>19.39999961853</ele>
        <time>2020-10-08T09:57:37.000Z</time>
      </trkpt>
      <trkpt lat="47.28754" lon="-2.3622">
        <ele>19.39999961853</ele>
        <time>2020-10-08T09:57:38.000Z</time>
      </trkpt>
      <trkpt lat="47.28742" lon="-2.36228">
        <ele>19.39999961853</ele>
        <time>2020-10-08T09:57:42.000Z</time>
      </trkpt>
      <trkpt lat="47.2873" lon="-2.36238">
        <ele>19.39999961853</ele>
        <time>2020-10-08T09:57:47.000Z</time>
      </trkpt>
      <trkpt lat="47.28722" lon="-2.36253">
        <ele>19.39999961853</ele>
        <time>2020-10-08T09:57:53.000Z</time>
      </trkpt>
      <trkpt lat="47.28711" lon="-2.36268">
        <ele>19.39999961853</ele>
        <time>2020-10-08T09:57:59.000Z</time>
      </trkpt>
      <trkpt lat="47.28699" lon="-2.36277">
        <ele>19.799999237061</ele>
        <time>2020-10-08T09:58:05.000Z</time>
      </trkpt>
      <trkpt lat="47.28697" lon="-2.36278">
        <ele>20.200000762939</ele>
        <time>2020-10-08T09:58:06.000Z</time>
      </trkpt>
      <trkpt lat="47.28696" lon="-2.36278">
        <ele>20.60000038147</ele>
        <time>2020-10-08T09:58:07.000Z</time>
      </trkpt>
      <trkpt lat="47.28694" lon="-2.36279">
        <ele>21.200000762939</ele>
        <time>2020-10-08T09:58:08.000Z</time>
      </trkpt>
      <trkpt lat="47.28692" lon="-2.3628">
        <ele>21.60000038147</ele>
        <time>2020-10-08T09:58:09.000Z</time>
      </trkpt>
      <trkpt lat="47.28686" lon="-2.36281">
        <ele>21.60000038147</ele>
        <time>2020-10-08T09:58:11.000Z</time>
      </trkpt>
      <trkpt lat="47.2868" lon="-2.3628">
        <ele>21.60000038147</ele>
        <time>2020-10-08T09:58:13.000Z</time>
      </trkpt>
      <trkpt lat="47.28676" lon="-2.36275">
        <ele>21.60000038147</ele>
        <time>2020-10-08T09:58:15.000Z</time>
      </trkpt>
      <trkpt lat="47.28672" lon="-2.36265">
        <ele>22</ele>
        <time>2020-10-08T09:58:18.000Z</time>
      </trkpt>
      <trkpt lat="47.28671" lon="-2.36261">
        <ele>22.39999961853</ele>
        <time>2020-10-08T09:58:19.000Z</time>
      </trkpt>
      <trkpt lat="47.2867" lon="-2.36258">
        <ele>22.799999237061</ele>
        <time>2020-10-08T09:58:20.000Z</time>
      </trkpt>
      <trkpt lat="47.28669" lon="-2.36254">
        <ele>23.200000762939</ele>
        <time>2020-10-08T09:58:21.000Z</time>
      </trkpt>
      <trkpt lat="47.28669" lon="-2.3625">
        <ele>23.60000038147</ele>
        <time>2020-10-08T09:58:22.000Z</time>
      </trkpt>
      <trkpt lat="47.28668" lon="-2.3623">
        <ele>23.60000038147</ele>
        <time>2020-10-08T09:58:27.000Z</time>
      </trkpt>
      <trkpt lat="47.28666" lon="-2.36206">
        <ele>24</ele>
        <time>2020-10-08T09:58:32.000Z</time>
      </trkpt>
      <trkpt lat="47.28665" lon="-2.36202">
        <ele>24.39999961853</ele>
        <time>2020-10-08T09:58:33.000Z</time>
      </trkpt>
      <trkpt lat="47.28664" lon="-2.36197">
        <ele>24.799999237061</ele>
        <time>2020-10-08T09:58:34.000Z</time>
      </trkpt>
      <trkpt lat="47.28663" lon="-2.36193">
        <ele>25.200000762939</ele>
        <time>2020-10-08T09:58:35.000Z</time>
      </trkpt>
      <trkpt lat="47.28661" lon="-2.36189">
        <ele>25.60000038147</ele>
        <time>2020-10-08T09:58:36.000Z</time>
      </trkpt>
      <trkpt lat="47.28656" lon="-2.36179">
        <ele>25.60000038147</ele>
        <time>2020-10-08T09:58:39.000Z</time>
      </trkpt>
      <trkpt lat="47.28643" lon="-2.36162">
        <ele>25.60000038147</ele>
        <time>2020-10-08T09:58:45.000Z</time>
      </trkpt>
      <trkpt lat="47.28641" lon="-2.36156">
        <ele>26</ele>
        <time>2020-10-08T09:58:46.000Z</time>
      </trkpt>
      <trkpt lat="47.2864" lon="-2.36154">
        <ele>26.39999961853</ele>
        <time>2020-10-08T09:58:47.000Z</time>
      </trkpt>
      <trkpt lat="47.28637" lon="-2.36153">
        <ele>27.200000762939</ele>
        <time>2020-10-08T09:58:48.000Z</time>
      </trkpt>
      <trkpt lat="47.28635" lon="-2.36153">
        <ele>27.60000038147</ele>
        <time>2020-10-08T09:58:49.000Z</time>
      </trkpt>
      <trkpt lat="47.28624" lon="-2.36157">
        <ele>27.60000038147</ele>
        <time>2020-10-08T09:58:53.000Z</time>
      </trkpt>
      <trkpt lat="47.28615" lon="-2.36159">
        <ele>27.60000038147</ele>
        <time>2020-10-08T09:58:55.000Z</time>
      </trkpt>
      <trkpt lat="47.28611" lon="-2.36158">
        <ele>27.60000038147</ele>
        <time>2020-10-08T09:58:56.000Z</time>
      </trkpt>
      <trkpt lat="47.28603" lon="-2.36156">
        <ele>27.60000038147</ele>
        <time>2020-10-08T09:58:58.000Z</time>
      </trkpt>
      <trkpt lat="47.28595" lon="-2.36152">
        <ele>27.60000038147</ele>
        <time>2020-10-08T09:59:00.000Z</time>
      </trkpt>
      <trkpt lat="47.28584" lon="-2.36146">
        <ele>27.60000038147</ele>
        <time>2020-10-08T09:59:03.000Z</time>
      </trkpt>
      <trkpt lat="47.28575" lon="-2.36147">
        <ele>27.60000038147</ele>
        <time>2020-10-08T09:59:05.000Z</time>
      </trkpt>
      <trkpt lat="47.28564" lon="-2.36151">
        <ele>27.60000038147</ele>
        <time>2020-10-08T09:59:07.000Z</time>
      </trkpt>
      <trkpt lat="47.28552" lon="-2.36152">
        <ele>27.60000038147</ele>
        <time>2020-10-08T09:59:10.000Z</time>
      </trkpt>
      <trkpt lat="47.28548" lon="-2.36148">
        <ele>27</ele>
        <time>2020-10-08T09:59:11.000Z</time>
      </trkpt>
      <trkpt lat="47.28545" lon="-2.36143">
        <ele>26</ele>
        <time>2020-10-08T09:59:12.000Z</time>
      </trkpt>
      <trkpt lat="47.28541" lon="-2.36138">
        <ele>25.39999961853</ele>
        <time>2020-10-08T09:59:13.000Z</time>
      </trkpt>
      <trkpt lat="47.28539" lon="-2.36132">
        <ele>24.799999237061</ele>
        <time>2020-10-08T09:59:14.000Z</time>
      </trkpt>
      <trkpt lat="47.28536" lon="-2.36118">
        <ele>24.799999237061</ele>
        <time>2020-10-08T09:59:16.000Z</time>
      </trkpt>
      <trkpt lat="47.28535" lon="-2.36098">
        <ele>24.799999237061</ele>
        <time>2020-10-08T09:59:19.000Z</time>
      </trkpt>
      <trkpt lat="47.28533" lon="-2.36087">
        <ele>24.799999237061</ele>
        <time>2020-10-08T09:59:21.000Z</time>
      </trkpt>
      <trkpt lat="47.28526" lon="-2.36066">
        <ele>24.799999237061</ele>
        <time>2020-10-08T09:59:26.000Z</time>
      </trkpt>
      <trkpt lat="47.28514" lon="-2.36044">
        <ele>24.799999237061</ele>
        <time>2020-10-08T09:59:31.000Z</time>
      </trkpt>
      <trkpt lat="47.28509" lon="-2.36038">
        <ele>24.799999237061</ele>
        <time>2020-10-08T09:59:33.000Z</time>
      </trkpt>
      <trkpt lat="47.28501" lon="-2.36035">
        <ele>24.799999237061</ele>
        <time>2020-10-08T09:59:35.000Z</time>
      </trkpt>
      <trkpt lat="47.28473" lon="-2.36026">
        <ele>24.799999237061</ele>
        <time>2020-10-08T09:59:40.000Z</time>
      </trkpt>
      <trkpt lat="47.28461" lon="-2.36006">
        <ele>24.799999237061</ele>
        <time>2020-10-08T09:59:44.000Z</time>
      </trkpt>
      <trkpt lat="47.28455" lon="-2.35994">
        <ele>24.799999237061</ele>
        <time>2020-10-08T09:59:46.000Z</time>
      </trkpt>
      <trkpt lat="47.2845" lon="-2.35992">
        <ele>24.799999237061</ele>
        <time>2020-10-08T09:59:47.000Z</time>
      </trkpt>
      <trkpt lat="47.28445" lon="-2.35992">
        <ele>24.799999237061</ele>
        <time>2020-10-08T09:59:48.000Z</time>
      </trkpt>
      <trkpt lat="47.28434" lon="-2.35998">
        <ele>24.799999237061</ele>
        <time>2020-10-08T09:59:51.000Z</time>
      </trkpt>
      <trkpt lat="47.28417" lon="-2.36013">
        <ele>24.799999237061</ele>
        <time>2020-10-08T09:59:55.000Z</time>
      </trkpt>
      <trkpt lat="47.28413" lon="-2.36017">
        <ele>24.799999237061</ele>
        <time>2020-10-08T09:59:56.000Z</time>
      </trkpt>
      <trkpt lat="47.28401" lon="-2.36022">
        <ele>24.799999237061</ele>
        <time>2020-10-08T09:59:59.000Z</time>
      </trkpt>
      <trkpt lat="47.28397" lon="-2.36022">
        <ele>24.799999237061</ele>
        <time>2020-10-08T10:00:00.000Z</time>
      </trkpt>
      <trkpt lat="47.28385" lon="-2.36022">
        <ele>24.39999961853</ele>
        <time>2020-10-08T10:00:02.000Z</time>
      </trkpt>
      <trkpt lat="47.28378" lon="-2.36022">
        <ele>24</ele>
        <time>2020-10-08T10:00:03.000Z</time>
      </trkpt>
      <trkpt lat="47.28371" lon="-2.36023">
        <ele>23.60000038147</ele>
        <time>2020-10-08T10:00:04.000Z</time>
      </trkpt>
      <trkpt lat="47.28364" lon="-2.36023">
        <ele>23</ele>
        <time>2020-10-08T10:00:05.000Z</time>
      </trkpt>
      <trkpt lat="47.28357" lon="-2.36024">
        <ele>22.39999961853</ele>
        <time>2020-10-08T10:00:06.000Z</time>
      </trkpt>
      <trkpt lat="47.28351" lon="-2.36026">
        <ele>21.799999237061</ele>
        <time>2020-10-08T10:00:07.000Z</time>
      </trkpt>
      <trkpt lat="47.28345" lon="-2.3603">
        <ele>21.200000762939</ele>
        <time>2020-10-08T10:00:08.000Z</time>
      </trkpt>
      <trkpt lat="47.28339" lon="-2.36035">
        <ele>20.799999237061</ele>
        <time>2020-10-08T10:00:09.000Z</time>
      </trkpt>
      <trkpt lat="47.28334" lon="-2.36039">
        <ele>20.200000762939</ele>
        <time>2020-10-08T10:00:10.000Z</time>
      </trkpt>
      <trkpt lat="47.28329" lon="-2.36043">
        <ele>19.60000038147</ele>
        <time>2020-10-08T10:00:11.000Z</time>
      </trkpt>
      <trkpt lat="47.28324" lon="-2.36047">
        <ele>19</ele>
        <time>2020-10-08T10:00:12.000Z</time>
      </trkpt>
      <trkpt lat="47.28319" lon="-2.36049">
        <ele>18.60000038147</ele>
        <time>2020-10-08T10:00:13.000Z</time>
      </trkpt>
      <trkpt lat="47.28315" lon="-2.36049">
        <ele>18.200000762939</ele>
        <time>2020-10-08T10:00:14.000Z</time>
      </trkpt>
      <trkpt lat="47.2831" lon="-2.36048">
        <ele>17.60000038147</ele>
        <time>2020-10-08T10:00:15.000Z</time>
      </trkpt>
      <trkpt lat="47.28306" lon="-2.36046">
        <ele>17.200000762939</ele>
        <time>2020-10-08T10:00:16.000Z</time>
      </trkpt>
      <trkpt lat="47.28301" lon="-2.36045">
        <ele>16.799999237061</ele>
        <time>2020-10-08T10:00:17.000Z</time>
      </trkpt>
      <trkpt lat="47.28297" lon="-2.36044">
        <ele>16.39999961853</ele>
        <time>2020-10-08T10:00:18.000Z</time>
      </trkpt>
      <trkpt lat="47.28288" lon="-2.36038">
        <ele>16</ele>
        <time>2020-10-08T10:00:21.000Z</time>
      </trkpt>
      <trkpt lat="47.28285" lon="-2.36034">
        <ele>15.39999961853</ele>
        <time>2020-10-08T10:00:22.000Z</time>
      </trkpt>
      <trkpt lat="47.28282" lon="-2.36031">
        <ele>15</ele>
        <time>2020-10-08T10:00:23.000Z</time>
      </trkpt>
      <trkpt lat="47.2828" lon="-2.36028">
        <ele>14.39999961853</ele>
        <time>2020-10-08T10:00:24.000Z</time>
      </trkpt>
      <trkpt lat="47.28277" lon="-2.36024">
        <ele>13.800000190735</ele>
        <time>2020-10-08T10:00:25.000Z</time>
      </trkpt>
      <trkpt lat="47.28275" lon="-2.36021">
        <ele>12.39999961853</ele>
        <time>2020-10-08T10:00:26.000Z</time>
      </trkpt>
      <trkpt lat="47.28273" lon="-2.36016">
        <ele>11.60000038147</ele>
        <time>2020-10-08T10:00:27.000Z</time>
      </trkpt>
      <trkpt lat="47.28272" lon="-2.36011">
        <ele>11</ele>
        <time>2020-10-08T10:00:28.000Z</time>
      </trkpt>
      <trkpt lat="47.28272" lon="-2.36006">
        <ele>10.199999809265</ele>
        <time>2020-10-08T10:00:29.000Z</time>
      </trkpt>
      <trkpt lat="47.28273" lon="-2.36001">
        <ele>9.3999996185303</ele>
        <time>2020-10-08T10:00:30.000Z</time>
      </trkpt>
      <trkpt lat="47.28274" lon="-2.35995">
        <ele>8.6000003814697</ele>
        <time>2020-10-08T10:00:31.000Z</time>
      </trkpt>
      <trkpt lat="47.28274" lon="-2.35987">
        <ele>7.8000001907349</ele>
        <time>2020-10-08T10:00:32.000Z</time>
      </trkpt>
      <trkpt lat="47.28274" lon="-2.3598">
        <ele>7.1999998092651</ele>
        <time>2020-10-08T10:00:33.000Z</time>
      </trkpt>
      <trkpt lat="47.28268" lon="-2.35957">
        <ele>7.1999998092651</ele>
        <time>2020-10-08T10:00:37.000Z</time>
      </trkpt>
      <trkpt lat="47.28257" lon="-2.35931">
        <ele>7.5999999046326</ele>
        <time>2020-10-08T10:00:42.000Z</time>
      </trkpt>
      <trkpt lat="47.28255" lon="-2.35927">
        <ele>8</ele>
        <time>2020-10-08T10:00:43.000Z</time>
      </trkpt>
      <trkpt lat="47.28253" lon="-2.35923">
        <ele>8.6000003814697</ele>
        <time>2020-10-08T10:00:44.000Z</time>
      </trkpt>
      <trkpt lat="47.28251" lon="-2.35919">
        <ele>9</ele>
        <time>2020-10-08T10:00:45.000Z</time>
      </trkpt>
      <trkpt lat="47.28248" lon="-2.35916">
        <ele>9.3999996185303</ele>
        <time>2020-10-08T10:00:46.000Z</time>
      </trkpt>
      <trkpt lat="47.28234" lon="-2.35916">
        <ele>9.3999996185303</ele>
        <time>2020-10-08T10:00:49.000Z</time>
      </trkpt>
      <trkpt lat="47.28209" lon="-2.35912">
        <ele>9.3999996185303</ele>
        <time>2020-10-08T10:00:55.000Z</time>
      </trkpt>
      <trkpt lat="47.282" lon="-2.35911">
        <ele>9.3999996185303</ele>
        <time>2020-10-08T10:00:57.000Z</time>
      </trkpt>
      <trkpt lat="47.28188" lon="-2.3591">
        <ele>9</ele>
        <time>2020-10-08T10:01:00.000Z</time>
      </trkpt>
      <trkpt lat="47.28184" lon="-2.35908">
        <ele>8.6000003814697</ele>
        <time>2020-10-08T10:01:01.000Z</time>
      </trkpt>
      <trkpt lat="47.28181" lon="-2.35906">
        <ele>8.1999998092651</ele>
        <time>2020-10-08T10:01:02.000Z</time>
      </trkpt>
      <trkpt lat="47.28177" lon="-2.35905">
        <ele>7.8000001907349</ele>
        <time>2020-10-08T10:01:03.000Z</time>
      </trkpt>
      <trkpt lat="47.28173" lon="-2.35904">
        <ele>7.4000000953674</ele>
        <time>2020-10-08T10:01:04.000Z</time>
      </trkpt>
      <trkpt lat="47.28166" lon="-2.35903">
        <ele>7.4000000953674</ele>
        <time>2020-10-08T10:01:06.000Z</time>
      </trkpt>
      <trkpt lat="47.28147" lon="-2.35893">
        <ele>7.4000000953674</ele>
        <time>2020-10-08T10:01:11.000Z</time>
      </trkpt>
      <trkpt lat="47.2814" lon="-2.35886">
        <ele>7.4000000953674</ele>
        <time>2020-10-08T10:01:14.000Z</time>
      </trkpt>
      <trkpt lat="47.28138" lon="-2.35881">
        <ele>7.4000000953674</ele>
        <time>2020-10-08T10:01:15.000Z</time>
      </trkpt>
      <trkpt lat="47.28133" lon="-2.35868">
        <ele>7.4000000953674</ele>
        <time>2020-10-08T10:01:19.000Z</time>
      </trkpt>
      <trkpt lat="47.2813" lon="-2.35868">
        <ele>7.4000000953674</ele>
        <time>2020-10-08T10:01:20.000Z</time>
      </trkpt>
      <trkpt lat="47.28113" lon="-2.35864">
        <ele>7.4000000953674</ele>
        <time>2020-10-08T10:01:24.000Z</time>
      </trkpt>
      <trkpt lat="47.28095" lon="-2.35848">
        <ele>7.4000000953674</ele>
        <time>2020-10-08T10:01:29.000Z</time>
      </trkpt>
      <trkpt lat="47.28086" lon="-2.35827">
        <ele>7.4000000953674</ele>
        <time>2020-10-08T10:01:32.000Z</time>
      </trkpt>
      <trkpt lat="47.28085" lon="-2.3582">
        <ele>7.4000000953674</ele>
        <time>2020-10-08T10:01:33.000Z</time>
      </trkpt>
      <trkpt lat="47.28088" lon="-2.3578">
        <ele>7.4000000953674</ele>
        <time>2020-10-08T10:01:38.000Z</time>
      </trkpt>
      <trkpt lat="47.28088" lon="-2.35768">
        <ele>7.4000000953674</ele>
        <time>2020-10-08T10:01:39.000Z</time>
      </trkpt>
      <trkpt lat="47.28089" lon="-2.35748">
        <ele>7.8000001907349</ele>
        <time>2020-10-08T10:01:42.000Z</time>
      </trkpt>
      <trkpt lat="47.28089" lon="-2.3574">
        <ele>8.1999998092651</ele>
        <time>2020-10-08T10:01:43.000Z</time>
      </trkpt>
      <trkpt lat="47.2809" lon="-2.35734">
        <ele>8.6000003814697</ele>
        <time>2020-10-08T10:01:44.000Z</time>
      </trkpt>
      <trkpt lat="47.28092" lon="-2.35729">
        <ele>9</ele>
        <time>2020-10-08T10:01:45.000Z</time>
      </trkpt>
      <trkpt lat="47.28092" lon="-2.35721">
        <ele>9.6000003814697</ele>
        <time>2020-10-08T10:01:46.000Z</time>
      </trkpt>
      <trkpt lat="47.28092" lon="-2.35714">
        <ele>9.6000003814697</ele>
        <time>2020-10-08T10:01:47.000Z</time>
      </trkpt>
      <trkpt lat="47.28092" lon="-2.35693">
        <ele>9.6000003814697</ele>
        <time>2020-10-08T10:01:50.000Z</time>
      </trkpt>
      <trkpt lat="47.28091" lon="-2.35678">
        <ele>9.6000003814697</ele>
        <time>2020-10-08T10:01:52.000Z</time>
      </trkpt>
      <trkpt lat="47.28088" lon="-2.35668">
        <ele>9.6000003814697</ele>
        <time>2020-10-08T10:01:53.000Z</time>
      </trkpt>
      <trkpt lat="47.28083" lon="-2.35651">
        <ele>9.6000003814697</ele>
        <time>2020-10-08T10:01:55.000Z</time>
      </trkpt>
      <trkpt lat="47.28075" lon="-2.35625">
        <ele>9</ele>
        <time>2020-10-08T10:01:58.000Z</time>
      </trkpt>
      <trkpt lat="47.28072" lon="-2.3562">
        <ele>8.6000003814697</ele>
        <time>2020-10-08T10:01:59.000Z</time>
      </trkpt>
      <trkpt lat="47.28069" lon="-2.35618">
        <ele>8.1999998092651</ele>
        <time>2020-10-08T10:02:00.000Z</time>
      </trkpt>
      <trkpt lat="47.28066" lon="-2.35617">
        <ele>7.5999999046326</ele>
        <time>2020-10-08T10:02:01.000Z</time>
      </trkpt>
      <trkpt lat="47.28062" lon="-2.35619">
        <ele>7</ele>
        <time>2020-10-08T10:02:02.000Z</time>
      </trkpt>
      <trkpt lat="47.28058" lon="-2.35617">
        <ele>6.4000000953674</ele>
        <time>2020-10-08T10:02:03.000Z</time>
      </trkpt>
      <trkpt lat="47.28055" lon="-2.35615">
        <ele>5.8000001907349</ele>
        <time>2020-10-08T10:02:04.000Z</time>
      </trkpt>
      <trkpt lat="47.28051" lon="-2.35613">
        <ele>5.1999998092651</ele>
        <time>2020-10-08T10:02:05.000Z</time>
      </trkpt>
      <trkpt lat="47.28047" lon="-2.35611">
        <ele>5.1999998092651</ele>
        <time>2020-10-08T10:02:06.000Z</time>
      </trkpt>
      <trkpt lat="47.28039" lon="-2.35606">
        <ele>5.1999998092651</ele>
        <time>2020-10-08T10:02:08.000Z</time>
      </trkpt>
      <trkpt lat="47.28033" lon="-2.35588">
        <ele>5.1999998092651</ele>
        <time>2020-10-08T10:02:11.000Z</time>
      </trkpt>
      <trkpt lat="47.28026" lon="-2.35573">
        <ele>5.1999998092651</ele>
        <time>2020-10-08T10:02:14.000Z</time>
      </trkpt>
      <trkpt lat="47.28026" lon="-2.35572">
        <ele>4.8000001907349</ele>
        <time>2020-10-08T10:02:15.000Z</time>
      </trkpt>
      <trkpt lat="47.28025" lon="-2.35569">
        <ele>3</ele>
        <time>2020-10-08T10:08:17.000Z</time>
      </trkpt>
      <trkpt lat="47.28024" lon="-2.35567">
        <ele>3</ele>
        <time>2020-10-08T10:08:18.000Z</time>
      </trkpt>
      <trkpt lat="47.28015" lon="-2.35561">
        <ele>3</ele>
        <time>2020-10-08T10:08:22.000Z</time>
      </trkpt>
      <trkpt lat="47.28003" lon="-2.35562">
        <ele>3</ele>
        <time>2020-10-08T10:08:26.000Z</time>
      </trkpt>
      <trkpt lat="47.28001" lon="-2.35563">
        <ele>3</ele>
        <time>2020-10-08T10:08:27.000Z</time>
      </trkpt>
      <trkpt lat="47.27981" lon="-2.35571">
        <ele>3</ele>
        <time>2020-10-08T10:08:33.000Z</time>
      </trkpt>
      <trkpt lat="47.27953" lon="-2.35584">
        <ele>3</ele>
        <time>2020-10-08T10:08:40.000Z</time>
      </trkpt>
      <trkpt lat="47.27918" lon="-2.35592">
        <ele>3</ele>
        <time>2020-10-08T10:08:47.000Z</time>
      </trkpt>
      <trkpt lat="47.27889" lon="-2.35597">
        <ele>3</ele>
        <time>2020-10-08T10:08:52.000Z</time>
      </trkpt>
      <trkpt lat="47.27849" lon="-2.35607">
        <ele>3</ele>
        <time>2020-10-08T10:08:58.000Z</time>
      </trkpt>
      <trkpt lat="47.27829" lon="-2.35612">
        <ele>2.5999999046326</ele>
        <time>2020-10-08T10:09:01.000Z</time>
      </trkpt>
      <trkpt lat="47.27822" lon="-2.35613">
        <ele>2.2000000476837</ele>
        <time>2020-10-08T10:09:02.000Z</time>
      </trkpt>
      <trkpt lat="47.27815" lon="-2.35614">
        <ele>1.7999999523163</ele>
        <time>2020-10-08T10:09:03.000Z</time>
      </trkpt>
      <trkpt lat="47.27809" lon="-2.35616">
        <ele>1.2000000476837</ele>
        <time>2020-10-08T10:09:04.000Z</time>
      </trkpt>
      <trkpt lat="47.27802" lon="-2.35618">
        <ele>0.80000001192093</ele>
        <time>2020-10-08T10:09:05.000Z</time>
      </trkpt>
      <trkpt lat="47.27777" lon="-2.35634">
        <ele>0.80000001192093</ele>
        <time>2020-10-08T10:09:09.000Z</time>
      </trkpt>
      <trkpt lat="47.27766" lon="-2.35645">
        <ele>0.80000001192093</ele>
        <time>2020-10-08T10:09:11.000Z</time>
      </trkpt>
      <trkpt lat="47.27752" lon="-2.35663">
        <ele>0.40000000596046</ele>
        <time>2020-10-08T10:09:14.000Z</time>
      </trkpt>
      <trkpt lat="47.27748" lon="-2.3567">
        <ele>13</ele>
        <time>2020-10-08T10:09:15.000Z</time>
      </trkpt>
      <trkpt lat="47.27743" lon="-2.35676">
        <ele>-0.40000000596046</ele>
        <time>2020-10-08T10:09:16.000Z</time>
      </trkpt>
      <trkpt lat="47.27739" lon="-2.35683">
        <ele>-0.80000001192093</ele>
        <time>2020-10-08T10:09:17.000Z</time>
      </trkpt>
      <trkpt lat="47.27734" lon="-2.3569">
        <ele>-1.2000000476837</ele>
        <time>2020-10-08T10:09:18.000Z</time>
      </trkpt>
      <trkpt lat="47.2771" lon="-2.35721">
        <ele>-1.2000000476837</ele>
        <time>2020-10-08T10:09:23.000Z</time>
      </trkpt>
      <trkpt lat="47.27704" lon="-2.35726">
        <ele>-1.2000000476837</ele>
        <time>2020-10-08T10:09:24.000Z</time>
      </trkpt>
      <trkpt lat="47.27687" lon="-2.3574">
        <ele>-1.6000000238419</ele>
        <time>2020-10-08T10:09:27.000Z</time>
      </trkpt>
      <trkpt lat="47.27682" lon="-2.35745">
        <ele>-2</ele>
        <time>2020-10-08T10:09:28.000Z</time>
      </trkpt>
      <trkpt lat="47.27677" lon="-2.35747">
        <ele>-2.5999999046326</ele>
        <time>2020-10-08T10:09:29.000Z</time>
      </trkpt>
      <trkpt lat="47.27672" lon="-2.35746">
        <ele>-3</ele>
        <time>2020-10-08T10:09:30.000Z</time>
      </trkpt>
      <trkpt lat="47.27667" lon="-2.35741">
        <ele>-3.7999999523163</ele>
        <time>2020-10-08T10:09:31.000Z</time>
      </trkpt>
      <trkpt lat="47.27663" lon="-2.35736">
        <ele>-4.1999998092651</ele>
        <time>2020-10-08T10:09:32.000Z</time>
      </trkpt>
      <trkpt lat="47.27659" lon="-2.35731">
        <ele>-4.8000001907349</ele>
        <time>2020-10-08T10:09:33.000Z</time>
      </trkpt>
      <trkpt lat="47.27655" lon="-2.35726">
        <ele>-5.1999998092651</ele>
        <time>2020-10-08T10:09:34.000Z</time>
      </trkpt>
      <trkpt lat="47.2765" lon="-2.35722">
        <ele>-5.5999999046326</ele>
        <time>2020-10-08T10:09:35.000Z</time>
      </trkpt>
      <trkpt lat="47.27638" lon="-2.35717">
        <ele>-5.5999999046326</ele>
        <time>2020-10-08T10:09:37.000Z</time>
      </trkpt>
      <trkpt lat="47.27595" lon="-2.35705">
        <ele>-5.5999999046326</ele>
        <time>2020-10-08T10:09:43.000Z</time>
      </trkpt>
      <trkpt lat="47.27551" lon="-2.35694">
        <ele>-6</ele>
        <time>2020-10-08T10:09:49.000Z</time>
      </trkpt>
      <trkpt lat="47.27543" lon="-2.35692">
        <ele>-6.4000000953674</ele>
        <time>2020-10-08T10:09:50.000Z</time>
      </trkpt>
      <trkpt lat="47.27536" lon="-2.3569">
        <ele>-6.8000001907349</ele>
        <time>2020-10-08T10:09:51.000Z</time>
      </trkpt>
      <trkpt lat="47.27528" lon="-2.35688">
        <ele>-7.1999998092651</ele>
        <time>2020-10-08T10:09:52.000Z</time>
      </trkpt>
      <trkpt lat="47.27521" lon="-2.35686">
        <ele>-7.5999999046326</ele>
        <time>2020-10-08T10:09:53.000Z</time>
      </trkpt>
      <trkpt lat="47.27477" lon="-2.35677">
        <ele>-7.5999999046326</ele>
        <time>2020-10-08T10:09:59.000Z</time>
      </trkpt>
      <trkpt lat="47.27449" lon="-2.35672">
        <ele>-7.5999999046326</ele>
        <time>2020-10-08T10:10:03.000Z</time>
      </trkpt>
      <trkpt lat="47.27435" lon="-2.3567">
        <ele>-7.5999999046326</ele>
        <time>2020-10-08T10:10:05.000Z</time>
      </trkpt>
      <trkpt lat="47.27415" lon="-2.35667">
        <ele>-7.5999999046326</ele>
        <time>2020-10-08T10:10:08.000Z</time>
      </trkpt>
      <trkpt lat="47.27401" lon="-2.35672">
        <ele>-7.5999999046326</ele>
        <time>2020-10-08T10:10:10.000Z</time>
      </trkpt>
      <trkpt lat="47.27367" lon="-2.35695">
        <ele>-7.5999999046326</ele>
        <time>2020-10-08T10:10:15.000Z</time>
      </trkpt>
      <trkpt lat="47.27334" lon="-2.35719">
        <ele>-8</ele>
        <time>2020-10-08T10:10:21.000Z</time>
      </trkpt>
      <trkpt lat="47.27331" lon="-2.35722">
        <ele>-8.6000003814697</ele>
        <time>2020-10-08T10:10:22.000Z</time>
      </trkpt>
      <trkpt lat="47.27327" lon="-2.35726">
        <ele>-9</ele>
        <time>2020-10-08T10:10:23.000Z</time>
      </trkpt>
      <trkpt lat="47.27324" lon="-2.3573">
        <ele>-9.3999996185303</ele>
        <time>2020-10-08T10:10:24.000Z</time>
      </trkpt>
      <trkpt lat="47.27322" lon="-2.35735">
        <ele>-9.8000001907349</ele>
        <time>2020-10-08T10:10:25.000Z</time>
      </trkpt>
      <trkpt lat="47.27316" lon="-2.35741">
        <ele>-9.8000001907349</ele>
        <time>2020-10-08T10:10:27.000Z</time>
      </trkpt>
      <trkpt lat="47.27312" lon="-2.3574">
        <ele>-9.8000001907349</ele>
        <time>2020-10-08T10:10:28.000Z</time>
      </trkpt>
      <trkpt lat="47.27304" lon="-2.35724">
        <ele>-9.8000001907349</ele>
        <time>2020-10-08T10:10:31.000Z</time>
      </trkpt>
      <trkpt lat="47.27301" lon="-2.35718">
        <ele>-10.199999809265</ele>
        <time>2020-10-08T10:10:32.000Z</time>
      </trkpt>
      <trkpt lat="47.27299" lon="-2.35711">
        <ele>-10.60000038147</ele>
        <time>2020-10-08T10:10:33.000Z</time>
      </trkpt>
      <trkpt lat="47.27296" lon="-2.35705">
        <ele>-11.199999809265</ele>
        <time>2020-10-08T10:10:34.000Z</time>
      </trkpt>
      <trkpt lat="47.27292" lon="-2.35699">
        <ele>-11.60000038147</ele>
        <time>2020-10-08T10:10:35.000Z</time>
      </trkpt>
      <trkpt lat="47.27289" lon="-2.35692">
        <ele>-12</ele>
        <time>2020-10-08T10:10:36.000Z</time>
      </trkpt>
      <trkpt lat="47.27286" lon="-2.35686">
        <ele>-12</ele>
        <time>2020-10-08T10:10:37.000Z</time>
      </trkpt>
      <trkpt lat="47.27256" lon="-2.35617">
        <ele>-12</ele>
        <time>2020-10-08T10:10:47.000Z</time>
      </trkpt>
      <trkpt lat="47.27233" lon="-2.35565">
        <ele>-12</ele>
        <time>2020-10-08T10:10:54.000Z</time>
      </trkpt>
      <trkpt lat="47.27223" lon="-2.35542">
        <ele>-11.60000038147</ele>
        <time>2020-10-08T10:10:57.000Z</time>
      </trkpt>
      <trkpt lat="47.27219" lon="-2.35534">
        <ele>-11.199999809265</ele>
        <time>2020-10-08T10:10:58.000Z</time>
      </trkpt>
      <trkpt lat="47.27216" lon="-2.35527">
        <ele>-10.60000038147</ele>
        <time>2020-10-08T10:10:59.000Z</time>
      </trkpt>
      <trkpt lat="47.27212" lon="-2.3552">
        <ele>-10.199999809265</ele>
        <time>2020-10-08T10:11:00.000Z</time>
      </trkpt>
      <trkpt lat="47.27209" lon="-2.35512">
        <ele>-9.8000001907349</ele>
        <time>2020-10-08T10:11:01.000Z</time>
      </trkpt>
      <trkpt lat="47.27198" lon="-2.35489">
        <ele>-9.8000001907349</ele>
        <time>2020-10-08T10:11:04.000Z</time>
      </trkpt>
      <trkpt lat="47.27166" lon="-2.3543">
        <ele>-9.8000001907349</ele>
        <time>2020-10-08T10:11:12.000Z</time>
      </trkpt>
      <trkpt lat="47.27132" lon="-2.35367">
        <ele>-9.8000001907349</ele>
        <time>2020-10-08T10:11:20.000Z</time>
      </trkpt>
      <trkpt lat="47.27128" lon="-2.35359">
        <ele>-9.8000001907349</ele>
        <time>2020-10-08T10:11:21.000Z</time>
      </trkpt>
      <trkpt lat="47.27092" lon="-2.353">
        <ele>-9.8000001907349</ele>
        <time>2020-10-08T10:11:29.000Z</time>
      </trkpt>
      <trkpt lat="47.27082" lon="-2.35286">
        <ele>-9.8000001907349</ele>
        <time>2020-10-08T10:11:31.000Z</time>
      </trkpt>
      <trkpt lat="47.27042" lon="-2.35223">
        <ele>-9.8000001907349</ele>
        <time>2020-10-08T10:11:40.000Z</time>
      </trkpt>
      <trkpt lat="47.27005" lon="-2.35166">
        <ele>-9.8000001907349</ele>
        <time>2020-10-08T10:11:48.000Z</time>
      </trkpt>
      <trkpt lat="47.26963" lon="-2.35102">
        <ele>-9.8000001907349</ele>
        <time>2020-10-08T10:11:57.000Z</time>
      </trkpt>
      <trkpt lat="47.26959" lon="-2.35095">
        <ele>-9.8000001907349</ele>
        <time>2020-10-08T10:11:58.000Z</time>
      </trkpt>
      <trkpt lat="47.26917" lon="-2.35034">
        <ele>-9.8000001907349</ele>
        <time>2020-10-08T10:12:07.000Z</time>
      </trkpt>
      <trkpt lat="47.26908" lon="-2.3502">
        <ele>-9.8000001907349</ele>
        <time>2020-10-08T10:12:09.000Z</time>
      </trkpt>
      <trkpt lat="47.26872" lon="-2.34966">
        <ele>-9.8000001907349</ele>
        <time>2020-10-08T10:12:17.000Z</time>
      </trkpt>
      <trkpt lat="47.26831" lon="-2.34904">
        <ele>-9.8000001907349</ele>
        <time>2020-10-08T10:12:26.000Z</time>
      </trkpt>
      <trkpt lat="47.268" lon="-2.34858">
        <ele>-9.8000001907349</ele>
        <time>2020-10-08T10:12:33.000Z</time>
      </trkpt>
      <trkpt lat="47.26762" lon="-2.34807">
        <ele>-9.8000001907349</ele>
        <time>2020-10-08T10:12:41.000Z</time>
      </trkpt>
      <trkpt lat="47.26733" lon="-2.3477">
        <ele>-9.8000001907349</ele>
        <time>2020-10-08T10:12:47.000Z</time>
      </trkpt>
      <trkpt lat="47.26694" lon="-2.34721">
        <ele>-9.8000001907349</ele>
        <time>2020-10-08T10:12:55.000Z</time>
      </trkpt>
      <trkpt lat="47.26655" lon="-2.34673">
        <ele>-9.8000001907349</ele>
        <time>2020-10-08T10:13:03.000Z</time>
      </trkpt>
      <trkpt lat="47.26646" lon="-2.34661">
        <ele>-9.8000001907349</ele>
        <time>2020-10-08T10:13:05.000Z</time>
      </trkpt>
      <trkpt lat="47.26616" lon="-2.34625">
        <ele>-9.8000001907349</ele>
        <time>2020-10-08T10:13:11.000Z</time>
      </trkpt>
      <trkpt lat="47.26577" lon="-2.34578">
        <ele>-9.8000001907349</ele>
        <time>2020-10-08T10:13:19.000Z</time>
      </trkpt>
      <trkpt lat="47.2653" lon="-2.34532">
        <ele>-9.8000001907349</ele>
        <time>2020-10-08T10:13:28.000Z</time>
      </trkpt>
      <trkpt lat="47.26525" lon="-2.34527">
        <ele>-9.8000001907349</ele>
        <time>2020-10-08T10:13:29.000Z</time>
      </trkpt>
      <trkpt lat="47.26487" lon="-2.34498">
        <ele>-9.8000001907349</ele>
        <time>2020-10-08T10:13:36.000Z</time>
      </trkpt>
      <trkpt lat="47.26442" lon="-2.34466">
        <ele>-9.8000001907349</ele>
        <time>2020-10-08T10:13:44.000Z</time>
      </trkpt>
      <trkpt lat="47.26393" lon="-2.34428">
        <ele>-9.8000001907349</ele>
        <time>2020-10-08T10:13:53.000Z</time>
      </trkpt>
      <trkpt lat="47.26387" lon="-2.34424">
        <ele>-9.8000001907349</ele>
        <time>2020-10-08T10:13:55.000Z</time>
      </trkpt>
      <trkpt lat="47.26347" lon="-2.34387">
        <ele>-9.8000001907349</ele>
        <time>2020-10-08T10:14:03.000Z</time>
      </trkpt>
      <trkpt lat="47.26337" lon="-2.3438">
        <ele>-9.8000001907349</ele>
        <time>2020-10-08T10:14:05.000Z</time>
      </trkpt>
      <trkpt lat="47.26325" lon="-2.34377">
        <ele>-9.8000001907349</ele>
        <time>2020-10-08T10:14:07.000Z</time>
      </trkpt>
      <trkpt lat="47.26313" lon="-2.3436">
        <ele>-9.8000001907349</ele>
        <time>2020-10-08T10:14:10.000Z</time>
      </trkpt>
      <trkpt lat="47.263" lon="-2.34343">
        <ele>-9.8000001907349</ele>
        <time>2020-10-08T10:14:13.000Z</time>
      </trkpt>
      <trkpt lat="47.26295" lon="-2.34338">
        <ele>-9.8000001907349</ele>
        <time>2020-10-08T10:14:14.000Z</time>
      </trkpt>
      <trkpt lat="47.26262" lon="-2.34303">
        <ele>-9.8000001907349</ele>
        <time>2020-10-08T10:14:21.000Z</time>
      </trkpt>
      <trkpt lat="47.26218" lon="-2.34256">
        <ele>-9.8000001907349</ele>
        <time>2020-10-08T10:14:30.000Z</time>
      </trkpt>
      <trkpt lat="47.2617" lon="-2.34209">
        <ele>-9.8000001907349</ele>
        <time>2020-10-08T10:14:39.000Z</time>
      </trkpt>
      <trkpt lat="47.26145" lon="-2.34186">
        <ele>-9.8000001907349</ele>
        <time>2020-10-08T10:14:44.000Z</time>
      </trkpt>
      <trkpt lat="47.26133" lon="-2.34181">
        <ele>-9.8000001907349</ele>
        <time>2020-10-08T10:14:46.000Z</time>
      </trkpt>
      <trkpt lat="47.26119" lon="-2.34167">
        <ele>-9.8000001907349</ele>
        <time>2020-10-08T10:14:49.000Z</time>
      </trkpt>
      <trkpt lat="47.26114" lon="-2.34163">
        <ele>-9.8000001907349</ele>
        <time>2020-10-08T10:14:50.000Z</time>
      </trkpt>
      <trkpt lat="47.26086" lon="-2.34148">
        <ele>-9.8000001907349</ele>
        <time>2020-10-08T10:14:55.000Z</time>
      </trkpt>
      <trkpt lat="47.26047" lon="-2.34128">
        <ele>-9.8000001907349</ele>
        <time>2020-10-08T10:15:02.000Z</time>
      </trkpt>
      <trkpt lat="47.26002" lon="-2.34105">
        <ele>-9.8000001907349</ele>
        <time>2020-10-08T10:15:10.000Z</time>
      </trkpt>
      <trkpt lat="47.25969" lon="-2.34089">
        <ele>-10.39999961853</ele>
        <time>2020-10-08T10:15:16.000Z</time>
      </trkpt>
      <trkpt lat="47.25964" lon="-2.34087">
        <ele>-11.199999809265</ele>
        <time>2020-10-08T10:15:17.000Z</time>
      </trkpt>
      <trkpt lat="47.25959" lon="-2.34085">
        <ele>-11.60000038147</ele>
        <time>2020-10-08T10:15:18.000Z</time>
      </trkpt>
      <trkpt lat="47.25953" lon="-2.34082">
        <ele>-12</ele>
        <time>2020-10-08T10:15:19.000Z</time>
      </trkpt>
      <trkpt lat="47.25922" lon="-2.34071">
        <ele>-12</ele>
        <time>2020-10-08T10:15:25.000Z</time>
      </trkpt>
      <trkpt lat="47.25906" lon="-2.34067">
        <ele>-12</ele>
        <time>2020-10-08T10:15:28.000Z</time>
      </trkpt>
      <trkpt lat="47.25902" lon="-2.34062">
        <ele>-12</ele>
        <time>2020-10-08T10:15:29.000Z</time>
      </trkpt>
      <trkpt lat="47.25896" lon="-2.3404">
        <ele>-12</ele>
        <time>2020-10-08T10:15:32.000Z</time>
      </trkpt>
      <trkpt lat="47.25901" lon="-2.34019">
        <ele>-12</ele>
        <time>2020-10-08T10:15:35.000Z</time>
      </trkpt>
      <trkpt lat="47.25908" lon="-2.33994">
        <ele>-12</ele>
        <time>2020-10-08T10:15:38.000Z</time>
      </trkpt>
      <trkpt lat="47.2591" lon="-2.33985">
        <ele>-12</ele>
        <time>2020-10-08T10:15:39.000Z</time>
      </trkpt>
      <trkpt lat="47.25913" lon="-2.33978">
        <ele>-12</ele>
        <time>2020-10-08T10:15:40.000Z</time>
      </trkpt>
      <trkpt lat="47.25926" lon="-2.33948">
        <ele>-12</ele>
        <time>2020-10-08T10:15:44.000Z</time>
      </trkpt>
      <trkpt lat="47.25944" lon="-2.33918">
        <ele>-12</ele>
        <time>2020-10-08T10:15:49.000Z</time>
      </trkpt>
      <trkpt lat="47.2595" lon="-2.33899">
        <ele>-12</ele>
        <time>2020-10-08T10:15:52.000Z</time>
      </trkpt>
      <trkpt lat="47.25963" lon="-2.33857">
        <ele>-12</ele>
        <time>2020-10-08T10:15:58.000Z</time>
      </trkpt>
      <trkpt lat="47.25964" lon="-2.33849">
        <ele>-12</ele>
        <time>2020-10-08T10:15:59.000Z</time>
      </trkpt>
      <trkpt lat="47.25983" lon="-2.33786">
        <ele>-12</ele>
        <time>2020-10-08T10:16:07.000Z</time>
      </trkpt>
      <trkpt lat="47.26001" lon="-2.33729">
        <ele>-12</ele>
        <time>2020-10-08T10:16:14.000Z</time>
      </trkpt>
      <trkpt lat="47.26004" lon="-2.33721">
        <ele>-12</ele>
        <time>2020-10-08T10:16:15.000Z</time>
      </trkpt>
      <trkpt lat="47.26015" lon="-2.33688">
        <ele>-12</ele>
        <time>2020-10-08T10:16:19.000Z</time>
      </trkpt>
      <trkpt lat="47.2602" lon="-2.33671">
        <ele>-12</ele>
        <time>2020-10-08T10:16:21.000Z</time>
      </trkpt>
      <trkpt lat="47.26023" lon="-2.33653">
        <ele>-12</ele>
        <time>2020-10-08T10:16:23.000Z</time>
      </trkpt>
      <trkpt lat="47.26021" lon="-2.33616">
        <ele>-12</ele>
        <time>2020-10-08T10:16:27.000Z</time>
      </trkpt>
      <trkpt lat="47.26019" lon="-2.33607">
        <ele>-12</ele>
        <time>2020-10-08T10:16:28.000Z</time>
      </trkpt>
      <trkpt lat="47.26009" lon="-2.33582">
        <ele>-12</ele>
        <time>2020-10-08T10:16:31.000Z</time>
      </trkpt>
      <trkpt lat="47.26001" lon="-2.33566">
        <ele>-12</ele>
        <time>2020-10-08T10:16:33.000Z</time>
      </trkpt>
      <trkpt lat="47.25985" lon="-2.33537">
        <ele>-12</ele>
        <time>2020-10-08T10:16:37.000Z</time>
      </trkpt>
      <trkpt lat="47.25969" lon="-2.3351">
        <ele>-12</ele>
        <time>2020-10-08T10:16:41.000Z</time>
      </trkpt>
      <trkpt lat="47.25962" lon="-2.335">
        <ele>-12</ele>
        <time>2020-10-08T10:16:43.000Z</time>
      </trkpt>
      <trkpt lat="47.25959" lon="-2.33495">
        <ele>-12</ele>
        <time>2020-10-08T10:16:44.000Z</time>
      </trkpt>
      <trkpt lat="47.25953" lon="-2.33477">
        <ele>-12</ele>
        <time>2020-10-08T10:16:47.000Z</time>
      </trkpt>
      <trkpt lat="47.2595" lon="-2.33471">
        <ele>-12</ele>
        <time>2020-10-08T10:16:48.000Z</time>
      </trkpt>
      <trkpt lat="47.25937" lon="-2.33445">
        <ele>-12</ele>
        <time>2020-10-08T10:16:52.000Z</time>
      </trkpt>
      <trkpt lat="47.25928" lon="-2.33424">
        <ele>-12</ele>
        <time>2020-10-08T10:16:55.000Z</time>
      </trkpt>
      <trkpt lat="47.25921" lon="-2.33401">
        <ele>-12</ele>
        <time>2020-10-08T10:16:58.000Z</time>
      </trkpt>
      <trkpt lat="47.25908" lon="-2.3334">
        <ele>-12</ele>
        <time>2020-10-08T10:17:05.000Z</time>
      </trkpt>
      <trkpt lat="47.25904" lon="-2.33303">
        <ele>-12</ele>
        <time>2020-10-08T10:17:09.000Z</time>
      </trkpt>
      <trkpt lat="47.25904" lon="-2.33285">
        <ele>-12</ele>
        <time>2020-10-08T10:17:11.000Z</time>
      </trkpt>
      <trkpt lat="47.25903" lon="-2.33209">
        <ele>-12</ele>
        <time>2020-10-08T10:17:19.000Z</time>
      </trkpt>
      <trkpt lat="47.25895" lon="-2.33135">
        <ele>-12</ele>
        <time>2020-10-08T10:17:27.000Z</time>
      </trkpt>
      <trkpt lat="47.25881" lon="-2.33085">
        <ele>-12</ele>
        <time>2020-10-08T10:17:33.000Z</time>
      </trkpt>
      <trkpt lat="47.25872" lon="-2.33056">
        <ele>-11.60000038147</ele>
        <time>2020-10-08T10:17:37.000Z</time>
      </trkpt>
      <trkpt lat="47.2587" lon="-2.33049">
        <ele>-11.199999809265</ele>
        <time>2020-10-08T10:17:38.000Z</time>
      </trkpt>
      <trkpt lat="47.25868" lon="-2.33042">
        <ele>-10.800000190735</ele>
        <time>2020-10-08T10:17:39.000Z</time>
      </trkpt>
      <trkpt lat="47.25866" lon="-2.33035">
        <ele>-10.199999809265</ele>
        <time>2020-10-08T10:17:40.000Z</time>
      </trkpt>
      <trkpt lat="47.25864" lon="-2.33028">
        <ele>-9.8000001907349</ele>
        <time>2020-10-08T10:17:41.000Z</time>
      </trkpt>
      <trkpt lat="47.2585" lon="-2.32995">
        <ele>-9.8000001907349</ele>
        <time>2020-10-08T10:17:46.000Z</time>
      </trkpt>
      <trkpt lat="47.2583" lon="-2.32967">
        <ele>-9.3999996185303</ele>
        <time>2020-10-08T10:17:51.000Z</time>
      </trkpt>
      <trkpt lat="47.25826" lon="-2.32962">
        <ele>-9</ele>
        <time>2020-10-08T10:17:52.000Z</time>
      </trkpt>
      <trkpt lat="47.25822" lon="-2.32956">
        <ele>-8.6000003814697</ele>
        <time>2020-10-08T10:17:53.000Z</time>
      </trkpt>
      <trkpt lat="47.25817" lon="-2.32951">
        <ele>-8.1999998092651</ele>
        <time>2020-10-08T10:17:54.000Z</time>
      </trkpt>
      <trkpt lat="47.25813" lon="-2.32945">
        <ele>-7.5999999046326</ele>
        <time>2020-10-08T10:17:55.000Z</time>
      </trkpt>
      <trkpt lat="47.25796" lon="-2.32923">
        <ele>-7.5999999046326</ele>
        <time>2020-10-08T10:17:59.000Z</time>
      </trkpt>
      <trkpt lat="47.25768" lon="-2.32885">
        <ele>-7.5999999046326</ele>
        <time>2020-10-08T10:18:06.000Z</time>
      </trkpt>
      <trkpt lat="47.25765" lon="-2.32878">
        <ele>-7.5999999046326</ele>
        <time>2020-10-08T10:18:07.000Z</time>
      </trkpt>
      <trkpt lat="47.25755" lon="-2.32859">
        <ele>-7.1999998092651</ele>
        <time>2020-10-08T10:18:10.000Z</time>
      </trkpt>
      <trkpt lat="47.25752" lon="-2.32852">
        <ele>-6.4000000953674</ele>
        <time>2020-10-08T10:18:11.000Z</time>
      </trkpt>
      <trkpt lat="47.25749" lon="-2.32846">
        <ele>-6</ele>
        <time>2020-10-08T10:18:12.000Z</time>
      </trkpt>
      <trkpt lat="47.25746" lon="-2.32839">
        <ele>-5.5999999046326</ele>
        <time>2020-10-08T10:18:13.000Z</time>
      </trkpt>
      <trkpt lat="47.25741" lon="-2.32825">
        <ele>-5.5999999046326</ele>
        <time>2020-10-08T10:18:15.000Z</time>
      </trkpt>
      <trkpt lat="47.2573" lon="-2.32777">
        <ele>-5.5999999046326</ele>
        <time>2020-10-08T10:18:21.000Z</time>
      </trkpt>
      <trkpt lat="47.25722" lon="-2.32716">
        <ele>-5.5999999046326</ele>
        <time>2020-10-08T10:18:28.000Z</time>
      </trkpt>
      <trkpt lat="47.25715" lon="-2.32636">
        <ele>-5.5999999046326</ele>
        <time>2020-10-08T10:18:36.000Z</time>
      </trkpt>
      <trkpt lat="47.25702" lon="-2.32579">
        <ele>-5.5999999046326</ele>
        <time>2020-10-08T10:18:42.000Z</time>
      </trkpt>
      <trkpt lat="47.25683" lon="-2.3252">
        <ele>-5.5999999046326</ele>
        <time>2020-10-08T10:18:48.000Z</time>
      </trkpt>
      <trkpt lat="47.25676" lon="-2.32499">
        <ele>-6.1999998092651</ele>
        <time>2020-10-08T10:18:50.000Z</time>
      </trkpt>
      <trkpt lat="47.25672" lon="-2.32489">
        <ele>-6.5999999046326</ele>
        <time>2020-10-08T10:18:51.000Z</time>
      </trkpt>
      <trkpt lat="47.25669" lon="-2.32479">
        <ele>-7</ele>
        <time>2020-10-08T10:18:52.000Z</time>
      </trkpt>
      <trkpt lat="47.25665" lon="-2.32468">
        <ele>-7.4000000953674</ele>
        <time>2020-10-08T10:18:53.000Z</time>
      </trkpt>
      <trkpt lat="47.25662" lon="-2.32458">
        <ele>-8</ele>
        <time>2020-10-08T10:18:54.000Z</time>
      </trkpt>
      <trkpt lat="47.25657" lon="-2.32437">
        <ele>-8</ele>
        <time>2020-10-08T10:18:56.000Z</time>
      </trkpt>
      <trkpt lat="47.25651" lon="-2.32407">
        <ele>-8</ele>
        <time>2020-10-08T10:18:59.000Z</time>
      </trkpt>
      <trkpt lat="47.25652" lon="-2.32386">
        <ele>-8</ele>
        <time>2020-10-08T10:19:01.000Z</time>
      </trkpt>
      <trkpt lat="47.25652" lon="-2.32377">
        <ele>-8.3999996185303</ele>
        <time>2020-10-08T10:19:02.000Z</time>
      </trkpt>
      <trkpt lat="47.25651" lon="-2.32367">
        <ele>-8.8000001907349</ele>
        <time>2020-10-08T10:19:03.000Z</time>
      </trkpt>
      <trkpt lat="47.25651" lon="-2.32357">
        <ele>-9.1999998092651</ele>
        <time>2020-10-08T10:19:04.000Z</time>
      </trkpt>
      <trkpt lat="47.2565" lon="-2.32347">
        <ele>-9.8000001907349</ele>
        <time>2020-10-08T10:19:05.000Z</time>
      </trkpt>
      <trkpt lat="47.2565" lon="-2.32337">
        <ele>-10.199999809265</ele>
        <time>2020-10-08T10:19:06.000Z</time>
      </trkpt>
      <trkpt lat="47.25649" lon="-2.32328">
        <ele>-10.199999809265</ele>
        <time>2020-10-08T10:19:07.000Z</time>
      </trkpt>
      <trkpt lat="47.25647" lon="-2.32293">
        <ele>-9.8000001907349</ele>
        <time>2020-10-08T10:19:11.000Z</time>
      </trkpt>
      <trkpt lat="47.25647" lon="-2.32284">
        <ele>-9.1999998092651</ele>
        <time>2020-10-08T10:19:12.000Z</time>
      </trkpt>
      <trkpt lat="47.25647" lon="-2.32276">
        <ele>-8.8000001907349</ele>
        <time>2020-10-08T10:19:13.000Z</time>
      </trkpt>
      <trkpt lat="47.25647" lon="-2.32267">
        <ele>-8.3999996185303</ele>
        <time>2020-10-08T10:19:14.000Z</time>
      </trkpt>
      <trkpt lat="47.25646" lon="-2.32259">
        <ele>-8</ele>
        <time>2020-10-08T10:19:15.000Z</time>
      </trkpt>
      <trkpt lat="47.25645" lon="-2.32243">
        <ele>-7.4000000953674</ele>
        <time>2020-10-08T10:19:17.000Z</time>
      </trkpt>
      <trkpt lat="47.25645" lon="-2.32235">
        <ele>-7</ele>
        <time>2020-10-08T10:19:18.000Z</time>
      </trkpt>
      <trkpt lat="47.25645" lon="-2.32228">
        <ele>-6.4000000953674</ele>
        <time>2020-10-08T10:19:19.000Z</time>
      </trkpt>
      <trkpt lat="47.25644" lon="-2.3222">
        <ele>-6</ele>
        <time>2020-10-08T10:19:20.000Z</time>
      </trkpt>
      <trkpt lat="47.25643" lon="-2.32213">
        <ele>-5.4000000953674</ele>
        <time>2020-10-08T10:19:21.000Z</time>
      </trkpt>
      <trkpt lat="47.2564" lon="-2.32198">
        <ele>-5</ele>
        <time>2020-10-08T10:19:23.000Z</time>
      </trkpt>
      <trkpt lat="47.25639" lon="-2.32191">
        <ele>-4.5999999046326</ele>
        <time>2020-10-08T10:19:24.000Z</time>
      </trkpt>
      <trkpt lat="47.25637" lon="-2.32183">
        <ele>-3.7999999523163</ele>
        <time>2020-10-08T10:19:25.000Z</time>
      </trkpt>
      <trkpt lat="47.25635" lon="-2.32176">
        <ele>-3.4000000953674</ele>
        <time>2020-10-08T10:19:26.000Z</time>
      </trkpt>
      <trkpt lat="47.25633" lon="-2.32168">
        <ele>-3.4000000953674</ele>
        <time>2020-10-08T10:19:27.000Z</time>
      </trkpt>
      <trkpt lat="47.25615" lon="-2.32116">
        <ele>-3.4000000953674</ele>
        <time>2020-10-08T10:19:34.000Z</time>
      </trkpt>
      <trkpt lat="47.25599" lon="-2.3207">
        <ele>-3</ele>
        <time>2020-10-08T10:19:40.000Z</time>
      </trkpt>
      <trkpt lat="47.25596" lon="-2.32062">
        <ele>-2.5999999046326</ele>
        <time>2020-10-08T10:19:41.000Z</time>
      </trkpt>
      <trkpt lat="47.25593" lon="-2.32055">
        <ele>-2.2000000476837</ele>
        <time>2020-10-08T10:19:42.000Z</time>
      </trkpt>
      <trkpt lat="47.2559" lon="-2.32048">
        <ele>-1.7999999523163</ele>
        <time>2020-10-08T10:19:43.000Z</time>
      </trkpt>
      <trkpt lat="47.25587" lon="-2.3204">
        <ele>-1.3999999761581</ele>
        <time>2020-10-08T10:19:44.000Z</time>
      </trkpt>
      <trkpt lat="47.25577" lon="-2.3201">
        <ele>-1.3999999761581</ele>
        <time>2020-10-08T10:19:48.000Z</time>
      </trkpt>
      <trkpt lat="47.25566" lon="-2.31963">
        <ele>-1.3999999761581</ele>
        <time>2020-10-08T10:19:54.000Z</time>
      </trkpt>
      <trkpt lat="47.2556" lon="-2.31916">
        <ele>-1.3999999761581</ele>
        <time>2020-10-08T10:20:01.000Z</time>
      </trkpt>
      <trkpt lat="47.25558" lon="-2.31914">
        <ele>-1.3999999761581</ele>
        <time>2020-10-08T10:20:02.000Z</time>
      </trkpt>
      <trkpt lat="47.25552" lon="-2.31913">
        <ele>-1.3999999761581</ele>
        <time>2020-10-08T10:20:04.000Z</time>
      </trkpt>
      <trkpt lat="47.25542" lon="-2.31918">
        <ele>-1</ele>
        <time>2020-10-08T10:20:07.000Z</time>
      </trkpt>
      <trkpt lat="47.25538" lon="-2.31918">
        <ele>-0.60000002384186</ele>
        <time>2020-10-08T10:20:08.000Z</time>
      </trkpt>
      <trkpt lat="47.25535" lon="-2.31916">
        <ele>17.7</ele>
        <time>2020-10-08T10:20:09.000Z</time>
      </trkpt>
      <trkpt lat="47.25532" lon="-2.31916">
        <ele>0.40000000596046</ele>
        <time>2020-10-08T10:20:10.000Z</time>
      </trkpt>
      <trkpt lat="47.2553" lon="-2.31913">
        <ele>0.80000001192093</ele>
        <time>2020-10-08T10:20:11.000Z</time>
      </trkpt>
      <trkpt lat="47.2553" lon="-2.31901">
        <ele>0.80000001192093</ele>
        <time>2020-10-08T10:20:14.000Z</time>
      </trkpt>
      <trkpt lat="47.25529" lon="-2.31886">
        <ele>0.80000001192093</ele>
        <time>2020-10-08T10:20:17.000Z</time>
      </trkpt>
      <trkpt lat="47.25527" lon="-2.31872">
        <ele>0.80000001192093</ele>
        <time>2020-10-08T10:20:20.000Z</time>
      </trkpt>
      <trkpt lat="47.25525" lon="-2.31851">
        <ele>0.80000001192093</ele>
        <time>2020-10-08T10:20:26.000Z</time>
      </trkpt>
      <trkpt lat="47.25525" lon="-2.31851">
        <ele>0.80000001192093</ele>
        <time>2020-10-08T10:20:27.000Z</time>
      </trkpt>
      <trkpt lat="47.25526" lon="-2.3185">
        <ele>2.7999999523163</ele>
        <time>2020-10-08T10:30:25.000Z</time>
      </trkpt>
      <trkpt lat="47.25527" lon="-2.31848">
        <ele>2.7999999523163</ele>
        <time>2020-10-08T10:30:26.000Z</time>
      </trkpt>
      <trkpt lat="47.25526" lon="-2.31843">
        <ele>2.7999999523163</ele>
        <time>2020-10-08T10:30:28.000Z</time>
      </trkpt>
      <trkpt lat="47.25525" lon="-2.31827">
        <ele>2.7999999523163</ele>
        <time>2020-10-08T10:30:32.000Z</time>
      </trkpt>
      <trkpt lat="47.25528" lon="-2.31813">
        <ele>2.7999999523163</ele>
        <time>2020-10-08T10:30:37.000Z</time>
      </trkpt>
      <trkpt lat="47.25543" lon="-2.31809">
        <ele>2.7999999523163</ele>
        <time>2020-10-08T10:30:41.000Z</time>
      </trkpt>
      <trkpt lat="47.25547" lon="-2.31807">
        <ele>2.7999999523163</ele>
        <time>2020-10-08T10:30:42.000Z</time>
      </trkpt>
      <trkpt lat="47.25554" lon="-2.318">
        <ele>2.7999999523163</ele>
        <time>2020-10-08T10:30:45.000Z</time>
      </trkpt>
      <trkpt lat="47.25556" lon="-2.31796">
        <ele>2.7999999523163</ele>
        <time>2020-10-08T10:30:46.000Z</time>
      </trkpt>
      <trkpt lat="47.25568" lon="-2.31773">
        <ele>2.7999999523163</ele>
        <time>2020-10-08T10:30:51.000Z</time>
      </trkpt>
      <trkpt lat="47.25584" lon="-2.31751">
        <ele>2.7999999523163</ele>
        <time>2020-10-08T10:30:55.000Z</time>
      </trkpt>
      <trkpt lat="47.25591" lon="-2.31728">
        <ele>2.7999999523163</ele>
        <time>2020-10-08T10:30:58.000Z</time>
      </trkpt>
      <trkpt lat="47.25594" lon="-2.31722">
        <ele>2.7999999523163</ele>
        <time>2020-10-08T10:30:59.000Z</time>
      </trkpt>
      <trkpt lat="47.25611" lon="-2.31709">
        <ele>2.7999999523163</ele>
        <time>2020-10-08T10:31:02.000Z</time>
      </trkpt>
      <trkpt lat="47.25625" lon="-2.31706">
        <ele>2.7999999523163</ele>
        <time>2020-10-08T10:31:04.000Z</time>
      </trkpt>
      <trkpt lat="47.25639" lon="-2.317">
        <ele>2.7999999523163</ele>
        <time>2020-10-08T10:31:06.000Z</time>
      </trkpt>
      <trkpt lat="47.2565" lon="-2.31688">
        <ele>2.4000000953674</ele>
        <time>2020-10-08T10:31:08.000Z</time>
      </trkpt>
      <trkpt lat="47.25654" lon="-2.3168">
        <ele>2</ele>
        <time>2020-10-08T10:31:09.000Z</time>
      </trkpt>
      <trkpt lat="47.25657" lon="-2.31669">
        <ele>1.6000000238419</ele>
        <time>2020-10-08T10:31:10.000Z</time>
      </trkpt>
      <trkpt lat="47.25659" lon="-2.31662">
        <ele>1</ele>
        <time>2020-10-08T10:31:11.000Z</time>
      </trkpt>
      <trkpt lat="47.25664" lon="-2.31659">
        <ele>0.60000002384186</ele>
        <time>2020-10-08T10:31:12.000Z</time>
      </trkpt>
      <trkpt lat="47.2567" lon="-2.31661">
        <ele>0.60000002384186</ele>
        <time>2020-10-08T10:31:13.000Z</time>
      </trkpt>
      <trkpt lat="47.25675" lon="-2.31662">
        <ele>0.60000002384186</ele>
        <time>2020-10-08T10:31:14.000Z</time>
      </trkpt>
      <trkpt lat="47.25679" lon="-2.31667">
        <ele>0.60000002384186</ele>
        <time>2020-10-08T10:31:15.000Z</time>
      </trkpt>
      <trkpt lat="47.2569" lon="-2.31673">
        <ele>0.20000000298023</ele>
        <time>2020-10-08T10:31:17.000Z</time>
      </trkpt>
      <trkpt lat="47.25697" lon="-2.31676">
        <ele>-0.20000000298023</ele>
        <time>2020-10-08T10:31:18.000Z</time>
      </trkpt>
      <trkpt lat="47.25703" lon="-2.31679">
        <ele>-0.60000002384186</ele>
        <time>2020-10-08T10:31:19.000Z</time>
      </trkpt>
      <trkpt lat="47.25709" lon="-2.31684">
        <ele>-1.2000000476837</ele>
        <time>2020-10-08T10:31:20.000Z</time>
      </trkpt>
      <trkpt lat="47.25716" lon="-2.3169">
        <ele>-1.6000000238419</ele>
        <time>2020-10-08T10:31:21.000Z</time>
      </trkpt>
      <trkpt lat="47.25722" lon="-2.31694">
        <ele>-1.6000000238419</ele>
        <time>2020-10-08T10:31:22.000Z</time>
      </trkpt>
      <trkpt lat="47.25742" lon="-2.31689">
        <ele>-1.6000000238419</ele>
        <time>2020-10-08T10:31:25.000Z</time>
      </trkpt>
      <trkpt lat="47.25754" lon="-2.31679">
        <ele>-1.6000000238419</ele>
        <time>2020-10-08T10:31:27.000Z</time>
      </trkpt>
      <trkpt lat="47.25765" lon="-2.3167">
        <ele>-1.6000000238419</ele>
        <time>2020-10-08T10:31:29.000Z</time>
      </trkpt>
      <trkpt lat="47.25812" lon="-2.31634">
        <ele>-1.6000000238419</ele>
        <time>2020-10-08T10:31:38.000Z</time>
      </trkpt>
      <trkpt lat="47.25831" lon="-2.31621">
        <ele>-1.6000000238419</ele>
        <time>2020-10-08T10:31:42.000Z</time>
      </trkpt>
      <trkpt lat="47.25839" lon="-2.31613">
        <ele>-1.6000000238419</ele>
        <time>2020-10-08T10:31:44.000Z</time>
      </trkpt>
      <trkpt lat="47.25868" lon="-2.31585">
        <ele>-1.6000000238419</ele>
        <time>2020-10-08T10:31:50.000Z</time>
      </trkpt>
      <trkpt lat="47.25885" lon="-2.31566">
        <ele>-1.6000000238419</ele>
        <time>2020-10-08T10:31:53.000Z</time>
      </trkpt>
      <trkpt lat="47.25889" lon="-2.31557">
        <ele>-1.6000000238419</ele>
        <time>2020-10-08T10:31:54.000Z</time>
      </trkpt>
      <trkpt lat="47.25904" lon="-2.31523">
        <ele>-1.6000000238419</ele>
        <time>2020-10-08T10:31:58.000Z</time>
      </trkpt>
      <trkpt lat="47.25907" lon="-2.31518">
        <ele>-2</ele>
        <time>2020-10-08T10:31:59.000Z</time>
      </trkpt>
      <trkpt lat="47.25909" lon="-2.31515">
        <ele>-2.4000000953674</ele>
        <time>2020-10-08T10:32:00.000Z</time>
      </trkpt>
      <trkpt lat="47.25912" lon="-2.31513">
        <ele>-3</ele>
        <time>2020-10-08T10:32:01.000Z</time>
      </trkpt>
      <trkpt lat="47.25914" lon="-2.3151">
        <ele>-3.4000000953674</ele>
        <time>2020-10-08T10:32:02.000Z</time>
      </trkpt>
      <trkpt lat="47.25916" lon="-2.31507">
        <ele>-3.7999999523163</ele>
        <time>2020-10-08T10:32:03.000Z</time>
      </trkpt>
      <trkpt lat="47.25915" lon="-2.31502">
        <ele>-3.7999999523163</ele>
        <time>2020-10-08T10:32:06.000Z</time>
      </trkpt>
      <trkpt lat="47.25915" lon="-2.31501">
        <ele>-3.7999999523163</ele>
        <time>2020-10-08T10:32:07.000Z</time>
      </trkpt>
      <trkpt lat="47.25919" lon="-2.31492">
        <ele>-3.7999999523163</ele>
        <time>2020-10-08T10:32:10.000Z</time>
      </trkpt>
      <trkpt lat="47.25921" lon="-2.31486">
        <ele>-3.7999999523163</ele>
        <time>2020-10-08T10:32:11.000Z</time>
      </trkpt>
      <trkpt lat="47.25929" lon="-2.31462">
        <ele>-3.7999999523163</ele>
        <time>2020-10-08T10:32:15.000Z</time>
      </trkpt>
      <trkpt lat="47.25932" lon="-2.31458">
        <ele>-3.7999999523163</ele>
        <time>2020-10-08T10:32:16.000Z</time>
      </trkpt>
      <trkpt lat="47.25936" lon="-2.31456">
        <ele>-4.1999998092651</ele>
        <time>2020-10-08T10:32:17.000Z</time>
      </trkpt>
      <trkpt lat="47.2594" lon="-2.31456">
        <ele>-4.8000001907349</ele>
        <time>2020-10-08T10:32:18.000Z</time>
      </trkpt>
      <trkpt lat="47.25945" lon="-2.31457">
        <ele>-5.1999998092651</ele>
        <time>2020-10-08T10:32:19.000Z</time>
      </trkpt>
      <trkpt lat="47.25949" lon="-2.31462">
        <ele>-5.5999999046326</ele>
        <time>2020-10-08T10:32:20.000Z</time>
      </trkpt>
      <trkpt lat="47.25954" lon="-2.31466">
        <ele>-6</ele>
        <time>2020-10-08T10:32:21.000Z</time>
      </trkpt>
      <trkpt lat="47.25962" lon="-2.31476">
        <ele>-6</ele>
        <time>2020-10-08T10:32:23.000Z</time>
      </trkpt>
      <trkpt lat="47.25966" lon="-2.31481">
        <ele>-6</ele>
        <time>2020-10-08T10:32:24.000Z</time>
      </trkpt>
      <trkpt lat="47.25974" lon="-2.315">
        <ele>-6</ele>
        <time>2020-10-08T10:32:27.000Z</time>
      </trkpt>
      <trkpt lat="47.25976" lon="-2.31507">
        <ele>-6</ele>
        <time>2020-10-08T10:32:28.000Z</time>
      </trkpt>
      <trkpt lat="47.25982" lon="-2.31519">
        <ele>-6</ele>
        <time>2020-10-08T10:32:30.000Z</time>
      </trkpt>
      <trkpt lat="47.2599" lon="-2.31536">
        <ele>-6</ele>
        <time>2020-10-08T10:32:33.000Z</time>
      </trkpt>
      <trkpt lat="47.26008" lon="-2.3156">
        <ele>-6</ele>
        <time>2020-10-08T10:32:38.000Z</time>
      </trkpt>
      <trkpt lat="47.26012" lon="-2.31562">
        <ele>-6</ele>
        <time>2020-10-08T10:32:39.000Z</time>
      </trkpt>
      <trkpt lat="47.26019" lon="-2.31558">
        <ele>-6</ele>
        <time>2020-10-08T10:32:41.000Z</time>
      </trkpt>
      <trkpt lat="47.26025" lon="-2.31548">
        <ele>-6</ele>
        <time>2020-10-08T10:32:43.000Z</time>
      </trkpt>
      <trkpt lat="47.26028" lon="-2.31543">
        <ele>-6</ele>
        <time>2020-10-08T10:32:44.000Z</time>
      </trkpt>
      <trkpt lat="47.26035" lon="-2.31536">
        <ele>-6</ele>
        <time>2020-10-08T10:32:46.000Z</time>
      </trkpt>
      <trkpt lat="47.26042" lon="-2.31533">
        <ele>-6</ele>
        <time>2020-10-08T10:32:48.000Z</time>
      </trkpt>
      <trkpt lat="47.26046" lon="-2.31534">
        <ele>-6</ele>
        <time>2020-10-08T10:32:49.000Z</time>
      </trkpt>
      <trkpt lat="47.26061" lon="-2.31543">
        <ele>-6</ele>
        <time>2020-10-08T10:32:53.000Z</time>
      </trkpt>
      <trkpt lat="47.26064" lon="-2.31548">
        <ele>-6.4000000953674</ele>
        <time>2020-10-08T10:32:54.000Z</time>
      </trkpt>
      <trkpt lat="47.26066" lon="-2.31553">
        <ele>-6.8000001907349</ele>
        <time>2020-10-08T10:32:55.000Z</time>
      </trkpt>
      <trkpt lat="47.26069" lon="-2.31558">
        <ele>-7.1999998092651</ele>
        <time>2020-10-08T10:32:56.000Z</time>
      </trkpt>
      <trkpt lat="47.26072" lon="-2.31563">
        <ele>-7.5999999046326</ele>
        <time>2020-10-08T10:32:57.000Z</time>
      </trkpt>
      <trkpt lat="47.26074" lon="-2.31568">
        <ele>-8.1999998092651</ele>
        <time>2020-10-08T10:32:58.000Z</time>
      </trkpt>
      <trkpt lat="47.2608" lon="-2.31575">
        <ele>-8.1999998092651</ele>
        <time>2020-10-08T10:33:00.000Z</time>
      </trkpt>
      <trkpt lat="47.26101" lon="-2.31603">
        <ele>-8.1999998092651</ele>
        <time>2020-10-08T10:33:06.000Z</time>
      </trkpt>
      <trkpt lat="47.26106" lon="-2.31609">
        <ele>-8.1999998092651</ele>
        <time>2020-10-08T10:33:07.000Z</time>
      </trkpt>
      <trkpt lat="47.26115" lon="-2.31615">
        <ele>-8.1999998092651</ele>
        <time>2020-10-08T10:33:09.000Z</time>
      </trkpt>
      <trkpt lat="47.26131" lon="-2.31615">
        <ele>-8.1999998092651</ele>
        <time>2020-10-08T10:33:12.000Z</time>
      </trkpt>
      <trkpt lat="47.2614" lon="-2.31613">
        <ele>-8.1999998092651</ele>
        <time>2020-10-08T10:33:14.000Z</time>
      </trkpt>
      <trkpt lat="47.26173" lon="-2.31601">
        <ele>-8.1999998092651</ele>
        <time>2020-10-08T10:33:20.000Z</time>
      </trkpt>
      <trkpt lat="47.26207" lon="-2.31591">
        <ele>-8.1999998092651</ele>
        <time>2020-10-08T10:33:26.000Z</time>
      </trkpt>
      <trkpt lat="47.26223" lon="-2.31594">
        <ele>-8.1999998092651</ele>
        <time>2020-10-08T10:33:29.000Z</time>
      </trkpt>
      <trkpt lat="47.26228" lon="-2.31597">
        <ele>-8.1999998092651</ele>
        <time>2020-10-08T10:33:30.000Z</time>
      </trkpt>
      <trkpt lat="47.26236" lon="-2.31604">
        <ele>-8.1999998092651</ele>
        <time>2020-10-08T10:33:32.000Z</time>
      </trkpt>
      <trkpt lat="47.26249" lon="-2.31619">
        <ele>-8.1999998092651</ele>
        <time>2020-10-08T10:33:35.000Z</time>
      </trkpt>
      <trkpt lat="47.26256" lon="-2.31631">
        <ele>-8.1999998092651</ele>
        <time>2020-10-08T10:33:37.000Z</time>
      </trkpt>
      <trkpt lat="47.26266" lon="-2.31653">
        <ele>-8.1999998092651</ele>
        <time>2020-10-08T10:33:41.000Z</time>
      </trkpt>
      <trkpt lat="47.26269" lon="-2.31658">
        <ele>-8.1999998092651</ele>
        <time>2020-10-08T10:33:42.000Z</time>
      </trkpt>
      <trkpt lat="47.26279" lon="-2.31678">
        <ele>-8.1999998092651</ele>
        <time>2020-10-08T10:33:46.000Z</time>
      </trkpt>
      <trkpt lat="47.26285" lon="-2.31689">
        <ele>-8.1999998092651</ele>
        <time>2020-10-08T10:33:48.000Z</time>
      </trkpt>
      <trkpt lat="47.26294" lon="-2.31699">
        <ele>-8.1999998092651</ele>
        <time>2020-10-08T10:33:50.000Z</time>
      </trkpt>
      <trkpt lat="47.26298" lon="-2.31704">
        <ele>-8.1999998092651</ele>
        <time>2020-10-08T10:33:51.000Z</time>
      </trkpt>
      <trkpt lat="47.26307" lon="-2.31708">
        <ele>-8.1999998092651</ele>
        <time>2020-10-08T10:33:53.000Z</time>
      </trkpt>
      <trkpt lat="47.2632" lon="-2.31703">
        <ele>-8.1999998092651</ele>
        <time>2020-10-08T10:33:56.000Z</time>
      </trkpt>
      <trkpt lat="47.26327" lon="-2.31698">
        <ele>-8.1999998092651</ele>
        <time>2020-10-08T10:33:58.000Z</time>
      </trkpt>
      <trkpt lat="47.26333" lon="-2.31688">
        <ele>-8.1999998092651</ele>
        <time>2020-10-08T10:34:01.000Z</time>
      </trkpt>
      <trkpt lat="47.26347" lon="-2.31683">
        <ele>-7.5999999046326</ele>
        <time>2020-10-08T10:34:05.000Z</time>
      </trkpt>
      <trkpt lat="47.2635" lon="-2.31681">
        <ele>-7.1999998092651</ele>
        <time>2020-10-08T10:34:06.000Z</time>
      </trkpt>
      <trkpt lat="47.26353" lon="-2.3168">
        <ele>-6.8000001907349</ele>
        <time>2020-10-08T10:34:07.000Z</time>
      </trkpt>
      <trkpt lat="47.26357" lon="-2.31678">
        <ele>-6.4000000953674</ele>
        <time>2020-10-08T10:34:08.000Z</time>
      </trkpt>
      <trkpt lat="47.26361" lon="-2.31676">
        <ele>-6</ele>
        <time>2020-10-08T10:34:09.000Z</time>
      </trkpt>
      <trkpt lat="47.26372" lon="-2.31672">
        <ele>-6</ele>
        <time>2020-10-08T10:34:12.000Z</time>
      </trkpt>
      <trkpt lat="47.26392" lon="-2.3166">
        <ele>-6</ele>
        <time>2020-10-08T10:34:18.000Z</time>
      </trkpt>
      <trkpt lat="47.26406" lon="-2.31647">
        <ele>-6</ele>
        <time>2020-10-08T10:34:23.000Z</time>
      </trkpt>
      <trkpt lat="47.26407" lon="-2.31628">
        <ele>-6</ele>
        <time>2020-10-08T10:34:27.000Z</time>
      </trkpt>
      <trkpt lat="47.26407" lon="-2.3159">
        <ele>-6</ele>
        <time>2020-10-08T10:34:34.000Z</time>
      </trkpt>
      <trkpt lat="47.26407" lon="-2.3157">
        <ele>-5.1999998092651</ele>
        <time>2020-10-08T10:34:38.000Z</time>
      </trkpt>
      <trkpt lat="47.26408" lon="-2.31565">
        <ele>-4.8000001907349</ele>
        <time>2020-10-08T10:34:39.000Z</time>
      </trkpt>
      <trkpt lat="47.26408" lon="-2.31561">
        <ele>-4.4000000953674</ele>
        <time>2020-10-08T10:34:40.000Z</time>
      </trkpt>
      <trkpt lat="47.26409" lon="-2.31557">
        <ele>-4</ele>
        <time>2020-10-08T10:34:41.000Z</time>
      </trkpt>
      <trkpt lat="47.26411" lon="-2.31554">
        <ele>-4</ele>
        <time>2020-10-08T10:34:42.000Z</time>
      </trkpt>
      <trkpt lat="47.26415" lon="-2.31554">
        <ele>-4</ele>
        <time>2020-10-08T10:34:45.000Z</time>
      </trkpt>
    </trkseg>
  </trk>
</gpx>